<?xml version="1.0" encoding="UTF-8" standalone="no" ?>
<gpx xmlns="http://www.topografix.com/GPX/1/1" xmlns:xsi="http://www.w3.org/2001/XMLSchema-instance" xsi:schemaLocation="http://www.topografix.com/GPX/1/1 http://www.topografix.com/GPX/1/1/gpx.xsd" version="1.1" creator="VisuGPX - https://www.visugpx.com">
  <metadata>
    <name>La Sambuis</name>
    <desc><![CDATA[
]]></desc>
  </metadata>
  <trk>
    <name><![CDATA[La Sambuis]]></name>
    <trkseg>
      <trkpt lat="45.28384" lon="6.21038">
        <ele>1218.9</ele>
        <time>2020-02-09T06:54:18Z</time>
      </trkpt>
      <trkpt lat="45.28386" lon="6.21041">
        <ele>1219.2</ele>
        <time>2020-02-09T06:54:59Z</time>
      </trkpt>
      <trkpt lat="45.28385" lon="6.21044">
        <ele>1218.2</ele>
        <time>2020-02-09T06:55:18Z</time>
      </trkpt>
      <trkpt lat="45.28383" lon="6.21046">
        <ele>1217.4</ele>
        <time>2020-02-09T06:55:21Z</time>
      </trkpt>
      <trkpt lat="45.28383" lon="6.21051">
        <ele>1216.5</ele>
        <time>2020-02-09T06:55:50Z</time>
      </trkpt>
      <trkpt lat="45.28386" lon="6.2105">
        <ele>1216.7</ele>
        <time>2020-02-09T06:56:16Z</time>
      </trkpt>
      <trkpt lat="45.28385" lon="6.21053">
        <ele>1216.5</ele>
        <time>2020-02-09T06:56:28Z</time>
      </trkpt>
      <trkpt lat="45.28387" lon="6.21052">
        <ele>1216.7</ele>
        <time>2020-02-09T06:56:53Z</time>
      </trkpt>
      <trkpt lat="45.28386" lon="6.21049">
        <ele>1217.5</ele>
        <time>2020-02-09T06:56:57Z</time>
      </trkpt>
      <trkpt lat="45.28383" lon="6.21046">
        <ele>1217.4</ele>
        <time>2020-02-09T06:57:00Z</time>
      </trkpt>
      <trkpt lat="45.2838" lon="6.21046">
        <ele>1217.2</ele>
        <time>2020-02-09T06:57:03Z</time>
      </trkpt>
      <trkpt lat="45.28378" lon="6.21042">
        <ele>1217.8</ele>
        <time>2020-02-09T06:57:09Z</time>
      </trkpt>
      <trkpt lat="45.28375" lon="6.21039">
        <ele>1218.3</ele>
        <time>2020-02-09T06:57:15Z</time>
      </trkpt>
      <trkpt lat="45.28372" lon="6.21038">
        <ele>1218.1</ele>
        <time>2020-02-09T06:57:18Z</time>
      </trkpt>
      <trkpt lat="45.2837" lon="6.21035">
        <ele>1218.5</ele>
        <time>2020-02-09T06:57:24Z</time>
      </trkpt>
      <trkpt lat="45.28369" lon="6.21031">
        <ele>1219.1</ele>
        <time>2020-02-09T06:57:31Z</time>
      </trkpt>
      <trkpt lat="45.28366" lon="6.21032">
        <ele>1218.9</ele>
        <time>2020-02-09T06:57:49Z</time>
      </trkpt>
      <trkpt lat="45.28364" lon="6.2103">
        <ele>1218.6</ele>
        <time>2020-02-09T06:57:52Z</time>
      </trkpt>
      <trkpt lat="45.28361" lon="6.21028">
        <ele>1219</ele>
        <time>2020-02-09T06:57:55Z</time>
      </trkpt>
      <trkpt lat="45.28358" lon="6.21026">
        <ele>1218.7</ele>
        <time>2020-02-09T06:57:58Z</time>
      </trkpt>
      <trkpt lat="45.28356" lon="6.21022">
        <ele>1219.3</ele>
        <time>2020-02-09T06:58:01Z</time>
      </trkpt>
      <trkpt lat="45.28354" lon="6.2102">
        <ele>1219</ele>
        <time>2020-02-09T06:58:04Z</time>
      </trkpt>
      <trkpt lat="45.28352" lon="6.21015">
        <ele>1220.2</ele>
        <time>2020-02-09T06:58:08Z</time>
      </trkpt>
      <trkpt lat="45.28351" lon="6.21012">
        <ele>1219.9</ele>
        <time>2020-02-09T06:58:11Z</time>
      </trkpt>
      <trkpt lat="45.28348" lon="6.21015">
        <ele>1219.6</ele>
        <time>2020-02-09T06:58:28Z</time>
      </trkpt>
      <trkpt lat="45.28346" lon="6.21017">
        <ele>1218.7</ele>
        <time>2020-02-09T06:58:46Z</time>
      </trkpt>
      <trkpt lat="45.28349" lon="6.21017">
        <ele>1219</ele>
        <time>2020-02-09T06:58:50Z</time>
      </trkpt>
      <trkpt lat="45.28351" lon="6.21014">
        <ele>1219.9</ele>
        <time>2020-02-09T06:59:41Z</time>
      </trkpt>
      <trkpt lat="45.28351" lon="6.2101">
        <ele>1220.5</ele>
        <time>2020-02-09T07:00:01Z</time>
      </trkpt>
      <trkpt lat="45.28348" lon="6.21007">
        <ele>1220.2</ele>
        <time>2020-02-09T07:00:29Z</time>
      </trkpt>
      <trkpt lat="45.28345" lon="6.21005">
        <ele>1220.4</ele>
        <time>2020-02-09T07:00:34Z</time>
      </trkpt>
      <trkpt lat="45.28341" lon="6.21002">
        <ele>1220.6</ele>
        <time>2020-02-09T07:00:37Z</time>
      </trkpt>
      <trkpt lat="45.28338" lon="6.21">
        <ele>1220.2</ele>
        <time>2020-02-09T07:00:40Z</time>
      </trkpt>
      <trkpt lat="45.28335" lon="6.20997">
        <ele>1220.3</ele>
        <time>2020-02-09T07:00:43Z</time>
      </trkpt>
      <trkpt lat="45.28333" lon="6.20993">
        <ele>1220.4</ele>
        <time>2020-02-09T07:00:46Z</time>
      </trkpt>
      <trkpt lat="45.28331" lon="6.2099">
        <ele>1220</ele>
        <time>2020-02-09T07:00:48Z</time>
      </trkpt>
      <trkpt lat="45.2833" lon="6.20986">
        <ele>1220.5</ele>
        <time>2020-02-09T07:00:51Z</time>
      </trkpt>
      <trkpt lat="45.28328" lon="6.20984">
        <ele>1221</ele>
        <time>2020-02-09T07:00:55Z</time>
      </trkpt>
      <trkpt lat="45.28326" lon="6.2098">
        <ele>1221.1</ele>
        <time>2020-02-09T07:00:58Z</time>
      </trkpt>
      <trkpt lat="45.28325" lon="6.20975">
        <ele>1221.2</ele>
        <time>2020-02-09T07:01:02Z</time>
      </trkpt>
      <trkpt lat="45.28323" lon="6.20971">
        <ele>1221.7</ele>
        <time>2020-02-09T07:01:05Z</time>
      </trkpt>
      <trkpt lat="45.28322" lon="6.20968">
        <ele>1222</ele>
        <time>2020-02-09T07:01:08Z</time>
      </trkpt>
      <trkpt lat="45.2832" lon="6.20962">
        <ele>1222.5</ele>
        <time>2020-02-09T07:01:11Z</time>
      </trkpt>
      <trkpt lat="45.28321" lon="6.20957">
        <ele>1223.1</ele>
        <time>2020-02-09T07:01:14Z</time>
      </trkpt>
      <trkpt lat="45.28324" lon="6.20954">
        <ele>1223.9</ele>
        <time>2020-02-09T07:01:22Z</time>
      </trkpt>
      <trkpt lat="45.28325" lon="6.20949">
        <ele>1224.4</ele>
        <time>2020-02-09T07:01:25Z</time>
      </trkpt>
      <trkpt lat="45.28325" lon="6.20945">
        <ele>1224.9</ele>
        <time>2020-02-09T07:01:28Z</time>
      </trkpt>
      <trkpt lat="45.28325" lon="6.2094">
        <ele>1225.5</ele>
        <time>2020-02-09T07:01:31Z</time>
      </trkpt>
      <trkpt lat="45.28326" lon="6.20936">
        <ele>1226.4</ele>
        <time>2020-02-09T07:01:34Z</time>
      </trkpt>
      <trkpt lat="45.28325" lon="6.20932">
        <ele>1226.9</ele>
        <time>2020-02-09T07:01:37Z</time>
      </trkpt>
      <trkpt lat="45.28325" lon="6.20927">
        <ele>1227.1</ele>
        <time>2020-02-09T07:01:41Z</time>
      </trkpt>
      <trkpt lat="45.28325" lon="6.20923">
        <ele>1227.8</ele>
        <time>2020-02-09T07:01:44Z</time>
      </trkpt>
      <trkpt lat="45.28324" lon="6.20918">
        <ele>1228.5</ele>
        <time>2020-02-09T07:01:47Z</time>
      </trkpt>
      <trkpt lat="45.28322" lon="6.20914">
        <ele>1228.8</ele>
        <time>2020-02-09T07:01:50Z</time>
      </trkpt>
      <trkpt lat="45.28321" lon="6.2091">
        <ele>1229.5</ele>
        <time>2020-02-09T07:01:55Z</time>
      </trkpt>
      <trkpt lat="45.2832" lon="6.20906">
        <ele>1230.2</ele>
        <time>2020-02-09T07:02:01Z</time>
      </trkpt>
      <trkpt lat="45.2832" lon="6.20902">
        <ele>1230.9</ele>
        <time>2020-02-09T07:02:05Z</time>
      </trkpt>
      <trkpt lat="45.2832" lon="6.20898">
        <ele>1231.5</ele>
        <time>2020-02-09T07:02:08Z</time>
      </trkpt>
      <trkpt lat="45.28321" lon="6.20893">
        <ele>1232.1</ele>
        <time>2020-02-09T07:02:12Z</time>
      </trkpt>
      <trkpt lat="45.28323" lon="6.2089">
        <ele>1233.1</ele>
        <time>2020-02-09T07:02:15Z</time>
      </trkpt>
      <trkpt lat="45.28322" lon="6.20885">
        <ele>1233.7</ele>
        <time>2020-02-09T07:02:18Z</time>
      </trkpt>
      <trkpt lat="45.28322" lon="6.20881">
        <ele>1234.3</ele>
        <time>2020-02-09T07:02:22Z</time>
      </trkpt>
      <trkpt lat="45.28324" lon="6.20877">
        <ele>1234.9</ele>
        <time>2020-02-09T07:02:26Z</time>
      </trkpt>
      <trkpt lat="45.28324" lon="6.20873">
        <ele>1235.6</ele>
        <time>2020-02-09T07:02:31Z</time>
      </trkpt>
      <trkpt lat="45.28327" lon="6.20871">
        <ele>1236.1</ele>
        <time>2020-02-09T07:02:35Z</time>
      </trkpt>
      <trkpt lat="45.28328" lon="6.20866">
        <ele>1236.8</ele>
        <time>2020-02-09T07:02:40Z</time>
      </trkpt>
      <trkpt lat="45.28328" lon="6.20862">
        <ele>1237.5</ele>
        <time>2020-02-09T07:02:44Z</time>
      </trkpt>
      <trkpt lat="45.2833" lon="6.20859">
        <ele>1238.8</ele>
        <time>2020-02-09T07:02:50Z</time>
      </trkpt>
      <trkpt lat="45.28333" lon="6.20857">
        <ele>1239.4</ele>
        <time>2020-02-09T07:02:56Z</time>
      </trkpt>
      <trkpt lat="45.28337" lon="6.20856">
        <ele>1240.1</ele>
        <time>2020-02-09T07:02:59Z</time>
      </trkpt>
      <trkpt lat="45.28339" lon="6.20854">
        <ele>1241.6</ele>
        <time>2020-02-09T07:03:03Z</time>
      </trkpt>
      <trkpt lat="45.28342" lon="6.20852">
        <ele>1242.4</ele>
        <time>2020-02-09T07:03:07Z</time>
      </trkpt>
      <trkpt lat="45.28343" lon="6.20849">
        <ele>1242.9</ele>
        <time>2020-02-09T07:03:11Z</time>
      </trkpt>
      <trkpt lat="45.28343" lon="6.20844">
        <ele>1243.5</ele>
        <time>2020-02-09T07:03:16Z</time>
      </trkpt>
      <trkpt lat="45.28341" lon="6.2084">
        <ele>1244.2</ele>
        <time>2020-02-09T07:03:20Z</time>
      </trkpt>
      <trkpt lat="45.2834" lon="6.20836">
        <ele>1244.8</ele>
        <time>2020-02-09T07:03:23Z</time>
      </trkpt>
      <trkpt lat="45.28338" lon="6.20833">
        <ele>1245.4</ele>
        <time>2020-02-09T07:03:28Z</time>
      </trkpt>
      <trkpt lat="45.28337" lon="6.20829">
        <ele>1245.9</ele>
        <time>2020-02-09T07:03:31Z</time>
      </trkpt>
      <trkpt lat="45.28337" lon="6.20825">
        <ele>1246.4</ele>
        <time>2020-02-09T07:03:34Z</time>
      </trkpt>
      <trkpt lat="45.28335" lon="6.20822">
        <ele>1246.8</ele>
        <time>2020-02-09T07:03:36Z</time>
      </trkpt>
      <trkpt lat="45.28333" lon="6.20818">
        <ele>1247.4</ele>
        <time>2020-02-09T07:03:40Z</time>
      </trkpt>
      <trkpt lat="45.28332" lon="6.20815">
        <ele>1248</ele>
        <time>2020-02-09T07:03:43Z</time>
      </trkpt>
      <trkpt lat="45.28333" lon="6.20809">
        <ele>1249</ele>
        <time>2020-02-09T07:03:47Z</time>
      </trkpt>
      <trkpt lat="45.28333" lon="6.20805">
        <ele>1249.6</ele>
        <time>2020-02-09T07:03:51Z</time>
      </trkpt>
      <trkpt lat="45.28333" lon="6.208">
        <ele>1250.2</ele>
        <time>2020-02-09T07:03:54Z</time>
      </trkpt>
      <trkpt lat="45.28332" lon="6.20796">
        <ele>1250.8</ele>
        <time>2020-02-09T07:03:59Z</time>
      </trkpt>
      <trkpt lat="45.2833" lon="6.20794">
        <ele>1251.4</ele>
        <time>2020-02-09T07:04:03Z</time>
      </trkpt>
      <trkpt lat="45.2833" lon="6.20789">
        <ele>1252.2</ele>
        <time>2020-02-09T07:04:07Z</time>
      </trkpt>
      <trkpt lat="45.28329" lon="6.20785">
        <ele>1252.9</ele>
        <time>2020-02-09T07:04:11Z</time>
      </trkpt>
      <trkpt lat="45.28328" lon="6.20782">
        <ele>1253.6</ele>
        <time>2020-02-09T07:04:15Z</time>
      </trkpt>
      <trkpt lat="45.28328" lon="6.20777">
        <ele>1254.5</ele>
        <time>2020-02-09T07:04:21Z</time>
      </trkpt>
      <trkpt lat="45.28327" lon="6.20772">
        <ele>1255.2</ele>
        <time>2020-02-09T07:04:25Z</time>
      </trkpt>
      <trkpt lat="45.28326" lon="6.20768">
        <ele>1255.9</ele>
        <time>2020-02-09T07:04:33Z</time>
      </trkpt>
      <trkpt lat="45.28325" lon="6.20765">
        <ele>1256.5</ele>
        <time>2020-02-09T07:04:36Z</time>
      </trkpt>
      <trkpt lat="45.28324" lon="6.20761">
        <ele>1257.1</ele>
        <time>2020-02-09T07:04:39Z</time>
      </trkpt>
      <trkpt lat="45.28322" lon="6.20757">
        <ele>1257.8</ele>
        <time>2020-02-09T07:04:42Z</time>
      </trkpt>
      <trkpt lat="45.2832" lon="6.20753">
        <ele>1258.6</ele>
        <time>2020-02-09T07:04:47Z</time>
      </trkpt>
      <trkpt lat="45.28323" lon="6.20751">
        <ele>1259.3</ele>
        <time>2020-02-09T07:04:54Z</time>
      </trkpt>
      <trkpt lat="45.28325" lon="6.20748">
        <ele>1260.1</ele>
        <time>2020-02-09T07:04:59Z</time>
      </trkpt>
      <trkpt lat="45.28324" lon="6.20745">
        <ele>1260.9</ele>
        <time>2020-02-09T07:05:02Z</time>
      </trkpt>
      <trkpt lat="45.28321" lon="6.20742">
        <ele>1261.8</ele>
        <time>2020-02-09T07:05:06Z</time>
      </trkpt>
      <trkpt lat="45.28319" lon="6.20739">
        <ele>1262.4</ele>
        <time>2020-02-09T07:05:11Z</time>
      </trkpt>
      <trkpt lat="45.2832" lon="6.20735">
        <ele>1263.1</ele>
        <time>2020-02-09T07:05:18Z</time>
      </trkpt>
      <trkpt lat="45.2832" lon="6.20731">
        <ele>1263.8</ele>
        <time>2020-02-09T07:05:21Z</time>
      </trkpt>
      <trkpt lat="45.28319" lon="6.20727">
        <ele>1264.6</ele>
        <time>2020-02-09T07:05:24Z</time>
      </trkpt>
      <trkpt lat="45.28318" lon="6.20722">
        <ele>1265.3</ele>
        <time>2020-02-09T07:05:27Z</time>
      </trkpt>
      <trkpt lat="45.28319" lon="6.20719">
        <ele>1266</ele>
        <time>2020-02-09T07:05:30Z</time>
      </trkpt>
      <trkpt lat="45.28322" lon="6.20722">
        <ele>1266.7</ele>
        <time>2020-02-09T07:05:37Z</time>
      </trkpt>
      <trkpt lat="45.28324" lon="6.20726">
        <ele>1267.5</ele>
        <time>2020-02-09T07:05:40Z</time>
      </trkpt>
      <trkpt lat="45.28327" lon="6.20726">
        <ele>1268.1</ele>
        <time>2020-02-09T07:05:44Z</time>
      </trkpt>
      <trkpt lat="45.2833" lon="6.20727">
        <ele>1268.7</ele>
        <time>2020-02-09T07:05:49Z</time>
      </trkpt>
      <trkpt lat="45.28333" lon="6.20726">
        <ele>1269.3</ele>
        <time>2020-02-09T07:05:53Z</time>
      </trkpt>
      <trkpt lat="45.28336" lon="6.20724">
        <ele>1269.9</ele>
        <time>2020-02-09T07:05:58Z</time>
      </trkpt>
      <trkpt lat="45.28337" lon="6.20721">
        <ele>1270.5</ele>
        <time>2020-02-09T07:06:05Z</time>
      </trkpt>
      <trkpt lat="45.28341" lon="6.2072">
        <ele>1271.2</ele>
        <time>2020-02-09T07:06:09Z</time>
      </trkpt>
      <trkpt lat="45.28344" lon="6.20718">
        <ele>1271.9</ele>
        <time>2020-02-09T07:06:13Z</time>
      </trkpt>
      <trkpt lat="45.28347" lon="6.20715">
        <ele>1272.6</ele>
        <time>2020-02-09T07:06:17Z</time>
      </trkpt>
      <trkpt lat="45.28347" lon="6.2071">
        <ele>1273.2</ele>
        <time>2020-02-09T07:06:20Z</time>
      </trkpt>
      <trkpt lat="45.28346" lon="6.20706">
        <ele>1273.8</ele>
        <time>2020-02-09T07:06:25Z</time>
      </trkpt>
      <trkpt lat="45.28343" lon="6.20704">
        <ele>1274.3</ele>
        <time>2020-02-09T07:06:29Z</time>
      </trkpt>
      <trkpt lat="45.28342" lon="6.20701">
        <ele>1274.8</ele>
        <time>2020-02-09T07:06:32Z</time>
      </trkpt>
      <trkpt lat="45.28341" lon="6.20696">
        <ele>1275.4</ele>
        <time>2020-02-09T07:06:36Z</time>
      </trkpt>
      <trkpt lat="45.28341" lon="6.20692">
        <ele>1276</ele>
        <time>2020-02-09T07:06:40Z</time>
      </trkpt>
      <trkpt lat="45.28341" lon="6.20687">
        <ele>1276.6</ele>
        <time>2020-02-09T07:06:44Z</time>
      </trkpt>
      <trkpt lat="45.2834" lon="6.20683">
        <ele>1277.2</ele>
        <time>2020-02-09T07:06:47Z</time>
      </trkpt>
      <trkpt lat="45.28339" lon="6.2068">
        <ele>1277.8</ele>
        <time>2020-02-09T07:06:56Z</time>
      </trkpt>
      <trkpt lat="45.28336" lon="6.20681">
        <ele>1278.4</ele>
        <time>2020-02-09T07:07:07Z</time>
      </trkpt>
      <trkpt lat="45.28335" lon="6.20678">
        <ele>1279</ele>
        <time>2020-02-09T07:07:24Z</time>
      </trkpt>
      <trkpt lat="45.28333" lon="6.20674">
        <ele>1279.5</ele>
        <time>2020-02-09T07:07:26Z</time>
      </trkpt>
      <trkpt lat="45.28332" lon="6.20669">
        <ele>1280.1</ele>
        <time>2020-02-09T07:07:32Z</time>
      </trkpt>
      <trkpt lat="45.28331" lon="6.20666">
        <ele>1280.5</ele>
        <time>2020-02-09T07:07:36Z</time>
      </trkpt>
      <trkpt lat="45.2833" lon="6.20661">
        <ele>1281</ele>
        <time>2020-02-09T07:07:41Z</time>
      </trkpt>
      <trkpt lat="45.2833" lon="6.20657">
        <ele>1281.5</ele>
        <time>2020-02-09T07:07:45Z</time>
      </trkpt>
      <trkpt lat="45.28331" lon="6.20652">
        <ele>1282.3</ele>
        <time>2020-02-09T07:07:49Z</time>
      </trkpt>
      <trkpt lat="45.28331" lon="6.20648">
        <ele>1282.8</ele>
        <time>2020-02-09T07:07:52Z</time>
      </trkpt>
      <trkpt lat="45.28331" lon="6.20643">
        <ele>1283.6</ele>
        <time>2020-02-09T07:07:55Z</time>
      </trkpt>
      <trkpt lat="45.28333" lon="6.20641">
        <ele>1284.2</ele>
        <time>2020-02-09T07:07:59Z</time>
      </trkpt>
      <trkpt lat="45.28334" lon="6.20636">
        <ele>1285</ele>
        <time>2020-02-09T07:08:02Z</time>
      </trkpt>
      <trkpt lat="45.28338" lon="6.20636">
        <ele>1285.8</ele>
        <time>2020-02-09T07:08:08Z</time>
      </trkpt>
      <trkpt lat="45.28341" lon="6.2064">
        <ele>1286.7</ele>
        <time>2020-02-09T07:08:11Z</time>
      </trkpt>
      <trkpt lat="45.28343" lon="6.20642">
        <ele>1287.5</ele>
        <time>2020-02-09T07:08:14Z</time>
      </trkpt>
      <trkpt lat="45.28346" lon="6.20644">
        <ele>1288.1</ele>
        <time>2020-02-09T07:08:18Z</time>
      </trkpt>
      <trkpt lat="45.28349" lon="6.20645">
        <ele>1288.7</ele>
        <time>2020-02-09T07:08:21Z</time>
      </trkpt>
      <trkpt lat="45.28352" lon="6.20647">
        <ele>1289.4</ele>
        <time>2020-02-09T07:08:27Z</time>
      </trkpt>
      <trkpt lat="45.28355" lon="6.20645">
        <ele>1290.1</ele>
        <time>2020-02-09T07:08:33Z</time>
      </trkpt>
      <trkpt lat="45.28357" lon="6.20642">
        <ele>1290.7</ele>
        <time>2020-02-09T07:08:36Z</time>
      </trkpt>
      <trkpt lat="45.28359" lon="6.20638">
        <ele>1291.6</ele>
        <time>2020-02-09T07:08:42Z</time>
      </trkpt>
      <trkpt lat="45.28358" lon="6.20633">
        <ele>1292.5</ele>
        <time>2020-02-09T07:08:48Z</time>
      </trkpt>
      <trkpt lat="45.28358" lon="6.20629">
        <ele>1292.9</ele>
        <time>2020-02-09T07:08:51Z</time>
      </trkpt>
      <trkpt lat="45.28355" lon="6.20627">
        <ele>1293.4</ele>
        <time>2020-02-09T07:08:55Z</time>
      </trkpt>
      <trkpt lat="45.28356" lon="6.20622">
        <ele>1293.9</ele>
        <time>2020-02-09T07:08:58Z</time>
      </trkpt>
      <trkpt lat="45.28355" lon="6.20617">
        <ele>1294.6</ele>
        <time>2020-02-09T07:09:02Z</time>
      </trkpt>
      <trkpt lat="45.28356" lon="6.20613">
        <ele>1295</ele>
        <time>2020-02-09T07:09:06Z</time>
      </trkpt>
      <trkpt lat="45.28358" lon="6.2061">
        <ele>1295.6</ele>
        <time>2020-02-09T07:09:10Z</time>
      </trkpt>
      <trkpt lat="45.28361" lon="6.20609">
        <ele>1296.1</ele>
        <time>2020-02-09T07:09:12Z</time>
      </trkpt>
      <trkpt lat="45.28364" lon="6.20608">
        <ele>1296.6</ele>
        <time>2020-02-09T07:09:18Z</time>
      </trkpt>
      <trkpt lat="45.28361" lon="6.20605">
        <ele>1297.2</ele>
        <time>2020-02-09T07:09:23Z</time>
      </trkpt>
      <trkpt lat="45.2836" lon="6.20601">
        <ele>1297.6</ele>
        <time>2020-02-09T07:09:27Z</time>
      </trkpt>
      <trkpt lat="45.28357" lon="6.20598">
        <ele>1298.1</ele>
        <time>2020-02-09T07:09:30Z</time>
      </trkpt>
      <trkpt lat="45.28354" lon="6.20596">
        <ele>1298.5</ele>
        <time>2020-02-09T07:09:33Z</time>
      </trkpt>
      <trkpt lat="45.28354" lon="6.20592">
        <ele>1298.8</ele>
        <time>2020-02-09T07:09:40Z</time>
      </trkpt>
      <trkpt lat="45.28352" lon="6.20588">
        <ele>1299.2</ele>
        <time>2020-02-09T07:09:49Z</time>
      </trkpt>
      <trkpt lat="45.2835" lon="6.20584">
        <ele>1299.5</ele>
        <time>2020-02-09T07:09:53Z</time>
      </trkpt>
      <trkpt lat="45.2835" lon="6.2058">
        <ele>1299.8</ele>
        <time>2020-02-09T07:09:58Z</time>
      </trkpt>
      <trkpt lat="45.28349" lon="6.20577">
        <ele>1300</ele>
        <time>2020-02-09T07:10:04Z</time>
      </trkpt>
      <trkpt lat="45.28345" lon="6.20577">
        <ele>1300.3</ele>
        <time>2020-02-09T07:10:06Z</time>
      </trkpt>
      <trkpt lat="45.28344" lon="6.20573">
        <ele>1300.5</ele>
        <time>2020-02-09T07:10:08Z</time>
      </trkpt>
      <trkpt lat="45.28343" lon="6.20569">
        <ele>1300.8</ele>
        <time>2020-02-09T07:10:11Z</time>
      </trkpt>
      <trkpt lat="45.28343" lon="6.20564">
        <ele>1301.1</ele>
        <time>2020-02-09T07:10:14Z</time>
      </trkpt>
      <trkpt lat="45.28342" lon="6.2056">
        <ele>1301.3</ele>
        <time>2020-02-09T07:10:18Z</time>
      </trkpt>
      <trkpt lat="45.2834" lon="6.20557">
        <ele>1301.6</ele>
        <time>2020-02-09T07:10:21Z</time>
      </trkpt>
      <trkpt lat="45.28339" lon="6.20553">
        <ele>1302.1</ele>
        <time>2020-02-09T07:10:23Z</time>
      </trkpt>
      <trkpt lat="45.28338" lon="6.20549">
        <ele>1302.5</ele>
        <time>2020-02-09T07:10:27Z</time>
      </trkpt>
      <trkpt lat="45.28338" lon="6.20545">
        <ele>1302.9</ele>
        <time>2020-02-09T07:10:30Z</time>
      </trkpt>
      <trkpt lat="45.28338" lon="6.20541">
        <ele>1303.4</ele>
        <time>2020-02-09T07:10:33Z</time>
      </trkpt>
      <trkpt lat="45.28338" lon="6.20536">
        <ele>1303.9</ele>
        <time>2020-02-09T07:10:36Z</time>
      </trkpt>
      <trkpt lat="45.28339" lon="6.20532">
        <ele>1304.5</ele>
        <time>2020-02-09T07:10:40Z</time>
      </trkpt>
      <trkpt lat="45.28338" lon="6.20528">
        <ele>1305</ele>
        <time>2020-02-09T07:10:44Z</time>
      </trkpt>
      <trkpt lat="45.28337" lon="6.20524">
        <ele>1305.5</ele>
        <time>2020-02-09T07:10:47Z</time>
      </trkpt>
      <trkpt lat="45.28337" lon="6.20519">
        <ele>1306</ele>
        <time>2020-02-09T07:10:50Z</time>
      </trkpt>
      <trkpt lat="45.28336" lon="6.20515">
        <ele>1306.5</ele>
        <time>2020-02-09T07:10:53Z</time>
      </trkpt>
      <trkpt lat="45.28335" lon="6.2051">
        <ele>1307.1</ele>
        <time>2020-02-09T07:10:56Z</time>
      </trkpt>
      <trkpt lat="45.28334" lon="6.20505">
        <ele>1307.5</ele>
        <time>2020-02-09T07:11:00Z</time>
      </trkpt>
      <trkpt lat="45.28332" lon="6.20502">
        <ele>1308</ele>
        <time>2020-02-09T07:11:04Z</time>
      </trkpt>
      <trkpt lat="45.28331" lon="6.20498">
        <ele>1308.6</ele>
        <time>2020-02-09T07:11:08Z</time>
      </trkpt>
      <trkpt lat="45.28329" lon="6.20495">
        <ele>1309</ele>
        <time>2020-02-09T07:11:11Z</time>
      </trkpt>
      <trkpt lat="45.28329" lon="6.20491">
        <ele>1309.6</ele>
        <time>2020-02-09T07:11:14Z</time>
      </trkpt>
      <trkpt lat="45.28328" lon="6.20487">
        <ele>1310.1</ele>
        <time>2020-02-09T07:11:19Z</time>
      </trkpt>
      <trkpt lat="45.28327" lon="6.20482">
        <ele>1310.7</ele>
        <time>2020-02-09T07:11:23Z</time>
      </trkpt>
      <trkpt lat="45.28325" lon="6.20478">
        <ele>1311.2</ele>
        <time>2020-02-09T07:11:26Z</time>
      </trkpt>
      <trkpt lat="45.28323" lon="6.20473">
        <ele>1311.8</ele>
        <time>2020-02-09T07:11:30Z</time>
      </trkpt>
      <trkpt lat="45.28322" lon="6.20469">
        <ele>1312.3</ele>
        <time>2020-02-09T07:11:34Z</time>
      </trkpt>
      <trkpt lat="45.28319" lon="6.20464">
        <ele>1313.1</ele>
        <time>2020-02-09T07:11:37Z</time>
      </trkpt>
      <trkpt lat="45.28319" lon="6.20459">
        <ele>1313.6</ele>
        <time>2020-02-09T07:11:41Z</time>
      </trkpt>
      <trkpt lat="45.2832" lon="6.20456">
        <ele>1314.1</ele>
        <time>2020-02-09T07:11:45Z</time>
      </trkpt>
      <trkpt lat="45.2832" lon="6.20452">
        <ele>1314.4</ele>
        <time>2020-02-09T07:11:48Z</time>
      </trkpt>
      <trkpt lat="45.2832" lon="6.20448">
        <ele>1314.7</ele>
        <time>2020-02-09T07:11:51Z</time>
      </trkpt>
      <trkpt lat="45.2832" lon="6.20443">
        <ele>1315</ele>
        <time>2020-02-09T07:11:55Z</time>
      </trkpt>
      <trkpt lat="45.28321" lon="6.20439">
        <ele>1315.4</ele>
        <time>2020-02-09T07:11:58Z</time>
      </trkpt>
      <trkpt lat="45.28318" lon="6.20437">
        <ele>1315.9</ele>
        <time>2020-02-09T07:12:02Z</time>
      </trkpt>
      <trkpt lat="45.28318" lon="6.20432">
        <ele>1316.3</ele>
        <time>2020-02-09T07:12:12Z</time>
      </trkpt>
      <trkpt lat="45.28316" lon="6.20429">
        <ele>1316.6</ele>
        <time>2020-02-09T07:12:16Z</time>
      </trkpt>
      <trkpt lat="45.28314" lon="6.20426">
        <ele>1317</ele>
        <time>2020-02-09T07:12:19Z</time>
      </trkpt>
      <trkpt lat="45.28312" lon="6.20422">
        <ele>1317.4</ele>
        <time>2020-02-09T07:12:23Z</time>
      </trkpt>
      <trkpt lat="45.2831" lon="6.20418">
        <ele>1317.8</ele>
        <time>2020-02-09T07:12:27Z</time>
      </trkpt>
      <trkpt lat="45.28307" lon="6.20415">
        <ele>1318.3</ele>
        <time>2020-02-09T07:12:30Z</time>
      </trkpt>
      <trkpt lat="45.28305" lon="6.20412">
        <ele>1318.7</ele>
        <time>2020-02-09T07:12:34Z</time>
      </trkpt>
      <trkpt lat="45.28304" lon="6.20408">
        <ele>1319.1</ele>
        <time>2020-02-09T07:12:37Z</time>
      </trkpt>
      <trkpt lat="45.28306" lon="6.20402">
        <ele>1319.7</ele>
        <time>2020-02-09T07:12:40Z</time>
      </trkpt>
      <trkpt lat="45.28306" lon="6.20399">
        <ele>1320</ele>
        <time>2020-02-09T07:12:43Z</time>
      </trkpt>
      <trkpt lat="45.28307" lon="6.20393">
        <ele>1320.7</ele>
        <time>2020-02-09T07:12:46Z</time>
      </trkpt>
      <trkpt lat="45.28308" lon="6.20389">
        <ele>1321.2</ele>
        <time>2020-02-09T07:12:49Z</time>
      </trkpt>
      <trkpt lat="45.28308" lon="6.20385">
        <ele>1321.6</ele>
        <time>2020-02-09T07:12:53Z</time>
      </trkpt>
      <trkpt lat="45.28309" lon="6.20381">
        <ele>1322</ele>
        <time>2020-02-09T07:12:57Z</time>
      </trkpt>
      <trkpt lat="45.28311" lon="6.20378">
        <ele>1322.4</ele>
        <time>2020-02-09T07:13:03Z</time>
      </trkpt>
      <trkpt lat="45.28313" lon="6.20375">
        <ele>1322.9</ele>
        <time>2020-02-09T07:13:06Z</time>
      </trkpt>
      <trkpt lat="45.28315" lon="6.20372">
        <ele>1323.4</ele>
        <time>2020-02-09T07:13:10Z</time>
      </trkpt>
      <trkpt lat="45.28316" lon="6.20368">
        <ele>1323.9</ele>
        <time>2020-02-09T07:13:14Z</time>
      </trkpt>
      <trkpt lat="45.28317" lon="6.20364">
        <ele>1324.2</ele>
        <time>2020-02-09T07:13:19Z</time>
      </trkpt>
      <trkpt lat="45.28317" lon="6.20359">
        <ele>1324.6</ele>
        <time>2020-02-09T07:13:22Z</time>
      </trkpt>
      <trkpt lat="45.28319" lon="6.20355">
        <ele>1325</ele>
        <time>2020-02-09T07:13:26Z</time>
      </trkpt>
      <trkpt lat="45.28318" lon="6.20351">
        <ele>1325.4</ele>
        <time>2020-02-09T07:13:30Z</time>
      </trkpt>
      <trkpt lat="45.28318" lon="6.20347">
        <ele>1325.7</ele>
        <time>2020-02-09T07:13:34Z</time>
      </trkpt>
      <trkpt lat="45.28316" lon="6.20343">
        <ele>1326.1</ele>
        <time>2020-02-09T07:13:39Z</time>
      </trkpt>
      <trkpt lat="45.28316" lon="6.20338">
        <ele>1326.5</ele>
        <time>2020-02-09T07:13:47Z</time>
      </trkpt>
      <trkpt lat="45.28315" lon="6.20342">
        <ele>1326.7</ele>
        <time>2020-02-09T07:13:52Z</time>
      </trkpt>
      <trkpt lat="45.28313" lon="6.20346">
        <ele>1327</ele>
        <time>2020-02-09T07:13:56Z</time>
      </trkpt>
      <trkpt lat="45.28311" lon="6.20348">
        <ele>1327.2</ele>
        <time>2020-02-09T07:14:00Z</time>
      </trkpt>
      <trkpt lat="45.28307" lon="6.2035">
        <ele>1327.5</ele>
        <time>2020-02-09T07:14:03Z</time>
      </trkpt>
      <trkpt lat="45.28305" lon="6.20353">
        <ele>1327.9</ele>
        <time>2020-02-09T07:14:06Z</time>
      </trkpt>
      <trkpt lat="45.28302" lon="6.20355">
        <ele>1328.3</ele>
        <time>2020-02-09T07:14:09Z</time>
      </trkpt>
      <trkpt lat="45.28299" lon="6.20355">
        <ele>1328.6</ele>
        <time>2020-02-09T07:14:12Z</time>
      </trkpt>
      <trkpt lat="45.28297" lon="6.20357">
        <ele>1329</ele>
        <time>2020-02-09T07:14:16Z</time>
      </trkpt>
      <trkpt lat="45.28293" lon="6.20356">
        <ele>1329.4</ele>
        <time>2020-02-09T07:14:20Z</time>
      </trkpt>
      <trkpt lat="45.28291" lon="6.20355">
        <ele>1329.8</ele>
        <time>2020-02-09T07:14:24Z</time>
      </trkpt>
      <trkpt lat="45.28287" lon="6.20355">
        <ele>1330.2</ele>
        <time>2020-02-09T07:14:36Z</time>
      </trkpt>
      <trkpt lat="45.28286" lon="6.20352">
        <ele>1330.6</ele>
        <time>2020-02-09T07:14:41Z</time>
      </trkpt>
      <trkpt lat="45.28285" lon="6.20348">
        <ele>1330.9</ele>
        <time>2020-02-09T07:14:47Z</time>
      </trkpt>
      <trkpt lat="45.28285" lon="6.20343">
        <ele>1331.3</ele>
        <time>2020-02-09T07:14:50Z</time>
      </trkpt>
      <trkpt lat="45.28284" lon="6.20339">
        <ele>1331.6</ele>
        <time>2020-02-09T07:14:53Z</time>
      </trkpt>
      <trkpt lat="45.28284" lon="6.20334">
        <ele>1332.1</ele>
        <time>2020-02-09T07:14:56Z</time>
      </trkpt>
      <trkpt lat="45.28284" lon="6.2033">
        <ele>1332.4</ele>
        <time>2020-02-09T07:14:59Z</time>
      </trkpt>
      <trkpt lat="45.28282" lon="6.20325">
        <ele>1332.8</ele>
        <time>2020-02-09T07:15:02Z</time>
      </trkpt>
      <trkpt lat="45.2828" lon="6.20321">
        <ele>1333.2</ele>
        <time>2020-02-09T07:15:05Z</time>
      </trkpt>
      <trkpt lat="45.2828" lon="6.20316">
        <ele>1333.5</ele>
        <time>2020-02-09T07:15:09Z</time>
      </trkpt>
      <trkpt lat="45.28277" lon="6.20314">
        <ele>1333.7</ele>
        <time>2020-02-09T07:15:20Z</time>
      </trkpt>
      <trkpt lat="45.28274" lon="6.20316">
        <ele>1334</ele>
        <time>2020-02-09T07:15:25Z</time>
      </trkpt>
      <trkpt lat="45.28271" lon="6.20315">
        <ele>1334.3</ele>
        <time>2020-02-09T07:15:27Z</time>
      </trkpt>
      <trkpt lat="45.28268" lon="6.20316">
        <ele>1334.6</ele>
        <time>2020-02-09T07:15:32Z</time>
      </trkpt>
      <trkpt lat="45.28266" lon="6.20319">
        <ele>1334.9</ele>
        <time>2020-02-09T07:15:40Z</time>
      </trkpt>
      <trkpt lat="45.28262" lon="6.20318">
        <ele>1335.3</ele>
        <time>2020-02-09T07:15:45Z</time>
      </trkpt>
      <trkpt lat="45.28261" lon="6.20315">
        <ele>1335.8</ele>
        <time>2020-02-09T07:15:51Z</time>
      </trkpt>
      <trkpt lat="45.28259" lon="6.20312">
        <ele>1336.3</ele>
        <time>2020-02-09T07:15:55Z</time>
      </trkpt>
      <trkpt lat="45.28257" lon="6.20309">
        <ele>1336.7</ele>
        <time>2020-02-09T07:15:57Z</time>
      </trkpt>
      <trkpt lat="45.28255" lon="6.20307">
        <ele>1337.2</ele>
        <time>2020-02-09T07:15:59Z</time>
      </trkpt>
      <trkpt lat="45.28252" lon="6.20303">
        <ele>1337.8</ele>
        <time>2020-02-09T07:16:02Z</time>
      </trkpt>
      <trkpt lat="45.28249" lon="6.203">
        <ele>1338.4</ele>
        <time>2020-02-09T07:16:05Z</time>
      </trkpt>
      <trkpt lat="45.28247" lon="6.20296">
        <ele>1338.9</ele>
        <time>2020-02-09T07:16:09Z</time>
      </trkpt>
      <trkpt lat="45.28246" lon="6.20291">
        <ele>1339.6</ele>
        <time>2020-02-09T07:16:13Z</time>
      </trkpt>
      <trkpt lat="45.28245" lon="6.20287">
        <ele>1340.3</ele>
        <time>2020-02-09T07:16:19Z</time>
      </trkpt>
      <trkpt lat="45.28243" lon="6.20283">
        <ele>1341.1</ele>
        <time>2020-02-09T07:16:23Z</time>
      </trkpt>
      <trkpt lat="45.28243" lon="6.20278">
        <ele>1341.7</ele>
        <time>2020-02-09T07:16:30Z</time>
      </trkpt>
      <trkpt lat="45.28242" lon="6.20274">
        <ele>1342.3</ele>
        <time>2020-02-09T07:16:33Z</time>
      </trkpt>
      <trkpt lat="45.28241" lon="6.2027">
        <ele>1342.9</ele>
        <time>2020-02-09T07:16:38Z</time>
      </trkpt>
      <trkpt lat="45.28239" lon="6.20266">
        <ele>1343.7</ele>
        <time>2020-02-09T07:16:41Z</time>
      </trkpt>
      <trkpt lat="45.28237" lon="6.20262">
        <ele>1344.3</ele>
        <time>2020-02-09T07:16:45Z</time>
      </trkpt>
      <trkpt lat="45.28234" lon="6.20258">
        <ele>1344.9</ele>
        <time>2020-02-09T07:16:50Z</time>
      </trkpt>
      <trkpt lat="45.28233" lon="6.20253">
        <ele>1345.5</ele>
        <time>2020-02-09T07:16:57Z</time>
      </trkpt>
      <trkpt lat="45.28232" lon="6.20249">
        <ele>1345.8</ele>
        <time>2020-02-09T07:17:00Z</time>
      </trkpt>
      <trkpt lat="45.28231" lon="6.20244">
        <ele>1346.3</ele>
        <time>2020-02-09T07:17:03Z</time>
      </trkpt>
      <trkpt lat="45.28229" lon="6.20241">
        <ele>1346.7</ele>
        <time>2020-02-09T07:17:06Z</time>
      </trkpt>
      <trkpt lat="45.28228" lon="6.20238">
        <ele>1347</ele>
        <time>2020-02-09T07:17:08Z</time>
      </trkpt>
      <trkpt lat="45.28229" lon="6.20234">
        <ele>1347.2</ele>
        <time>2020-02-09T07:17:11Z</time>
      </trkpt>
      <trkpt lat="45.28228" lon="6.20229">
        <ele>1347.5</ele>
        <time>2020-02-09T07:17:14Z</time>
      </trkpt>
      <trkpt lat="45.28229" lon="6.20225">
        <ele>1347.9</ele>
        <time>2020-02-09T07:17:17Z</time>
      </trkpt>
      <trkpt lat="45.28228" lon="6.20221">
        <ele>1348.2</ele>
        <time>2020-02-09T07:17:20Z</time>
      </trkpt>
      <trkpt lat="45.28226" lon="6.20217">
        <ele>1348.7</ele>
        <time>2020-02-09T07:17:24Z</time>
      </trkpt>
      <trkpt lat="45.28225" lon="6.20212">
        <ele>1349.2</ele>
        <time>2020-02-09T07:17:27Z</time>
      </trkpt>
      <trkpt lat="45.28225" lon="6.20207">
        <ele>1349.7</ele>
        <time>2020-02-09T07:17:30Z</time>
      </trkpt>
      <trkpt lat="45.28224" lon="6.20204">
        <ele>1350.1</ele>
        <time>2020-02-09T07:17:34Z</time>
      </trkpt>
      <trkpt lat="45.28222" lon="6.202">
        <ele>1350.5</ele>
        <time>2020-02-09T07:17:38Z</time>
      </trkpt>
      <trkpt lat="45.2822" lon="6.20197">
        <ele>1351</ele>
        <time>2020-02-09T07:17:42Z</time>
      </trkpt>
      <trkpt lat="45.28219" lon="6.20193">
        <ele>1351.3</ele>
        <time>2020-02-09T07:17:44Z</time>
      </trkpt>
      <trkpt lat="45.28217" lon="6.2019">
        <ele>1351.7</ele>
        <time>2020-02-09T07:17:47Z</time>
      </trkpt>
      <trkpt lat="45.28214" lon="6.20186">
        <ele>1352.5</ele>
        <time>2020-02-09T07:17:52Z</time>
      </trkpt>
      <trkpt lat="45.28213" lon="6.20182">
        <ele>1353</ele>
        <time>2020-02-09T07:17:56Z</time>
      </trkpt>
      <trkpt lat="45.2821" lon="6.2018">
        <ele>1353.6</ele>
        <time>2020-02-09T07:18:00Z</time>
      </trkpt>
      <trkpt lat="45.28208" lon="6.20177">
        <ele>1354.2</ele>
        <time>2020-02-09T07:18:03Z</time>
      </trkpt>
      <trkpt lat="45.28207" lon="6.20173">
        <ele>1354.8</ele>
        <time>2020-02-09T07:18:08Z</time>
      </trkpt>
      <trkpt lat="45.28206" lon="6.20169">
        <ele>1355.4</ele>
        <time>2020-02-09T07:18:13Z</time>
      </trkpt>
      <trkpt lat="45.28205" lon="6.20164">
        <ele>1356.1</ele>
        <time>2020-02-09T07:18:16Z</time>
      </trkpt>
      <trkpt lat="45.28205" lon="6.2016">
        <ele>1356.7</ele>
        <time>2020-02-09T07:18:19Z</time>
      </trkpt>
      <trkpt lat="45.28204" lon="6.20156">
        <ele>1357.2</ele>
        <time>2020-02-09T07:18:22Z</time>
      </trkpt>
      <trkpt lat="45.28202" lon="6.20153">
        <ele>1357.7</ele>
        <time>2020-02-09T07:18:26Z</time>
      </trkpt>
      <trkpt lat="45.28201" lon="6.20149">
        <ele>1358.3</ele>
        <time>2020-02-09T07:18:30Z</time>
      </trkpt>
      <trkpt lat="45.282" lon="6.20145">
        <ele>1358.9</ele>
        <time>2020-02-09T07:18:34Z</time>
      </trkpt>
      <trkpt lat="45.28198" lon="6.20141">
        <ele>1359.4</ele>
        <time>2020-02-09T07:18:38Z</time>
      </trkpt>
      <trkpt lat="45.28196" lon="6.20138">
        <ele>1359.9</ele>
        <time>2020-02-09T07:18:41Z</time>
      </trkpt>
      <trkpt lat="45.28194" lon="6.20135">
        <ele>1360.4</ele>
        <time>2020-02-09T07:18:45Z</time>
      </trkpt>
      <trkpt lat="45.28194" lon="6.20131">
        <ele>1360.9</ele>
        <time>2020-02-09T07:18:50Z</time>
      </trkpt>
      <trkpt lat="45.2819" lon="6.2013">
        <ele>1361.6</ele>
        <time>2020-02-09T07:18:55Z</time>
      </trkpt>
      <trkpt lat="45.28187" lon="6.20128">
        <ele>1362.1</ele>
        <time>2020-02-09T07:18:59Z</time>
      </trkpt>
      <trkpt lat="45.28185" lon="6.20126">
        <ele>1362.6</ele>
        <time>2020-02-09T07:19:03Z</time>
      </trkpt>
      <trkpt lat="45.28182" lon="6.20123">
        <ele>1363.1</ele>
        <time>2020-02-09T07:19:09Z</time>
      </trkpt>
      <trkpt lat="45.28178" lon="6.2012">
        <ele>1363.7</ele>
        <time>2020-02-09T07:19:12Z</time>
      </trkpt>
      <trkpt lat="45.28175" lon="6.20119">
        <ele>1364.2</ele>
        <time>2020-02-09T07:19:15Z</time>
      </trkpt>
      <trkpt lat="45.28171" lon="6.20118">
        <ele>1365</ele>
        <time>2020-02-09T07:19:18Z</time>
      </trkpt>
      <trkpt lat="45.28168" lon="6.20115">
        <ele>1365.6</ele>
        <time>2020-02-09T07:19:20Z</time>
      </trkpt>
      <trkpt lat="45.28166" lon="6.20113">
        <ele>1366.2</ele>
        <time>2020-02-09T07:19:23Z</time>
      </trkpt>
      <trkpt lat="45.28163" lon="6.20111">
        <ele>1366.8</ele>
        <time>2020-02-09T07:19:25Z</time>
      </trkpt>
      <trkpt lat="45.2816" lon="6.20109">
        <ele>1367.4</ele>
        <time>2020-02-09T07:19:27Z</time>
      </trkpt>
      <trkpt lat="45.28158" lon="6.20105">
        <ele>1368</ele>
        <time>2020-02-09T07:19:31Z</time>
      </trkpt>
      <trkpt lat="45.28157" lon="6.20101">
        <ele>1368.5</ele>
        <time>2020-02-09T07:19:35Z</time>
      </trkpt>
      <trkpt lat="45.28155" lon="6.20098">
        <ele>1369.1</ele>
        <time>2020-02-09T07:19:41Z</time>
      </trkpt>
      <trkpt lat="45.28154" lon="6.20093">
        <ele>1369.8</ele>
        <time>2020-02-09T07:19:44Z</time>
      </trkpt>
      <trkpt lat="45.28154" lon="6.20089">
        <ele>1370.4</ele>
        <time>2020-02-09T07:19:47Z</time>
      </trkpt>
      <trkpt lat="45.28154" lon="6.20085">
        <ele>1370.9</ele>
        <time>2020-02-09T07:19:51Z</time>
      </trkpt>
      <trkpt lat="45.28152" lon="6.20081">
        <ele>1371.5</ele>
        <time>2020-02-09T07:19:55Z</time>
      </trkpt>
      <trkpt lat="45.28149" lon="6.20078">
        <ele>1372.1</ele>
        <time>2020-02-09T07:19:59Z</time>
      </trkpt>
      <trkpt lat="45.28147" lon="6.20074">
        <ele>1372.7</ele>
        <time>2020-02-09T07:20:02Z</time>
      </trkpt>
      <trkpt lat="45.28144" lon="6.20071">
        <ele>1373.4</ele>
        <time>2020-02-09T07:20:06Z</time>
      </trkpt>
      <trkpt lat="45.28142" lon="6.20066">
        <ele>1374.3</ele>
        <time>2020-02-09T07:20:10Z</time>
      </trkpt>
      <trkpt lat="45.28141" lon="6.20062">
        <ele>1374.9</ele>
        <time>2020-02-09T07:20:13Z</time>
      </trkpt>
      <trkpt lat="45.2814" lon="6.20057">
        <ele>1375.7</ele>
        <time>2020-02-09T07:20:16Z</time>
      </trkpt>
      <trkpt lat="45.28138" lon="6.20055">
        <ele>1376.3</ele>
        <time>2020-02-09T07:20:19Z</time>
      </trkpt>
      <trkpt lat="45.28135" lon="6.20053">
        <ele>1376.8</ele>
        <time>2020-02-09T07:20:22Z</time>
      </trkpt>
      <trkpt lat="45.28133" lon="6.2005">
        <ele>1377.2</ele>
        <time>2020-02-09T07:20:25Z</time>
      </trkpt>
      <trkpt lat="45.28131" lon="6.20048">
        <ele>1376.7</ele>
        <time>2020-02-09T07:20:29Z</time>
      </trkpt>
      <trkpt lat="45.28128" lon="6.20047">
        <ele>1376.3</ele>
        <time>2020-02-09T07:20:32Z</time>
      </trkpt>
      <trkpt lat="45.28125" lon="6.20046">
        <ele>1376.2</ele>
        <time>2020-02-09T07:20:50Z</time>
      </trkpt>
      <trkpt lat="45.28125" lon="6.2005">
        <ele>1376</ele>
        <time>2020-02-09T07:21:18Z</time>
      </trkpt>
      <trkpt lat="45.28128" lon="6.20051">
        <ele>1376.1</ele>
        <time>2020-02-09T07:21:23Z</time>
      </trkpt>
      <trkpt lat="45.28131" lon="6.2005">
        <ele>1376.2</ele>
        <time>2020-02-09T07:21:34Z</time>
      </trkpt>
      <trkpt lat="45.28129" lon="6.20053">
        <ele>1376.2</ele>
        <time>2020-02-09T07:21:44Z</time>
      </trkpt>
      <trkpt lat="45.28128" lon="6.20049">
        <ele>1375.7</ele>
        <time>2020-02-09T07:21:51Z</time>
      </trkpt>
      <trkpt lat="45.2813" lon="6.20045">
        <ele>1375.3</ele>
        <time>2020-02-09T07:22:03Z</time>
      </trkpt>
      <trkpt lat="45.28127" lon="6.20046">
        <ele>1375.4</ele>
        <time>2020-02-09T07:22:12Z</time>
      </trkpt>
      <trkpt lat="45.28125" lon="6.20043">
        <ele>1375.5</ele>
        <time>2020-02-09T07:22:47Z</time>
      </trkpt>
      <trkpt lat="45.28122" lon="6.2004">
        <ele>1375.4</ele>
        <time>2020-02-09T07:22:50Z</time>
      </trkpt>
      <trkpt lat="45.2812" lon="6.20037">
        <ele>1375.2</ele>
        <time>2020-02-09T07:22:52Z</time>
      </trkpt>
      <trkpt lat="45.28118" lon="6.20035">
        <ele>1375</ele>
        <time>2020-02-09T07:22:55Z</time>
      </trkpt>
      <trkpt lat="45.28115" lon="6.20032">
        <ele>1374.6</ele>
        <time>2020-02-09T07:22:57Z</time>
      </trkpt>
      <trkpt lat="45.28111" lon="6.20028">
        <ele>1374</ele>
        <time>2020-02-09T07:22:59Z</time>
      </trkpt>
      <trkpt lat="45.28108" lon="6.20024">
        <ele>1373.6</ele>
        <time>2020-02-09T07:23:01Z</time>
      </trkpt>
      <trkpt lat="45.28104" lon="6.20019">
        <ele>1373.2</ele>
        <time>2020-02-09T07:23:03Z</time>
      </trkpt>
      <trkpt lat="45.28101" lon="6.20016">
        <ele>1373</ele>
        <time>2020-02-09T07:23:05Z</time>
      </trkpt>
      <trkpt lat="45.28099" lon="6.20012">
        <ele>1372.6</ele>
        <time>2020-02-09T07:23:07Z</time>
      </trkpt>
      <trkpt lat="45.28096" lon="6.20008">
        <ele>1372.2</ele>
        <time>2020-02-09T07:23:09Z</time>
      </trkpt>
      <trkpt lat="45.28094" lon="6.20005">
        <ele>1372.1</ele>
        <time>2020-02-09T07:23:11Z</time>
      </trkpt>
      <trkpt lat="45.28091" lon="6.20002">
        <ele>1372</ele>
        <time>2020-02-09T07:23:14Z</time>
      </trkpt>
      <trkpt lat="45.28088" lon="6.19998">
        <ele>1371.6</ele>
        <time>2020-02-09T07:23:16Z</time>
      </trkpt>
      <trkpt lat="45.28085" lon="6.19994">
        <ele>1371.1</ele>
        <time>2020-02-09T07:23:18Z</time>
      </trkpt>
      <trkpt lat="45.28082" lon="6.1999">
        <ele>1371.2</ele>
        <time>2020-02-09T07:23:21Z</time>
      </trkpt>
      <trkpt lat="45.2808" lon="6.19986">
        <ele>1371.3</ele>
        <time>2020-02-09T07:23:24Z</time>
      </trkpt>
      <trkpt lat="45.28078" lon="6.19983">
        <ele>1371.1</ele>
        <time>2020-02-09T07:23:26Z</time>
      </trkpt>
      <trkpt lat="45.28076" lon="6.19979">
        <ele>1370.9</ele>
        <time>2020-02-09T07:23:28Z</time>
      </trkpt>
      <trkpt lat="45.28072" lon="6.19975">
        <ele>1370.5</ele>
        <time>2020-02-09T07:23:30Z</time>
      </trkpt>
      <trkpt lat="45.2807" lon="6.19972">
        <ele>1370.3</ele>
        <time>2020-02-09T07:23:32Z</time>
      </trkpt>
      <trkpt lat="45.28067" lon="6.19969">
        <ele>1370.4</ele>
        <time>2020-02-09T07:23:34Z</time>
      </trkpt>
      <trkpt lat="45.28066" lon="6.19963">
        <ele>1370.7</ele>
        <time>2020-02-09T07:23:37Z</time>
      </trkpt>
      <trkpt lat="45.28065" lon="6.19959">
        <ele>1371</ele>
        <time>2020-02-09T07:23:39Z</time>
      </trkpt>
      <trkpt lat="45.28063" lon="6.19955">
        <ele>1371.5</ele>
        <time>2020-02-09T07:23:42Z</time>
      </trkpt>
      <trkpt lat="45.28062" lon="6.1995">
        <ele>1372</ele>
        <time>2020-02-09T07:23:46Z</time>
      </trkpt>
      <trkpt lat="45.28062" lon="6.19946">
        <ele>1372.4</ele>
        <time>2020-02-09T07:23:48Z</time>
      </trkpt>
      <trkpt lat="45.28062" lon="6.19942">
        <ele>1372.7</ele>
        <time>2020-02-09T07:23:51Z</time>
      </trkpt>
      <trkpt lat="45.28064" lon="6.19938">
        <ele>1372.5</ele>
        <time>2020-02-09T07:23:55Z</time>
      </trkpt>
      <trkpt lat="45.28064" lon="6.19934">
        <ele>1372.1</ele>
        <time>2020-02-09T07:23:58Z</time>
      </trkpt>
      <trkpt lat="45.28061" lon="6.19931">
        <ele>1371.3</ele>
        <time>2020-02-09T07:24:00Z</time>
      </trkpt>
      <trkpt lat="45.28059" lon="6.19929">
        <ele>1370.5</ele>
        <time>2020-02-09T07:24:02Z</time>
      </trkpt>
      <trkpt lat="45.28056" lon="6.19928">
        <ele>1370</ele>
        <time>2020-02-09T07:24:06Z</time>
      </trkpt>
      <trkpt lat="45.28053" lon="6.19927">
        <ele>1369.7</ele>
        <time>2020-02-09T07:24:08Z</time>
      </trkpt>
      <trkpt lat="45.28049" lon="6.19928">
        <ele>1369.3</ele>
        <time>2020-02-09T07:24:10Z</time>
      </trkpt>
      <trkpt lat="45.28045" lon="6.19928">
        <ele>1369.1</ele>
        <time>2020-02-09T07:24:13Z</time>
      </trkpt>
      <trkpt lat="45.28042" lon="6.19928">
        <ele>1368.9</ele>
        <time>2020-02-09T07:24:15Z</time>
      </trkpt>
      <trkpt lat="45.28039" lon="6.19924">
        <ele>1368.9</ele>
        <time>2020-02-09T07:24:18Z</time>
      </trkpt>
      <trkpt lat="45.28037" lon="6.19922">
        <ele>1368.9</ele>
        <time>2020-02-09T07:24:20Z</time>
      </trkpt>
      <trkpt lat="45.28034" lon="6.19918">
        <ele>1368.8</ele>
        <time>2020-02-09T07:24:23Z</time>
      </trkpt>
      <trkpt lat="45.28032" lon="6.19915">
        <ele>1368.8</ele>
        <time>2020-02-09T07:24:24Z</time>
      </trkpt>
      <trkpt lat="45.2803" lon="6.19909">
        <ele>1368.6</ele>
        <time>2020-02-09T07:24:26Z</time>
      </trkpt>
      <trkpt lat="45.28027" lon="6.19904">
        <ele>1368.5</ele>
        <time>2020-02-09T07:24:28Z</time>
      </trkpt>
      <trkpt lat="45.28024" lon="6.19899">
        <ele>1368.5</ele>
        <time>2020-02-09T07:24:30Z</time>
      </trkpt>
      <trkpt lat="45.28021" lon="6.19894">
        <ele>1368.5</ele>
        <time>2020-02-09T07:24:32Z</time>
      </trkpt>
      <trkpt lat="45.28019" lon="6.19891">
        <ele>1368.5</ele>
        <time>2020-02-09T07:24:33Z</time>
      </trkpt>
      <trkpt lat="45.28019" lon="6.19887">
        <ele>1368.5</ele>
        <time>2020-02-09T07:24:35Z</time>
      </trkpt>
      <trkpt lat="45.28017" lon="6.19883">
        <ele>1368.5</ele>
        <time>2020-02-09T07:24:40Z</time>
      </trkpt>
      <trkpt lat="45.28015" lon="6.19878">
        <ele>1368.6</ele>
        <time>2020-02-09T07:24:46Z</time>
      </trkpt>
      <trkpt lat="45.28011" lon="6.19874">
        <ele>1368.6</ele>
        <time>2020-02-09T07:24:49Z</time>
      </trkpt>
      <trkpt lat="45.28008" lon="6.19871">
        <ele>1368.5</ele>
        <time>2020-02-09T07:24:52Z</time>
      </trkpt>
      <trkpt lat="45.28007" lon="6.19868">
        <ele>1368.5</ele>
        <time>2020-02-09T07:24:54Z</time>
      </trkpt>
      <trkpt lat="45.28004" lon="6.19864">
        <ele>1368.6</ele>
        <time>2020-02-09T07:24:57Z</time>
      </trkpt>
      <trkpt lat="45.28003" lon="6.19861">
        <ele>1368.7</ele>
        <time>2020-02-09T07:24:59Z</time>
      </trkpt>
      <trkpt lat="45.28" lon="6.19859">
        <ele>1368.8</ele>
        <time>2020-02-09T07:25:02Z</time>
      </trkpt>
      <trkpt lat="45.27996" lon="6.19856">
        <ele>1369</ele>
        <time>2020-02-09T07:25:05Z</time>
      </trkpt>
      <trkpt lat="45.27994" lon="6.19853">
        <ele>1369.2</ele>
        <time>2020-02-09T07:25:07Z</time>
      </trkpt>
      <trkpt lat="45.27992" lon="6.19849">
        <ele>1369.4</ele>
        <time>2020-02-09T07:25:09Z</time>
      </trkpt>
      <trkpt lat="45.2799" lon="6.19845">
        <ele>1369.6</ele>
        <time>2020-02-09T07:25:11Z</time>
      </trkpt>
      <trkpt lat="45.27989" lon="6.19841">
        <ele>1369.8</ele>
        <time>2020-02-09T07:25:14Z</time>
      </trkpt>
      <trkpt lat="45.27988" lon="6.19837">
        <ele>1369.9</ele>
        <time>2020-02-09T07:25:17Z</time>
      </trkpt>
      <trkpt lat="45.27987" lon="6.19831">
        <ele>1370.3</ele>
        <time>2020-02-09T07:25:21Z</time>
      </trkpt>
      <trkpt lat="45.27986" lon="6.19827">
        <ele>1370.6</ele>
        <time>2020-02-09T07:25:23Z</time>
      </trkpt>
      <trkpt lat="45.27985" lon="6.19823">
        <ele>1370.8</ele>
        <time>2020-02-09T07:25:25Z</time>
      </trkpt>
      <trkpt lat="45.27984" lon="6.19819">
        <ele>1371.1</ele>
        <time>2020-02-09T07:25:28Z</time>
      </trkpt>
      <trkpt lat="45.2798" lon="6.19816">
        <ele>1371.5</ele>
        <time>2020-02-09T07:25:31Z</time>
      </trkpt>
      <trkpt lat="45.27981" lon="6.19812">
        <ele>1371.7</ele>
        <time>2020-02-09T07:25:33Z</time>
      </trkpt>
      <trkpt lat="45.27978" lon="6.19809">
        <ele>1371.8</ele>
        <time>2020-02-09T07:25:36Z</time>
      </trkpt>
      <trkpt lat="45.27978" lon="6.19804">
        <ele>1372.1</ele>
        <time>2020-02-09T07:25:39Z</time>
      </trkpt>
      <trkpt lat="45.27976" lon="6.19801">
        <ele>1372</ele>
        <time>2020-02-09T07:25:43Z</time>
      </trkpt>
      <trkpt lat="45.27973" lon="6.198">
        <ele>1372</ele>
        <time>2020-02-09T07:25:47Z</time>
      </trkpt>
      <trkpt lat="45.2797" lon="6.19802">
        <ele>1372</ele>
        <time>2020-02-09T07:25:49Z</time>
      </trkpt>
      <trkpt lat="45.27967" lon="6.19804">
        <ele>1372.4</ele>
        <time>2020-02-09T07:25:53Z</time>
      </trkpt>
      <trkpt lat="45.27964" lon="6.19805">
        <ele>1372.8</ele>
        <time>2020-02-09T07:25:57Z</time>
      </trkpt>
      <trkpt lat="45.27961" lon="6.19806">
        <ele>1373.2</ele>
        <time>2020-02-09T07:25:59Z</time>
      </trkpt>
      <trkpt lat="45.27958" lon="6.19808">
        <ele>1373.7</ele>
        <time>2020-02-09T07:26:02Z</time>
      </trkpt>
      <trkpt lat="45.27955" lon="6.19808">
        <ele>1374.2</ele>
        <time>2020-02-09T07:26:05Z</time>
      </trkpt>
      <trkpt lat="45.27952" lon="6.19807">
        <ele>1374.7</ele>
        <time>2020-02-09T07:26:08Z</time>
      </trkpt>
      <trkpt lat="45.27949" lon="6.19805">
        <ele>1375.2</ele>
        <time>2020-02-09T07:26:13Z</time>
      </trkpt>
      <trkpt lat="45.27948" lon="6.198">
        <ele>1375.8</ele>
        <time>2020-02-09T07:26:21Z</time>
      </trkpt>
      <trkpt lat="45.27947" lon="6.19797">
        <ele>1376.3</ele>
        <time>2020-02-09T07:26:26Z</time>
      </trkpt>
      <trkpt lat="45.27945" lon="6.19793">
        <ele>1376.8</ele>
        <time>2020-02-09T07:26:33Z</time>
      </trkpt>
      <trkpt lat="45.27946" lon="6.19787">
        <ele>1377.4</ele>
        <time>2020-02-09T07:26:36Z</time>
      </trkpt>
      <trkpt lat="45.27947" lon="6.19782">
        <ele>1378.1</ele>
        <time>2020-02-09T07:26:40Z</time>
      </trkpt>
      <trkpt lat="45.27947" lon="6.19777">
        <ele>1378.7</ele>
        <time>2020-02-09T07:26:44Z</time>
      </trkpt>
      <trkpt lat="45.27945" lon="6.19774">
        <ele>1379.2</ele>
        <time>2020-02-09T07:26:46Z</time>
      </trkpt>
      <trkpt lat="45.27943" lon="6.19769">
        <ele>1379.8</ele>
        <time>2020-02-09T07:26:48Z</time>
      </trkpt>
      <trkpt lat="45.27942" lon="6.19764">
        <ele>1380.5</ele>
        <time>2020-02-09T07:26:51Z</time>
      </trkpt>
      <trkpt lat="45.27941" lon="6.19759">
        <ele>1381</ele>
        <time>2020-02-09T07:26:53Z</time>
      </trkpt>
      <trkpt lat="45.27939" lon="6.19756">
        <ele>1381.6</ele>
        <time>2020-02-09T07:26:55Z</time>
      </trkpt>
      <trkpt lat="45.27938" lon="6.19752">
        <ele>1382.2</ele>
        <time>2020-02-09T07:26:57Z</time>
      </trkpt>
      <trkpt lat="45.27937" lon="6.19746">
        <ele>1383.1</ele>
        <time>2020-02-09T07:27:00Z</time>
      </trkpt>
      <trkpt lat="45.27935" lon="6.19742">
        <ele>1383.6</ele>
        <time>2020-02-09T07:27:03Z</time>
      </trkpt>
      <trkpt lat="45.27933" lon="6.19739">
        <ele>1384</ele>
        <time>2020-02-09T07:27:06Z</time>
      </trkpt>
      <trkpt lat="45.27931" lon="6.19736">
        <ele>1384.3</ele>
        <time>2020-02-09T07:27:09Z</time>
      </trkpt>
      <trkpt lat="45.27929" lon="6.19732">
        <ele>1384.8</ele>
        <time>2020-02-09T07:27:12Z</time>
      </trkpt>
      <trkpt lat="45.27926" lon="6.19729">
        <ele>1385.5</ele>
        <time>2020-02-09T07:27:15Z</time>
      </trkpt>
      <trkpt lat="45.27924" lon="6.19726">
        <ele>1386.1</ele>
        <time>2020-02-09T07:27:18Z</time>
      </trkpt>
      <trkpt lat="45.27921" lon="6.19725">
        <ele>1386.8</ele>
        <time>2020-02-09T07:27:24Z</time>
      </trkpt>
      <trkpt lat="45.2792" lon="6.1972">
        <ele>1387.5</ele>
        <time>2020-02-09T07:27:32Z</time>
      </trkpt>
      <trkpt lat="45.27917" lon="6.19718">
        <ele>1388.2</ele>
        <time>2020-02-09T07:27:44Z</time>
      </trkpt>
      <trkpt lat="45.27914" lon="6.19719">
        <ele>1388.9</ele>
        <time>2020-02-09T07:27:49Z</time>
      </trkpt>
      <trkpt lat="45.2791" lon="6.19718">
        <ele>1389.9</ele>
        <time>2020-02-09T07:27:51Z</time>
      </trkpt>
      <trkpt lat="45.27907" lon="6.19718">
        <ele>1390.6</ele>
        <time>2020-02-09T07:27:53Z</time>
      </trkpt>
      <trkpt lat="45.27904" lon="6.19716">
        <ele>1391.2</ele>
        <time>2020-02-09T07:27:57Z</time>
      </trkpt>
      <trkpt lat="45.27903" lon="6.19712">
        <ele>1391.9</ele>
        <time>2020-02-09T07:28:04Z</time>
      </trkpt>
      <trkpt lat="45.27901" lon="6.1971">
        <ele>1392.5</ele>
        <time>2020-02-09T07:28:07Z</time>
      </trkpt>
      <trkpt lat="45.27897" lon="6.1971">
        <ele>1393.2</ele>
        <time>2020-02-09T07:28:11Z</time>
      </trkpt>
      <trkpt lat="45.27894" lon="6.19708">
        <ele>1393.9</ele>
        <time>2020-02-09T07:28:16Z</time>
      </trkpt>
      <trkpt lat="45.2789" lon="6.19707">
        <ele>1394.8</ele>
        <time>2020-02-09T07:28:21Z</time>
      </trkpt>
      <trkpt lat="45.27888" lon="6.19706">
        <ele>1395.4</ele>
        <time>2020-02-09T07:28:23Z</time>
      </trkpt>
      <trkpt lat="45.27885" lon="6.19704">
        <ele>1396.2</ele>
        <time>2020-02-09T07:28:28Z</time>
      </trkpt>
      <trkpt lat="45.27884" lon="6.19699">
        <ele>1397</ele>
        <time>2020-02-09T07:28:34Z</time>
      </trkpt>
      <trkpt lat="45.27882" lon="6.19695">
        <ele>1397.8</ele>
        <time>2020-02-09T07:28:37Z</time>
      </trkpt>
      <trkpt lat="45.2788" lon="6.19692">
        <ele>1398.3</ele>
        <time>2020-02-09T07:28:40Z</time>
      </trkpt>
      <trkpt lat="45.27877" lon="6.1969">
        <ele>1399</ele>
        <time>2020-02-09T07:28:44Z</time>
      </trkpt>
      <trkpt lat="45.27877" lon="6.19686">
        <ele>1399.8</ele>
        <time>2020-02-09T07:28:49Z</time>
      </trkpt>
      <trkpt lat="45.27875" lon="6.19684">
        <ele>1400.6</ele>
        <time>2020-02-09T07:28:54Z</time>
      </trkpt>
      <trkpt lat="45.27874" lon="6.1968">
        <ele>1401</ele>
        <time>2020-02-09T07:28:58Z</time>
      </trkpt>
      <trkpt lat="45.27872" lon="6.19676">
        <ele>1402.1</ele>
        <time>2020-02-09T07:29:03Z</time>
      </trkpt>
      <trkpt lat="45.27869" lon="6.19674">
        <ele>1402.9</ele>
        <time>2020-02-09T07:29:08Z</time>
      </trkpt>
      <trkpt lat="45.27866" lon="6.19671">
        <ele>1403.2</ele>
        <time>2020-02-09T07:29:11Z</time>
      </trkpt>
      <trkpt lat="45.27863" lon="6.19669">
        <ele>1404.1</ele>
        <time>2020-02-09T07:29:14Z</time>
      </trkpt>
      <trkpt lat="45.27863" lon="6.19664">
        <ele>1405.3</ele>
        <time>2020-02-09T07:29:18Z</time>
      </trkpt>
      <trkpt lat="45.27863" lon="6.19659">
        <ele>1404.8</ele>
        <time>2020-02-09T07:29:21Z</time>
      </trkpt>
      <trkpt lat="45.27866" lon="6.19655">
        <ele>1405.2</ele>
        <time>2020-02-09T07:29:24Z</time>
      </trkpt>
      <trkpt lat="45.27866" lon="6.19651">
        <ele>1405.7</ele>
        <time>2020-02-09T07:29:27Z</time>
      </trkpt>
      <trkpt lat="45.27863" lon="6.19649">
        <ele>1406.8</ele>
        <time>2020-02-09T07:29:32Z</time>
      </trkpt>
      <trkpt lat="45.27862" lon="6.19645">
        <ele>1407.2</ele>
        <time>2020-02-09T07:29:39Z</time>
      </trkpt>
      <trkpt lat="45.2786" lon="6.19642">
        <ele>1407.6</ele>
        <time>2020-02-09T07:29:46Z</time>
      </trkpt>
      <trkpt lat="45.27857" lon="6.19641">
        <ele>1408.3</ele>
        <time>2020-02-09T07:29:49Z</time>
      </trkpt>
      <trkpt lat="45.27854" lon="6.1964">
        <ele>1409</ele>
        <time>2020-02-09T07:29:55Z</time>
      </trkpt>
      <trkpt lat="45.27852" lon="6.19643">
        <ele>1409.3</ele>
        <time>2020-02-09T07:30:00Z</time>
      </trkpt>
      <trkpt lat="45.2785" lon="6.1964">
        <ele>1410.3</ele>
        <time>2020-02-09T07:30:13Z</time>
      </trkpt>
      <trkpt lat="45.27847" lon="6.19637">
        <ele>1411.3</ele>
        <time>2020-02-09T07:30:18Z</time>
      </trkpt>
      <trkpt lat="45.27844" lon="6.19639">
        <ele>1411.8</ele>
        <time>2020-02-09T07:30:25Z</time>
      </trkpt>
      <trkpt lat="45.27842" lon="6.19641">
        <ele>1412.7</ele>
        <time>2020-02-09T07:30:27Z</time>
      </trkpt>
      <trkpt lat="45.27838" lon="6.19641">
        <ele>1413.6</ele>
        <time>2020-02-09T07:30:33Z</time>
      </trkpt>
      <trkpt lat="45.27836" lon="6.19645">
        <ele>1413.5</ele>
        <time>2020-02-09T07:30:37Z</time>
      </trkpt>
      <trkpt lat="45.27834" lon="6.19648">
        <ele>1414.4</ele>
        <time>2020-02-09T07:30:40Z</time>
      </trkpt>
      <trkpt lat="45.27831" lon="6.19651">
        <ele>1415.3</ele>
        <time>2020-02-09T07:30:45Z</time>
      </trkpt>
      <trkpt lat="45.27828" lon="6.19652">
        <ele>1416.5</ele>
        <time>2020-02-09T07:30:56Z</time>
      </trkpt>
      <trkpt lat="45.27831" lon="6.19649">
        <ele>1415.5</ele>
        <time>2020-02-09T07:31:01Z</time>
      </trkpt>
      <trkpt lat="45.27828" lon="6.19648">
        <ele>1416.6</ele>
        <time>2020-02-09T07:31:11Z</time>
      </trkpt>
      <trkpt lat="45.27825" lon="6.19649">
        <ele>1417.7</ele>
        <time>2020-02-09T07:31:16Z</time>
      </trkpt>
      <trkpt lat="45.27823" lon="6.19649">
        <ele>1418.7</ele>
        <time>2020-02-09T07:31:19Z</time>
      </trkpt>
      <trkpt lat="45.2782" lon="6.19649">
        <ele>1419.8</ele>
        <time>2020-02-09T07:31:23Z</time>
      </trkpt>
      <trkpt lat="45.27817" lon="6.1965">
        <ele>1420.8</ele>
        <time>2020-02-09T07:31:31Z</time>
      </trkpt>
      <trkpt lat="45.27817" lon="6.19655">
        <ele>1420.8</ele>
        <time>2020-02-09T07:31:34Z</time>
      </trkpt>
      <trkpt lat="45.27817" lon="6.19659">
        <ele>1420.8</ele>
        <time>2020-02-09T07:31:36Z</time>
      </trkpt>
      <trkpt lat="45.27817" lon="6.19662">
        <ele>1420.8</ele>
        <time>2020-02-09T07:31:45Z</time>
      </trkpt>
      <trkpt lat="45.27814" lon="6.19664">
        <ele>1421.8</ele>
        <time>2020-02-09T07:31:51Z</time>
      </trkpt>
      <trkpt lat="45.27811" lon="6.19663">
        <ele>1422.9</ele>
        <time>2020-02-09T07:31:56Z</time>
      </trkpt>
      <trkpt lat="45.27808" lon="6.19664">
        <ele>1424.1</ele>
        <time>2020-02-09T07:32:01Z</time>
      </trkpt>
      <trkpt lat="45.27805" lon="6.19663">
        <ele>1425.4</ele>
        <time>2020-02-09T07:32:07Z</time>
      </trkpt>
      <trkpt lat="45.27802" lon="6.19664">
        <ele>1426.7</ele>
        <time>2020-02-09T07:32:14Z</time>
      </trkpt>
      <trkpt lat="45.27799" lon="6.19664">
        <ele>1428</ele>
        <time>2020-02-09T07:32:27Z</time>
      </trkpt>
      <trkpt lat="45.27797" lon="6.19662">
        <ele>1427.9</ele>
        <time>2020-02-09T07:32:32Z</time>
      </trkpt>
      <trkpt lat="45.27794" lon="6.1966">
        <ele>1429.1</ele>
        <time>2020-02-09T07:32:34Z</time>
      </trkpt>
      <trkpt lat="45.27792" lon="6.19664">
        <ele>1430.4</ele>
        <time>2020-02-09T07:32:39Z</time>
      </trkpt>
      <trkpt lat="45.27789" lon="6.19668">
        <ele>1431.5</ele>
        <time>2020-02-09T07:32:46Z</time>
      </trkpt>
      <trkpt lat="45.27787" lon="6.19669">
        <ele>1433</ele>
        <time>2020-02-09T07:32:52Z</time>
      </trkpt>
      <trkpt lat="45.27785" lon="6.19673">
        <ele>1433.2</ele>
        <time>2020-02-09T07:33:01Z</time>
      </trkpt>
      <trkpt lat="45.27784" lon="6.19677">
        <ele>1434.9</ele>
        <time>2020-02-09T07:33:04Z</time>
      </trkpt>
      <trkpt lat="45.27784" lon="6.1968">
        <ele>1435</ele>
        <time>2020-02-09T07:33:07Z</time>
      </trkpt>
      <trkpt lat="45.27783" lon="6.19685">
        <ele>1435.6</ele>
        <time>2020-02-09T07:33:09Z</time>
      </trkpt>
      <trkpt lat="45.27781" lon="6.19689">
        <ele>1437.3</ele>
        <time>2020-02-09T07:33:13Z</time>
      </trkpt>
      <trkpt lat="45.27778" lon="6.19689">
        <ele>1439.5</ele>
        <time>2020-02-09T07:33:29Z</time>
      </trkpt>
      <trkpt lat="45.27776" lon="6.19692">
        <ele>1439.5</ele>
        <time>2020-02-09T07:33:34Z</time>
      </trkpt>
      <trkpt lat="45.27773" lon="6.19693">
        <ele>1441.8</ele>
        <time>2020-02-09T07:33:43Z</time>
      </trkpt>
      <trkpt lat="45.27773" lon="6.19698">
        <ele>1442.3</ele>
        <time>2020-02-09T07:33:47Z</time>
      </trkpt>
      <trkpt lat="45.27774" lon="6.19703">
        <ele>1442.8</ele>
        <time>2020-02-09T07:33:50Z</time>
      </trkpt>
      <trkpt lat="45.27774" lon="6.19708">
        <ele>1443.4</ele>
        <time>2020-02-09T07:33:53Z</time>
      </trkpt>
      <trkpt lat="45.27773" lon="6.19712">
        <ele>1443.9</ele>
        <time>2020-02-09T07:33:58Z</time>
      </trkpt>
      <trkpt lat="45.27773" lon="6.19717">
        <ele>1444.4</ele>
        <time>2020-02-09T07:34:04Z</time>
      </trkpt>
      <trkpt lat="45.27774" lon="6.19721">
        <ele>1445</ele>
        <time>2020-02-09T07:34:11Z</time>
      </trkpt>
      <trkpt lat="45.27776" lon="6.19725">
        <ele>1443.6</ele>
        <time>2020-02-09T07:34:17Z</time>
      </trkpt>
      <trkpt lat="45.27778" lon="6.19728">
        <ele>1444.1</ele>
        <time>2020-02-09T07:34:19Z</time>
      </trkpt>
      <trkpt lat="45.2778" lon="6.19731">
        <ele>1442.1</ele>
        <time>2020-02-09T07:34:22Z</time>
      </trkpt>
      <trkpt lat="45.27779" lon="6.19735">
        <ele>1444.7</ele>
        <time>2020-02-09T07:34:27Z</time>
      </trkpt>
      <trkpt lat="45.27778" lon="6.1974">
        <ele>1445.3</ele>
        <time>2020-02-09T07:34:32Z</time>
      </trkpt>
      <trkpt lat="45.27777" lon="6.19744">
        <ele>1446</ele>
        <time>2020-02-09T07:34:35Z</time>
      </trkpt>
      <trkpt lat="45.27775" lon="6.19748">
        <ele>1448.7</ele>
        <time>2020-02-09T07:34:38Z</time>
      </trkpt>
      <trkpt lat="45.27774" lon="6.19752">
        <ele>1449.5</ele>
        <time>2020-02-09T07:34:41Z</time>
      </trkpt>
      <trkpt lat="45.27773" lon="6.19757">
        <ele>1452.2</ele>
        <time>2020-02-09T07:34:47Z</time>
      </trkpt>
      <trkpt lat="45.27774" lon="6.19761">
        <ele>1451</ele>
        <time>2020-02-09T07:34:50Z</time>
      </trkpt>
      <trkpt lat="45.27774" lon="6.19765">
        <ele>1451.8</ele>
        <time>2020-02-09T07:34:54Z</time>
      </trkpt>
      <trkpt lat="45.27773" lon="6.19769">
        <ele>1452.5</ele>
        <time>2020-02-09T07:34:57Z</time>
      </trkpt>
      <trkpt lat="45.27774" lon="6.19774">
        <ele>1453.3</ele>
        <time>2020-02-09T07:35:01Z</time>
      </trkpt>
      <trkpt lat="45.27774" lon="6.19778">
        <ele>1454.2</ele>
        <time>2020-02-09T07:35:07Z</time>
      </trkpt>
      <trkpt lat="45.27776" lon="6.19781">
        <ele>1452.9</ele>
        <time>2020-02-09T07:35:12Z</time>
      </trkpt>
      <trkpt lat="45.27777" lon="6.19785">
        <ele>1453.8</ele>
        <time>2020-02-09T07:35:15Z</time>
      </trkpt>
      <trkpt lat="45.27778" lon="6.1979">
        <ele>1454.8</ele>
        <time>2020-02-09T07:35:19Z</time>
      </trkpt>
      <trkpt lat="45.27778" lon="6.19794">
        <ele>1455.9</ele>
        <time>2020-02-09T07:35:22Z</time>
      </trkpt>
      <trkpt lat="45.27777" lon="6.19799">
        <ele>1457</ele>
        <time>2020-02-09T07:35:25Z</time>
      </trkpt>
      <trkpt lat="45.27777" lon="6.19803">
        <ele>1458</ele>
        <time>2020-02-09T07:35:29Z</time>
      </trkpt>
      <trkpt lat="45.27779" lon="6.19807">
        <ele>1459.1</ele>
        <time>2020-02-09T07:35:34Z</time>
      </trkpt>
      <trkpt lat="45.27778" lon="6.19812">
        <ele>1460.1</ele>
        <time>2020-02-09T07:35:39Z</time>
      </trkpt>
      <trkpt lat="45.27777" lon="6.19816">
        <ele>1461.1</ele>
        <time>2020-02-09T07:35:43Z</time>
      </trkpt>
      <trkpt lat="45.27778" lon="6.1982">
        <ele>1462.1</ele>
        <time>2020-02-09T07:35:47Z</time>
      </trkpt>
      <trkpt lat="45.27779" lon="6.19824">
        <ele>1460.7</ele>
        <time>2020-02-09T07:35:51Z</time>
      </trkpt>
      <trkpt lat="45.27781" lon="6.19826">
        <ele>1460.7</ele>
        <time>2020-02-09T07:35:54Z</time>
      </trkpt>
      <trkpt lat="45.27783" lon="6.19829">
        <ele>1459.4</ele>
        <time>2020-02-09T07:35:57Z</time>
      </trkpt>
      <trkpt lat="45.27784" lon="6.19833">
        <ele>1460.5</ele>
        <time>2020-02-09T07:36:02Z</time>
      </trkpt>
      <trkpt lat="45.27784" lon="6.19838">
        <ele>1461.6</ele>
        <time>2020-02-09T07:36:05Z</time>
      </trkpt>
      <trkpt lat="45.27785" lon="6.19841">
        <ele>1460.5</ele>
        <time>2020-02-09T07:36:08Z</time>
      </trkpt>
      <trkpt lat="45.27785" lon="6.19845">
        <ele>1461.6</ele>
        <time>2020-02-09T07:36:10Z</time>
      </trkpt>
      <trkpt lat="45.27786" lon="6.19851">
        <ele>1462.6</ele>
        <time>2020-02-09T07:36:13Z</time>
      </trkpt>
      <trkpt lat="45.27787" lon="6.19855">
        <ele>1463.7</ele>
        <time>2020-02-09T07:36:17Z</time>
      </trkpt>
      <trkpt lat="45.27788" lon="6.19859">
        <ele>1462.7</ele>
        <time>2020-02-09T07:36:22Z</time>
      </trkpt>
      <trkpt lat="45.27789" lon="6.19863">
        <ele>1463.8</ele>
        <time>2020-02-09T07:36:27Z</time>
      </trkpt>
      <trkpt lat="45.2779" lon="6.19868">
        <ele>1465</ele>
        <time>2020-02-09T07:36:29Z</time>
      </trkpt>
      <trkpt lat="45.2779" lon="6.19872">
        <ele>1466.3</ele>
        <time>2020-02-09T07:36:31Z</time>
      </trkpt>
      <trkpt lat="45.27791" lon="6.19877">
        <ele>1467.7</ele>
        <time>2020-02-09T07:36:35Z</time>
      </trkpt>
      <trkpt lat="45.27792" lon="6.19881">
        <ele>1467.2</ele>
        <time>2020-02-09T07:36:40Z</time>
      </trkpt>
      <trkpt lat="45.27791" lon="6.19885">
        <ele>1468.8</ele>
        <time>2020-02-09T07:36:44Z</time>
      </trkpt>
      <trkpt lat="45.27792" lon="6.19889">
        <ele>1470.5</ele>
        <time>2020-02-09T07:36:50Z</time>
      </trkpt>
      <trkpt lat="45.27793" lon="6.19893">
        <ele>1472.1</ele>
        <time>2020-02-09T07:36:56Z</time>
      </trkpt>
      <trkpt lat="45.27793" lon="6.19897">
        <ele>1473.6</ele>
        <time>2020-02-09T07:36:59Z</time>
      </trkpt>
      <trkpt lat="45.27794" lon="6.19901">
        <ele>1473.1</ele>
        <time>2020-02-09T07:37:03Z</time>
      </trkpt>
      <trkpt lat="45.27794" lon="6.19906">
        <ele>1474.5</ele>
        <time>2020-02-09T07:37:06Z</time>
      </trkpt>
      <trkpt lat="45.27797" lon="6.1991">
        <ele>1473.8</ele>
        <time>2020-02-09T07:37:11Z</time>
      </trkpt>
      <trkpt lat="45.27796" lon="6.19914">
        <ele>1477.5</ele>
        <time>2020-02-09T07:37:13Z</time>
      </trkpt>
      <trkpt lat="45.27797" lon="6.19919">
        <ele>1478.9</ele>
        <time>2020-02-09T07:37:16Z</time>
      </trkpt>
      <trkpt lat="45.27797" lon="6.19924">
        <ele>1478.3</ele>
        <time>2020-02-09T07:37:19Z</time>
      </trkpt>
      <trkpt lat="45.27799" lon="6.19927">
        <ele>1479.8</ele>
        <time>2020-02-09T07:37:22Z</time>
      </trkpt>
      <trkpt lat="45.27801" lon="6.1993">
        <ele>1479</ele>
        <time>2020-02-09T07:37:25Z</time>
      </trkpt>
      <trkpt lat="45.27803" lon="6.19931">
        <ele>1476.6</ele>
        <time>2020-02-09T07:37:29Z</time>
      </trkpt>
      <trkpt lat="45.27804" lon="6.19935">
        <ele>1478</ele>
        <time>2020-02-09T07:37:33Z</time>
      </trkpt>
      <trkpt lat="45.27806" lon="6.19939">
        <ele>1479.4</ele>
        <time>2020-02-09T07:37:36Z</time>
      </trkpt>
      <trkpt lat="45.27808" lon="6.19942">
        <ele>1478.3</ele>
        <time>2020-02-09T07:37:40Z</time>
      </trkpt>
      <trkpt lat="45.27808" lon="6.19946">
        <ele>1478.3</ele>
        <time>2020-02-09T07:37:43Z</time>
      </trkpt>
      <trkpt lat="45.27807" lon="6.19951">
        <ele>1480.6</ele>
        <time>2020-02-09T07:37:46Z</time>
      </trkpt>
      <trkpt lat="45.27808" lon="6.19956">
        <ele>1481.7</ele>
        <time>2020-02-09T07:37:49Z</time>
      </trkpt>
      <trkpt lat="45.27808" lon="6.19959">
        <ele>1481.7</ele>
        <time>2020-02-09T07:37:51Z</time>
      </trkpt>
      <trkpt lat="45.2781" lon="6.19963">
        <ele>1480.6</ele>
        <time>2020-02-09T07:37:55Z</time>
      </trkpt>
      <trkpt lat="45.2781" lon="6.19967">
        <ele>1481.7</ele>
        <time>2020-02-09T07:38:01Z</time>
      </trkpt>
      <trkpt lat="45.27809" lon="6.19971">
        <ele>1482.9</ele>
        <time>2020-02-09T07:38:09Z</time>
      </trkpt>
      <trkpt lat="45.27809" lon="6.19976">
        <ele>1484</ele>
        <time>2020-02-09T07:38:14Z</time>
      </trkpt>
      <trkpt lat="45.27809" lon="6.19981">
        <ele>1488.3</ele>
        <time>2020-02-09T07:38:18Z</time>
      </trkpt>
      <trkpt lat="45.2781" lon="6.19985">
        <ele>1486.2</ele>
        <time>2020-02-09T07:38:25Z</time>
      </trkpt>
      <trkpt lat="45.27808" lon="6.19988">
        <ele>1489.3</ele>
        <time>2020-02-09T07:38:29Z</time>
      </trkpt>
      <trkpt lat="45.27806" lon="6.19992">
        <ele>1490.2</ele>
        <time>2020-02-09T07:38:33Z</time>
      </trkpt>
      <trkpt lat="45.27807" lon="6.19996">
        <ele>1491.1</ele>
        <time>2020-02-09T07:38:37Z</time>
      </trkpt>
      <trkpt lat="45.27809" lon="6.2">
        <ele>1492</ele>
        <time>2020-02-09T07:38:41Z</time>
      </trkpt>
      <trkpt lat="45.2781" lon="6.20003">
        <ele>1490.9</ele>
        <time>2020-02-09T07:38:45Z</time>
      </trkpt>
      <trkpt lat="45.27811" lon="6.20007">
        <ele>1491.8</ele>
        <time>2020-02-09T07:38:48Z</time>
      </trkpt>
      <trkpt lat="45.27811" lon="6.20012">
        <ele>1492.8</ele>
        <time>2020-02-09T07:38:52Z</time>
      </trkpt>
      <trkpt lat="45.27811" lon="6.20017">
        <ele>1493.8</ele>
        <time>2020-02-09T07:38:57Z</time>
      </trkpt>
      <trkpt lat="45.2781" lon="6.20021">
        <ele>1494.8</ele>
        <time>2020-02-09T07:39:02Z</time>
      </trkpt>
      <trkpt lat="45.27812" lon="6.20024">
        <ele>1495.8</ele>
        <time>2020-02-09T07:39:09Z</time>
      </trkpt>
      <trkpt lat="45.27812" lon="6.20028">
        <ele>1494.8</ele>
        <time>2020-02-09T07:39:12Z</time>
      </trkpt>
      <trkpt lat="45.27813" lon="6.20033">
        <ele>1495.7</ele>
        <time>2020-02-09T07:39:15Z</time>
      </trkpt>
      <trkpt lat="45.27814" lon="6.20036">
        <ele>1495.7</ele>
        <time>2020-02-09T07:39:18Z</time>
      </trkpt>
      <trkpt lat="45.27816" lon="6.20041">
        <ele>1494.8</ele>
        <time>2020-02-09T07:39:20Z</time>
      </trkpt>
      <trkpt lat="45.27816" lon="6.20045">
        <ele>1495.7</ele>
        <time>2020-02-09T07:39:24Z</time>
      </trkpt>
      <trkpt lat="45.27816" lon="6.20049">
        <ele>1496.5</ele>
        <time>2020-02-09T07:39:27Z</time>
      </trkpt>
      <trkpt lat="45.27816" lon="6.20054">
        <ele>1498.4</ele>
        <time>2020-02-09T07:39:30Z</time>
      </trkpt>
      <trkpt lat="45.27815" lon="6.20058">
        <ele>1498.4</ele>
        <time>2020-02-09T07:39:32Z</time>
      </trkpt>
      <trkpt lat="45.27815" lon="6.20062">
        <ele>1499.4</ele>
        <time>2020-02-09T07:39:35Z</time>
      </trkpt>
      <trkpt lat="45.27816" lon="6.20066">
        <ele>1500.3</ele>
        <time>2020-02-09T07:39:40Z</time>
      </trkpt>
      <trkpt lat="45.27817" lon="6.2007">
        <ele>1501.2</ele>
        <time>2020-02-09T07:39:48Z</time>
      </trkpt>
      <trkpt lat="45.27816" lon="6.20073">
        <ele>1502.1</ele>
        <time>2020-02-09T07:39:51Z</time>
      </trkpt>
      <trkpt lat="45.27815" lon="6.20078">
        <ele>1502.9</ele>
        <time>2020-02-09T07:39:54Z</time>
      </trkpt>
      <trkpt lat="45.27816" lon="6.20082">
        <ele>1503.7</ele>
        <time>2020-02-09T07:39:58Z</time>
      </trkpt>
      <trkpt lat="45.27817" lon="6.20086">
        <ele>1504.5</ele>
        <time>2020-02-09T07:40:02Z</time>
      </trkpt>
      <trkpt lat="45.27817" lon="6.2009">
        <ele>1505.3</ele>
        <time>2020-02-09T07:40:08Z</time>
      </trkpt>
      <trkpt lat="45.27817" lon="6.20096">
        <ele>1506.1</ele>
        <time>2020-02-09T07:40:12Z</time>
      </trkpt>
      <trkpt lat="45.27817" lon="6.201">
        <ele>1506.8</ele>
        <time>2020-02-09T07:40:17Z</time>
      </trkpt>
      <trkpt lat="45.27817" lon="6.20105">
        <ele>1507.6</ele>
        <time>2020-02-09T07:40:22Z</time>
      </trkpt>
      <trkpt lat="45.27815" lon="6.20109">
        <ele>1508.4</ele>
        <time>2020-02-09T07:40:31Z</time>
      </trkpt>
      <trkpt lat="45.27816" lon="6.20113">
        <ele>1509.1</ele>
        <time>2020-02-09T07:40:36Z</time>
      </trkpt>
      <trkpt lat="45.27817" lon="6.20117">
        <ele>1509.8</ele>
        <time>2020-02-09T07:40:46Z</time>
      </trkpt>
      <trkpt lat="45.2782" lon="6.2012">
        <ele>1509.3</ele>
        <time>2020-02-09T07:40:50Z</time>
      </trkpt>
      <trkpt lat="45.27821" lon="6.20124">
        <ele>1508.7</ele>
        <time>2020-02-09T07:40:52Z</time>
      </trkpt>
      <trkpt lat="45.27825" lon="6.20128">
        <ele>1508.1</ele>
        <time>2020-02-09T07:40:55Z</time>
      </trkpt>
      <trkpt lat="45.27827" lon="6.20131">
        <ele>1506.8</ele>
        <time>2020-02-09T07:41:02Z</time>
      </trkpt>
      <trkpt lat="45.27829" lon="6.20135">
        <ele>1508</ele>
        <time>2020-02-09T07:41:05Z</time>
      </trkpt>
      <trkpt lat="45.27831" lon="6.20139">
        <ele>1506.7</ele>
        <time>2020-02-09T07:41:08Z</time>
      </trkpt>
      <trkpt lat="45.27833" lon="6.20142">
        <ele>1506</ele>
        <time>2020-02-09T07:41:13Z</time>
      </trkpt>
      <trkpt lat="45.27835" lon="6.20145">
        <ele>1506.7</ele>
        <time>2020-02-09T07:41:17Z</time>
      </trkpt>
      <trkpt lat="45.27836" lon="6.20149">
        <ele>1507.4</ele>
        <time>2020-02-09T07:41:21Z</time>
      </trkpt>
      <trkpt lat="45.27838" lon="6.20153">
        <ele>1506.9</ele>
        <time>2020-02-09T07:41:27Z</time>
      </trkpt>
      <trkpt lat="45.27837" lon="6.20158">
        <ele>1507.6</ele>
        <time>2020-02-09T07:41:33Z</time>
      </trkpt>
      <trkpt lat="45.27839" lon="6.2016">
        <ele>1506.5</ele>
        <time>2020-02-09T07:41:39Z</time>
      </trkpt>
      <trkpt lat="45.27841" lon="6.20164">
        <ele>1507.3</ele>
        <time>2020-02-09T07:41:45Z</time>
      </trkpt>
      <trkpt lat="45.27844" lon="6.20167">
        <ele>1507</ele>
        <time>2020-02-09T07:41:52Z</time>
      </trkpt>
      <trkpt lat="45.27846" lon="6.2017">
        <ele>1506</ele>
        <time>2020-02-09T07:41:54Z</time>
      </trkpt>
      <trkpt lat="45.27847" lon="6.20174">
        <ele>1506.8</ele>
        <time>2020-02-09T07:41:57Z</time>
      </trkpt>
      <trkpt lat="45.27847" lon="6.20178">
        <ele>1507.6</ele>
        <time>2020-02-09T07:42:01Z</time>
      </trkpt>
      <trkpt lat="45.27849" lon="6.20183">
        <ele>1508.3</ele>
        <time>2020-02-09T07:42:05Z</time>
      </trkpt>
      <trkpt lat="45.2785" lon="6.20187">
        <ele>1508.3</ele>
        <time>2020-02-09T07:42:08Z</time>
      </trkpt>
      <trkpt lat="45.27852" lon="6.2019">
        <ele>1508.3</ele>
        <time>2020-02-09T07:42:15Z</time>
      </trkpt>
      <trkpt lat="45.27853" lon="6.20194">
        <ele>1509.1</ele>
        <time>2020-02-09T07:42:20Z</time>
      </trkpt>
      <trkpt lat="45.27853" lon="6.20199">
        <ele>1509.9</ele>
        <time>2020-02-09T07:42:26Z</time>
      </trkpt>
      <trkpt lat="45.27854" lon="6.20204">
        <ele>1510.2</ele>
        <time>2020-02-09T07:42:29Z</time>
      </trkpt>
      <trkpt lat="45.27854" lon="6.20208">
        <ele>1510.5</ele>
        <time>2020-02-09T07:42:42Z</time>
      </trkpt>
      <trkpt lat="45.27852" lon="6.20211">
        <ele>1510.8</ele>
        <time>2020-02-09T07:42:50Z</time>
      </trkpt>
      <trkpt lat="45.2785" lon="6.20214">
        <ele>1511.1</ele>
        <time>2020-02-09T07:42:54Z</time>
      </trkpt>
      <trkpt lat="45.27846" lon="6.20214">
        <ele>1511.4</ele>
        <time>2020-02-09T07:42:59Z</time>
      </trkpt>
      <trkpt lat="45.27844" lon="6.2021">
        <ele>1511.7</ele>
        <time>2020-02-09T07:43:02Z</time>
      </trkpt>
      <trkpt lat="45.27841" lon="6.20208">
        <ele>1513.3</ele>
        <time>2020-02-09T07:43:05Z</time>
      </trkpt>
      <trkpt lat="45.27838" lon="6.20204">
        <ele>1513.8</ele>
        <time>2020-02-09T07:43:08Z</time>
      </trkpt>
      <trkpt lat="45.27836" lon="6.20202">
        <ele>1514.2</ele>
        <time>2020-02-09T07:43:12Z</time>
      </trkpt>
      <trkpt lat="45.27834" lon="6.20204">
        <ele>1514.6</ele>
        <time>2020-02-09T07:43:27Z</time>
      </trkpt>
      <trkpt lat="45.27836" lon="6.20201">
        <ele>1515.1</ele>
        <time>2020-02-09T07:43:50Z</time>
      </trkpt>
      <trkpt lat="45.27833" lon="6.202">
        <ele>1515.5</ele>
        <time>2020-02-09T07:45:17Z</time>
      </trkpt>
      <trkpt lat="45.27835" lon="6.20202">
        <ele>1515.8</ele>
        <time>2020-02-09T07:45:35Z</time>
      </trkpt>
      <trkpt lat="45.27837" lon="6.20206">
        <ele>1516.2</ele>
        <time>2020-02-09T07:45:49Z</time>
      </trkpt>
      <trkpt lat="45.27834" lon="6.20203">
        <ele>1516.5</ele>
        <time>2020-02-09T07:47:23Z</time>
      </trkpt>
      <trkpt lat="45.27832" lon="6.202">
        <ele>1516.8</ele>
        <time>2020-02-09T07:47:39Z</time>
      </trkpt>
      <trkpt lat="45.2783" lon="6.20198">
        <ele>1517</ele>
        <time>2020-02-09T07:47:42Z</time>
      </trkpt>
      <trkpt lat="45.27826" lon="6.20194">
        <ele>1517.3</ele>
        <time>2020-02-09T07:47:45Z</time>
      </trkpt>
      <trkpt lat="45.27824" lon="6.20191">
        <ele>1517.6</ele>
        <time>2020-02-09T07:47:48Z</time>
      </trkpt>
      <trkpt lat="45.27821" lon="6.20189">
        <ele>1517.9</ele>
        <time>2020-02-09T07:47:53Z</time>
      </trkpt>
      <trkpt lat="45.27819" lon="6.20186">
        <ele>1518.1</ele>
        <time>2020-02-09T07:48:00Z</time>
      </trkpt>
      <trkpt lat="45.27816" lon="6.20183">
        <ele>1518.4</ele>
        <time>2020-02-09T07:48:04Z</time>
      </trkpt>
      <trkpt lat="45.27814" lon="6.20181">
        <ele>1518.7</ele>
        <time>2020-02-09T07:48:06Z</time>
      </trkpt>
      <trkpt lat="45.27812" lon="6.20178">
        <ele>1519</ele>
        <time>2020-02-09T07:48:10Z</time>
      </trkpt>
      <trkpt lat="45.2781" lon="6.20175">
        <ele>1519.4</ele>
        <time>2020-02-09T07:48:13Z</time>
      </trkpt>
      <trkpt lat="45.27807" lon="6.2017">
        <ele>1519.9</ele>
        <time>2020-02-09T07:48:17Z</time>
      </trkpt>
      <trkpt lat="45.27805" lon="6.20166">
        <ele>1520.3</ele>
        <time>2020-02-09T07:48:21Z</time>
      </trkpt>
      <trkpt lat="45.27803" lon="6.20164">
        <ele>1520.7</ele>
        <time>2020-02-09T07:48:24Z</time>
      </trkpt>
      <trkpt lat="45.27801" lon="6.20161">
        <ele>1521.1</ele>
        <time>2020-02-09T07:48:26Z</time>
      </trkpt>
      <trkpt lat="45.27798" lon="6.20158">
        <ele>1521.5</ele>
        <time>2020-02-09T07:48:28Z</time>
      </trkpt>
      <trkpt lat="45.27796" lon="6.20157">
        <ele>1521.9</ele>
        <time>2020-02-09T07:48:32Z</time>
      </trkpt>
      <trkpt lat="45.27793" lon="6.20154">
        <ele>1522.3</ele>
        <time>2020-02-09T07:48:35Z</time>
      </trkpt>
      <trkpt lat="45.2779" lon="6.20153">
        <ele>1522.8</ele>
        <time>2020-02-09T07:48:38Z</time>
      </trkpt>
      <trkpt lat="45.27787" lon="6.2015">
        <ele>1523.2</ele>
        <time>2020-02-09T07:48:41Z</time>
      </trkpt>
      <trkpt lat="45.27785" lon="6.20147">
        <ele>1523.5</ele>
        <time>2020-02-09T07:48:44Z</time>
      </trkpt>
      <trkpt lat="45.27783" lon="6.20143">
        <ele>1523.9</ele>
        <time>2020-02-09T07:48:48Z</time>
      </trkpt>
      <trkpt lat="45.2778" lon="6.20141">
        <ele>1524.3</ele>
        <time>2020-02-09T07:48:51Z</time>
      </trkpt>
      <trkpt lat="45.27778" lon="6.20139">
        <ele>1524.5</ele>
        <time>2020-02-09T07:48:53Z</time>
      </trkpt>
      <trkpt lat="45.27776" lon="6.20135">
        <ele>1524.8</ele>
        <time>2020-02-09T07:48:57Z</time>
      </trkpt>
      <trkpt lat="45.27776" lon="6.20129">
        <ele>1525.1</ele>
        <time>2020-02-09T07:49:00Z</time>
      </trkpt>
      <trkpt lat="45.27776" lon="6.20125">
        <ele>1525.3</ele>
        <time>2020-02-09T07:49:02Z</time>
      </trkpt>
      <trkpt lat="45.27775" lon="6.20121">
        <ele>1525.5</ele>
        <time>2020-02-09T07:49:05Z</time>
      </trkpt>
      <trkpt lat="45.27773" lon="6.20119">
        <ele>1525.7</ele>
        <time>2020-02-09T07:49:08Z</time>
      </trkpt>
      <trkpt lat="45.27772" lon="6.20115">
        <ele>1525.9</ele>
        <time>2020-02-09T07:49:11Z</time>
      </trkpt>
      <trkpt lat="45.2777" lon="6.20112">
        <ele>1526.2</ele>
        <time>2020-02-09T07:49:15Z</time>
      </trkpt>
      <trkpt lat="45.27769" lon="6.20108">
        <ele>1526.5</ele>
        <time>2020-02-09T07:49:18Z</time>
      </trkpt>
      <trkpt lat="45.27768" lon="6.20102">
        <ele>1526.8</ele>
        <time>2020-02-09T07:49:22Z</time>
      </trkpt>
      <trkpt lat="45.27766" lon="6.20098">
        <ele>1527.1</ele>
        <time>2020-02-09T07:49:26Z</time>
      </trkpt>
      <trkpt lat="45.27763" lon="6.20096">
        <ele>1527.3</ele>
        <time>2020-02-09T07:49:41Z</time>
      </trkpt>
      <trkpt lat="45.27761" lon="6.20093">
        <ele>1527.6</ele>
        <time>2020-02-09T07:49:44Z</time>
      </trkpt>
      <trkpt lat="45.27759" lon="6.2009">
        <ele>1527.8</ele>
        <time>2020-02-09T07:49:47Z</time>
      </trkpt>
      <trkpt lat="45.27756" lon="6.20087">
        <ele>1528.1</ele>
        <time>2020-02-09T07:49:51Z</time>
      </trkpt>
      <trkpt lat="45.27754" lon="6.20084">
        <ele>1528.3</ele>
        <time>2020-02-09T07:49:54Z</time>
      </trkpt>
      <trkpt lat="45.27751" lon="6.20081">
        <ele>1528.5</ele>
        <time>2020-02-09T07:49:57Z</time>
      </trkpt>
      <trkpt lat="45.27749" lon="6.20077">
        <ele>1528.8</ele>
        <time>2020-02-09T07:50:00Z</time>
      </trkpt>
      <trkpt lat="45.27747" lon="6.20074">
        <ele>1529</ele>
        <time>2020-02-09T07:50:03Z</time>
      </trkpt>
      <trkpt lat="45.27745" lon="6.2007">
        <ele>1529.3</ele>
        <time>2020-02-09T07:50:06Z</time>
      </trkpt>
      <trkpt lat="45.27742" lon="6.20067">
        <ele>1529.6</ele>
        <time>2020-02-09T07:50:09Z</time>
      </trkpt>
      <trkpt lat="45.27741" lon="6.20064">
        <ele>1529.8</ele>
        <time>2020-02-09T07:50:13Z</time>
      </trkpt>
      <trkpt lat="45.27739" lon="6.20061">
        <ele>1530</ele>
        <time>2020-02-09T07:50:16Z</time>
      </trkpt>
      <trkpt lat="45.27737" lon="6.20057">
        <ele>1530.3</ele>
        <time>2020-02-09T07:50:19Z</time>
      </trkpt>
      <trkpt lat="45.27734" lon="6.20054">
        <ele>1530.5</ele>
        <time>2020-02-09T07:50:22Z</time>
      </trkpt>
      <trkpt lat="45.27732" lon="6.20051">
        <ele>1530.8</ele>
        <time>2020-02-09T07:50:25Z</time>
      </trkpt>
      <trkpt lat="45.27729" lon="6.20048">
        <ele>1531.1</ele>
        <time>2020-02-09T07:50:28Z</time>
      </trkpt>
      <trkpt lat="45.27727" lon="6.20044">
        <ele>1531.2</ele>
        <time>2020-02-09T07:50:32Z</time>
      </trkpt>
      <trkpt lat="45.27725" lon="6.20043">
        <ele>1531.4</ele>
        <time>2020-02-09T07:50:34Z</time>
      </trkpt>
      <trkpt lat="45.27722" lon="6.20041">
        <ele>1531.6</ele>
        <time>2020-02-09T07:50:38Z</time>
      </trkpt>
      <trkpt lat="45.27718" lon="6.20039">
        <ele>1531.8</ele>
        <time>2020-02-09T07:50:41Z</time>
      </trkpt>
      <trkpt lat="45.27717" lon="6.20035">
        <ele>1531.9</ele>
        <time>2020-02-09T07:50:44Z</time>
      </trkpt>
      <trkpt lat="45.27715" lon="6.20032">
        <ele>1532</ele>
        <time>2020-02-09T07:50:48Z</time>
      </trkpt>
      <trkpt lat="45.27713" lon="6.20029">
        <ele>1532.1</ele>
        <time>2020-02-09T07:50:51Z</time>
      </trkpt>
      <trkpt lat="45.27712" lon="6.20025">
        <ele>1532.1</ele>
        <time>2020-02-09T07:50:55Z</time>
      </trkpt>
      <trkpt lat="45.2771" lon="6.20021">
        <ele>1532.2</ele>
        <time>2020-02-09T07:50:58Z</time>
      </trkpt>
      <trkpt lat="45.27709" lon="6.20016">
        <ele>1532.3</ele>
        <time>2020-02-09T07:51:01Z</time>
      </trkpt>
      <trkpt lat="45.27708" lon="6.20012">
        <ele>1532.4</ele>
        <time>2020-02-09T07:51:04Z</time>
      </trkpt>
      <trkpt lat="45.27706" lon="6.20008">
        <ele>1532.5</ele>
        <time>2020-02-09T07:51:07Z</time>
      </trkpt>
      <trkpt lat="45.27704" lon="6.20004">
        <ele>1532.5</ele>
        <time>2020-02-09T07:51:10Z</time>
      </trkpt>
      <trkpt lat="45.27701" lon="6.20002">
        <ele>1532.7</ele>
        <time>2020-02-09T07:51:13Z</time>
      </trkpt>
      <trkpt lat="45.27699" lon="6.19999">
        <ele>1532.7</ele>
        <time>2020-02-09T07:51:16Z</time>
      </trkpt>
      <trkpt lat="45.277" lon="6.19995">
        <ele>1532.8</ele>
        <time>2020-02-09T07:51:22Z</time>
      </trkpt>
      <trkpt lat="45.277" lon="6.1999">
        <ele>1533</ele>
        <time>2020-02-09T07:51:42Z</time>
      </trkpt>
      <trkpt lat="45.27697" lon="6.19988">
        <ele>1533.1</ele>
        <time>2020-02-09T07:51:46Z</time>
      </trkpt>
      <trkpt lat="45.27695" lon="6.19983">
        <ele>1533.2</ele>
        <time>2020-02-09T07:51:49Z</time>
      </trkpt>
      <trkpt lat="45.27692" lon="6.19977">
        <ele>1533.4</ele>
        <time>2020-02-09T07:51:52Z</time>
      </trkpt>
      <trkpt lat="45.27689" lon="6.19973">
        <ele>1533.6</ele>
        <time>2020-02-09T07:51:55Z</time>
      </trkpt>
      <trkpt lat="45.27686" lon="6.19968">
        <ele>1533.7</ele>
        <time>2020-02-09T07:51:58Z</time>
      </trkpt>
      <trkpt lat="45.27684" lon="6.19965">
        <ele>1533.8</ele>
        <time>2020-02-09T07:52:01Z</time>
      </trkpt>
      <trkpt lat="45.27682" lon="6.1996">
        <ele>1534</ele>
        <time>2020-02-09T07:52:05Z</time>
      </trkpt>
      <trkpt lat="45.27681" lon="6.19956">
        <ele>1534.2</ele>
        <time>2020-02-09T07:52:08Z</time>
      </trkpt>
      <trkpt lat="45.27679" lon="6.19952">
        <ele>1534.4</ele>
        <time>2020-02-09T07:52:11Z</time>
      </trkpt>
      <trkpt lat="45.27678" lon="6.19947">
        <ele>1534.6</ele>
        <time>2020-02-09T07:52:14Z</time>
      </trkpt>
      <trkpt lat="45.27677" lon="6.19943">
        <ele>1534.8</ele>
        <time>2020-02-09T07:52:18Z</time>
      </trkpt>
      <trkpt lat="45.27675" lon="6.19939">
        <ele>1535.1</ele>
        <time>2020-02-09T07:52:21Z</time>
      </trkpt>
      <trkpt lat="45.27675" lon="6.19935">
        <ele>1535.4</ele>
        <time>2020-02-09T07:52:24Z</time>
      </trkpt>
      <trkpt lat="45.27673" lon="6.19933">
        <ele>1535.7</ele>
        <time>2020-02-09T07:52:26Z</time>
      </trkpt>
      <trkpt lat="45.27669" lon="6.1993">
        <ele>1536.1</ele>
        <time>2020-02-09T07:52:29Z</time>
      </trkpt>
      <trkpt lat="45.27666" lon="6.19926">
        <ele>1536.5</ele>
        <time>2020-02-09T07:52:32Z</time>
      </trkpt>
      <trkpt lat="45.27665" lon="6.19923">
        <ele>1536.8</ele>
        <time>2020-02-09T07:52:34Z</time>
      </trkpt>
      <trkpt lat="45.27663" lon="6.19919">
        <ele>1537</ele>
        <time>2020-02-09T07:52:36Z</time>
      </trkpt>
      <trkpt lat="45.27661" lon="6.19915">
        <ele>1537.4</ele>
        <time>2020-02-09T07:52:39Z</time>
      </trkpt>
      <trkpt lat="45.27659" lon="6.19912">
        <ele>1537.6</ele>
        <time>2020-02-09T07:52:41Z</time>
      </trkpt>
      <trkpt lat="45.27657" lon="6.19908">
        <ele>1537.9</ele>
        <time>2020-02-09T07:52:44Z</time>
      </trkpt>
      <trkpt lat="45.27656" lon="6.19905">
        <ele>1538.1</ele>
        <time>2020-02-09T07:52:47Z</time>
      </trkpt>
      <trkpt lat="45.27653" lon="6.19901">
        <ele>1538.2</ele>
        <time>2020-02-09T07:52:50Z</time>
      </trkpt>
      <trkpt lat="45.2765" lon="6.19899">
        <ele>1538.5</ele>
        <time>2020-02-09T07:52:55Z</time>
      </trkpt>
      <trkpt lat="45.27648" lon="6.19894">
        <ele>1538.7</ele>
        <time>2020-02-09T07:52:59Z</time>
      </trkpt>
      <trkpt lat="45.27646" lon="6.19891">
        <ele>1538.9</ele>
        <time>2020-02-09T07:53:02Z</time>
      </trkpt>
      <trkpt lat="45.27644" lon="6.19887">
        <ele>1539</ele>
        <time>2020-02-09T07:53:05Z</time>
      </trkpt>
      <trkpt lat="45.27642" lon="6.19883">
        <ele>1539.2</ele>
        <time>2020-02-09T07:53:09Z</time>
      </trkpt>
      <trkpt lat="45.2764" lon="6.19881">
        <ele>1539.3</ele>
        <time>2020-02-09T07:53:12Z</time>
      </trkpt>
      <trkpt lat="45.27637" lon="6.19879">
        <ele>1539.5</ele>
        <time>2020-02-09T07:53:16Z</time>
      </trkpt>
      <trkpt lat="45.27635" lon="6.19876">
        <ele>1539.7</ele>
        <time>2020-02-09T07:53:20Z</time>
      </trkpt>
      <trkpt lat="45.27633" lon="6.19873">
        <ele>1539.9</ele>
        <time>2020-02-09T07:53:24Z</time>
      </trkpt>
      <trkpt lat="45.2763" lon="6.19871">
        <ele>1540.2</ele>
        <time>2020-02-09T07:53:27Z</time>
      </trkpt>
      <trkpt lat="45.27628" lon="6.19869">
        <ele>1540.5</ele>
        <time>2020-02-09T07:53:30Z</time>
      </trkpt>
      <trkpt lat="45.27627" lon="6.19865">
        <ele>1540.9</ele>
        <time>2020-02-09T07:53:34Z</time>
      </trkpt>
      <trkpt lat="45.27625" lon="6.1986">
        <ele>1541.3</ele>
        <time>2020-02-09T07:53:37Z</time>
      </trkpt>
      <trkpt lat="45.27624" lon="6.19857">
        <ele>1541.7</ele>
        <time>2020-02-09T07:53:39Z</time>
      </trkpt>
      <trkpt lat="45.27623" lon="6.19853">
        <ele>1542</ele>
        <time>2020-02-09T07:53:42Z</time>
      </trkpt>
      <trkpt lat="45.27622" lon="6.19849">
        <ele>1542.4</ele>
        <time>2020-02-09T07:53:45Z</time>
      </trkpt>
      <trkpt lat="45.2762" lon="6.19845">
        <ele>1542.9</ele>
        <time>2020-02-09T07:53:48Z</time>
      </trkpt>
      <trkpt lat="45.27618" lon="6.19842">
        <ele>1543.2</ele>
        <time>2020-02-09T07:53:51Z</time>
      </trkpt>
      <trkpt lat="45.27617" lon="6.19838">
        <ele>1543.7</ele>
        <time>2020-02-09T07:53:54Z</time>
      </trkpt>
      <trkpt lat="45.27615" lon="6.19834">
        <ele>1544.1</ele>
        <time>2020-02-09T07:53:59Z</time>
      </trkpt>
      <trkpt lat="45.27613" lon="6.1983">
        <ele>1544.5</ele>
        <time>2020-02-09T07:54:02Z</time>
      </trkpt>
      <trkpt lat="45.27611" lon="6.19827">
        <ele>1544.9</ele>
        <time>2020-02-09T07:54:04Z</time>
      </trkpt>
      <trkpt lat="45.27609" lon="6.19823">
        <ele>1545.2</ele>
        <time>2020-02-09T07:54:08Z</time>
      </trkpt>
      <trkpt lat="45.27608" lon="6.19819">
        <ele>1545.6</ele>
        <time>2020-02-09T07:54:11Z</time>
      </trkpt>
      <trkpt lat="45.27606" lon="6.19814">
        <ele>1545.6</ele>
        <time>2020-02-09T07:54:14Z</time>
      </trkpt>
      <trkpt lat="45.27606" lon="6.1981">
        <ele>1545.6</ele>
        <time>2020-02-09T07:54:16Z</time>
      </trkpt>
      <trkpt lat="45.27605" lon="6.19805">
        <ele>1546</ele>
        <time>2020-02-09T07:54:20Z</time>
      </trkpt>
      <trkpt lat="45.27606" lon="6.19799">
        <ele>1546.5</ele>
        <time>2020-02-09T07:54:22Z</time>
      </trkpt>
      <trkpt lat="45.27605" lon="6.19795">
        <ele>1546.7</ele>
        <time>2020-02-09T07:54:25Z</time>
      </trkpt>
      <trkpt lat="45.27602" lon="6.19793">
        <ele>1546.9</ele>
        <time>2020-02-09T07:54:28Z</time>
      </trkpt>
      <trkpt lat="45.27601" lon="6.19789">
        <ele>1547.1</ele>
        <time>2020-02-09T07:54:31Z</time>
      </trkpt>
      <trkpt lat="45.27598" lon="6.19787">
        <ele>1547.4</ele>
        <time>2020-02-09T07:54:34Z</time>
      </trkpt>
      <trkpt lat="45.27596" lon="6.19783">
        <ele>1547.8</ele>
        <time>2020-02-09T07:54:37Z</time>
      </trkpt>
      <trkpt lat="45.27593" lon="6.1978">
        <ele>1548</ele>
        <time>2020-02-09T07:54:40Z</time>
      </trkpt>
      <trkpt lat="45.27592" lon="6.19776">
        <ele>1548</ele>
        <time>2020-02-09T07:54:44Z</time>
      </trkpt>
      <trkpt lat="45.2759" lon="6.19773">
        <ele>1548</ele>
        <time>2020-02-09T07:54:47Z</time>
      </trkpt>
      <trkpt lat="45.27588" lon="6.1977">
        <ele>1548.1</ele>
        <time>2020-02-09T07:54:50Z</time>
      </trkpt>
      <trkpt lat="45.27587" lon="6.19767">
        <ele>1548.3</ele>
        <time>2020-02-09T07:54:55Z</time>
      </trkpt>
      <trkpt lat="45.27585" lon="6.19763">
        <ele>1548.5</ele>
        <time>2020-02-09T07:54:59Z</time>
      </trkpt>
      <trkpt lat="45.27583" lon="6.1976">
        <ele>1548.5</ele>
        <time>2020-02-09T07:55:04Z</time>
      </trkpt>
      <trkpt lat="45.27579" lon="6.19758">
        <ele>1548.4</ele>
        <time>2020-02-09T07:55:08Z</time>
      </trkpt>
      <trkpt lat="45.27576" lon="6.19756">
        <ele>1548.6</ele>
        <time>2020-02-09T07:55:11Z</time>
      </trkpt>
      <trkpt lat="45.27574" lon="6.19752">
        <ele>1548.9</ele>
        <time>2020-02-09T07:55:14Z</time>
      </trkpt>
      <trkpt lat="45.27572" lon="6.19751">
        <ele>1549.1</ele>
        <time>2020-02-09T07:55:16Z</time>
      </trkpt>
      <trkpt lat="45.27568" lon="6.19748">
        <ele>1549.3</ele>
        <time>2020-02-09T07:55:19Z</time>
      </trkpt>
      <trkpt lat="45.27565" lon="6.19746">
        <ele>1549.6</ele>
        <time>2020-02-09T07:55:23Z</time>
      </trkpt>
      <trkpt lat="45.27563" lon="6.19742">
        <ele>1550</ele>
        <time>2020-02-09T07:55:27Z</time>
      </trkpt>
      <trkpt lat="45.27561" lon="6.19739">
        <ele>1550.4</ele>
        <time>2020-02-09T07:55:31Z</time>
      </trkpt>
      <trkpt lat="45.27558" lon="6.19738">
        <ele>1550.6</ele>
        <time>2020-02-09T07:55:34Z</time>
      </trkpt>
      <trkpt lat="45.27555" lon="6.19736">
        <ele>1550.8</ele>
        <time>2020-02-09T07:55:38Z</time>
      </trkpt>
      <trkpt lat="45.27552" lon="6.19735">
        <ele>1551.2</ele>
        <time>2020-02-09T07:55:47Z</time>
      </trkpt>
      <trkpt lat="45.27548" lon="6.19735">
        <ele>1551.6</ele>
        <time>2020-02-09T07:55:52Z</time>
      </trkpt>
      <trkpt lat="45.27545" lon="6.19734">
        <ele>1552</ele>
        <time>2020-02-09T07:55:55Z</time>
      </trkpt>
      <trkpt lat="45.27543" lon="6.19735">
        <ele>1552.2</ele>
        <time>2020-02-09T07:55:59Z</time>
      </trkpt>
      <trkpt lat="45.27541" lon="6.19733">
        <ele>1552.4</ele>
        <time>2020-02-09T07:56:06Z</time>
      </trkpt>
      <trkpt lat="45.27541" lon="6.19729">
        <ele>1552.6</ele>
        <time>2020-02-09T07:56:12Z</time>
      </trkpt>
      <trkpt lat="45.27541" lon="6.19723">
        <ele>1552.8</ele>
        <time>2020-02-09T07:56:16Z</time>
      </trkpt>
      <trkpt lat="45.2754" lon="6.19718">
        <ele>1552.9</ele>
        <time>2020-02-09T07:56:19Z</time>
      </trkpt>
      <trkpt lat="45.2754" lon="6.19714">
        <ele>1553.1</ele>
        <time>2020-02-09T07:56:21Z</time>
      </trkpt>
      <trkpt lat="45.2754" lon="6.19709">
        <ele>1553.3</ele>
        <time>2020-02-09T07:56:23Z</time>
      </trkpt>
      <trkpt lat="45.27538" lon="6.19705">
        <ele>1553.5</ele>
        <time>2020-02-09T07:56:26Z</time>
      </trkpt>
      <trkpt lat="45.27535" lon="6.19703">
        <ele>1553.6</ele>
        <time>2020-02-09T07:56:30Z</time>
      </trkpt>
      <trkpt lat="45.27532" lon="6.19704">
        <ele>1553.6</ele>
        <time>2020-02-09T07:56:33Z</time>
      </trkpt>
      <trkpt lat="45.27529" lon="6.19701">
        <ele>1553.7</ele>
        <time>2020-02-09T07:56:36Z</time>
      </trkpt>
      <trkpt lat="45.27527" lon="6.19698">
        <ele>1553.7</ele>
        <time>2020-02-09T07:56:42Z</time>
      </trkpt>
      <trkpt lat="45.27523" lon="6.19698">
        <ele>1553.8</ele>
        <time>2020-02-09T07:56:46Z</time>
      </trkpt>
      <trkpt lat="45.27519" lon="6.19697">
        <ele>1553.9</ele>
        <time>2020-02-09T07:56:50Z</time>
      </trkpt>
      <trkpt lat="45.27517" lon="6.19692">
        <ele>1553.9</ele>
        <time>2020-02-09T07:56:59Z</time>
      </trkpt>
      <trkpt lat="45.27515" lon="6.1969">
        <ele>1554.2</ele>
        <time>2020-02-09T07:57:10Z</time>
      </trkpt>
      <trkpt lat="45.27512" lon="6.19688">
        <ele>1555.2</ele>
        <time>2020-02-09T07:57:12Z</time>
      </trkpt>
      <trkpt lat="45.27509" lon="6.19687">
        <ele>1555.4</ele>
        <time>2020-02-09T07:57:16Z</time>
      </trkpt>
      <trkpt lat="45.2751" lon="6.19683">
        <ele>1556.1</ele>
        <time>2020-02-09T07:57:23Z</time>
      </trkpt>
      <trkpt lat="45.27508" lon="6.19679">
        <ele>1557.2</ele>
        <time>2020-02-09T07:57:29Z</time>
      </trkpt>
      <trkpt lat="45.27507" lon="6.19675">
        <ele>1558.2</ele>
        <time>2020-02-09T07:57:33Z</time>
      </trkpt>
      <trkpt lat="45.27508" lon="6.19671">
        <ele>1559.1</ele>
        <time>2020-02-09T07:57:37Z</time>
      </trkpt>
      <trkpt lat="45.27508" lon="6.19666">
        <ele>1560.2</ele>
        <time>2020-02-09T07:57:41Z</time>
      </trkpt>
      <trkpt lat="45.27508" lon="6.19662">
        <ele>1561.3</ele>
        <time>2020-02-09T07:57:47Z</time>
      </trkpt>
      <trkpt lat="45.27507" lon="6.19657">
        <ele>1562.9</ele>
        <time>2020-02-09T07:57:52Z</time>
      </trkpt>
      <trkpt lat="45.27506" lon="6.19653">
        <ele>1564</ele>
        <time>2020-02-09T07:57:56Z</time>
      </trkpt>
      <trkpt lat="45.27503" lon="6.19653">
        <ele>1564.6</ele>
        <time>2020-02-09T07:58:02Z</time>
      </trkpt>
      <trkpt lat="45.27502" lon="6.19649">
        <ele>1565.8</ele>
        <time>2020-02-09T07:58:12Z</time>
      </trkpt>
      <trkpt lat="45.275" lon="6.19644">
        <ele>1567.6</ele>
        <time>2020-02-09T07:58:26Z</time>
      </trkpt>
      <trkpt lat="45.27499" lon="6.1964">
        <ele>1568.8</ele>
        <time>2020-02-09T07:58:29Z</time>
      </trkpt>
      <trkpt lat="45.27497" lon="6.19636">
        <ele>1570.7</ele>
        <time>2020-02-09T07:58:34Z</time>
      </trkpt>
      <trkpt lat="45.27495" lon="6.19632">
        <ele>1571.8</ele>
        <time>2020-02-09T07:58:41Z</time>
      </trkpt>
      <trkpt lat="45.27495" lon="6.19627">
        <ele>1573.6</ele>
        <time>2020-02-09T07:58:45Z</time>
      </trkpt>
      <trkpt lat="45.27496" lon="6.19623">
        <ele>1574.7</ele>
        <time>2020-02-09T07:58:50Z</time>
      </trkpt>
      <trkpt lat="45.27496" lon="6.19619">
        <ele>1576</ele>
        <time>2020-02-09T07:58:52Z</time>
      </trkpt>
      <trkpt lat="45.27495" lon="6.19615">
        <ele>1577.2</ele>
        <time>2020-02-09T07:58:54Z</time>
      </trkpt>
      <trkpt lat="45.27494" lon="6.19612">
        <ele>1578.1</ele>
        <time>2020-02-09T07:58:57Z</time>
      </trkpt>
      <trkpt lat="45.27493" lon="6.19608">
        <ele>1579.4</ele>
        <time>2020-02-09T07:59:03Z</time>
      </trkpt>
      <trkpt lat="45.27492" lon="6.19604">
        <ele>1581.4</ele>
        <time>2020-02-09T07:59:08Z</time>
      </trkpt>
      <trkpt lat="45.27488" lon="6.19605">
        <ele>1582.7</ele>
        <time>2020-02-09T07:59:13Z</time>
      </trkpt>
      <trkpt lat="45.27489" lon="6.19601">
        <ele>1582.6</ele>
        <time>2020-02-09T07:59:19Z</time>
      </trkpt>
      <trkpt lat="45.27486" lon="6.19598">
        <ele>1585</ele>
        <time>2020-02-09T07:59:27Z</time>
      </trkpt>
      <trkpt lat="45.27485" lon="6.19594">
        <ele>1587</ele>
        <time>2020-02-09T07:59:29Z</time>
      </trkpt>
      <trkpt lat="45.27484" lon="6.19589">
        <ele>1588.2</ele>
        <time>2020-02-09T07:59:33Z</time>
      </trkpt>
      <trkpt lat="45.27482" lon="6.19584">
        <ele>1590.3</ele>
        <time>2020-02-09T07:59:36Z</time>
      </trkpt>
      <trkpt lat="45.27482" lon="6.19581">
        <ele>1591.6</ele>
        <time>2020-02-09T07:59:38Z</time>
      </trkpt>
      <trkpt lat="45.27482" lon="6.19576">
        <ele>1592.9</ele>
        <time>2020-02-09T07:59:42Z</time>
      </trkpt>
      <trkpt lat="45.27481" lon="6.19572">
        <ele>1594.1</ele>
        <time>2020-02-09T07:59:46Z</time>
      </trkpt>
      <trkpt lat="45.27477" lon="6.1957">
        <ele>1595.3</ele>
        <time>2020-02-09T07:59:53Z</time>
      </trkpt>
      <trkpt lat="45.27474" lon="6.19571">
        <ele>1596.5</ele>
        <time>2020-02-09T07:59:56Z</time>
      </trkpt>
      <trkpt lat="45.27471" lon="6.19573">
        <ele>1597.6</ele>
        <time>2020-02-09T08:00:01Z</time>
      </trkpt>
      <trkpt lat="45.27469" lon="6.19571">
        <ele>1598.6</ele>
        <time>2020-02-09T08:00:04Z</time>
      </trkpt>
      <trkpt lat="45.27466" lon="6.19569">
        <ele>1599.6</ele>
        <time>2020-02-09T08:00:07Z</time>
      </trkpt>
      <trkpt lat="45.27464" lon="6.19567">
        <ele>1601.9</ele>
        <time>2020-02-09T08:00:14Z</time>
      </trkpt>
      <trkpt lat="45.27462" lon="6.19564">
        <ele>1603.3</ele>
        <time>2020-02-09T08:00:19Z</time>
      </trkpt>
      <trkpt lat="45.27462" lon="6.19559">
        <ele>1604.6</ele>
        <time>2020-02-09T08:00:28Z</time>
      </trkpt>
      <trkpt lat="45.27461" lon="6.19555">
        <ele>1606.8</ele>
        <time>2020-02-09T08:00:31Z</time>
      </trkpt>
      <trkpt lat="45.27461" lon="6.1955">
        <ele>1608.1</ele>
        <time>2020-02-09T08:00:37Z</time>
      </trkpt>
      <trkpt lat="45.27458" lon="6.19548">
        <ele>1609</ele>
        <time>2020-02-09T08:00:43Z</time>
      </trkpt>
      <trkpt lat="45.27455" lon="6.19547">
        <ele>1611.2</ele>
        <time>2020-02-09T08:00:47Z</time>
      </trkpt>
      <trkpt lat="45.27452" lon="6.19545">
        <ele>1612.1</ele>
        <time>2020-02-09T08:00:51Z</time>
      </trkpt>
      <trkpt lat="45.2745" lon="6.19542">
        <ele>1613.3</ele>
        <time>2020-02-09T08:00:54Z</time>
      </trkpt>
      <trkpt lat="45.27448" lon="6.1954">
        <ele>1614.3</ele>
        <time>2020-02-09T08:00:58Z</time>
      </trkpt>
      <trkpt lat="45.27446" lon="6.19537">
        <ele>1616.5</ele>
        <time>2020-02-09T08:01:05Z</time>
      </trkpt>
      <trkpt lat="45.27443" lon="6.19535">
        <ele>1617.3</ele>
        <time>2020-02-09T08:01:14Z</time>
      </trkpt>
      <trkpt lat="45.27443" lon="6.19531">
        <ele>1618.8</ele>
        <time>2020-02-09T08:01:21Z</time>
      </trkpt>
      <trkpt lat="45.27443" lon="6.19527">
        <ele>1620.2</ele>
        <time>2020-02-09T08:01:26Z</time>
      </trkpt>
      <trkpt lat="45.27441" lon="6.19523">
        <ele>1621.7</ele>
        <time>2020-02-09T08:01:36Z</time>
      </trkpt>
      <trkpt lat="45.27439" lon="6.19521">
        <ele>1624</ele>
        <time>2020-02-09T08:01:38Z</time>
      </trkpt>
      <trkpt lat="45.27436" lon="6.19521">
        <ele>1624.9</ele>
        <time>2020-02-09T08:01:41Z</time>
      </trkpt>
      <trkpt lat="45.27433" lon="6.1952">
        <ele>1625.7</ele>
        <time>2020-02-09T08:01:44Z</time>
      </trkpt>
      <trkpt lat="45.2743" lon="6.1952">
        <ele>1626.3</ele>
        <time>2020-02-09T08:01:46Z</time>
      </trkpt>
      <trkpt lat="45.27428" lon="6.19519">
        <ele>1626.9</ele>
        <time>2020-02-09T08:01:48Z</time>
      </trkpt>
      <trkpt lat="45.27424" lon="6.19518">
        <ele>1627.4</ele>
        <time>2020-02-09T08:01:51Z</time>
      </trkpt>
      <trkpt lat="45.27421" lon="6.19516">
        <ele>1629.3</ele>
        <time>2020-02-09T08:01:55Z</time>
      </trkpt>
      <trkpt lat="45.27422" lon="6.19512">
        <ele>1630.7</ele>
        <time>2020-02-09T08:02:09Z</time>
      </trkpt>
      <trkpt lat="45.27419" lon="6.1951">
        <ele>1630.8</ele>
        <time>2020-02-09T08:02:17Z</time>
      </trkpt>
      <trkpt lat="45.27418" lon="6.19506">
        <ele>1632.5</ele>
        <time>2020-02-09T08:02:21Z</time>
      </trkpt>
      <trkpt lat="45.27417" lon="6.19502">
        <ele>1633.8</ele>
        <time>2020-02-09T08:02:30Z</time>
      </trkpt>
      <trkpt lat="45.27415" lon="6.195">
        <ele>1635.4</ele>
        <time>2020-02-09T08:02:34Z</time>
      </trkpt>
      <trkpt lat="45.27412" lon="6.19498">
        <ele>1635.7</ele>
        <time>2020-02-09T08:02:37Z</time>
      </trkpt>
      <trkpt lat="45.2741" lon="6.19495">
        <ele>1637.2</ele>
        <time>2020-02-09T08:02:40Z</time>
      </trkpt>
      <trkpt lat="45.2741" lon="6.19491">
        <ele>1638.3</ele>
        <time>2020-02-09T08:02:50Z</time>
      </trkpt>
      <trkpt lat="45.27409" lon="6.19487">
        <ele>1639.8</ele>
        <time>2020-02-09T08:02:57Z</time>
      </trkpt>
      <trkpt lat="45.27406" lon="6.19484">
        <ele>1640</ele>
        <time>2020-02-09T08:03:01Z</time>
      </trkpt>
      <trkpt lat="45.27405" lon="6.19481">
        <ele>1641.3</ele>
        <time>2020-02-09T08:03:04Z</time>
      </trkpt>
      <trkpt lat="45.27403" lon="6.19477">
        <ele>1642.7</ele>
        <time>2020-02-09T08:03:08Z</time>
      </trkpt>
      <trkpt lat="45.274" lon="6.19474">
        <ele>1644.1</ele>
        <time>2020-02-09T08:03:13Z</time>
      </trkpt>
      <trkpt lat="45.27401" lon="6.1947">
        <ele>1645.3</ele>
        <time>2020-02-09T08:03:21Z</time>
      </trkpt>
      <trkpt lat="45.27402" lon="6.19465">
        <ele>1644.8</ele>
        <time>2020-02-09T08:03:25Z</time>
      </trkpt>
      <trkpt lat="45.27402" lon="6.1946">
        <ele>1644.2</ele>
        <time>2020-02-09T08:03:27Z</time>
      </trkpt>
      <trkpt lat="45.27404" lon="6.19457">
        <ele>1643.8</ele>
        <time>2020-02-09T08:03:37Z</time>
      </trkpt>
      <trkpt lat="45.27405" lon="6.19452">
        <ele>1643.1</ele>
        <time>2020-02-09T08:03:48Z</time>
      </trkpt>
      <trkpt lat="45.27407" lon="6.19449">
        <ele>1642.6</ele>
        <time>2020-02-09T08:03:51Z</time>
      </trkpt>
      <trkpt lat="45.27407" lon="6.19445">
        <ele>1642.4</ele>
        <time>2020-02-09T08:03:56Z</time>
      </trkpt>
      <trkpt lat="45.27403" lon="6.19446">
        <ele>1643.7</ele>
        <time>2020-02-09T08:04:02Z</time>
      </trkpt>
      <trkpt lat="45.27401" lon="6.19443">
        <ele>1644.9</ele>
        <time>2020-02-09T08:04:07Z</time>
      </trkpt>
      <trkpt lat="45.274" lon="6.19439">
        <ele>1645.9</ele>
        <time>2020-02-09T08:04:09Z</time>
      </trkpt>
      <trkpt lat="45.27399" lon="6.19434">
        <ele>1647.2</ele>
        <time>2020-02-09T08:04:12Z</time>
      </trkpt>
      <trkpt lat="45.27396" lon="6.19431">
        <ele>1648.5</ele>
        <time>2020-02-09T08:04:15Z</time>
      </trkpt>
      <trkpt lat="45.27394" lon="6.19428">
        <ele>1649.4</ele>
        <time>2020-02-09T08:04:22Z</time>
      </trkpt>
      <trkpt lat="45.27392" lon="6.19424">
        <ele>1650.2</ele>
        <time>2020-02-09T08:04:28Z</time>
      </trkpt>
      <trkpt lat="45.2739" lon="6.19421">
        <ele>1650.9</ele>
        <time>2020-02-09T08:04:30Z</time>
      </trkpt>
      <trkpt lat="45.27388" lon="6.19419">
        <ele>1651.5</ele>
        <time>2020-02-09T08:04:32Z</time>
      </trkpt>
      <trkpt lat="45.27385" lon="6.19417">
        <ele>1652.2</ele>
        <time>2020-02-09T08:04:35Z</time>
      </trkpt>
      <trkpt lat="45.27382" lon="6.19416">
        <ele>1653.2</ele>
        <time>2020-02-09T08:04:39Z</time>
      </trkpt>
      <trkpt lat="45.27379" lon="6.19414">
        <ele>1653.9</ele>
        <time>2020-02-09T08:04:45Z</time>
      </trkpt>
      <trkpt lat="45.27376" lon="6.19414">
        <ele>1654.8</ele>
        <time>2020-02-09T08:04:51Z</time>
      </trkpt>
      <trkpt lat="45.27374" lon="6.19412">
        <ele>1655.6</ele>
        <time>2020-02-09T08:04:55Z</time>
      </trkpt>
      <trkpt lat="45.27371" lon="6.19411">
        <ele>1656.5</ele>
        <time>2020-02-09T08:04:59Z</time>
      </trkpt>
      <trkpt lat="45.27369" lon="6.19408">
        <ele>1657.5</ele>
        <time>2020-02-09T08:05:03Z</time>
      </trkpt>
      <trkpt lat="45.27366" lon="6.19406">
        <ele>1658.8</ele>
        <time>2020-02-09T08:05:09Z</time>
      </trkpt>
      <trkpt lat="45.27364" lon="6.19403">
        <ele>1660.2</ele>
        <time>2020-02-09T08:05:13Z</time>
      </trkpt>
      <trkpt lat="45.27362" lon="6.194">
        <ele>1661.2</ele>
        <time>2020-02-09T08:05:19Z</time>
      </trkpt>
      <trkpt lat="45.27359" lon="6.19395">
        <ele>1662.3</ele>
        <time>2020-02-09T08:05:25Z</time>
      </trkpt>
      <trkpt lat="45.27357" lon="6.19394">
        <ele>1663</ele>
        <time>2020-02-09T08:05:30Z</time>
      </trkpt>
      <trkpt lat="45.27353" lon="6.19392">
        <ele>1663.6</ele>
        <time>2020-02-09T08:05:34Z</time>
      </trkpt>
      <trkpt lat="45.27349" lon="6.19391">
        <ele>1664.2</ele>
        <time>2020-02-09T08:05:37Z</time>
      </trkpt>
      <trkpt lat="45.27347" lon="6.19389">
        <ele>1664.6</ele>
        <time>2020-02-09T08:05:40Z</time>
      </trkpt>
      <trkpt lat="45.27344" lon="6.19387">
        <ele>1665</ele>
        <time>2020-02-09T08:05:43Z</time>
      </trkpt>
      <trkpt lat="45.27342" lon="6.19384">
        <ele>1665.4</ele>
        <time>2020-02-09T08:05:59Z</time>
      </trkpt>
      <trkpt lat="45.27341" lon="6.1938">
        <ele>1666.4</ele>
        <time>2020-02-09T08:06:05Z</time>
      </trkpt>
      <trkpt lat="45.27339" lon="6.19377">
        <ele>1667.3</ele>
        <time>2020-02-09T08:06:10Z</time>
      </trkpt>
      <trkpt lat="45.27336" lon="6.19374">
        <ele>1668.2</ele>
        <time>2020-02-09T08:06:15Z</time>
      </trkpt>
      <trkpt lat="45.27333" lon="6.19371">
        <ele>1668.7</ele>
        <time>2020-02-09T08:06:19Z</time>
      </trkpt>
      <trkpt lat="45.27331" lon="6.19369">
        <ele>1669.2</ele>
        <time>2020-02-09T08:06:29Z</time>
      </trkpt>
      <trkpt lat="45.27328" lon="6.19369">
        <ele>1670</ele>
        <time>2020-02-09T08:06:33Z</time>
      </trkpt>
      <trkpt lat="45.27325" lon="6.19368">
        <ele>1670.8</ele>
        <time>2020-02-09T08:06:38Z</time>
      </trkpt>
      <trkpt lat="45.27322" lon="6.19367">
        <ele>1671.7</ele>
        <time>2020-02-09T08:06:46Z</time>
      </trkpt>
      <trkpt lat="45.2732" lon="6.19365">
        <ele>1672.6</ele>
        <time>2020-02-09T08:06:50Z</time>
      </trkpt>
      <trkpt lat="45.27318" lon="6.19362">
        <ele>1673.5</ele>
        <time>2020-02-09T08:06:54Z</time>
      </trkpt>
      <trkpt lat="45.27316" lon="6.19359">
        <ele>1674.4</ele>
        <time>2020-02-09T08:06:58Z</time>
      </trkpt>
      <trkpt lat="45.27314" lon="6.19356">
        <ele>1675.2</ele>
        <time>2020-02-09T08:07:01Z</time>
      </trkpt>
      <trkpt lat="45.27312" lon="6.19353">
        <ele>1676.2</ele>
        <time>2020-02-09T08:07:04Z</time>
      </trkpt>
      <trkpt lat="45.2731" lon="6.19349">
        <ele>1677.2</ele>
        <time>2020-02-09T08:07:10Z</time>
      </trkpt>
      <trkpt lat="45.27307" lon="6.19347">
        <ele>1678.1</ele>
        <time>2020-02-09T08:07:13Z</time>
      </trkpt>
      <trkpt lat="45.27311" lon="6.19349">
        <ele>1679.8</ele>
        <time>2020-02-09T08:07:19Z</time>
      </trkpt>
      <trkpt lat="45.27313" lon="6.19351">
        <ele>1681.3</ele>
        <time>2020-02-09T08:07:27Z</time>
      </trkpt>
      <trkpt lat="45.27316" lon="6.19351">
        <ele>1682.9</ele>
        <time>2020-02-09T08:07:40Z</time>
      </trkpt>
      <trkpt lat="45.27319" lon="6.19349">
        <ele>1684.4</ele>
        <time>2020-02-09T08:07:44Z</time>
      </trkpt>
      <trkpt lat="45.27322" lon="6.19348">
        <ele>1685.5</ele>
        <time>2020-02-09T08:07:47Z</time>
      </trkpt>
      <trkpt lat="45.27325" lon="6.19347">
        <ele>1686.9</ele>
        <time>2020-02-09T08:07:56Z</time>
      </trkpt>
      <trkpt lat="45.27328" lon="6.19346">
        <ele>1688.3</ele>
        <time>2020-02-09T08:08:03Z</time>
      </trkpt>
      <trkpt lat="45.27331" lon="6.19345">
        <ele>1689.6</ele>
        <time>2020-02-09T08:08:05Z</time>
      </trkpt>
      <trkpt lat="45.27334" lon="6.19344">
        <ele>1690.8</ele>
        <time>2020-02-09T08:08:08Z</time>
      </trkpt>
      <trkpt lat="45.27337" lon="6.19343">
        <ele>1692</ele>
        <time>2020-02-09T08:08:12Z</time>
      </trkpt>
      <trkpt lat="45.2734" lon="6.19342">
        <ele>1693.2</ele>
        <time>2020-02-09T08:08:14Z</time>
      </trkpt>
      <trkpt lat="45.27343" lon="6.19343">
        <ele>1694.4</ele>
        <time>2020-02-09T08:08:18Z</time>
      </trkpt>
      <trkpt lat="45.27346" lon="6.19342">
        <ele>1695.5</ele>
        <time>2020-02-09T08:08:22Z</time>
      </trkpt>
      <trkpt lat="45.2735" lon="6.19343">
        <ele>1697</ele>
        <time>2020-02-09T08:08:29Z</time>
      </trkpt>
      <trkpt lat="45.27353" lon="6.19343">
        <ele>1698.5</ele>
        <time>2020-02-09T08:08:37Z</time>
      </trkpt>
      <trkpt lat="45.27355" lon="6.19341">
        <ele>1700.3</ele>
        <time>2020-02-09T08:08:40Z</time>
      </trkpt>
      <trkpt lat="45.27357" lon="6.19337">
        <ele>1702.5</ele>
        <time>2020-02-09T08:08:43Z</time>
      </trkpt>
      <trkpt lat="45.27361" lon="6.19337">
        <ele>1703.9</ele>
        <time>2020-02-09T08:08:50Z</time>
      </trkpt>
      <trkpt lat="45.27362" lon="6.19334">
        <ele>1705</ele>
        <time>2020-02-09T08:09:02Z</time>
      </trkpt>
      <trkpt lat="45.27361" lon="6.1933">
        <ele>1706.3</ele>
        <time>2020-02-09T08:09:14Z</time>
      </trkpt>
      <trkpt lat="45.27359" lon="6.19326">
        <ele>1708</ele>
        <time>2020-02-09T08:09:17Z</time>
      </trkpt>
      <trkpt lat="45.27356" lon="6.19322">
        <ele>1710</ele>
        <time>2020-02-09T08:09:21Z</time>
      </trkpt>
      <trkpt lat="45.27356" lon="6.19317">
        <ele>1712</ele>
        <time>2020-02-09T08:09:23Z</time>
      </trkpt>
      <trkpt lat="45.27356" lon="6.19313">
        <ele>1713.2</ele>
        <time>2020-02-09T08:09:27Z</time>
      </trkpt>
      <trkpt lat="45.27355" lon="6.19309">
        <ele>1714.3</ele>
        <time>2020-02-09T08:09:31Z</time>
      </trkpt>
      <trkpt lat="45.27353" lon="6.19305">
        <ele>1715.4</ele>
        <time>2020-02-09T08:09:36Z</time>
      </trkpt>
      <trkpt lat="45.27355" lon="6.19301">
        <ele>1716.8</ele>
        <time>2020-02-09T08:09:46Z</time>
      </trkpt>
      <trkpt lat="45.27357" lon="6.19298">
        <ele>1718.3</ele>
        <time>2020-02-09T08:09:49Z</time>
      </trkpt>
      <trkpt lat="45.27356" lon="6.19294">
        <ele>1719.7</ele>
        <time>2020-02-09T08:09:56Z</time>
      </trkpt>
      <trkpt lat="45.27353" lon="6.1929">
        <ele>1721.6</ele>
        <time>2020-02-09T08:10:03Z</time>
      </trkpt>
      <trkpt lat="45.27352" lon="6.19285">
        <ele>1723.6</ele>
        <time>2020-02-09T08:10:06Z</time>
      </trkpt>
      <trkpt lat="45.27349" lon="6.19282">
        <ele>1725.2</ele>
        <time>2020-02-09T08:10:09Z</time>
      </trkpt>
      <trkpt lat="45.27349" lon="6.19278">
        <ele>1726.6</ele>
        <time>2020-02-09T08:10:14Z</time>
      </trkpt>
      <trkpt lat="45.27349" lon="6.19274">
        <ele>1728.2</ele>
        <time>2020-02-09T08:10:21Z</time>
      </trkpt>
      <trkpt lat="45.27348" lon="6.19269">
        <ele>1729.8</ele>
        <time>2020-02-09T08:10:26Z</time>
      </trkpt>
      <trkpt lat="45.27347" lon="6.19265">
        <ele>1731.3</ele>
        <time>2020-02-09T08:10:35Z</time>
      </trkpt>
      <trkpt lat="45.27345" lon="6.19262">
        <ele>1732.7</ele>
        <time>2020-02-09T08:10:41Z</time>
      </trkpt>
      <trkpt lat="45.27342" lon="6.1926">
        <ele>1734</ele>
        <time>2020-02-09T08:10:46Z</time>
      </trkpt>
      <trkpt lat="45.27339" lon="6.19261">
        <ele>1735.4</ele>
        <time>2020-02-09T08:10:48Z</time>
      </trkpt>
      <trkpt lat="45.27338" lon="6.19257">
        <ele>1736.6</ele>
        <time>2020-02-09T08:11:01Z</time>
      </trkpt>
      <trkpt lat="45.27336" lon="6.19255">
        <ele>1737.7</ele>
        <time>2020-02-09T08:11:09Z</time>
      </trkpt>
      <trkpt lat="45.27333" lon="6.19254">
        <ele>1738.8</ele>
        <time>2020-02-09T08:11:22Z</time>
      </trkpt>
      <trkpt lat="45.27333" lon="6.1925">
        <ele>1739.8</ele>
        <time>2020-02-09T08:11:28Z</time>
      </trkpt>
      <trkpt lat="45.27332" lon="6.19245">
        <ele>1741.1</ele>
        <time>2020-02-09T08:11:33Z</time>
      </trkpt>
      <trkpt lat="45.27332" lon="6.1924">
        <ele>1742.5</ele>
        <time>2020-02-09T08:11:39Z</time>
      </trkpt>
      <trkpt lat="45.27331" lon="6.19236">
        <ele>1743.7</ele>
        <time>2020-02-09T08:11:43Z</time>
      </trkpt>
      <trkpt lat="45.27329" lon="6.19233">
        <ele>1744.9</ele>
        <time>2020-02-09T08:11:46Z</time>
      </trkpt>
      <trkpt lat="45.27328" lon="6.19229">
        <ele>1745.8</ele>
        <time>2020-02-09T08:11:51Z</time>
      </trkpt>
      <trkpt lat="45.27325" lon="6.19226">
        <ele>1746.4</ele>
        <time>2020-02-09T08:11:55Z</time>
      </trkpt>
      <trkpt lat="45.27321" lon="6.19223">
        <ele>1747.1</ele>
        <time>2020-02-09T08:12:04Z</time>
      </trkpt>
      <trkpt lat="45.27319" lon="6.19221">
        <ele>1747.5</ele>
        <time>2020-02-09T08:12:08Z</time>
      </trkpt>
      <trkpt lat="45.27317" lon="6.19217">
        <ele>1748.1</ele>
        <time>2020-02-09T08:12:12Z</time>
      </trkpt>
      <trkpt lat="45.27315" lon="6.19214">
        <ele>1748.5</ele>
        <time>2020-02-09T08:12:15Z</time>
      </trkpt>
      <trkpt lat="45.27313" lon="6.19209">
        <ele>1748.9</ele>
        <time>2020-02-09T08:12:21Z</time>
      </trkpt>
      <trkpt lat="45.27311" lon="6.19207">
        <ele>1749.3</ele>
        <time>2020-02-09T08:12:28Z</time>
      </trkpt>
      <trkpt lat="45.2731" lon="6.19202">
        <ele>1749.7</ele>
        <time>2020-02-09T08:12:33Z</time>
      </trkpt>
      <trkpt lat="45.27308" lon="6.192">
        <ele>1750.1</ele>
        <time>2020-02-09T08:12:37Z</time>
      </trkpt>
      <trkpt lat="45.27306" lon="6.19196">
        <ele>1750.4</ele>
        <time>2020-02-09T08:12:42Z</time>
      </trkpt>
      <trkpt lat="45.27304" lon="6.19192">
        <ele>1750.7</ele>
        <time>2020-02-09T08:12:49Z</time>
      </trkpt>
      <trkpt lat="45.27302" lon="6.19194">
        <ele>1751</ele>
        <time>2020-02-09T08:12:56Z</time>
      </trkpt>
      <trkpt lat="45.27299" lon="6.19192">
        <ele>1751.3</ele>
        <time>2020-02-09T08:13:03Z</time>
      </trkpt>
      <trkpt lat="45.27297" lon="6.19189">
        <ele>1752</ele>
        <time>2020-02-09T08:13:08Z</time>
      </trkpt>
      <trkpt lat="45.27295" lon="6.19186">
        <ele>1752.7</ele>
        <time>2020-02-09T08:13:11Z</time>
      </trkpt>
      <trkpt lat="45.27292" lon="6.19183">
        <ele>1753.5</ele>
        <time>2020-02-09T08:13:15Z</time>
      </trkpt>
      <trkpt lat="45.27293" lon="6.1918">
        <ele>1754</ele>
        <time>2020-02-09T08:13:20Z</time>
      </trkpt>
      <trkpt lat="45.27291" lon="6.19177">
        <ele>1754.4</ele>
        <time>2020-02-09T08:13:27Z</time>
      </trkpt>
      <trkpt lat="45.27287" lon="6.19174">
        <ele>1754.9</ele>
        <time>2020-02-09T08:13:31Z</time>
      </trkpt>
      <trkpt lat="45.27285" lon="6.19171">
        <ele>1755.7</ele>
        <time>2020-02-09T08:13:36Z</time>
      </trkpt>
      <trkpt lat="45.27282" lon="6.19168">
        <ele>1756.9</ele>
        <time>2020-02-09T08:13:41Z</time>
      </trkpt>
      <trkpt lat="45.27279" lon="6.19167">
        <ele>1757.8</ele>
        <time>2020-02-09T08:13:46Z</time>
      </trkpt>
      <trkpt lat="45.27277" lon="6.19164">
        <ele>1758.6</ele>
        <time>2020-02-09T08:13:49Z</time>
      </trkpt>
      <trkpt lat="45.27275" lon="6.19161">
        <ele>1759.3</ele>
        <time>2020-02-09T08:13:53Z</time>
      </trkpt>
      <trkpt lat="45.27273" lon="6.19157">
        <ele>1760</ele>
        <time>2020-02-09T08:14:00Z</time>
      </trkpt>
      <trkpt lat="45.27271" lon="6.19155">
        <ele>1760.7</ele>
        <time>2020-02-09T08:14:03Z</time>
      </trkpt>
      <trkpt lat="45.27269" lon="6.19151">
        <ele>1761.5</ele>
        <time>2020-02-09T08:14:06Z</time>
      </trkpt>
      <trkpt lat="45.27267" lon="6.19148">
        <ele>1762.2</ele>
        <time>2020-02-09T08:14:09Z</time>
      </trkpt>
      <trkpt lat="45.27265" lon="6.19146">
        <ele>1762.8</ele>
        <time>2020-02-09T08:14:13Z</time>
      </trkpt>
      <trkpt lat="45.27262" lon="6.19143">
        <ele>1763.5</ele>
        <time>2020-02-09T08:14:18Z</time>
      </trkpt>
      <trkpt lat="45.27259" lon="6.19141">
        <ele>1764.2</ele>
        <time>2020-02-09T08:14:23Z</time>
      </trkpt>
      <trkpt lat="45.27257" lon="6.19138">
        <ele>1764.8</ele>
        <time>2020-02-09T08:14:27Z</time>
      </trkpt>
      <trkpt lat="45.27254" lon="6.19136">
        <ele>1765.5</ele>
        <time>2020-02-09T08:14:30Z</time>
      </trkpt>
      <trkpt lat="45.27252" lon="6.19132">
        <ele>1766.3</ele>
        <time>2020-02-09T08:14:36Z</time>
      </trkpt>
      <trkpt lat="45.2725" lon="6.19129">
        <ele>1766.9</ele>
        <time>2020-02-09T08:14:38Z</time>
      </trkpt>
      <trkpt lat="45.27247" lon="6.19128">
        <ele>1767.7</ele>
        <time>2020-02-09T08:14:42Z</time>
      </trkpt>
      <trkpt lat="45.27245" lon="6.19125">
        <ele>1768.4</ele>
        <time>2020-02-09T08:15:04Z</time>
      </trkpt>
      <trkpt lat="45.27242" lon="6.19124">
        <ele>1769.2</ele>
        <time>2020-02-09T08:15:08Z</time>
      </trkpt>
      <trkpt lat="45.27239" lon="6.19123">
        <ele>1769.9</ele>
        <time>2020-02-09T08:15:12Z</time>
      </trkpt>
      <trkpt lat="45.27236" lon="6.19124">
        <ele>1770.5</ele>
        <time>2020-02-09T08:15:16Z</time>
      </trkpt>
      <trkpt lat="45.27232" lon="6.19124">
        <ele>1771.2</ele>
        <time>2020-02-09T08:15:22Z</time>
      </trkpt>
      <trkpt lat="45.27229" lon="6.19125">
        <ele>1771.8</ele>
        <time>2020-02-09T08:15:25Z</time>
      </trkpt>
      <trkpt lat="45.27226" lon="6.19126">
        <ele>1772.5</ele>
        <time>2020-02-09T08:15:28Z</time>
      </trkpt>
      <trkpt lat="45.27224" lon="6.19128">
        <ele>1773.2</ele>
        <time>2020-02-09T08:15:33Z</time>
      </trkpt>
      <trkpt lat="45.2722" lon="6.19127">
        <ele>1773.9</ele>
        <time>2020-02-09T08:15:40Z</time>
      </trkpt>
      <trkpt lat="45.27219" lon="6.19124">
        <ele>1773.8</ele>
        <time>2020-02-09T08:15:43Z</time>
      </trkpt>
      <trkpt lat="45.27217" lon="6.19121">
        <ele>1773.5</ele>
        <time>2020-02-09T08:15:50Z</time>
      </trkpt>
      <trkpt lat="45.27214" lon="6.19118">
        <ele>1773.3</ele>
        <time>2020-02-09T08:15:56Z</time>
      </trkpt>
      <trkpt lat="45.27213" lon="6.19113">
        <ele>1773.2</ele>
        <time>2020-02-09T08:16:04Z</time>
      </trkpt>
      <trkpt lat="45.27211" lon="6.19112">
        <ele>1773.2</ele>
        <time>2020-02-09T08:16:06Z</time>
      </trkpt>
      <trkpt lat="45.27208" lon="6.1911">
        <ele>1773.2</ele>
        <time>2020-02-09T08:16:09Z</time>
      </trkpt>
      <trkpt lat="45.27207" lon="6.19107">
        <ele>1773.2</ele>
        <time>2020-02-09T08:16:14Z</time>
      </trkpt>
      <trkpt lat="45.27204" lon="6.19105">
        <ele>1773.2</ele>
        <time>2020-02-09T08:16:17Z</time>
      </trkpt>
      <trkpt lat="45.27202" lon="6.19101">
        <ele>1773.2</ele>
        <time>2020-02-09T08:16:20Z</time>
      </trkpt>
      <trkpt lat="45.27201" lon="6.19097">
        <ele>1773.6</ele>
        <time>2020-02-09T08:16:23Z</time>
      </trkpt>
      <trkpt lat="45.27201" lon="6.19092">
        <ele>1774</ele>
        <time>2020-02-09T08:16:27Z</time>
      </trkpt>
      <trkpt lat="45.27202" lon="6.19089">
        <ele>1774.3</ele>
        <time>2020-02-09T08:16:30Z</time>
      </trkpt>
      <trkpt lat="45.272" lon="6.19085">
        <ele>1774.2</ele>
        <time>2020-02-09T08:16:35Z</time>
      </trkpt>
      <trkpt lat="45.27196" lon="6.19086">
        <ele>1774.1</ele>
        <time>2020-02-09T08:16:38Z</time>
      </trkpt>
      <trkpt lat="45.27194" lon="6.19084">
        <ele>1774.4</ele>
        <time>2020-02-09T08:16:51Z</time>
      </trkpt>
      <trkpt lat="45.27193" lon="6.1908">
        <ele>1775.1</ele>
        <time>2020-02-09T08:16:55Z</time>
      </trkpt>
      <trkpt lat="45.27192" lon="6.19076">
        <ele>1775.7</ele>
        <time>2020-02-09T08:16:58Z</time>
      </trkpt>
      <trkpt lat="45.2719" lon="6.19072">
        <ele>1775.8</ele>
        <time>2020-02-09T08:17:02Z</time>
      </trkpt>
      <trkpt lat="45.27188" lon="6.19069">
        <ele>1775.7</ele>
        <time>2020-02-09T08:17:07Z</time>
      </trkpt>
      <trkpt lat="45.27187" lon="6.19066">
        <ele>1775.6</ele>
        <time>2020-02-09T08:17:12Z</time>
      </trkpt>
      <trkpt lat="45.27185" lon="6.19063">
        <ele>1775.9</ele>
        <time>2020-02-09T08:17:15Z</time>
      </trkpt>
      <trkpt lat="45.27185" lon="6.19058">
        <ele>1776.3</ele>
        <time>2020-02-09T08:17:18Z</time>
      </trkpt>
      <trkpt lat="45.27183" lon="6.19054">
        <ele>1776.6</ele>
        <time>2020-02-09T08:17:22Z</time>
      </trkpt>
      <trkpt lat="45.27182" lon="6.1905">
        <ele>1777</ele>
        <time>2020-02-09T08:17:24Z</time>
      </trkpt>
      <trkpt lat="45.2718" lon="6.19047">
        <ele>1777.2</ele>
        <time>2020-02-09T08:17:29Z</time>
      </trkpt>
      <trkpt lat="45.27177" lon="6.19044">
        <ele>1777.6</ele>
        <time>2020-02-09T08:17:35Z</time>
      </trkpt>
      <trkpt lat="45.27176" lon="6.1904">
        <ele>1777.9</ele>
        <time>2020-02-09T08:17:38Z</time>
      </trkpt>
      <trkpt lat="45.27175" lon="6.19036">
        <ele>1778.2</ele>
        <time>2020-02-09T08:17:41Z</time>
      </trkpt>
      <trkpt lat="45.27173" lon="6.19033">
        <ele>1778.4</ele>
        <time>2020-02-09T08:17:47Z</time>
      </trkpt>
      <trkpt lat="45.27173" lon="6.19029">
        <ele>1778.7</ele>
        <time>2020-02-09T08:17:50Z</time>
      </trkpt>
      <trkpt lat="45.27171" lon="6.19026">
        <ele>1778.9</ele>
        <time>2020-02-09T08:17:53Z</time>
      </trkpt>
      <trkpt lat="45.27169" lon="6.19022">
        <ele>1779.1</ele>
        <time>2020-02-09T08:17:56Z</time>
      </trkpt>
      <trkpt lat="45.27168" lon="6.19018">
        <ele>1779.3</ele>
        <time>2020-02-09T08:17:59Z</time>
      </trkpt>
      <trkpt lat="45.27166" lon="6.19014">
        <ele>1779.5</ele>
        <time>2020-02-09T08:18:03Z</time>
      </trkpt>
      <trkpt lat="45.27164" lon="6.19011">
        <ele>1779.6</ele>
        <time>2020-02-09T08:18:07Z</time>
      </trkpt>
      <trkpt lat="45.27162" lon="6.19008">
        <ele>1779.8</ele>
        <time>2020-02-09T08:18:11Z</time>
      </trkpt>
      <trkpt lat="45.27161" lon="6.19004">
        <ele>1779.8</ele>
        <time>2020-02-09T08:18:13Z</time>
      </trkpt>
      <trkpt lat="45.27159" lon="6.19001">
        <ele>1779.9</ele>
        <time>2020-02-09T08:18:17Z</time>
      </trkpt>
      <trkpt lat="45.27158" lon="6.18997">
        <ele>1780.1</ele>
        <time>2020-02-09T08:18:20Z</time>
      </trkpt>
      <trkpt lat="45.27157" lon="6.18992">
        <ele>1780.7</ele>
        <time>2020-02-09T08:18:26Z</time>
      </trkpt>
      <trkpt lat="45.27158" lon="6.18988">
        <ele>1781.1</ele>
        <time>2020-02-09T08:18:31Z</time>
      </trkpt>
      <trkpt lat="45.2716" lon="6.18984">
        <ele>1781.4</ele>
        <time>2020-02-09T08:18:37Z</time>
      </trkpt>
      <trkpt lat="45.2716" lon="6.18979">
        <ele>1781.5</ele>
        <time>2020-02-09T08:18:41Z</time>
      </trkpt>
      <trkpt lat="45.27161" lon="6.18975">
        <ele>1781.6</ele>
        <time>2020-02-09T08:18:46Z</time>
      </trkpt>
      <trkpt lat="45.27162" lon="6.18972">
        <ele>1782</ele>
        <time>2020-02-09T08:18:50Z</time>
      </trkpt>
      <trkpt lat="45.27162" lon="6.18968">
        <ele>1782.3</ele>
        <time>2020-02-09T08:18:58Z</time>
      </trkpt>
      <trkpt lat="45.27165" lon="6.1897">
        <ele>1782.7</ele>
        <time>2020-02-09T08:19:18Z</time>
      </trkpt>
      <trkpt lat="45.27167" lon="6.18968">
        <ele>1783.4</ele>
        <time>2020-02-09T08:19:32Z</time>
      </trkpt>
      <trkpt lat="45.2717" lon="6.18966">
        <ele>1784.3</ele>
        <time>2020-02-09T08:19:45Z</time>
      </trkpt>
      <trkpt lat="45.27168" lon="6.18969">
        <ele>1785</ele>
        <time>2020-02-09T08:20:24Z</time>
      </trkpt>
      <trkpt lat="45.27165" lon="6.18969">
        <ele>1785.7</ele>
        <time>2020-02-09T08:20:46Z</time>
      </trkpt>
      <trkpt lat="45.27162" lon="6.18968">
        <ele>1786.3</ele>
        <time>2020-02-09T08:21:04Z</time>
      </trkpt>
      <trkpt lat="45.27162" lon="6.18974">
        <ele>1787.3</ele>
        <time>2020-02-09T08:21:36Z</time>
      </trkpt>
      <trkpt lat="45.27165" lon="6.18973">
        <ele>1788.2</ele>
        <time>2020-02-09T08:21:53Z</time>
      </trkpt>
      <trkpt lat="45.27165" lon="6.1897">
        <ele>1789.1</ele>
        <time>2020-02-09T08:22:26Z</time>
      </trkpt>
      <trkpt lat="45.27162" lon="6.18969">
        <ele>1789.9</ele>
        <time>2020-02-09T08:22:56Z</time>
      </trkpt>
      <trkpt lat="45.27163" lon="6.18966">
        <ele>1790.2</ele>
        <time>2020-02-09T08:23:05Z</time>
      </trkpt>
      <trkpt lat="45.27162" lon="6.18968">
        <ele>1790.5</ele>
        <time>2020-02-09T08:23:22Z</time>
      </trkpt>
      <trkpt lat="45.27162" lon="6.18965">
        <ele>1790.9</ele>
        <time>2020-02-09T08:23:28Z</time>
      </trkpt>
      <trkpt lat="45.27157" lon="6.18965">
        <ele>1791.7</ele>
        <time>2020-02-09T08:23:43Z</time>
      </trkpt>
      <trkpt lat="45.27152" lon="6.18967">
        <ele>1791.8</ele>
        <time>2020-02-09T08:23:45Z</time>
      </trkpt>
      <trkpt lat="45.27149" lon="6.18968">
        <ele>1791.8</ele>
        <time>2020-02-09T08:23:47Z</time>
      </trkpt>
      <trkpt lat="45.27149" lon="6.18964">
        <ele>1791.9</ele>
        <time>2020-02-09T08:24:19Z</time>
      </trkpt>
      <trkpt lat="45.27152" lon="6.18964">
        <ele>1791.9</ele>
        <time>2020-02-09T08:24:30Z</time>
      </trkpt>
      <trkpt lat="45.27154" lon="6.1896">
        <ele>1792</ele>
        <time>2020-02-09T08:24:37Z</time>
      </trkpt>
      <trkpt lat="45.27152" lon="6.18957">
        <ele>1792.1</ele>
        <time>2020-02-09T08:25:42Z</time>
      </trkpt>
      <trkpt lat="45.27153" lon="6.18962">
        <ele>1792.1</ele>
        <time>2020-02-09T08:25:49Z</time>
      </trkpt>
      <trkpt lat="45.27155" lon="6.18965">
        <ele>1792.2</ele>
        <time>2020-02-09T08:26:16Z</time>
      </trkpt>
      <trkpt lat="45.27156" lon="6.18969">
        <ele>1792.2</ele>
        <time>2020-02-09T08:26:45Z</time>
      </trkpt>
      <trkpt lat="45.27157" lon="6.18966">
        <ele>1792.3</ele>
        <time>2020-02-09T08:27:13Z</time>
      </trkpt>
      <trkpt lat="45.27157" lon="6.18961">
        <ele>1792.5</ele>
        <time>2020-02-09T08:27:22Z</time>
      </trkpt>
      <trkpt lat="45.27157" lon="6.18965">
        <ele>1792.9</ele>
        <time>2020-02-09T08:27:34Z</time>
      </trkpt>
      <trkpt lat="45.2716" lon="6.18964">
        <ele>1793.3</ele>
        <time>2020-02-09T08:28:09Z</time>
      </trkpt>
      <trkpt lat="45.2716" lon="6.18968">
        <ele>1793.7</ele>
        <time>2020-02-09T08:28:20Z</time>
      </trkpt>
      <trkpt lat="45.27162" lon="6.18966">
        <ele>1794.1</ele>
        <time>2020-02-09T08:28:58Z</time>
      </trkpt>
      <trkpt lat="45.2716" lon="6.18963">
        <ele>1794.5</ele>
        <time>2020-02-09T08:29:13Z</time>
      </trkpt>
      <trkpt lat="45.27161" lon="6.18958">
        <ele>1795</ele>
        <time>2020-02-09T08:29:17Z</time>
      </trkpt>
      <trkpt lat="45.27163" lon="6.18955">
        <ele>1795.5</ele>
        <time>2020-02-09T08:29:22Z</time>
      </trkpt>
      <trkpt lat="45.27164" lon="6.18952">
        <ele>1795.9</ele>
        <time>2020-02-09T08:29:30Z</time>
      </trkpt>
      <trkpt lat="45.27166" lon="6.18948">
        <ele>1796.4</ele>
        <time>2020-02-09T08:29:48Z</time>
      </trkpt>
      <trkpt lat="45.27165" lon="6.18943">
        <ele>1796.9</ele>
        <time>2020-02-09T08:29:51Z</time>
      </trkpt>
      <trkpt lat="45.27166" lon="6.18939">
        <ele>1797.4</ele>
        <time>2020-02-09T08:29:55Z</time>
      </trkpt>
      <trkpt lat="45.27165" lon="6.18935">
        <ele>1798.3</ele>
        <time>2020-02-09T08:30:02Z</time>
      </trkpt>
      <trkpt lat="45.27163" lon="6.18931">
        <ele>1799.2</ele>
        <time>2020-02-09T08:30:08Z</time>
      </trkpt>
      <trkpt lat="45.27162" lon="6.18928">
        <ele>1799.9</ele>
        <time>2020-02-09T08:30:12Z</time>
      </trkpt>
      <trkpt lat="45.27159" lon="6.18925">
        <ele>1800.9</ele>
        <time>2020-02-09T08:30:18Z</time>
      </trkpt>
      <trkpt lat="45.27157" lon="6.18922">
        <ele>1801.9</ele>
        <time>2020-02-09T08:30:23Z</time>
      </trkpt>
      <trkpt lat="45.27155" lon="6.18918">
        <ele>1802.8</ele>
        <time>2020-02-09T08:30:28Z</time>
      </trkpt>
      <trkpt lat="45.27154" lon="6.18914">
        <ele>1803.7</ele>
        <time>2020-02-09T08:30:34Z</time>
      </trkpt>
      <trkpt lat="45.27152" lon="6.18911">
        <ele>1804.6</ele>
        <time>2020-02-09T08:30:38Z</time>
      </trkpt>
      <trkpt lat="45.2715" lon="6.18908">
        <ele>1805.6</ele>
        <time>2020-02-09T08:30:53Z</time>
      </trkpt>
      <trkpt lat="45.27147" lon="6.1891">
        <ele>1806.5</ele>
        <time>2020-02-09T08:31:30Z</time>
      </trkpt>
      <trkpt lat="45.27145" lon="6.18906">
        <ele>1807</ele>
        <time>2020-02-09T08:31:35Z</time>
      </trkpt>
      <trkpt lat="45.27143" lon="6.18903">
        <ele>1807.6</ele>
        <time>2020-02-09T08:31:39Z</time>
      </trkpt>
      <trkpt lat="45.27142" lon="6.18899">
        <ele>1808.1</ele>
        <time>2020-02-09T08:31:44Z</time>
      </trkpt>
      <trkpt lat="45.27141" lon="6.18895">
        <ele>1808.6</ele>
        <time>2020-02-09T08:31:47Z</time>
      </trkpt>
      <trkpt lat="45.2714" lon="6.18891">
        <ele>1809.2</ele>
        <time>2020-02-09T08:31:50Z</time>
      </trkpt>
      <trkpt lat="45.2714" lon="6.18887">
        <ele>1809.7</ele>
        <time>2020-02-09T08:31:53Z</time>
      </trkpt>
      <trkpt lat="45.27141" lon="6.18883">
        <ele>1810.1</ele>
        <time>2020-02-09T08:31:56Z</time>
      </trkpt>
      <trkpt lat="45.2714" lon="6.18878">
        <ele>1810.5</ele>
        <time>2020-02-09T08:32:00Z</time>
      </trkpt>
      <trkpt lat="45.27139" lon="6.18874">
        <ele>1811</ele>
        <time>2020-02-09T08:32:04Z</time>
      </trkpt>
      <trkpt lat="45.27138" lon="6.1887">
        <ele>1811.4</ele>
        <time>2020-02-09T08:32:07Z</time>
      </trkpt>
      <trkpt lat="45.27137" lon="6.18866">
        <ele>1811.9</ele>
        <time>2020-02-09T08:32:10Z</time>
      </trkpt>
      <trkpt lat="45.27135" lon="6.18862">
        <ele>1812.4</ele>
        <time>2020-02-09T08:32:13Z</time>
      </trkpt>
      <trkpt lat="45.27134" lon="6.18858">
        <ele>1813</ele>
        <time>2020-02-09T08:32:16Z</time>
      </trkpt>
      <trkpt lat="45.27134" lon="6.18853">
        <ele>1813.6</ele>
        <time>2020-02-09T08:32:20Z</time>
      </trkpt>
      <trkpt lat="45.27132" lon="6.18849">
        <ele>1814.4</ele>
        <time>2020-02-09T08:32:23Z</time>
      </trkpt>
      <trkpt lat="45.27131" lon="6.18843">
        <ele>1814.8</ele>
        <time>2020-02-09T08:32:26Z</time>
      </trkpt>
      <trkpt lat="45.2713" lon="6.18839">
        <ele>1815.1</ele>
        <time>2020-02-09T08:32:29Z</time>
      </trkpt>
      <trkpt lat="45.27129" lon="6.18835">
        <ele>1815.4</ele>
        <time>2020-02-09T08:32:32Z</time>
      </trkpt>
      <trkpt lat="45.27128" lon="6.1883">
        <ele>1816.1</ele>
        <time>2020-02-09T08:32:36Z</time>
      </trkpt>
      <trkpt lat="45.27129" lon="6.18826">
        <ele>1816.8</ele>
        <time>2020-02-09T08:32:41Z</time>
      </trkpt>
      <trkpt lat="45.27128" lon="6.18821">
        <ele>1817.5</ele>
        <time>2020-02-09T08:32:44Z</time>
      </trkpt>
      <trkpt lat="45.27126" lon="6.18817">
        <ele>1818.3</ele>
        <time>2020-02-09T08:32:47Z</time>
      </trkpt>
      <trkpt lat="45.27125" lon="6.18814">
        <ele>1818.9</ele>
        <time>2020-02-09T08:32:50Z</time>
      </trkpt>
      <trkpt lat="45.27123" lon="6.1881">
        <ele>1819.6</ele>
        <time>2020-02-09T08:32:53Z</time>
      </trkpt>
      <trkpt lat="45.27122" lon="6.18806">
        <ele>1820.2</ele>
        <time>2020-02-09T08:32:55Z</time>
      </trkpt>
      <trkpt lat="45.27121" lon="6.18803">
        <ele>1820.7</ele>
        <time>2020-02-09T08:32:58Z</time>
      </trkpt>
      <trkpt lat="45.2712" lon="6.18799">
        <ele>1821.3</ele>
        <time>2020-02-09T08:33:01Z</time>
      </trkpt>
      <trkpt lat="45.2712" lon="6.18794">
        <ele>1821.9</ele>
        <time>2020-02-09T08:33:05Z</time>
      </trkpt>
      <trkpt lat="45.27118" lon="6.18791">
        <ele>1822.3</ele>
        <time>2020-02-09T08:33:09Z</time>
      </trkpt>
      <trkpt lat="45.27116" lon="6.18788">
        <ele>1822.5</ele>
        <time>2020-02-09T08:33:12Z</time>
      </trkpt>
      <trkpt lat="45.27114" lon="6.18783">
        <ele>1822.8</ele>
        <time>2020-02-09T08:33:15Z</time>
      </trkpt>
      <trkpt lat="45.27113" lon="6.18779">
        <ele>1823</ele>
        <time>2020-02-09T08:33:18Z</time>
      </trkpt>
      <trkpt lat="45.27112" lon="6.18776">
        <ele>1823.2</ele>
        <time>2020-02-09T08:33:22Z</time>
      </trkpt>
      <trkpt lat="45.2711" lon="6.18772">
        <ele>1823.5</ele>
        <time>2020-02-09T08:33:26Z</time>
      </trkpt>
      <trkpt lat="45.27108" lon="6.18769">
        <ele>1823.5</ele>
        <time>2020-02-09T08:33:29Z</time>
      </trkpt>
      <trkpt lat="45.27106" lon="6.18767">
        <ele>1823.3</ele>
        <time>2020-02-09T08:33:31Z</time>
      </trkpt>
      <trkpt lat="45.27103" lon="6.18763">
        <ele>1823.2</ele>
        <time>2020-02-09T08:33:34Z</time>
      </trkpt>
      <trkpt lat="45.27101" lon="6.1876">
        <ele>1823.4</ele>
        <time>2020-02-09T08:33:36Z</time>
      </trkpt>
      <trkpt lat="45.27099" lon="6.18757">
        <ele>1823.6</ele>
        <time>2020-02-09T08:33:38Z</time>
      </trkpt>
      <trkpt lat="45.27096" lon="6.18755">
        <ele>1823.8</ele>
        <time>2020-02-09T08:33:43Z</time>
      </trkpt>
      <trkpt lat="45.27094" lon="6.18751">
        <ele>1823.9</ele>
        <time>2020-02-09T08:33:46Z</time>
      </trkpt>
      <trkpt lat="45.27091" lon="6.18747">
        <ele>1824.1</ele>
        <time>2020-02-09T08:33:50Z</time>
      </trkpt>
      <trkpt lat="45.27089" lon="6.18744">
        <ele>1824.5</ele>
        <time>2020-02-09T08:33:54Z</time>
      </trkpt>
      <trkpt lat="45.27087" lon="6.1874">
        <ele>1825</ele>
        <time>2020-02-09T08:33:57Z</time>
      </trkpt>
      <trkpt lat="45.27086" lon="6.18737">
        <ele>1825.6</ele>
        <time>2020-02-09T08:34:00Z</time>
      </trkpt>
      <trkpt lat="45.27084" lon="6.18734">
        <ele>1825.7</ele>
        <time>2020-02-09T08:34:02Z</time>
      </trkpt>
      <trkpt lat="45.27081" lon="6.18731">
        <ele>1825.8</ele>
        <time>2020-02-09T08:34:05Z</time>
      </trkpt>
      <trkpt lat="45.27079" lon="6.18728">
        <ele>1826.3</ele>
        <time>2020-02-09T08:34:09Z</time>
      </trkpt>
      <trkpt lat="45.27077" lon="6.18725">
        <ele>1827</ele>
        <time>2020-02-09T08:34:13Z</time>
      </trkpt>
      <trkpt lat="45.27075" lon="6.18722">
        <ele>1827.7</ele>
        <time>2020-02-09T08:34:16Z</time>
      </trkpt>
      <trkpt lat="45.27073" lon="6.18718">
        <ele>1827.9</ele>
        <time>2020-02-09T08:34:23Z</time>
      </trkpt>
      <trkpt lat="45.2707" lon="6.18714">
        <ele>1828.3</ele>
        <time>2020-02-09T08:34:26Z</time>
      </trkpt>
      <trkpt lat="45.27069" lon="6.1871">
        <ele>1828.5</ele>
        <time>2020-02-09T08:34:29Z</time>
      </trkpt>
      <trkpt lat="45.27068" lon="6.18705">
        <ele>1828.7</ele>
        <time>2020-02-09T08:34:33Z</time>
      </trkpt>
      <trkpt lat="45.27066" lon="6.18702">
        <ele>1829.1</ele>
        <time>2020-02-09T08:34:38Z</time>
      </trkpt>
      <trkpt lat="45.27066" lon="6.18697">
        <ele>1829.5</ele>
        <time>2020-02-09T08:34:41Z</time>
      </trkpt>
      <trkpt lat="45.27065" lon="6.18694">
        <ele>1829.8</ele>
        <time>2020-02-09T08:34:44Z</time>
      </trkpt>
      <trkpt lat="45.27065" lon="6.18689">
        <ele>1830.3</ele>
        <time>2020-02-09T08:34:47Z</time>
      </trkpt>
      <trkpt lat="45.27064" lon="6.18685">
        <ele>1831.3</ele>
        <time>2020-02-09T08:34:52Z</time>
      </trkpt>
      <trkpt lat="45.27063" lon="6.18681">
        <ele>1832.2</ele>
        <time>2020-02-09T08:34:57Z</time>
      </trkpt>
      <trkpt lat="45.27061" lon="6.18677">
        <ele>1833.1</ele>
        <time>2020-02-09T08:34:59Z</time>
      </trkpt>
      <trkpt lat="45.27061" lon="6.18673">
        <ele>1833.8</ele>
        <time>2020-02-09T08:35:01Z</time>
      </trkpt>
      <trkpt lat="45.27058" lon="6.1867">
        <ele>1834.4</ele>
        <time>2020-02-09T08:35:05Z</time>
      </trkpt>
      <trkpt lat="45.27056" lon="6.18667">
        <ele>1835</ele>
        <time>2020-02-09T08:35:08Z</time>
      </trkpt>
      <trkpt lat="45.27055" lon="6.18663">
        <ele>1835.7</ele>
        <time>2020-02-09T08:35:11Z</time>
      </trkpt>
      <trkpt lat="45.27054" lon="6.18659">
        <ele>1836.4</ele>
        <time>2020-02-09T08:35:16Z</time>
      </trkpt>
      <trkpt lat="45.27055" lon="6.18654">
        <ele>1837.3</ele>
        <time>2020-02-09T08:35:22Z</time>
      </trkpt>
      <trkpt lat="45.27055" lon="6.1865">
        <ele>1837.9</ele>
        <time>2020-02-09T08:35:26Z</time>
      </trkpt>
      <trkpt lat="45.27052" lon="6.18647">
        <ele>1838.6</ele>
        <time>2020-02-09T08:35:29Z</time>
      </trkpt>
      <trkpt lat="45.2705" lon="6.18644">
        <ele>1839.3</ele>
        <time>2020-02-09T08:35:33Z</time>
      </trkpt>
      <trkpt lat="45.27048" lon="6.18639">
        <ele>1840.2</ele>
        <time>2020-02-09T08:35:39Z</time>
      </trkpt>
      <trkpt lat="45.27047" lon="6.18635">
        <ele>1841.3</ele>
        <time>2020-02-09T08:35:42Z</time>
      </trkpt>
      <trkpt lat="45.27045" lon="6.18632">
        <ele>1842.4</ele>
        <time>2020-02-09T08:35:44Z</time>
      </trkpt>
      <trkpt lat="45.27045" lon="6.18628">
        <ele>1843.5</ele>
        <time>2020-02-09T08:35:48Z</time>
      </trkpt>
      <trkpt lat="45.27045" lon="6.18623">
        <ele>1844.2</ele>
        <time>2020-02-09T08:35:52Z</time>
      </trkpt>
      <trkpt lat="45.27043" lon="6.18619">
        <ele>1844.7</ele>
        <time>2020-02-09T08:35:56Z</time>
      </trkpt>
      <trkpt lat="45.27041" lon="6.18616">
        <ele>1845.2</ele>
        <time>2020-02-09T08:36:01Z</time>
      </trkpt>
      <trkpt lat="45.2704" lon="6.18612">
        <ele>1845.8</ele>
        <time>2020-02-09T08:36:04Z</time>
      </trkpt>
      <trkpt lat="45.27039" lon="6.18608">
        <ele>1846.6</ele>
        <time>2020-02-09T08:36:06Z</time>
      </trkpt>
      <trkpt lat="45.27039" lon="6.18605">
        <ele>1847.3</ele>
        <time>2020-02-09T08:36:09Z</time>
      </trkpt>
      <trkpt lat="45.27039" lon="6.186">
        <ele>1847.9</ele>
        <time>2020-02-09T08:36:14Z</time>
      </trkpt>
      <trkpt lat="45.27038" lon="6.18596">
        <ele>1847.9</ele>
        <time>2020-02-09T08:36:19Z</time>
      </trkpt>
      <trkpt lat="45.27037" lon="6.18592">
        <ele>1848</ele>
        <time>2020-02-09T08:36:23Z</time>
      </trkpt>
      <trkpt lat="45.27035" lon="6.18588">
        <ele>1848.1</ele>
        <time>2020-02-09T08:36:27Z</time>
      </trkpt>
      <trkpt lat="45.27033" lon="6.18584">
        <ele>1848.5</ele>
        <time>2020-02-09T08:36:31Z</time>
      </trkpt>
      <trkpt lat="45.27031" lon="6.18581">
        <ele>1848.8</ele>
        <time>2020-02-09T08:36:34Z</time>
      </trkpt>
      <trkpt lat="45.27029" lon="6.18578">
        <ele>1849.2</ele>
        <time>2020-02-09T08:36:37Z</time>
      </trkpt>
      <trkpt lat="45.27028" lon="6.18574">
        <ele>1850.1</ele>
        <time>2020-02-09T08:36:40Z</time>
      </trkpt>
      <trkpt lat="45.27026" lon="6.18571">
        <ele>1851.1</ele>
        <time>2020-02-09T08:36:44Z</time>
      </trkpt>
      <trkpt lat="45.27024" lon="6.18568">
        <ele>1852.1</ele>
        <time>2020-02-09T08:36:48Z</time>
      </trkpt>
      <trkpt lat="45.27021" lon="6.18564">
        <ele>1852.7</ele>
        <time>2020-02-09T08:36:51Z</time>
      </trkpt>
      <trkpt lat="45.27019" lon="6.1856">
        <ele>1853.1</ele>
        <time>2020-02-09T08:36:55Z</time>
      </trkpt>
      <trkpt lat="45.27018" lon="6.18557">
        <ele>1853.4</ele>
        <time>2020-02-09T08:36:58Z</time>
      </trkpt>
      <trkpt lat="45.27015" lon="6.18554">
        <ele>1854</ele>
        <time>2020-02-09T08:37:01Z</time>
      </trkpt>
      <trkpt lat="45.27013" lon="6.18552">
        <ele>1854.6</ele>
        <time>2020-02-09T08:37:06Z</time>
      </trkpt>
      <trkpt lat="45.27011" lon="6.18548">
        <ele>1855.3</ele>
        <time>2020-02-09T08:37:11Z</time>
      </trkpt>
      <trkpt lat="45.27009" lon="6.18544">
        <ele>1855.8</ele>
        <time>2020-02-09T08:37:14Z</time>
      </trkpt>
      <trkpt lat="45.27007" lon="6.18541">
        <ele>1856.3</ele>
        <time>2020-02-09T08:37:18Z</time>
      </trkpt>
      <trkpt lat="45.27005" lon="6.18536">
        <ele>1856.8</ele>
        <time>2020-02-09T08:37:22Z</time>
      </trkpt>
      <trkpt lat="45.27004" lon="6.18531">
        <ele>1857.3</ele>
        <time>2020-02-09T08:37:25Z</time>
      </trkpt>
      <trkpt lat="45.27002" lon="6.18527">
        <ele>1857.7</ele>
        <time>2020-02-09T08:37:28Z</time>
      </trkpt>
      <trkpt lat="45.26999" lon="6.18524">
        <ele>1858.1</ele>
        <time>2020-02-09T08:37:31Z</time>
      </trkpt>
      <trkpt lat="45.26998" lon="6.18519">
        <ele>1858.4</ele>
        <time>2020-02-09T08:37:34Z</time>
      </trkpt>
      <trkpt lat="45.26996" lon="6.18516">
        <ele>1858.5</ele>
        <time>2020-02-09T08:37:38Z</time>
      </trkpt>
      <trkpt lat="45.26994" lon="6.18511">
        <ele>1858.7</ele>
        <time>2020-02-09T08:37:43Z</time>
      </trkpt>
      <trkpt lat="45.26993" lon="6.18507">
        <ele>1858.7</ele>
        <time>2020-02-09T08:37:48Z</time>
      </trkpt>
      <trkpt lat="45.26992" lon="6.18502">
        <ele>1858.3</ele>
        <time>2020-02-09T08:37:54Z</time>
      </trkpt>
      <trkpt lat="45.26992" lon="6.18497">
        <ele>1857.9</ele>
        <time>2020-02-09T08:37:59Z</time>
      </trkpt>
      <trkpt lat="45.2699" lon="6.18493">
        <ele>1858</ele>
        <time>2020-02-09T08:38:03Z</time>
      </trkpt>
      <trkpt lat="45.26988" lon="6.18489">
        <ele>1858.1</ele>
        <time>2020-02-09T08:38:08Z</time>
      </trkpt>
      <trkpt lat="45.26986" lon="6.18485">
        <ele>1858.2</ele>
        <time>2020-02-09T08:38:13Z</time>
      </trkpt>
      <trkpt lat="45.26986" lon="6.1848">
        <ele>1858.3</ele>
        <time>2020-02-09T08:38:19Z</time>
      </trkpt>
      <trkpt lat="45.26986" lon="6.18475">
        <ele>1858.5</ele>
        <time>2020-02-09T08:38:25Z</time>
      </trkpt>
      <trkpt lat="45.26986" lon="6.18471">
        <ele>1858.6</ele>
        <time>2020-02-09T08:38:28Z</time>
      </trkpt>
      <trkpt lat="45.26986" lon="6.18467">
        <ele>1858.9</ele>
        <time>2020-02-09T08:38:32Z</time>
      </trkpt>
      <trkpt lat="45.26985" lon="6.18462">
        <ele>1859.4</ele>
        <time>2020-02-09T08:38:35Z</time>
      </trkpt>
      <trkpt lat="45.26982" lon="6.18459">
        <ele>1859.7</ele>
        <time>2020-02-09T08:38:37Z</time>
      </trkpt>
      <trkpt lat="45.26981" lon="6.18455">
        <ele>1859.8</ele>
        <time>2020-02-09T08:38:40Z</time>
      </trkpt>
      <trkpt lat="45.2698" lon="6.1845">
        <ele>1859.9</ele>
        <time>2020-02-09T08:38:43Z</time>
      </trkpt>
      <trkpt lat="45.26979" lon="6.18446">
        <ele>1859.9</ele>
        <time>2020-02-09T08:38:46Z</time>
      </trkpt>
      <trkpt lat="45.26979" lon="6.18441">
        <ele>1860.5</ele>
        <time>2020-02-09T08:38:50Z</time>
      </trkpt>
      <trkpt lat="45.26978" lon="6.18437">
        <ele>1861.1</ele>
        <time>2020-02-09T08:38:54Z</time>
      </trkpt>
      <trkpt lat="45.26977" lon="6.18433">
        <ele>1861.6</ele>
        <time>2020-02-09T08:38:58Z</time>
      </trkpt>
      <trkpt lat="45.26977" lon="6.18429">
        <ele>1862</ele>
        <time>2020-02-09T08:39:01Z</time>
      </trkpt>
      <trkpt lat="45.26975" lon="6.18424">
        <ele>1862.4</ele>
        <time>2020-02-09T08:39:05Z</time>
      </trkpt>
      <trkpt lat="45.26973" lon="6.18421">
        <ele>1862.7</ele>
        <time>2020-02-09T08:39:09Z</time>
      </trkpt>
      <trkpt lat="45.26973" lon="6.18416">
        <ele>1863</ele>
        <time>2020-02-09T08:39:12Z</time>
      </trkpt>
      <trkpt lat="45.26972" lon="6.18412">
        <ele>1863.1</ele>
        <time>2020-02-09T08:39:16Z</time>
      </trkpt>
      <trkpt lat="45.26972" lon="6.18407">
        <ele>1863.3</ele>
        <time>2020-02-09T08:39:22Z</time>
      </trkpt>
      <trkpt lat="45.2697" lon="6.18404">
        <ele>1863.6</ele>
        <time>2020-02-09T08:39:25Z</time>
      </trkpt>
      <trkpt lat="45.26969" lon="6.184">
        <ele>1864</ele>
        <time>2020-02-09T08:39:28Z</time>
      </trkpt>
      <trkpt lat="45.26967" lon="6.18395">
        <ele>1864.4</ele>
        <time>2020-02-09T08:39:31Z</time>
      </trkpt>
      <trkpt lat="45.26967" lon="6.18391">
        <ele>1864.8</ele>
        <time>2020-02-09T08:39:33Z</time>
      </trkpt>
      <trkpt lat="45.26966" lon="6.18387">
        <ele>1865.1</ele>
        <time>2020-02-09T08:39:36Z</time>
      </trkpt>
      <trkpt lat="45.26966" lon="6.18383">
        <ele>1865.5</ele>
        <time>2020-02-09T08:39:41Z</time>
      </trkpt>
      <trkpt lat="45.26964" lon="6.1838">
        <ele>1866</ele>
        <time>2020-02-09T08:39:44Z</time>
      </trkpt>
      <trkpt lat="45.26961" lon="6.18379">
        <ele>1866.5</ele>
        <time>2020-02-09T08:39:50Z</time>
      </trkpt>
      <trkpt lat="45.2696" lon="6.18376">
        <ele>1867.1</ele>
        <time>2020-02-09T08:39:54Z</time>
      </trkpt>
      <trkpt lat="45.26961" lon="6.18371">
        <ele>1867.5</ele>
        <time>2020-02-09T08:39:58Z</time>
      </trkpt>
      <trkpt lat="45.26962" lon="6.18367">
        <ele>1867.5</ele>
        <time>2020-02-09T08:40:01Z</time>
      </trkpt>
      <trkpt lat="45.26963" lon="6.18363">
        <ele>1867.6</ele>
        <time>2020-02-09T08:40:05Z</time>
      </trkpt>
      <trkpt lat="45.26966" lon="6.1836">
        <ele>1868.3</ele>
        <time>2020-02-09T08:40:10Z</time>
      </trkpt>
      <trkpt lat="45.26968" lon="6.18356">
        <ele>1869.5</ele>
        <time>2020-02-09T08:40:13Z</time>
      </trkpt>
      <trkpt lat="45.2697" lon="6.18353">
        <ele>1870.8</ele>
        <time>2020-02-09T08:40:16Z</time>
      </trkpt>
      <trkpt lat="45.26973" lon="6.18353">
        <ele>1871.3</ele>
        <time>2020-02-09T08:40:18Z</time>
      </trkpt>
      <trkpt lat="45.26974" lon="6.18348">
        <ele>1872</ele>
        <time>2020-02-09T08:40:24Z</time>
      </trkpt>
      <trkpt lat="45.26976" lon="6.18345">
        <ele>1873.2</ele>
        <time>2020-02-09T08:40:28Z</time>
      </trkpt>
      <trkpt lat="45.26976" lon="6.18341">
        <ele>1873.8</ele>
        <time>2020-02-09T08:40:31Z</time>
      </trkpt>
      <trkpt lat="45.26975" lon="6.18336">
        <ele>1874</ele>
        <time>2020-02-09T08:40:34Z</time>
      </trkpt>
      <trkpt lat="45.26975" lon="6.18331">
        <ele>1874.7</ele>
        <time>2020-02-09T08:40:38Z</time>
      </trkpt>
      <trkpt lat="45.26976" lon="6.18327">
        <ele>1875.9</ele>
        <time>2020-02-09T08:40:45Z</time>
      </trkpt>
      <trkpt lat="45.26977" lon="6.18323">
        <ele>1876.6</ele>
        <time>2020-02-09T08:40:51Z</time>
      </trkpt>
      <trkpt lat="45.26978" lon="6.18319">
        <ele>1877.4</ele>
        <time>2020-02-09T08:40:55Z</time>
      </trkpt>
      <trkpt lat="45.26979" lon="6.18315">
        <ele>1878.6</ele>
        <time>2020-02-09T08:40:58Z</time>
      </trkpt>
      <trkpt lat="45.26979" lon="6.18311">
        <ele>1879.4</ele>
        <time>2020-02-09T08:41:02Z</time>
      </trkpt>
      <trkpt lat="45.2698" lon="6.18306">
        <ele>1880.2</ele>
        <time>2020-02-09T08:41:06Z</time>
      </trkpt>
      <trkpt lat="45.2698" lon="6.18301">
        <ele>1881</ele>
        <time>2020-02-09T08:41:10Z</time>
      </trkpt>
      <trkpt lat="45.26981" lon="6.18296">
        <ele>1881.7</ele>
        <time>2020-02-09T08:41:15Z</time>
      </trkpt>
      <trkpt lat="45.26982" lon="6.18292">
        <ele>1882.9</ele>
        <time>2020-02-09T08:41:19Z</time>
      </trkpt>
      <trkpt lat="45.26982" lon="6.18287">
        <ele>1883.6</ele>
        <time>2020-02-09T08:41:24Z</time>
      </trkpt>
      <trkpt lat="45.26984" lon="6.18283">
        <ele>1884.4</ele>
        <time>2020-02-09T08:41:29Z</time>
      </trkpt>
      <trkpt lat="45.26986" lon="6.1828">
        <ele>1885.7</ele>
        <time>2020-02-09T08:41:36Z</time>
      </trkpt>
      <trkpt lat="45.26986" lon="6.18276">
        <ele>1886.6</ele>
        <time>2020-02-09T08:41:41Z</time>
      </trkpt>
      <trkpt lat="45.26987" lon="6.18271">
        <ele>1887.6</ele>
        <time>2020-02-09T08:41:48Z</time>
      </trkpt>
      <trkpt lat="45.26988" lon="6.18267">
        <ele>1889.1</ele>
        <time>2020-02-09T08:41:52Z</time>
      </trkpt>
      <trkpt lat="45.26989" lon="6.18263">
        <ele>1890.1</ele>
        <time>2020-02-09T08:41:59Z</time>
      </trkpt>
      <trkpt lat="45.26991" lon="6.18259">
        <ele>1891.8</ele>
        <time>2020-02-09T08:42:03Z</time>
      </trkpt>
      <trkpt lat="45.26993" lon="6.18255">
        <ele>1892.8</ele>
        <time>2020-02-09T08:42:08Z</time>
      </trkpt>
      <trkpt lat="45.26995" lon="6.1825">
        <ele>1894.5</ele>
        <time>2020-02-09T08:42:14Z</time>
      </trkpt>
      <trkpt lat="45.26997" lon="6.18247">
        <ele>1895.2</ele>
        <time>2020-02-09T08:42:18Z</time>
      </trkpt>
      <trkpt lat="45.26998" lon="6.18243">
        <ele>1897.2</ele>
        <time>2020-02-09T08:42:25Z</time>
      </trkpt>
      <trkpt lat="45.26999" lon="6.18239">
        <ele>1897.2</ele>
        <time>2020-02-09T08:42:32Z</time>
      </trkpt>
      <trkpt lat="45.27" lon="6.18234">
        <ele>1898.9</ele>
        <time>2020-02-09T08:42:37Z</time>
      </trkpt>
      <trkpt lat="45.27001" lon="6.1823">
        <ele>1900</ele>
        <time>2020-02-09T08:42:41Z</time>
      </trkpt>
      <trkpt lat="45.27" lon="6.18226">
        <ele>1902.3</ele>
        <time>2020-02-09T08:42:48Z</time>
      </trkpt>
      <trkpt lat="45.26999" lon="6.18221">
        <ele>1901.7</ele>
        <time>2020-02-09T08:42:52Z</time>
      </trkpt>
      <trkpt lat="45.26999" lon="6.18217">
        <ele>1904.1</ele>
        <time>2020-02-09T08:42:56Z</time>
      </trkpt>
      <trkpt lat="45.26999" lon="6.18213">
        <ele>1904.1</ele>
        <time>2020-02-09T08:43:01Z</time>
      </trkpt>
      <trkpt lat="45.26999" lon="6.18208">
        <ele>1906.6</ele>
        <time>2020-02-09T08:43:05Z</time>
      </trkpt>
      <trkpt lat="45.26998" lon="6.18204">
        <ele>1907.7</ele>
        <time>2020-02-09T08:43:12Z</time>
      </trkpt>
      <trkpt lat="45.26997" lon="6.182">
        <ele>1907.7</ele>
        <time>2020-02-09T08:43:20Z</time>
      </trkpt>
      <trkpt lat="45.26996" lon="6.18196">
        <ele>1909</ele>
        <time>2020-02-09T08:43:25Z</time>
      </trkpt>
      <trkpt lat="45.26995" lon="6.18192">
        <ele>1909.5</ele>
        <time>2020-02-09T08:43:29Z</time>
      </trkpt>
      <trkpt lat="45.26994" lon="6.18187">
        <ele>1910.8</ele>
        <time>2020-02-09T08:43:34Z</time>
      </trkpt>
      <trkpt lat="45.26998" lon="6.18188">
        <ele>1911.5</ele>
        <time>2020-02-09T08:43:49Z</time>
      </trkpt>
      <trkpt lat="45.27001" lon="6.1819">
        <ele>1912.2</ele>
        <time>2020-02-09T08:43:52Z</time>
      </trkpt>
      <trkpt lat="45.27004" lon="6.18192">
        <ele>1911.6</ele>
        <time>2020-02-09T08:44:01Z</time>
      </trkpt>
      <trkpt lat="45.27007" lon="6.18192">
        <ele>1912.3</ele>
        <time>2020-02-09T08:44:07Z</time>
      </trkpt>
      <trkpt lat="45.2701" lon="6.18191">
        <ele>1914.4</ele>
        <time>2020-02-09T08:44:12Z</time>
      </trkpt>
      <trkpt lat="45.27013" lon="6.1819">
        <ele>1915.1</ele>
        <time>2020-02-09T08:44:16Z</time>
      </trkpt>
      <trkpt lat="45.27016" lon="6.1819">
        <ele>1915.7</ele>
        <time>2020-02-09T08:44:22Z</time>
      </trkpt>
      <trkpt lat="45.2702" lon="6.1819">
        <ele>1916.3</ele>
        <time>2020-02-09T08:44:26Z</time>
      </trkpt>
      <trkpt lat="45.27023" lon="6.1819">
        <ele>1917</ele>
        <time>2020-02-09T08:44:30Z</time>
      </trkpt>
      <trkpt lat="45.27025" lon="6.18194">
        <ele>1916.5</ele>
        <time>2020-02-09T08:44:36Z</time>
      </trkpt>
      <trkpt lat="45.27028" lon="6.18194">
        <ele>1917.5</ele>
        <time>2020-02-09T08:44:40Z</time>
      </trkpt>
      <trkpt lat="45.27031" lon="6.18197">
        <ele>1917.2</ele>
        <time>2020-02-09T08:44:44Z</time>
      </trkpt>
      <trkpt lat="45.27034" lon="6.18197">
        <ele>1918.3</ele>
        <time>2020-02-09T08:44:47Z</time>
      </trkpt>
      <trkpt lat="45.27037" lon="6.18197">
        <ele>1919.3</ele>
        <time>2020-02-09T08:44:51Z</time>
      </trkpt>
      <trkpt lat="45.2704" lon="6.18199">
        <ele>1920.2</ele>
        <time>2020-02-09T08:44:56Z</time>
      </trkpt>
      <trkpt lat="45.27042" lon="6.182">
        <ele>1921.3</ele>
        <time>2020-02-09T08:45:01Z</time>
      </trkpt>
      <trkpt lat="45.27045" lon="6.18202">
        <ele>1921.2</ele>
        <time>2020-02-09T08:45:05Z</time>
      </trkpt>
      <trkpt lat="45.27045" lon="6.18198">
        <ele>1922.4</ele>
        <time>2020-02-09T08:45:16Z</time>
      </trkpt>
      <trkpt lat="45.27042" lon="6.18197">
        <ele>1921.3</ele>
        <time>2020-02-09T08:45:19Z</time>
      </trkpt>
      <trkpt lat="45.2704" lon="6.18193">
        <ele>1921.5</ele>
        <time>2020-02-09T08:45:22Z</time>
      </trkpt>
      <trkpt lat="45.27039" lon="6.18189">
        <ele>1921.8</ele>
        <time>2020-02-09T08:45:26Z</time>
      </trkpt>
      <trkpt lat="45.27037" lon="6.18186">
        <ele>1923.2</ele>
        <time>2020-02-09T08:45:29Z</time>
      </trkpt>
      <trkpt lat="45.27039" lon="6.18182">
        <ele>1924.7</ele>
        <time>2020-02-09T08:45:33Z</time>
      </trkpt>
      <trkpt lat="45.27038" lon="6.18177">
        <ele>1926.3</ele>
        <time>2020-02-09T08:45:36Z</time>
      </trkpt>
      <trkpt lat="45.27036" lon="6.18173">
        <ele>1928</ele>
        <time>2020-02-09T08:45:39Z</time>
      </trkpt>
      <trkpt lat="45.27036" lon="6.18169">
        <ele>1929.7</ele>
        <time>2020-02-09T08:45:44Z</time>
      </trkpt>
      <trkpt lat="45.27034" lon="6.18165">
        <ele>1930.4</ele>
        <time>2020-02-09T08:45:49Z</time>
      </trkpt>
      <trkpt lat="45.27035" lon="6.18161">
        <ele>1932</ele>
        <time>2020-02-09T08:45:53Z</time>
      </trkpt>
      <trkpt lat="45.27033" lon="6.18157">
        <ele>1932</ele>
        <time>2020-02-09T08:45:57Z</time>
      </trkpt>
      <trkpt lat="45.27032" lon="6.18153">
        <ele>1932.5</ele>
        <time>2020-02-09T08:46:01Z</time>
      </trkpt>
      <trkpt lat="45.27031" lon="6.1815">
        <ele>1934</ele>
        <time>2020-02-09T08:46:04Z</time>
      </trkpt>
      <trkpt lat="45.27028" lon="6.18146">
        <ele>1934.4</ele>
        <time>2020-02-09T08:46:08Z</time>
      </trkpt>
      <trkpt lat="45.27027" lon="6.18142">
        <ele>1936</ele>
        <time>2020-02-09T08:46:10Z</time>
      </trkpt>
      <trkpt lat="45.27025" lon="6.18138">
        <ele>1936.5</ele>
        <time>2020-02-09T08:46:14Z</time>
      </trkpt>
      <trkpt lat="45.27022" lon="6.18136">
        <ele>1935.5</ele>
        <time>2020-02-09T08:46:18Z</time>
      </trkpt>
      <trkpt lat="45.2702" lon="6.18132">
        <ele>1936.3</ele>
        <time>2020-02-09T08:46:21Z</time>
      </trkpt>
      <trkpt lat="45.27018" lon="6.18129">
        <ele>1937.9</ele>
        <time>2020-02-09T08:46:25Z</time>
      </trkpt>
      <trkpt lat="45.27016" lon="6.18124">
        <ele>1938.7</ele>
        <time>2020-02-09T08:46:29Z</time>
      </trkpt>
      <trkpt lat="45.27015" lon="6.1812">
        <ele>1940.2</ele>
        <time>2020-02-09T08:46:32Z</time>
      </trkpt>
      <trkpt lat="45.27014" lon="6.18116">
        <ele>1940.9</ele>
        <time>2020-02-09T08:46:37Z</time>
      </trkpt>
      <trkpt lat="45.27013" lon="6.18112">
        <ele>1942.4</ele>
        <time>2020-02-09T08:46:42Z</time>
      </trkpt>
      <trkpt lat="45.27011" lon="6.18109">
        <ele>1942.9</ele>
        <time>2020-02-09T08:46:45Z</time>
      </trkpt>
      <trkpt lat="45.27009" lon="6.18106">
        <ele>1942.9</ele>
        <time>2020-02-09T08:46:49Z</time>
      </trkpt>
      <trkpt lat="45.27008" lon="6.18102">
        <ele>1943.3</ele>
        <time>2020-02-09T08:46:52Z</time>
      </trkpt>
      <trkpt lat="45.27005" lon="6.18099">
        <ele>1943.7</ele>
        <time>2020-02-09T08:46:55Z</time>
      </trkpt>
      <trkpt lat="45.27003" lon="6.18096">
        <ele>1945</ele>
        <time>2020-02-09T08:46:58Z</time>
      </trkpt>
      <trkpt lat="45.27" lon="6.18093">
        <ele>1944</ele>
        <time>2020-02-09T08:47:02Z</time>
      </trkpt>
      <trkpt lat="45.26997" lon="6.18091">
        <ele>1944.2</ele>
        <time>2020-02-09T08:47:05Z</time>
      </trkpt>
      <trkpt lat="45.26995" lon="6.18088">
        <ele>1943.3</ele>
        <time>2020-02-09T08:47:07Z</time>
      </trkpt>
      <trkpt lat="45.26992" lon="6.18086">
        <ele>1943.6</ele>
        <time>2020-02-09T08:47:11Z</time>
      </trkpt>
      <trkpt lat="45.26989" lon="6.18084">
        <ele>1943.8</ele>
        <time>2020-02-09T08:47:15Z</time>
      </trkpt>
      <trkpt lat="45.26987" lon="6.18082">
        <ele>1942.9</ele>
        <time>2020-02-09T08:47:18Z</time>
      </trkpt>
      <trkpt lat="45.26984" lon="6.1808">
        <ele>1942</ele>
        <time>2020-02-09T08:47:21Z</time>
      </trkpt>
      <trkpt lat="45.26981" lon="6.1808">
        <ele>1941.1</ele>
        <time>2020-02-09T08:47:26Z</time>
      </trkpt>
      <trkpt lat="45.26979" lon="6.18077">
        <ele>1942.2</ele>
        <time>2020-02-09T08:47:30Z</time>
      </trkpt>
      <trkpt lat="45.26977" lon="6.18075">
        <ele>1942.4</ele>
        <time>2020-02-09T08:47:34Z</time>
      </trkpt>
      <trkpt lat="45.26974" lon="6.18071">
        <ele>1941.5</ele>
        <time>2020-02-09T08:47:38Z</time>
      </trkpt>
      <trkpt lat="45.26972" lon="6.18068">
        <ele>1941.7</ele>
        <time>2020-02-09T08:47:42Z</time>
      </trkpt>
      <trkpt lat="45.26969" lon="6.18069">
        <ele>1941.7</ele>
        <time>2020-02-09T08:47:52Z</time>
      </trkpt>
      <trkpt lat="45.26968" lon="6.18065">
        <ele>1941.8</ele>
        <time>2020-02-09T08:48:00Z</time>
      </trkpt>
      <trkpt lat="45.26967" lon="6.1806">
        <ele>1942.7</ele>
        <time>2020-02-09T08:48:03Z</time>
      </trkpt>
      <trkpt lat="45.26966" lon="6.18055">
        <ele>1942.8</ele>
        <time>2020-02-09T08:48:08Z</time>
      </trkpt>
      <trkpt lat="45.26964" lon="6.18051">
        <ele>1943.8</ele>
        <time>2020-02-09T08:48:11Z</time>
      </trkpt>
      <trkpt lat="45.26964" lon="6.18047">
        <ele>1944.7</ele>
        <time>2020-02-09T08:48:17Z</time>
      </trkpt>
      <trkpt lat="45.26968" lon="6.1805">
        <ele>1944.6</ele>
        <time>2020-02-09T08:48:30Z</time>
      </trkpt>
      <trkpt lat="45.26965" lon="6.18053">
        <ele>1943.8</ele>
        <time>2020-02-09T08:49:06Z</time>
      </trkpt>
      <trkpt lat="45.26963" lon="6.18049">
        <ele>1944.7</ele>
        <time>2020-02-09T08:49:51Z</time>
      </trkpt>
      <trkpt lat="45.26966" lon="6.18047">
        <ele>1945.5</ele>
        <time>2020-02-09T08:51:07Z</time>
      </trkpt>
      <trkpt lat="45.26969" lon="6.18045">
        <ele>1946.4</ele>
        <time>2020-02-09T08:51:29Z</time>
      </trkpt>
      <trkpt lat="45.26967" lon="6.18048">
        <ele>1945.5</ele>
        <time>2020-02-09T08:51:38Z</time>
      </trkpt>
      <trkpt lat="45.26965" lon="6.18045">
        <ele>1945.6</ele>
        <time>2020-02-09T08:52:04Z</time>
      </trkpt>
      <trkpt lat="45.26965" lon="6.1804">
        <ele>1946.5</ele>
        <time>2020-02-09T08:52:08Z</time>
      </trkpt>
      <trkpt lat="45.26967" lon="6.18035">
        <ele>1948.2</ele>
        <time>2020-02-09T08:52:11Z</time>
      </trkpt>
      <trkpt lat="45.26969" lon="6.18032">
        <ele>1949.9</ele>
        <time>2020-02-09T08:52:15Z</time>
      </trkpt>
      <trkpt lat="45.26971" lon="6.18028">
        <ele>1949.9</ele>
        <time>2020-02-09T08:52:18Z</time>
      </trkpt>
      <trkpt lat="45.26972" lon="6.18024">
        <ele>1950.7</ele>
        <time>2020-02-09T08:52:23Z</time>
      </trkpt>
      <trkpt lat="45.26973" lon="6.18021">
        <ele>1952.3</ele>
        <time>2020-02-09T08:52:27Z</time>
      </trkpt>
      <trkpt lat="45.26973" lon="6.18016">
        <ele>1953</ele>
        <time>2020-02-09T08:52:30Z</time>
      </trkpt>
      <trkpt lat="45.26974" lon="6.18012">
        <ele>1953.6</ele>
        <time>2020-02-09T08:52:34Z</time>
      </trkpt>
      <trkpt lat="45.26975" lon="6.18008">
        <ele>1954.3</ele>
        <time>2020-02-09T08:52:38Z</time>
      </trkpt>
      <trkpt lat="45.26975" lon="6.18004">
        <ele>1954.9</ele>
        <time>2020-02-09T08:52:41Z</time>
      </trkpt>
      <trkpt lat="45.26973" lon="6.18">
        <ele>1955.6</ele>
        <time>2020-02-09T08:52:46Z</time>
      </trkpt>
      <trkpt lat="45.26973" lon="6.17995">
        <ele>1956.3</ele>
        <time>2020-02-09T08:52:52Z</time>
      </trkpt>
      <trkpt lat="45.26972" lon="6.17991">
        <ele>1956.2</ele>
        <time>2020-02-09T08:52:55Z</time>
      </trkpt>
      <trkpt lat="45.26971" lon="6.17987">
        <ele>1956.9</ele>
        <time>2020-02-09T08:52:59Z</time>
      </trkpt>
      <trkpt lat="45.26969" lon="6.17983">
        <ele>1956.7</ele>
        <time>2020-02-09T08:53:02Z</time>
      </trkpt>
      <trkpt lat="45.26967" lon="6.1798">
        <ele>1957.4</ele>
        <time>2020-02-09T08:53:05Z</time>
      </trkpt>
      <trkpt lat="45.26965" lon="6.17977">
        <ele>1956.6</ele>
        <time>2020-02-09T08:53:09Z</time>
      </trkpt>
      <trkpt lat="45.26963" lon="6.17973">
        <ele>1956.6</ele>
        <time>2020-02-09T08:53:12Z</time>
      </trkpt>
      <trkpt lat="45.26964" lon="6.17969">
        <ele>1957.9</ele>
        <time>2020-02-09T08:53:15Z</time>
      </trkpt>
      <trkpt lat="45.26964" lon="6.17966">
        <ele>1958.5</ele>
        <time>2020-02-09T08:53:19Z</time>
      </trkpt>
      <trkpt lat="45.26964" lon="6.17961">
        <ele>1959.2</ele>
        <time>2020-02-09T08:53:22Z</time>
      </trkpt>
      <trkpt lat="45.26963" lon="6.17956">
        <ele>1959.9</ele>
        <time>2020-02-09T08:53:25Z</time>
      </trkpt>
      <trkpt lat="45.26963" lon="6.17952">
        <ele>1960</ele>
        <time>2020-02-09T08:53:31Z</time>
      </trkpt>
      <trkpt lat="45.26963" lon="6.17946">
        <ele>1961.7</ele>
        <time>2020-02-09T08:53:34Z</time>
      </trkpt>
      <trkpt lat="45.26964" lon="6.17943">
        <ele>1962.3</ele>
        <time>2020-02-09T08:53:39Z</time>
      </trkpt>
      <trkpt lat="45.26966" lon="6.17938">
        <ele>1963.2</ele>
        <time>2020-02-09T08:53:44Z</time>
      </trkpt>
      <trkpt lat="45.26967" lon="6.17934">
        <ele>1964.8</ele>
        <time>2020-02-09T08:53:47Z</time>
      </trkpt>
      <trkpt lat="45.26969" lon="6.1793">
        <ele>1965.5</ele>
        <time>2020-02-09T08:53:50Z</time>
      </trkpt>
      <trkpt lat="45.26969" lon="6.17925">
        <ele>1967.1</ele>
        <time>2020-02-09T08:53:57Z</time>
      </trkpt>
      <trkpt lat="45.26971" lon="6.17922">
        <ele>1967.9</ele>
        <time>2020-02-09T08:54:04Z</time>
      </trkpt>
      <trkpt lat="45.26973" lon="6.17918">
        <ele>1969.6</ele>
        <time>2020-02-09T08:54:06Z</time>
      </trkpt>
      <trkpt lat="45.26972" lon="6.17913">
        <ele>1969.6</ele>
        <time>2020-02-09T08:54:15Z</time>
      </trkpt>
      <trkpt lat="45.26972" lon="6.17909">
        <ele>1971.4</ele>
        <time>2020-02-09T08:54:19Z</time>
      </trkpt>
      <trkpt lat="45.26973" lon="6.17906">
        <ele>1972.4</ele>
        <time>2020-02-09T08:54:24Z</time>
      </trkpt>
      <trkpt lat="45.26973" lon="6.179">
        <ele>1973.3</ele>
        <time>2020-02-09T08:54:28Z</time>
      </trkpt>
      <trkpt lat="45.26972" lon="6.17897">
        <ele>1973.3</ele>
        <time>2020-02-09T08:54:32Z</time>
      </trkpt>
      <trkpt lat="45.26971" lon="6.17892">
        <ele>1974.3</ele>
        <time>2020-02-09T08:54:39Z</time>
      </trkpt>
      <trkpt lat="45.26971" lon="6.17888">
        <ele>1975.2</ele>
        <time>2020-02-09T08:54:42Z</time>
      </trkpt>
      <trkpt lat="45.2697" lon="6.17884">
        <ele>1976.2</ele>
        <time>2020-02-09T08:54:46Z</time>
      </trkpt>
      <trkpt lat="45.26972" lon="6.17881">
        <ele>1977.1</ele>
        <time>2020-02-09T08:54:53Z</time>
      </trkpt>
      <trkpt lat="45.26973" lon="6.17876">
        <ele>1979</ele>
        <time>2020-02-09T08:54:56Z</time>
      </trkpt>
      <trkpt lat="45.26971" lon="6.17873">
        <ele>1979.1</ele>
        <time>2020-02-09T08:55:04Z</time>
      </trkpt>
      <trkpt lat="45.2697" lon="6.17869">
        <ele>1980.2</ele>
        <time>2020-02-09T08:55:07Z</time>
      </trkpt>
      <trkpt lat="45.26967" lon="6.17867">
        <ele>1979.2</ele>
        <time>2020-02-09T08:55:13Z</time>
      </trkpt>
      <trkpt lat="45.26965" lon="6.17864">
        <ele>1979.4</ele>
        <time>2020-02-09T08:55:17Z</time>
      </trkpt>
      <trkpt lat="45.26965" lon="6.17859">
        <ele>1980.6</ele>
        <time>2020-02-09T08:55:21Z</time>
      </trkpt>
      <trkpt lat="45.26967" lon="6.17856">
        <ele>1982.8</ele>
        <time>2020-02-09T08:55:28Z</time>
      </trkpt>
      <trkpt lat="45.26966" lon="6.1785">
        <ele>1983</ele>
        <time>2020-02-09T08:55:33Z</time>
      </trkpt>
      <trkpt lat="45.26965" lon="6.17845">
        <ele>1984.2</ele>
        <time>2020-02-09T08:55:36Z</time>
      </trkpt>
      <trkpt lat="45.26966" lon="6.17841">
        <ele>1985.3</ele>
        <time>2020-02-09T08:55:47Z</time>
      </trkpt>
      <trkpt lat="45.26965" lon="6.17836">
        <ele>1986.5</ele>
        <time>2020-02-09T08:55:58Z</time>
      </trkpt>
      <trkpt lat="45.26965" lon="6.17832">
        <ele>1987.8</ele>
        <time>2020-02-09T08:56:03Z</time>
      </trkpt>
      <trkpt lat="45.26963" lon="6.17829">
        <ele>1989.1</ele>
        <time>2020-02-09T08:56:07Z</time>
      </trkpt>
      <trkpt lat="45.26961" lon="6.17826">
        <ele>1989.4</ele>
        <time>2020-02-09T08:56:09Z</time>
      </trkpt>
      <trkpt lat="45.26958" lon="6.17822">
        <ele>1988.6</ele>
        <time>2020-02-09T08:56:12Z</time>
      </trkpt>
      <trkpt lat="45.26956" lon="6.17818">
        <ele>1989</ele>
        <time>2020-02-09T08:56:15Z</time>
      </trkpt>
      <trkpt lat="45.26955" lon="6.17815">
        <ele>1990.3</ele>
        <time>2020-02-09T08:56:23Z</time>
      </trkpt>
      <trkpt lat="45.26956" lon="6.1781">
        <ele>1991.6</ele>
        <time>2020-02-09T08:56:31Z</time>
      </trkpt>
      <trkpt lat="45.26956" lon="6.17806">
        <ele>1992.9</ele>
        <time>2020-02-09T08:56:36Z</time>
      </trkpt>
      <trkpt lat="45.26957" lon="6.17801">
        <ele>1994.1</ele>
        <time>2020-02-09T08:56:41Z</time>
      </trkpt>
      <trkpt lat="45.26957" lon="6.17797">
        <ele>1995.3</ele>
        <time>2020-02-09T08:56:44Z</time>
      </trkpt>
      <trkpt lat="45.26957" lon="6.17793">
        <ele>1996.3</ele>
        <time>2020-02-09T08:56:48Z</time>
      </trkpt>
      <trkpt lat="45.26955" lon="6.17789">
        <ele>1997.4</ele>
        <time>2020-02-09T08:56:52Z</time>
      </trkpt>
      <trkpt lat="45.26953" lon="6.17786">
        <ele>1997.6</ele>
        <time>2020-02-09T08:56:56Z</time>
      </trkpt>
      <trkpt lat="45.26951" lon="6.17783">
        <ele>1997.9</ele>
        <time>2020-02-09T08:56:59Z</time>
      </trkpt>
      <trkpt lat="45.26951" lon="6.17778">
        <ele>1999.8</ele>
        <time>2020-02-09T08:57:06Z</time>
      </trkpt>
      <trkpt lat="45.26951" lon="6.17774">
        <ele>2001</ele>
        <time>2020-02-09T08:57:13Z</time>
      </trkpt>
      <trkpt lat="45.26953" lon="6.1777">
        <ele>2002.2</ele>
        <time>2020-02-09T08:57:21Z</time>
      </trkpt>
      <trkpt lat="45.26954" lon="6.17766">
        <ele>2003.3</ele>
        <time>2020-02-09T08:57:28Z</time>
      </trkpt>
      <trkpt lat="45.26954" lon="6.17762">
        <ele>2004.1</ele>
        <time>2020-02-09T08:57:32Z</time>
      </trkpt>
      <trkpt lat="45.26954" lon="6.17758">
        <ele>2005.5</ele>
        <time>2020-02-09T08:57:36Z</time>
      </trkpt>
      <trkpt lat="45.26956" lon="6.17754">
        <ele>2006.3</ele>
        <time>2020-02-09T08:57:41Z</time>
      </trkpt>
      <trkpt lat="45.26957" lon="6.17751">
        <ele>2008.3</ele>
        <time>2020-02-09T08:57:44Z</time>
      </trkpt>
      <trkpt lat="45.26959" lon="6.17747">
        <ele>2009.3</ele>
        <time>2020-02-09T08:57:49Z</time>
      </trkpt>
      <trkpt lat="45.26959" lon="6.17742">
        <ele>2010.4</ele>
        <time>2020-02-09T08:57:52Z</time>
      </trkpt>
      <trkpt lat="45.26962" lon="6.1774">
        <ele>2012.5</ele>
        <time>2020-02-09T08:57:57Z</time>
      </trkpt>
      <trkpt lat="45.26965" lon="6.1774">
        <ele>2013.8</ele>
        <time>2020-02-09T08:58:01Z</time>
      </trkpt>
      <trkpt lat="45.26967" lon="6.17736">
        <ele>2016.3</ele>
        <time>2020-02-09T08:58:06Z</time>
      </trkpt>
      <trkpt lat="45.2697" lon="6.17733">
        <ele>2017.9</ele>
        <time>2020-02-09T08:58:12Z</time>
      </trkpt>
      <trkpt lat="45.26972" lon="6.17728">
        <ele>2019.1</ele>
        <time>2020-02-09T08:58:16Z</time>
      </trkpt>
      <trkpt lat="45.26974" lon="6.17725">
        <ele>2021.9</ele>
        <time>2020-02-09T08:58:19Z</time>
      </trkpt>
      <trkpt lat="45.26975" lon="6.17721">
        <ele>2023.1</ele>
        <time>2020-02-09T08:58:23Z</time>
      </trkpt>
      <trkpt lat="45.26976" lon="6.17718">
        <ele>2025.9</ele>
        <time>2020-02-09T08:58:29Z</time>
      </trkpt>
      <trkpt lat="45.26977" lon="6.17712">
        <ele>2027</ele>
        <time>2020-02-09T08:58:36Z</time>
      </trkpt>
      <trkpt lat="45.26977" lon="6.17708">
        <ele>2028.1</ele>
        <time>2020-02-09T08:58:41Z</time>
      </trkpt>
      <trkpt lat="45.26976" lon="6.17704">
        <ele>2029.2</ele>
        <time>2020-02-09T08:58:49Z</time>
      </trkpt>
      <trkpt lat="45.26975" lon="6.177">
        <ele>2030.2</ele>
        <time>2020-02-09T08:58:55Z</time>
      </trkpt>
      <trkpt lat="45.26976" lon="6.17696">
        <ele>2031.3</ele>
        <time>2020-02-09T08:58:59Z</time>
      </trkpt>
      <trkpt lat="45.26977" lon="6.17693">
        <ele>2032.4</ele>
        <time>2020-02-09T08:59:04Z</time>
      </trkpt>
      <trkpt lat="45.26978" lon="6.17689">
        <ele>2035</ele>
        <time>2020-02-09T08:59:10Z</time>
      </trkpt>
      <trkpt lat="45.26979" lon="6.17685">
        <ele>2035</ele>
        <time>2020-02-09T08:59:14Z</time>
      </trkpt>
      <trkpt lat="45.2698" lon="6.1768">
        <ele>2037.2</ele>
        <time>2020-02-09T08:59:20Z</time>
      </trkpt>
      <trkpt lat="45.26982" lon="6.17677">
        <ele>2038.7</ele>
        <time>2020-02-09T08:59:27Z</time>
      </trkpt>
      <trkpt lat="45.26982" lon="6.17672">
        <ele>2039.7</ele>
        <time>2020-02-09T08:59:33Z</time>
      </trkpt>
      <trkpt lat="45.26982" lon="6.17667">
        <ele>2041.7</ele>
        <time>2020-02-09T08:59:37Z</time>
      </trkpt>
      <trkpt lat="45.26982" lon="6.17663">
        <ele>2042.6</ele>
        <time>2020-02-09T08:59:41Z</time>
      </trkpt>
      <trkpt lat="45.2698" lon="6.17661">
        <ele>2041.2</ele>
        <time>2020-02-09T08:59:49Z</time>
      </trkpt>
      <trkpt lat="45.26979" lon="6.17657">
        <ele>2042.1</ele>
        <time>2020-02-09T08:59:53Z</time>
      </trkpt>
      <trkpt lat="45.26981" lon="6.17653">
        <ele>2043</ele>
        <time>2020-02-09T08:59:59Z</time>
      </trkpt>
      <trkpt lat="45.26981" lon="6.17649">
        <ele>2043.9</ele>
        <time>2020-02-09T09:00:07Z</time>
      </trkpt>
      <trkpt lat="45.26981" lon="6.17645">
        <ele>2044.9</ele>
        <time>2020-02-09T09:00:12Z</time>
      </trkpt>
      <trkpt lat="45.26982" lon="6.1764">
        <ele>2047.2</ele>
        <time>2020-02-09T09:00:21Z</time>
      </trkpt>
      <trkpt lat="45.26982" lon="6.17636">
        <ele>2048.2</ele>
        <time>2020-02-09T09:00:27Z</time>
      </trkpt>
      <trkpt lat="45.26981" lon="6.17633">
        <ele>2048.1</ele>
        <time>2020-02-09T09:00:35Z</time>
      </trkpt>
      <trkpt lat="45.2698" lon="6.17636">
        <ele>2047</ele>
        <time>2020-02-09T09:00:47Z</time>
      </trkpt>
      <trkpt lat="45.26983" lon="6.17635">
        <ele>2048.2</ele>
        <time>2020-02-09T09:01:07Z</time>
      </trkpt>
      <trkpt lat="45.26984" lon="6.17631">
        <ele>2049.3</ele>
        <time>2020-02-09T09:01:10Z</time>
      </trkpt>
      <trkpt lat="45.26986" lon="6.17634">
        <ele>2049.5</ele>
        <time>2020-02-09T09:01:29Z</time>
      </trkpt>
      <trkpt lat="45.26989" lon="6.17632">
        <ele>2051.9</ele>
        <time>2020-02-09T09:01:37Z</time>
      </trkpt>
      <trkpt lat="45.2699" lon="6.17629">
        <ele>2054.3</ele>
        <time>2020-02-09T09:01:40Z</time>
      </trkpt>
      <trkpt lat="45.26992" lon="6.17625">
        <ele>2054.3</ele>
        <time>2020-02-09T09:01:43Z</time>
      </trkpt>
      <trkpt lat="45.26992" lon="6.17621">
        <ele>2055.2</ele>
        <time>2020-02-09T09:01:50Z</time>
      </trkpt>
      <trkpt lat="45.26993" lon="6.17616">
        <ele>2057</ele>
        <time>2020-02-09T09:01:55Z</time>
      </trkpt>
      <trkpt lat="45.26992" lon="6.17612">
        <ele>2057.9</ele>
        <time>2020-02-09T09:02:01Z</time>
      </trkpt>
      <trkpt lat="45.2699" lon="6.17608">
        <ele>2056.6</ele>
        <time>2020-02-09T09:02:04Z</time>
      </trkpt>
      <trkpt lat="45.26988" lon="6.17605">
        <ele>2057.5</ele>
        <time>2020-02-09T09:02:11Z</time>
      </trkpt>
      <trkpt lat="45.26989" lon="6.17601">
        <ele>2058.6</ele>
        <time>2020-02-09T09:02:16Z</time>
      </trkpt>
      <trkpt lat="45.26991" lon="6.17599">
        <ele>2060.9</ele>
        <time>2020-02-09T09:02:31Z</time>
      </trkpt>
      <trkpt lat="45.26994" lon="6.17599">
        <ele>2062.2</ele>
        <time>2020-02-09T09:02:37Z</time>
      </trkpt>
      <trkpt lat="45.26996" lon="6.17595">
        <ele>2062.2</ele>
        <time>2020-02-09T09:02:42Z</time>
      </trkpt>
      <trkpt lat="45.26998" lon="6.17592">
        <ele>2064.6</ele>
        <time>2020-02-09T09:02:47Z</time>
      </trkpt>
      <trkpt lat="45.27" lon="6.17589">
        <ele>2067.1</ele>
        <time>2020-02-09T09:02:53Z</time>
      </trkpt>
      <trkpt lat="45.26999" lon="6.17585">
        <ele>2066.8</ele>
        <time>2020-02-09T09:02:58Z</time>
      </trkpt>
      <trkpt lat="45.26998" lon="6.1758">
        <ele>2067.9</ele>
        <time>2020-02-09T09:03:01Z</time>
      </trkpt>
      <trkpt lat="45.27" lon="6.17576">
        <ele>2070.3</ele>
        <time>2020-02-09T09:03:11Z</time>
      </trkpt>
      <trkpt lat="45.26998" lon="6.17573">
        <ele>2070</ele>
        <time>2020-02-09T09:03:17Z</time>
      </trkpt>
      <trkpt lat="45.26997" lon="6.17568">
        <ele>2071</ele>
        <time>2020-02-09T09:03:22Z</time>
      </trkpt>
      <trkpt lat="45.26996" lon="6.17563">
        <ele>2070.8</ele>
        <time>2020-02-09T09:03:25Z</time>
      </trkpt>
      <trkpt lat="45.26995" lon="6.17559">
        <ele>2071.7</ele>
        <time>2020-02-09T09:03:31Z</time>
      </trkpt>
      <trkpt lat="45.26992" lon="6.17556">
        <ele>2070.8</ele>
        <time>2020-02-09T09:03:41Z</time>
      </trkpt>
      <trkpt lat="45.26994" lon="6.17553">
        <ele>2072.7</ele>
        <time>2020-02-09T09:03:47Z</time>
      </trkpt>
      <trkpt lat="45.26995" lon="6.1755">
        <ele>2073.7</ele>
        <time>2020-02-09T09:03:53Z</time>
      </trkpt>
      <trkpt lat="45.26998" lon="6.17551">
        <ele>2074.8</ele>
        <time>2020-02-09T09:03:56Z</time>
      </trkpt>
      <trkpt lat="45.27001" lon="6.17549">
        <ele>2076</ele>
        <time>2020-02-09T09:04:02Z</time>
      </trkpt>
      <trkpt lat="45.27004" lon="6.17547">
        <ele>2078.3</ele>
        <time>2020-02-09T09:04:10Z</time>
      </trkpt>
      <trkpt lat="45.27004" lon="6.17543">
        <ele>2079.2</ele>
        <time>2020-02-09T09:04:20Z</time>
      </trkpt>
      <trkpt lat="45.27005" lon="6.17539">
        <ele>2080.1</ele>
        <time>2020-02-09T09:04:25Z</time>
      </trkpt>
      <trkpt lat="45.27003" lon="6.17534">
        <ele>2080.9</ele>
        <time>2020-02-09T09:04:30Z</time>
      </trkpt>
      <trkpt lat="45.27002" lon="6.17531">
        <ele>2079.7</ele>
        <time>2020-02-09T09:04:34Z</time>
      </trkpt>
      <trkpt lat="45.27001" lon="6.17526">
        <ele>2080.5</ele>
        <time>2020-02-09T09:04:44Z</time>
      </trkpt>
      <trkpt lat="45.26999" lon="6.17522">
        <ele>2080.3</ele>
        <time>2020-02-09T09:04:51Z</time>
      </trkpt>
      <trkpt lat="45.26998" lon="6.17518">
        <ele>2081.2</ele>
        <time>2020-02-09T09:04:57Z</time>
      </trkpt>
      <trkpt lat="45.26998" lon="6.17514">
        <ele>2082.1</ele>
        <time>2020-02-09T09:05:00Z</time>
      </trkpt>
      <trkpt lat="45.26997" lon="6.17509">
        <ele>2084</ele>
        <time>2020-02-09T09:05:03Z</time>
      </trkpt>
      <trkpt lat="45.26995" lon="6.17504">
        <ele>2084.2</ele>
        <time>2020-02-09T09:05:10Z</time>
      </trkpt>
      <trkpt lat="45.26995" lon="6.175">
        <ele>2085.4</ele>
        <time>2020-02-09T09:05:14Z</time>
      </trkpt>
      <trkpt lat="45.26992" lon="6.17496">
        <ele>2084.6</ele>
        <time>2020-02-09T09:05:23Z</time>
      </trkpt>
      <trkpt lat="45.2699" lon="6.17494">
        <ele>2085.1</ele>
        <time>2020-02-09T09:05:26Z</time>
      </trkpt>
      <trkpt lat="45.26988" lon="6.17491">
        <ele>2086.2</ele>
        <time>2020-02-09T09:05:29Z</time>
      </trkpt>
      <trkpt lat="45.26988" lon="6.17486">
        <ele>2087.2</ele>
        <time>2020-02-09T09:05:37Z</time>
      </trkpt>
      <trkpt lat="45.26988" lon="6.17482">
        <ele>2088.2</ele>
        <time>2020-02-09T09:05:43Z</time>
      </trkpt>
      <trkpt lat="45.26988" lon="6.17478">
        <ele>2089.1</ele>
        <time>2020-02-09T09:05:54Z</time>
      </trkpt>
      <trkpt lat="45.26989" lon="6.17472">
        <ele>2090.1</ele>
        <time>2020-02-09T09:05:58Z</time>
      </trkpt>
      <trkpt lat="45.26991" lon="6.17469">
        <ele>2091.8</ele>
        <time>2020-02-09T09:06:02Z</time>
      </trkpt>
      <trkpt lat="45.26994" lon="6.17468">
        <ele>2092.6</ele>
        <time>2020-02-09T09:06:05Z</time>
      </trkpt>
      <trkpt lat="45.26997" lon="6.17466">
        <ele>2093.6</ele>
        <time>2020-02-09T09:06:09Z</time>
      </trkpt>
      <trkpt lat="45.26999" lon="6.17464">
        <ele>2094.6</ele>
        <time>2020-02-09T09:06:11Z</time>
      </trkpt>
      <trkpt lat="45.26999" lon="6.17458">
        <ele>2095.7</ele>
        <time>2020-02-09T09:06:15Z</time>
      </trkpt>
      <trkpt lat="45.27" lon="6.17455">
        <ele>2097.9</ele>
        <time>2020-02-09T09:06:18Z</time>
      </trkpt>
      <trkpt lat="45.27" lon="6.1745">
        <ele>2099</ele>
        <time>2020-02-09T09:06:23Z</time>
      </trkpt>
      <trkpt lat="45.27001" lon="6.17445">
        <ele>2100.2</ele>
        <time>2020-02-09T09:06:25Z</time>
      </trkpt>
      <trkpt lat="45.27" lon="6.17449">
        <ele>2100.2</ele>
        <time>2020-02-09T09:06:47Z</time>
      </trkpt>
      <trkpt lat="45.26999" lon="6.17445">
        <ele>2099.1</ele>
        <time>2020-02-09T09:06:59Z</time>
      </trkpt>
      <trkpt lat="45.26996" lon="6.17442">
        <ele>2099.2</ele>
        <time>2020-02-09T09:07:06Z</time>
      </trkpt>
      <trkpt lat="45.26994" lon="6.1744">
        <ele>2100.2</ele>
        <time>2020-02-09T09:07:09Z</time>
      </trkpt>
      <trkpt lat="45.26996" lon="6.17442">
        <ele>2099.2</ele>
        <time>2020-02-09T09:09:06Z</time>
      </trkpt>
      <trkpt lat="45.26994" lon="6.17446">
        <ele>2098.1</ele>
        <time>2020-02-09T09:09:39Z</time>
      </trkpt>
      <trkpt lat="45.26993" lon="6.1745">
        <ele>2096.1</ele>
        <time>2020-02-09T09:10:37Z</time>
      </trkpt>
      <trkpt lat="45.26994" lon="6.17447">
        <ele>2098.1</ele>
        <time>2020-02-09T09:10:53Z</time>
      </trkpt>
      <trkpt lat="45.26993" lon="6.17443">
        <ele>2098.3</ele>
        <time>2020-02-09T09:10:56Z</time>
      </trkpt>
      <trkpt lat="45.26991" lon="6.17439">
        <ele>2099.3</ele>
        <time>2020-02-09T09:11:00Z</time>
      </trkpt>
      <trkpt lat="45.2699" lon="6.17434">
        <ele>2099.5</ele>
        <time>2020-02-09T09:11:03Z</time>
      </trkpt>
      <trkpt lat="45.26991" lon="6.17429">
        <ele>2101.8</ele>
        <time>2020-02-09T09:11:07Z</time>
      </trkpt>
      <trkpt lat="45.26991" lon="6.17425">
        <ele>2102.7</ele>
        <time>2020-02-09T09:11:14Z</time>
      </trkpt>
      <trkpt lat="45.26991" lon="6.1742">
        <ele>2103.6</ele>
        <time>2020-02-09T09:11:18Z</time>
      </trkpt>
      <trkpt lat="45.2699" lon="6.17416">
        <ele>2103.7</ele>
        <time>2020-02-09T09:11:22Z</time>
      </trkpt>
      <trkpt lat="45.2699" lon="6.17412">
        <ele>2104.6</ele>
        <time>2020-02-09T09:11:25Z</time>
      </trkpt>
      <trkpt lat="45.26989" lon="6.17408">
        <ele>2105.5</ele>
        <time>2020-02-09T09:11:30Z</time>
      </trkpt>
      <trkpt lat="45.26989" lon="6.17403">
        <ele>2106.2</ele>
        <time>2020-02-09T09:11:33Z</time>
      </trkpt>
      <trkpt lat="45.26987" lon="6.174">
        <ele>2106.4</ele>
        <time>2020-02-09T09:11:38Z</time>
      </trkpt>
      <trkpt lat="45.26987" lon="6.17396">
        <ele>2107.1</ele>
        <time>2020-02-09T09:11:41Z</time>
      </trkpt>
      <trkpt lat="45.26986" lon="6.17392">
        <ele>2107.8</ele>
        <time>2020-02-09T09:11:44Z</time>
      </trkpt>
      <trkpt lat="45.26986" lon="6.17388">
        <ele>2108.4</ele>
        <time>2020-02-09T09:11:48Z</time>
      </trkpt>
      <trkpt lat="45.26985" lon="6.17384">
        <ele>2109</ele>
        <time>2020-02-09T09:11:51Z</time>
      </trkpt>
      <trkpt lat="45.26983" lon="6.1738">
        <ele>2108.5</ele>
        <time>2020-02-09T09:11:54Z</time>
      </trkpt>
      <trkpt lat="45.26982" lon="6.17376">
        <ele>2109.2</ele>
        <time>2020-02-09T09:11:58Z</time>
      </trkpt>
      <trkpt lat="45.26981" lon="6.17372">
        <ele>2109.4</ele>
        <time>2020-02-09T09:12:03Z</time>
      </trkpt>
      <trkpt lat="45.2698" lon="6.17367">
        <ele>2110.8</ele>
        <time>2020-02-09T09:12:06Z</time>
      </trkpt>
      <trkpt lat="45.2698" lon="6.17362">
        <ele>2111.4</ele>
        <time>2020-02-09T09:12:13Z</time>
      </trkpt>
      <trkpt lat="45.26981" lon="6.17358">
        <ele>2112</ele>
        <time>2020-02-09T09:12:16Z</time>
      </trkpt>
      <trkpt lat="45.26982" lon="6.17354">
        <ele>2113</ele>
        <time>2020-02-09T09:12:18Z</time>
      </trkpt>
      <trkpt lat="45.26984" lon="6.17351">
        <ele>2113</ele>
        <time>2020-02-09T09:12:20Z</time>
      </trkpt>
      <trkpt lat="45.26984" lon="6.17347">
        <ele>2113.5</ele>
        <time>2020-02-09T09:12:24Z</time>
      </trkpt>
      <trkpt lat="45.26984" lon="6.17342">
        <ele>2114.5</ele>
        <time>2020-02-09T09:12:26Z</time>
      </trkpt>
      <trkpt lat="45.26986" lon="6.17337">
        <ele>2115.5</ele>
        <time>2020-02-09T09:12:30Z</time>
      </trkpt>
      <trkpt lat="45.26988" lon="6.17333">
        <ele>2116</ele>
        <time>2020-02-09T09:12:33Z</time>
      </trkpt>
      <trkpt lat="45.26989" lon="6.1733">
        <ele>2116.5</ele>
        <time>2020-02-09T09:12:39Z</time>
      </trkpt>
      <trkpt lat="45.26989" lon="6.17325">
        <ele>2117</ele>
        <time>2020-02-09T09:12:42Z</time>
      </trkpt>
      <trkpt lat="45.2699" lon="6.17321">
        <ele>2117.6</ele>
        <time>2020-02-09T09:12:45Z</time>
      </trkpt>
      <trkpt lat="45.26991" lon="6.17316">
        <ele>2118.6</ele>
        <time>2020-02-09T09:12:48Z</time>
      </trkpt>
      <trkpt lat="45.26992" lon="6.17312">
        <ele>2119</ele>
        <time>2020-02-09T09:12:51Z</time>
      </trkpt>
      <trkpt lat="45.26991" lon="6.17308">
        <ele>2119.5</ele>
        <time>2020-02-09T09:12:56Z</time>
      </trkpt>
      <trkpt lat="45.2699" lon="6.17304">
        <ele>2119.9</ele>
        <time>2020-02-09T09:13:00Z</time>
      </trkpt>
      <trkpt lat="45.2699" lon="6.173">
        <ele>2119.7</ele>
        <time>2020-02-09T09:13:04Z</time>
      </trkpt>
      <trkpt lat="45.26991" lon="6.17296">
        <ele>2120.7</ele>
        <time>2020-02-09T09:13:08Z</time>
      </trkpt>
      <trkpt lat="45.26994" lon="6.17293">
        <ele>2121.7</ele>
        <time>2020-02-09T09:13:11Z</time>
      </trkpt>
      <trkpt lat="45.26994" lon="6.17289">
        <ele>2122.2</ele>
        <time>2020-02-09T09:13:16Z</time>
      </trkpt>
      <trkpt lat="45.26994" lon="6.17284">
        <ele>2122.7</ele>
        <time>2020-02-09T09:13:22Z</time>
      </trkpt>
      <trkpt lat="45.26993" lon="6.17281">
        <ele>2122.6</ele>
        <time>2020-02-09T09:13:29Z</time>
      </trkpt>
      <trkpt lat="45.26993" lon="6.17277">
        <ele>2123.2</ele>
        <time>2020-02-09T09:13:37Z</time>
      </trkpt>
      <trkpt lat="45.26995" lon="6.17272">
        <ele>2124.6</ele>
        <time>2020-02-09T09:13:42Z</time>
      </trkpt>
      <trkpt lat="45.26996" lon="6.17268">
        <ele>2125.2</ele>
        <time>2020-02-09T09:13:47Z</time>
      </trkpt>
      <trkpt lat="45.26997" lon="6.17264">
        <ele>2126.1</ele>
        <time>2020-02-09T09:13:52Z</time>
      </trkpt>
      <trkpt lat="45.26998" lon="6.17261">
        <ele>2126.7</ele>
        <time>2020-02-09T09:13:57Z</time>
      </trkpt>
      <trkpt lat="45.26999" lon="6.17257">
        <ele>2127.4</ele>
        <time>2020-02-09T09:14:01Z</time>
      </trkpt>
      <trkpt lat="45.26997" lon="6.17253">
        <ele>2128.1</ele>
        <time>2020-02-09T09:14:06Z</time>
      </trkpt>
      <trkpt lat="45.26995" lon="6.17249">
        <ele>2128</ele>
        <time>2020-02-09T09:14:13Z</time>
      </trkpt>
      <trkpt lat="45.26993" lon="6.17246">
        <ele>2128</ele>
        <time>2020-02-09T09:14:19Z</time>
      </trkpt>
      <trkpt lat="45.26993" lon="6.17242">
        <ele>2128.8</ele>
        <time>2020-02-09T09:14:25Z</time>
      </trkpt>
      <trkpt lat="45.26992" lon="6.17238">
        <ele>2129.7</ele>
        <time>2020-02-09T09:14:30Z</time>
      </trkpt>
      <trkpt lat="45.2699" lon="6.17233">
        <ele>2129.9</ele>
        <time>2020-02-09T09:14:37Z</time>
      </trkpt>
      <trkpt lat="45.26989" lon="6.17229">
        <ele>2130.9</ele>
        <time>2020-02-09T09:14:46Z</time>
      </trkpt>
      <trkpt lat="45.26987" lon="6.17225">
        <ele>2131.8</ele>
        <time>2020-02-09T09:14:51Z</time>
      </trkpt>
      <trkpt lat="45.26988" lon="6.1722">
        <ele>2132.8</ele>
        <time>2020-02-09T09:14:58Z</time>
      </trkpt>
      <trkpt lat="45.26986" lon="6.17216">
        <ele>2133.1</ele>
        <time>2020-02-09T09:15:04Z</time>
      </trkpt>
      <trkpt lat="45.26986" lon="6.17212">
        <ele>2134</ele>
        <time>2020-02-09T09:15:14Z</time>
      </trkpt>
      <trkpt lat="45.26983" lon="6.17209">
        <ele>2133.6</ele>
        <time>2020-02-09T09:15:18Z</time>
      </trkpt>
      <trkpt lat="45.26981" lon="6.17207">
        <ele>2134.2</ele>
        <time>2020-02-09T09:15:26Z</time>
      </trkpt>
      <trkpt lat="45.26979" lon="6.17203">
        <ele>2135.1</ele>
        <time>2020-02-09T09:15:35Z</time>
      </trkpt>
      <trkpt lat="45.26977" lon="6.17201">
        <ele>2134.9</ele>
        <time>2020-02-09T09:15:39Z</time>
      </trkpt>
      <trkpt lat="45.26978" lon="6.17197">
        <ele>2136</ele>
        <time>2020-02-09T09:15:48Z</time>
      </trkpt>
      <trkpt lat="45.26979" lon="6.17191">
        <ele>2138.7</ele>
        <time>2020-02-09T09:15:54Z</time>
      </trkpt>
      <trkpt lat="45.2698" lon="6.17187">
        <ele>2139.9</ele>
        <time>2020-02-09T09:15:58Z</time>
      </trkpt>
      <trkpt lat="45.26983" lon="6.17185">
        <ele>2140.3</ele>
        <time>2020-02-09T09:16:04Z</time>
      </trkpt>
      <trkpt lat="45.26986" lon="6.17183">
        <ele>2140.7</ele>
        <time>2020-02-09T09:16:07Z</time>
      </trkpt>
      <trkpt lat="45.26989" lon="6.1718">
        <ele>2142.4</ele>
        <time>2020-02-09T09:16:10Z</time>
      </trkpt>
      <trkpt lat="45.2699" lon="6.17177">
        <ele>2144.3</ele>
        <time>2020-02-09T09:16:12Z</time>
      </trkpt>
      <trkpt lat="45.26991" lon="6.17172">
        <ele>2145.6</ele>
        <time>2020-02-09T09:16:20Z</time>
      </trkpt>
      <trkpt lat="45.26994" lon="6.17169">
        <ele>2147.6</ele>
        <time>2020-02-09T09:16:26Z</time>
      </trkpt>
      <trkpt lat="45.26995" lon="6.17166">
        <ele>2147.6</ele>
        <time>2020-02-09T09:16:32Z</time>
      </trkpt>
      <trkpt lat="45.26995" lon="6.17162">
        <ele>2148.9</ele>
        <time>2020-02-09T09:16:36Z</time>
      </trkpt>
      <trkpt lat="45.26995" lon="6.17157">
        <ele>2150.2</ele>
        <time>2020-02-09T09:16:41Z</time>
      </trkpt>
      <trkpt lat="45.26995" lon="6.17153">
        <ele>2151.6</ele>
        <time>2020-02-09T09:16:44Z</time>
      </trkpt>
      <trkpt lat="45.26997" lon="6.1715">
        <ele>2153.7</ele>
        <time>2020-02-09T09:16:48Z</time>
      </trkpt>
      <trkpt lat="45.26999" lon="6.17146">
        <ele>2155.2</ele>
        <time>2020-02-09T09:16:52Z</time>
      </trkpt>
      <trkpt lat="45.27001" lon="6.17142">
        <ele>2157.4</ele>
        <time>2020-02-09T09:16:55Z</time>
      </trkpt>
      <trkpt lat="45.27002" lon="6.17138">
        <ele>2159</ele>
        <time>2020-02-09T09:16:59Z</time>
      </trkpt>
      <trkpt lat="45.27004" lon="6.17134">
        <ele>2161.1</ele>
        <time>2020-02-09T09:17:03Z</time>
      </trkpt>
      <trkpt lat="45.27004" lon="6.17128">
        <ele>2162.5</ele>
        <time>2020-02-09T09:17:07Z</time>
      </trkpt>
      <trkpt lat="45.27004" lon="6.17123">
        <ele>2163.9</ele>
        <time>2020-02-09T09:17:10Z</time>
      </trkpt>
      <trkpt lat="45.27005" lon="6.17118">
        <ele>2165.2</ele>
        <time>2020-02-09T09:17:14Z</time>
      </trkpt>
      <trkpt lat="45.27008" lon="6.17114">
        <ele>2167.1</ele>
        <time>2020-02-09T09:17:19Z</time>
      </trkpt>
      <trkpt lat="45.2701" lon="6.17111">
        <ele>2169</ele>
        <time>2020-02-09T09:17:23Z</time>
      </trkpt>
      <trkpt lat="45.27011" lon="6.17106">
        <ele>2170.4</ele>
        <time>2020-02-09T09:17:28Z</time>
      </trkpt>
      <trkpt lat="45.27014" lon="6.17103">
        <ele>2172.3</ele>
        <time>2020-02-09T09:17:31Z</time>
      </trkpt>
      <trkpt lat="45.27015" lon="6.17099">
        <ele>2174.2</ele>
        <time>2020-02-09T09:17:34Z</time>
      </trkpt>
      <trkpt lat="45.27017" lon="6.17094">
        <ele>2175.6</ele>
        <time>2020-02-09T09:17:38Z</time>
      </trkpt>
      <trkpt lat="45.27017" lon="6.17089">
        <ele>2177</ele>
        <time>2020-02-09T09:17:41Z</time>
      </trkpt>
      <trkpt lat="45.27018" lon="6.17085">
        <ele>2178.8</ele>
        <time>2020-02-09T09:17:45Z</time>
      </trkpt>
      <trkpt lat="45.27018" lon="6.17081">
        <ele>2179.8</ele>
        <time>2020-02-09T09:17:49Z</time>
      </trkpt>
      <trkpt lat="45.27019" lon="6.17077">
        <ele>2181.4</ele>
        <time>2020-02-09T09:17:53Z</time>
      </trkpt>
      <trkpt lat="45.27019" lon="6.17073">
        <ele>2182.7</ele>
        <time>2020-02-09T09:17:57Z</time>
      </trkpt>
      <trkpt lat="45.2702" lon="6.17069">
        <ele>2183.9</ele>
        <time>2020-02-09T09:18:01Z</time>
      </trkpt>
      <trkpt lat="45.2702" lon="6.17065">
        <ele>2185.1</ele>
        <time>2020-02-09T09:18:07Z</time>
      </trkpt>
      <trkpt lat="45.2702" lon="6.17061">
        <ele>2186.4</ele>
        <time>2020-02-09T09:18:18Z</time>
      </trkpt>
      <trkpt lat="45.27018" lon="6.17058">
        <ele>2187.8</ele>
        <time>2020-02-09T09:18:24Z</time>
      </trkpt>
      <trkpt lat="45.27016" lon="6.17054">
        <ele>2187.5</ele>
        <time>2020-02-09T09:18:30Z</time>
      </trkpt>
      <trkpt lat="45.27016" lon="6.1705">
        <ele>2188.9</ele>
        <time>2020-02-09T09:18:34Z</time>
      </trkpt>
      <trkpt lat="45.27018" lon="6.17046">
        <ele>2190.3</ele>
        <time>2020-02-09T09:18:38Z</time>
      </trkpt>
      <trkpt lat="45.27019" lon="6.17043">
        <ele>2191.9</ele>
        <time>2020-02-09T09:18:44Z</time>
      </trkpt>
      <trkpt lat="45.2702" lon="6.17039">
        <ele>2193.2</ele>
        <time>2020-02-09T09:18:47Z</time>
      </trkpt>
      <trkpt lat="45.27022" lon="6.17036">
        <ele>2194.7</ele>
        <time>2020-02-09T09:18:52Z</time>
      </trkpt>
      <trkpt lat="45.27021" lon="6.17031">
        <ele>2195.9</ele>
        <time>2020-02-09T09:19:05Z</time>
      </trkpt>
      <trkpt lat="45.27022" lon="6.17027">
        <ele>2197.2</ele>
        <time>2020-02-09T09:19:09Z</time>
      </trkpt>
      <trkpt lat="45.27022" lon="6.17023">
        <ele>2198.4</ele>
        <time>2020-02-09T09:19:15Z</time>
      </trkpt>
      <trkpt lat="45.27024" lon="6.17019">
        <ele>2199.6</ele>
        <time>2020-02-09T09:19:21Z</time>
      </trkpt>
      <trkpt lat="45.27025" lon="6.17015">
        <ele>2201.1</ele>
        <time>2020-02-09T09:19:26Z</time>
      </trkpt>
      <trkpt lat="45.27025" lon="6.17011">
        <ele>2202.3</ele>
        <time>2020-02-09T09:19:33Z</time>
      </trkpt>
      <trkpt lat="45.27026" lon="6.17007">
        <ele>2203.6</ele>
        <time>2020-02-09T09:19:38Z</time>
      </trkpt>
      <trkpt lat="45.27025" lon="6.17002">
        <ele>2204.8</ele>
        <time>2020-02-09T09:19:42Z</time>
      </trkpt>
      <trkpt lat="45.27025" lon="6.16998">
        <ele>2206</ele>
        <time>2020-02-09T09:19:46Z</time>
      </trkpt>
      <trkpt lat="45.27023" lon="6.16995">
        <ele>2205.9</ele>
        <time>2020-02-09T09:19:57Z</time>
      </trkpt>
      <trkpt lat="45.27022" lon="6.16991">
        <ele>2207.1</ele>
        <time>2020-02-09T09:20:03Z</time>
      </trkpt>
      <trkpt lat="45.27021" lon="6.16987">
        <ele>2208.2</ele>
        <time>2020-02-09T09:20:06Z</time>
      </trkpt>
      <trkpt lat="45.27019" lon="6.16984">
        <ele>2209.3</ele>
        <time>2020-02-09T09:20:11Z</time>
      </trkpt>
      <trkpt lat="45.27017" lon="6.16982">
        <ele>2209.4</ele>
        <time>2020-02-09T09:20:14Z</time>
      </trkpt>
      <trkpt lat="45.27018" lon="6.16986">
        <ele>2208.2</ele>
        <time>2020-02-09T09:20:19Z</time>
      </trkpt>
      <trkpt lat="45.2702" lon="6.16983">
        <ele>2209.3</ele>
        <time>2020-02-09T09:20:35Z</time>
      </trkpt>
      <trkpt lat="45.27022" lon="6.1698">
        <ele>2210.4</ele>
        <time>2020-02-09T09:20:42Z</time>
      </trkpt>
      <trkpt lat="45.27023" lon="6.16976">
        <ele>2211.6</ele>
        <time>2020-02-09T09:20:46Z</time>
      </trkpt>
      <trkpt lat="45.27024" lon="6.16971">
        <ele>2212.8</ele>
        <time>2020-02-09T09:20:55Z</time>
      </trkpt>
      <trkpt lat="45.27025" lon="6.16968">
        <ele>2214.1</ele>
        <time>2020-02-09T09:21:00Z</time>
      </trkpt>
      <trkpt lat="45.27025" lon="6.16963">
        <ele>2215.4</ele>
        <time>2020-02-09T09:21:09Z</time>
      </trkpt>
      <trkpt lat="45.27025" lon="6.1696">
        <ele>2216.6</ele>
        <time>2020-02-09T09:21:14Z</time>
      </trkpt>
      <trkpt lat="45.27024" lon="6.16955">
        <ele>2216.6</ele>
        <time>2020-02-09T09:21:18Z</time>
      </trkpt>
      <trkpt lat="45.27022" lon="6.16952">
        <ele>2217.9</ele>
        <time>2020-02-09T09:21:23Z</time>
      </trkpt>
      <trkpt lat="45.27021" lon="6.16948">
        <ele>2219.1</ele>
        <time>2020-02-09T09:21:34Z</time>
      </trkpt>
      <trkpt lat="45.27019" lon="6.16947">
        <ele>2219.2</ele>
        <time>2020-02-09T09:21:37Z</time>
      </trkpt>
      <trkpt lat="45.27017" lon="6.16944">
        <ele>2220.6</ele>
        <time>2020-02-09T09:21:41Z</time>
      </trkpt>
      <trkpt lat="45.27014" lon="6.16944">
        <ele>2220.8</ele>
        <time>2020-02-09T09:21:50Z</time>
      </trkpt>
      <trkpt lat="45.27011" lon="6.16943">
        <ele>2221</ele>
        <time>2020-02-09T09:21:54Z</time>
      </trkpt>
      <trkpt lat="45.27014" lon="6.16942">
        <ele>2221.9</ele>
        <time>2020-02-09T09:22:07Z</time>
      </trkpt>
      <trkpt lat="45.27016" lon="6.1694">
        <ele>2221.7</ele>
        <time>2020-02-09T09:22:12Z</time>
      </trkpt>
      <trkpt lat="45.27016" lon="6.16935">
        <ele>2222.9</ele>
        <time>2020-02-09T09:22:21Z</time>
      </trkpt>
      <trkpt lat="45.27014" lon="6.16932">
        <ele>2224.2</ele>
        <time>2020-02-09T09:22:31Z</time>
      </trkpt>
      <trkpt lat="45.27012" lon="6.16929">
        <ele>2225.4</ele>
        <time>2020-02-09T09:22:35Z</time>
      </trkpt>
      <trkpt lat="45.27012" lon="6.16924">
        <ele>2226.7</ele>
        <time>2020-02-09T09:22:41Z</time>
      </trkpt>
      <trkpt lat="45.27015" lon="6.16921">
        <ele>2226.6</ele>
        <time>2020-02-09T09:22:48Z</time>
      </trkpt>
      <trkpt lat="45.27015" lon="6.16917">
        <ele>2228</ele>
        <time>2020-02-09T09:23:00Z</time>
      </trkpt>
      <trkpt lat="45.27013" lon="6.16914">
        <ele>2229.5</ele>
        <time>2020-02-09T09:23:14Z</time>
      </trkpt>
      <trkpt lat="45.27015" lon="6.1691">
        <ele>2230.8</ele>
        <time>2020-02-09T09:23:20Z</time>
      </trkpt>
      <trkpt lat="45.27018" lon="6.16909">
        <ele>2230.7</ele>
        <time>2020-02-09T09:23:26Z</time>
      </trkpt>
      <trkpt lat="45.27021" lon="6.16909">
        <ele>2230.6</ele>
        <time>2020-02-09T09:23:29Z</time>
      </trkpt>
      <trkpt lat="45.27023" lon="6.16905">
        <ele>2232.1</ele>
        <time>2020-02-09T09:23:31Z</time>
      </trkpt>
      <trkpt lat="45.27025" lon="6.16902">
        <ele>2233.5</ele>
        <time>2020-02-09T09:23:34Z</time>
      </trkpt>
      <trkpt lat="45.27026" lon="6.16897">
        <ele>2234.9</ele>
        <time>2020-02-09T09:23:40Z</time>
      </trkpt>
      <trkpt lat="45.27026" lon="6.16892">
        <ele>2236.4</ele>
        <time>2020-02-09T09:23:44Z</time>
      </trkpt>
      <trkpt lat="45.27028" lon="6.16889">
        <ele>2237.9</ele>
        <time>2020-02-09T09:23:52Z</time>
      </trkpt>
      <trkpt lat="45.27026" lon="6.16886">
        <ele>2239.5</ele>
        <time>2020-02-09T09:24:01Z</time>
      </trkpt>
      <trkpt lat="45.27024" lon="6.16883">
        <ele>2239.5</ele>
        <time>2020-02-09T09:24:07Z</time>
      </trkpt>
      <trkpt lat="45.27021" lon="6.16879">
        <ele>2241.1</ele>
        <time>2020-02-09T09:24:11Z</time>
      </trkpt>
      <trkpt lat="45.27019" lon="6.16876">
        <ele>2242.7</ele>
        <time>2020-02-09T09:24:14Z</time>
      </trkpt>
      <trkpt lat="45.27016" lon="6.16874">
        <ele>2244.3</ele>
        <time>2020-02-09T09:24:22Z</time>
      </trkpt>
      <trkpt lat="45.27013" lon="6.16875">
        <ele>2242.7</ele>
        <time>2020-02-09T09:24:27Z</time>
      </trkpt>
      <trkpt lat="45.27011" lon="6.16876">
        <ele>2242.6</ele>
        <time>2020-02-09T09:24:33Z</time>
      </trkpt>
      <trkpt lat="45.27008" lon="6.16874">
        <ele>2242.5</ele>
        <time>2020-02-09T09:24:37Z</time>
      </trkpt>
      <trkpt lat="45.27005" lon="6.16872">
        <ele>2244</ele>
        <time>2020-02-09T09:24:40Z</time>
      </trkpt>
      <trkpt lat="45.27003" lon="6.16869">
        <ele>2245.6</ele>
        <time>2020-02-09T09:24:43Z</time>
      </trkpt>
      <trkpt lat="45.27001" lon="6.16866">
        <ele>2245.5</ele>
        <time>2020-02-09T09:24:47Z</time>
      </trkpt>
      <trkpt lat="45.26998" lon="6.16863">
        <ele>2246.9</ele>
        <time>2020-02-09T09:24:57Z</time>
      </trkpt>
      <trkpt lat="45.26996" lon="6.16862">
        <ele>2246.9</ele>
        <time>2020-02-09T09:25:07Z</time>
      </trkpt>
      <trkpt lat="45.26994" lon="6.16858">
        <ele>2248.3</ele>
        <time>2020-02-09T09:25:11Z</time>
      </trkpt>
      <trkpt lat="45.26992" lon="6.16852">
        <ele>2249.7</ele>
        <time>2020-02-09T09:25:18Z</time>
      </trkpt>
      <trkpt lat="45.26991" lon="6.16849">
        <ele>2251.2</ele>
        <time>2020-02-09T09:25:24Z</time>
      </trkpt>
      <trkpt lat="45.26991" lon="6.16845">
        <ele>2252.6</ele>
        <time>2020-02-09T09:25:29Z</time>
      </trkpt>
      <trkpt lat="45.26989" lon="6.16842">
        <ele>2254</ele>
        <time>2020-02-09T09:25:32Z</time>
      </trkpt>
      <trkpt lat="45.26987" lon="6.16839">
        <ele>2255.5</ele>
        <time>2020-02-09T09:25:42Z</time>
      </trkpt>
      <trkpt lat="45.26986" lon="6.16834">
        <ele>2257.1</ele>
        <time>2020-02-09T09:25:45Z</time>
      </trkpt>
      <trkpt lat="45.26984" lon="6.1683">
        <ele>2258.7</ele>
        <time>2020-02-09T09:25:54Z</time>
      </trkpt>
      <trkpt lat="45.26983" lon="6.16827">
        <ele>2258.7</ele>
        <time>2020-02-09T09:25:59Z</time>
      </trkpt>
      <trkpt lat="45.26983" lon="6.16822">
        <ele>2260.4</ele>
        <time>2020-02-09T09:26:03Z</time>
      </trkpt>
      <trkpt lat="45.26982" lon="6.16818">
        <ele>2263.7</ele>
        <time>2020-02-09T09:26:10Z</time>
      </trkpt>
      <trkpt lat="45.26982" lon="6.16813">
        <ele>2265.3</ele>
        <time>2020-02-09T09:26:16Z</time>
      </trkpt>
      <trkpt lat="45.26981" lon="6.16808">
        <ele>2266.9</ele>
        <time>2020-02-09T09:26:25Z</time>
      </trkpt>
      <trkpt lat="45.26979" lon="6.16807">
        <ele>2266.7</ele>
        <time>2020-02-09T09:26:38Z</time>
      </trkpt>
      <trkpt lat="45.26976" lon="6.16809">
        <ele>2266.6</ele>
        <time>2020-02-09T09:26:43Z</time>
      </trkpt>
      <trkpt lat="45.26977" lon="6.16805">
        <ele>2266.6</ele>
        <time>2020-02-09T09:27:19Z</time>
      </trkpt>
      <trkpt lat="45.26978" lon="6.16801">
        <ele>2268.1</ele>
        <time>2020-02-09T09:27:38Z</time>
      </trkpt>
      <trkpt lat="45.26981" lon="6.168">
        <ele>2269.8</ele>
        <time>2020-02-09T09:28:29Z</time>
      </trkpt>
      <trkpt lat="45.26983" lon="6.16803">
        <ele>2268.5</ele>
        <time>2020-02-09T09:28:33Z</time>
      </trkpt>
      <trkpt lat="45.26984" lon="6.16807">
        <ele>2266.9</ele>
        <time>2020-02-09T09:29:10Z</time>
      </trkpt>
      <trkpt lat="45.26986" lon="6.16809">
        <ele>2267.1</ele>
        <time>2020-02-09T09:29:24Z</time>
      </trkpt>
      <trkpt lat="45.26984" lon="6.16807">
        <ele>2266.9</ele>
        <time>2020-02-09T09:29:53Z</time>
      </trkpt>
      <trkpt lat="45.26981" lon="6.16807">
        <ele>2266.7</ele>
        <time>2020-02-09T09:31:00Z</time>
      </trkpt>
      <trkpt lat="45.26978" lon="6.16807">
        <ele>2266.6</ele>
        <time>2020-02-09T09:31:19Z</time>
      </trkpt>
      <trkpt lat="45.26981" lon="6.16808">
        <ele>2266.7</ele>
        <time>2020-02-09T09:31:32Z</time>
      </trkpt>
      <trkpt lat="45.26981" lon="6.16812">
        <ele>2265.2</ele>
        <time>2020-02-09T09:32:00Z</time>
      </trkpt>
      <trkpt lat="45.26984" lon="6.1681">
        <ele>2265.3</ele>
        <time>2020-02-09T09:32:17Z</time>
      </trkpt>
      <trkpt lat="45.26985" lon="6.16806">
        <ele>2267.1</ele>
        <time>2020-02-09T09:32:30Z</time>
      </trkpt>
      <trkpt lat="45.26984" lon="6.16801">
        <ele>2268.5</ele>
        <time>2020-02-09T09:32:34Z</time>
      </trkpt>
      <trkpt lat="45.26983" lon="6.16797">
        <ele>2270</ele>
        <time>2020-02-09T09:32:37Z</time>
      </trkpt>
      <trkpt lat="45.26982" lon="6.16794">
        <ele>2271.6</ele>
        <time>2020-02-09T09:32:41Z</time>
      </trkpt>
      <trkpt lat="45.2698" lon="6.1679">
        <ele>2273</ele>
        <time>2020-02-09T09:32:46Z</time>
      </trkpt>
      <trkpt lat="45.26979" lon="6.16786">
        <ele>2274.6</ele>
        <time>2020-02-09T09:32:59Z</time>
      </trkpt>
      <trkpt lat="45.26978" lon="6.16781">
        <ele>2276.1</ele>
        <time>2020-02-09T09:33:03Z</time>
      </trkpt>
      <trkpt lat="45.26976" lon="6.16778">
        <ele>2277.7</ele>
        <time>2020-02-09T09:33:07Z</time>
      </trkpt>
      <trkpt lat="45.26975" lon="6.16775">
        <ele>2279.3</ele>
        <time>2020-02-09T09:33:11Z</time>
      </trkpt>
      <trkpt lat="45.26974" lon="6.1677">
        <ele>2280.8</ele>
        <time>2020-02-09T09:33:16Z</time>
      </trkpt>
      <trkpt lat="45.26973" lon="6.16766">
        <ele>2282.3</ele>
        <time>2020-02-09T09:33:20Z</time>
      </trkpt>
      <trkpt lat="45.26971" lon="6.16762">
        <ele>2283.7</ele>
        <time>2020-02-09T09:33:24Z</time>
      </trkpt>
      <trkpt lat="45.26969" lon="6.16757">
        <ele>2285.2</ele>
        <time>2020-02-09T09:33:28Z</time>
      </trkpt>
      <trkpt lat="45.26967" lon="6.16754">
        <ele>2285.2</ele>
        <time>2020-02-09T09:33:33Z</time>
      </trkpt>
      <trkpt lat="45.26965" lon="6.1675">
        <ele>2286.8</ele>
        <time>2020-02-09T09:33:39Z</time>
      </trkpt>
      <trkpt lat="45.26964" lon="6.16746">
        <ele>2288.3</ele>
        <time>2020-02-09T09:33:51Z</time>
      </trkpt>
      <trkpt lat="45.26964" lon="6.16742">
        <ele>2289.8</ele>
        <time>2020-02-09T09:33:53Z</time>
      </trkpt>
      <trkpt lat="45.26962" lon="6.16739">
        <ele>2291.3</ele>
        <time>2020-02-09T09:33:59Z</time>
      </trkpt>
      <trkpt lat="45.2696" lon="6.16736">
        <ele>2292.8</ele>
        <time>2020-02-09T09:34:06Z</time>
      </trkpt>
      <trkpt lat="45.2696" lon="6.1673">
        <ele>2294.2</ele>
        <time>2020-02-09T09:34:14Z</time>
      </trkpt>
      <trkpt lat="45.26959" lon="6.16727">
        <ele>2295.6</ele>
        <time>2020-02-09T09:34:19Z</time>
      </trkpt>
      <trkpt lat="45.26957" lon="6.16723">
        <ele>2297</ele>
        <time>2020-02-09T09:34:25Z</time>
      </trkpt>
      <trkpt lat="45.26954" lon="6.16719">
        <ele>2297</ele>
        <time>2020-02-09T09:34:29Z</time>
      </trkpt>
      <trkpt lat="45.26954" lon="6.16715">
        <ele>2298.4</ele>
        <time>2020-02-09T09:34:33Z</time>
      </trkpt>
      <trkpt lat="45.26951" lon="6.16714">
        <ele>2299.9</ele>
        <time>2020-02-09T09:34:45Z</time>
      </trkpt>
      <trkpt lat="45.26948" lon="6.16713">
        <ele>2299.9</ele>
        <time>2020-02-09T09:34:50Z</time>
      </trkpt>
      <trkpt lat="45.26946" lon="6.16712">
        <ele>2300.2</ele>
        <time>2020-02-09T09:34:59Z</time>
      </trkpt>
      <trkpt lat="45.26942" lon="6.16711">
        <ele>2300.7</ele>
        <time>2020-02-09T09:35:02Z</time>
      </trkpt>
      <trkpt lat="45.26941" lon="6.16708">
        <ele>2302.3</ele>
        <time>2020-02-09T09:35:09Z</time>
      </trkpt>
      <trkpt lat="45.26939" lon="6.16705">
        <ele>2304</ele>
        <time>2020-02-09T09:35:16Z</time>
      </trkpt>
      <trkpt lat="45.26936" lon="6.16701">
        <ele>2305.8</ele>
        <time>2020-02-09T09:35:22Z</time>
      </trkpt>
      <trkpt lat="45.26935" lon="6.16697">
        <ele>2307.1</ele>
        <time>2020-02-09T09:35:25Z</time>
      </trkpt>
      <trkpt lat="45.26933" lon="6.16694">
        <ele>2307.6</ele>
        <time>2020-02-09T09:35:29Z</time>
      </trkpt>
      <trkpt lat="45.2693" lon="6.16691">
        <ele>2308.9</ele>
        <time>2020-02-09T09:35:34Z</time>
      </trkpt>
      <trkpt lat="45.26929" lon="6.16688">
        <ele>2310.7</ele>
        <time>2020-02-09T09:35:41Z</time>
      </trkpt>
      <trkpt lat="45.26926" lon="6.16685">
        <ele>2312.5</ele>
        <time>2020-02-09T09:35:46Z</time>
      </trkpt>
      <trkpt lat="45.26926" lon="6.16681">
        <ele>2312.5</ele>
        <time>2020-02-09T09:36:03Z</time>
      </trkpt>
      <trkpt lat="45.26926" lon="6.16677">
        <ele>2313.7</ele>
        <time>2020-02-09T09:36:10Z</time>
      </trkpt>
      <trkpt lat="45.26927" lon="6.16673">
        <ele>2314.5</ele>
        <time>2020-02-09T09:36:15Z</time>
      </trkpt>
      <trkpt lat="45.26927" lon="6.16669">
        <ele>2315.7</ele>
        <time>2020-02-09T09:36:20Z</time>
      </trkpt>
      <trkpt lat="45.26927" lon="6.16664">
        <ele>2316.8</ele>
        <time>2020-02-09T09:36:24Z</time>
      </trkpt>
      <trkpt lat="45.26927" lon="6.1666">
        <ele>2318</ele>
        <time>2020-02-09T09:36:32Z</time>
      </trkpt>
      <trkpt lat="45.26926" lon="6.16657">
        <ele>2319.6</ele>
        <time>2020-02-09T09:36:37Z</time>
      </trkpt>
      <trkpt lat="45.26923" lon="6.16657">
        <ele>2320.1</ele>
        <time>2020-02-09T09:36:42Z</time>
      </trkpt>
      <trkpt lat="45.2692" lon="6.16655">
        <ele>2320.6</ele>
        <time>2020-02-09T09:36:48Z</time>
      </trkpt>
      <trkpt lat="45.26918" lon="6.16654">
        <ele>2322.3</ele>
        <time>2020-02-09T09:36:54Z</time>
      </trkpt>
      <trkpt lat="45.26914" lon="6.16652">
        <ele>2322.9</ele>
        <time>2020-02-09T09:37:02Z</time>
      </trkpt>
      <trkpt lat="45.26912" lon="6.16649">
        <ele>2324.1</ele>
        <time>2020-02-09T09:37:05Z</time>
      </trkpt>
      <trkpt lat="45.26911" lon="6.16646">
        <ele>2325.8</ele>
        <time>2020-02-09T09:37:13Z</time>
      </trkpt>
      <trkpt lat="45.26909" lon="6.16642">
        <ele>2326.4</ele>
        <time>2020-02-09T09:37:16Z</time>
      </trkpt>
      <trkpt lat="45.26906" lon="6.16638">
        <ele>2327.6</ele>
        <time>2020-02-09T09:37:23Z</time>
      </trkpt>
      <trkpt lat="45.26904" lon="6.16635">
        <ele>2329.3</ele>
        <time>2020-02-09T09:37:27Z</time>
      </trkpt>
      <trkpt lat="45.26902" lon="6.16634">
        <ele>2329.9</ele>
        <time>2020-02-09T09:37:31Z</time>
      </trkpt>
      <trkpt lat="45.26897" lon="6.16634">
        <ele>2330.5</ele>
        <time>2020-02-09T09:37:33Z</time>
      </trkpt>
      <trkpt lat="45.26894" lon="6.16634">
        <ele>2331.1</ele>
        <time>2020-02-09T09:37:36Z</time>
      </trkpt>
      <trkpt lat="45.26892" lon="6.16634">
        <ele>2331.8</ele>
        <time>2020-02-09T09:37:53Z</time>
      </trkpt>
      <trkpt lat="45.26888" lon="6.16636">
        <ele>2332.5</ele>
        <time>2020-02-09T09:37:56Z</time>
      </trkpt>
      <trkpt lat="45.26885" lon="6.16639">
        <ele>2332.2</ele>
        <time>2020-02-09T09:37:59Z</time>
      </trkpt>
      <trkpt lat="45.26884" lon="6.16643">
        <ele>2332</ele>
        <time>2020-02-09T09:38:02Z</time>
      </trkpt>
      <trkpt lat="45.26881" lon="6.16646">
        <ele>2332.8</ele>
        <time>2020-02-09T09:38:05Z</time>
      </trkpt>
      <trkpt lat="45.26878" lon="6.1665">
        <ele>2332.6</ele>
        <time>2020-02-09T09:38:08Z</time>
      </trkpt>
      <trkpt lat="45.26877" lon="6.16654">
        <ele>2331.6</ele>
        <time>2020-02-09T09:38:12Z</time>
      </trkpt>
      <trkpt lat="45.26874" lon="6.16658">
        <ele>2331.4</ele>
        <time>2020-02-09T09:38:17Z</time>
      </trkpt>
      <trkpt lat="45.26873" lon="6.16662">
        <ele>2330.4</ele>
        <time>2020-02-09T09:38:28Z</time>
      </trkpt>
      <trkpt lat="45.26873" lon="6.16667">
        <ele>2329.5</ele>
        <time>2020-02-09T09:38:34Z</time>
      </trkpt>
      <trkpt lat="45.26873" lon="6.16672">
        <ele>2329.4</ele>
        <time>2020-02-09T09:38:40Z</time>
      </trkpt>
      <trkpt lat="45.26872" lon="6.16676">
        <ele>2328.4</ele>
        <time>2020-02-09T09:38:46Z</time>
      </trkpt>
      <trkpt lat="45.26872" lon="6.1668">
        <ele>2327.5</ele>
        <time>2020-02-09T09:38:52Z</time>
      </trkpt>
      <trkpt lat="45.2687" lon="6.16683">
        <ele>2326.5</ele>
        <time>2020-02-09T09:38:59Z</time>
      </trkpt>
      <trkpt lat="45.26868" lon="6.1668">
        <ele>2328.5</ele>
        <time>2020-02-09T09:39:02Z</time>
      </trkpt>
      <trkpt lat="45.26867" lon="6.16677">
        <ele>2328.5</ele>
        <time>2020-02-09T09:39:07Z</time>
      </trkpt>
      <trkpt lat="45.26865" lon="6.16674">
        <ele>2330.4</ele>
        <time>2020-02-09T09:39:11Z</time>
      </trkpt>
      <trkpt lat="45.26863" lon="6.16669">
        <ele>2332.4</ele>
        <time>2020-02-09T09:39:14Z</time>
      </trkpt>
      <trkpt lat="45.26861" lon="6.16665">
        <ele>2333.2</ele>
        <time>2020-02-09T09:39:18Z</time>
      </trkpt>
      <trkpt lat="45.26859" lon="6.1666">
        <ele>2335.2</ele>
        <time>2020-02-09T09:39:21Z</time>
      </trkpt>
      <trkpt lat="45.26859" lon="6.16656">
        <ele>2336.1</ele>
        <time>2020-02-09T09:39:26Z</time>
      </trkpt>
      <trkpt lat="45.26856" lon="6.16656">
        <ele>2337.2</ele>
        <time>2020-02-09T09:39:33Z</time>
      </trkpt>
      <trkpt lat="45.26854" lon="6.1666">
        <ele>2337.4</ele>
        <time>2020-02-09T09:39:37Z</time>
      </trkpt>
      <trkpt lat="45.26852" lon="6.16664">
        <ele>2336.6</ele>
        <time>2020-02-09T09:39:40Z</time>
      </trkpt>
      <trkpt lat="45.26852" lon="6.16668">
        <ele>2335.8</ele>
        <time>2020-02-09T09:39:45Z</time>
      </trkpt>
      <trkpt lat="45.26853" lon="6.16673">
        <ele>2335</ele>
        <time>2020-02-09T09:39:50Z</time>
      </trkpt>
      <trkpt lat="45.26852" lon="6.16677">
        <ele>2334.2</ele>
        <time>2020-02-09T09:39:54Z</time>
      </trkpt>
      <trkpt lat="45.2685" lon="6.16674">
        <ele>2336</ele>
        <time>2020-02-09T09:40:18Z</time>
      </trkpt>
      <trkpt lat="45.26848" lon="6.16674">
        <ele>2337</ele>
        <time>2020-02-09T09:40:20Z</time>
      </trkpt>
      <trkpt lat="45.26846" lon="6.1667">
        <ele>2337.7</ele>
        <time>2020-02-09T09:40:24Z</time>
      </trkpt>
      <trkpt lat="45.26845" lon="6.16665">
        <ele>2339.5</ele>
        <time>2020-02-09T09:40:29Z</time>
      </trkpt>
      <trkpt lat="45.26844" lon="6.16661">
        <ele>2340.3</ele>
        <time>2020-02-09T09:40:32Z</time>
      </trkpt>
      <trkpt lat="45.26844" lon="6.16656">
        <ele>2341.1</ele>
        <time>2020-02-09T09:40:37Z</time>
      </trkpt>
      <trkpt lat="45.26842" lon="6.16653">
        <ele>2343</ele>
        <time>2020-02-09T09:40:40Z</time>
      </trkpt>
      <trkpt lat="45.26841" lon="6.16649">
        <ele>2343.8</ele>
        <time>2020-02-09T09:40:45Z</time>
      </trkpt>
      <trkpt lat="45.26839" lon="6.16654">
        <ele>2344.2</ele>
        <time>2020-02-09T09:40:52Z</time>
      </trkpt>
      <trkpt lat="45.26839" lon="6.16658">
        <ele>2343.4</ele>
        <time>2020-02-09T09:40:57Z</time>
      </trkpt>
      <trkpt lat="45.26838" lon="6.16662">
        <ele>2342.7</ele>
        <time>2020-02-09T09:41:00Z</time>
      </trkpt>
      <trkpt lat="45.26836" lon="6.16666">
        <ele>2343.2</ele>
        <time>2020-02-09T09:41:03Z</time>
      </trkpt>
      <trkpt lat="45.26834" lon="6.16669">
        <ele>2342.5</ele>
        <time>2020-02-09T09:41:08Z</time>
      </trkpt>
      <trkpt lat="45.26833" lon="6.16673">
        <ele>2343.2</ele>
        <time>2020-02-09T09:41:12Z</time>
      </trkpt>
      <trkpt lat="45.2683" lon="6.16676">
        <ele>2343.9</ele>
        <time>2020-02-09T09:41:15Z</time>
      </trkpt>
      <trkpt lat="45.26827" lon="6.16679">
        <ele>2343.9</ele>
        <time>2020-02-09T09:41:21Z</time>
      </trkpt>
      <trkpt lat="45.26824" lon="6.16681">
        <ele>2344.6</ele>
        <time>2020-02-09T09:41:27Z</time>
      </trkpt>
      <trkpt lat="45.26822" lon="6.16684">
        <ele>2345.9</ele>
        <time>2020-02-09T09:41:35Z</time>
      </trkpt>
      <trkpt lat="45.2682" lon="6.16688">
        <ele>2346.6</ele>
        <time>2020-02-09T09:41:38Z</time>
      </trkpt>
      <trkpt lat="45.26821" lon="6.16684">
        <ele>2347.2</ele>
        <time>2020-02-09T09:41:43Z</time>
      </trkpt>
      <trkpt lat="45.2682" lon="6.1668">
        <ele>2347.8</ele>
        <time>2020-02-09T09:41:51Z</time>
      </trkpt>
      <trkpt lat="45.26817" lon="6.16683">
        <ele>2348.5</ele>
        <time>2020-02-09T09:42:04Z</time>
      </trkpt>
      <trkpt lat="45.26815" lon="6.16686">
        <ele>2349.4</ele>
        <time>2020-02-09T09:42:06Z</time>
      </trkpt>
      <trkpt lat="45.26813" lon="6.1669">
        <ele>2348.8</ele>
        <time>2020-02-09T09:42:09Z</time>
      </trkpt>
      <trkpt lat="45.26815" lon="6.16695">
        <ele>2348.3</ele>
        <time>2020-02-09T09:42:14Z</time>
      </trkpt>
      <trkpt lat="45.26814" lon="6.16699">
        <ele>2347.8</ele>
        <time>2020-02-09T09:42:16Z</time>
      </trkpt>
      <trkpt lat="45.26813" lon="6.16703">
        <ele>2347.3</ele>
        <time>2020-02-09T09:42:23Z</time>
      </trkpt>
      <trkpt lat="45.2681" lon="6.16706">
        <ele>2348.8</ele>
        <time>2020-02-09T09:42:30Z</time>
      </trkpt>
      <trkpt lat="45.26808" lon="6.16709">
        <ele>2350</ele>
        <time>2020-02-09T09:42:35Z</time>
      </trkpt>
      <trkpt lat="45.26807" lon="6.16714">
        <ele>2349.7</ele>
        <time>2020-02-09T09:42:42Z</time>
      </trkpt>
      <trkpt lat="45.26806" lon="6.1671">
        <ele>2351.6</ele>
        <time>2020-02-09T09:42:47Z</time>
      </trkpt>
      <trkpt lat="45.26805" lon="6.16705">
        <ele>2352</ele>
        <time>2020-02-09T09:42:50Z</time>
      </trkpt>
      <trkpt lat="45.26804" lon="6.16701">
        <ele>2352.5</ele>
        <time>2020-02-09T09:42:54Z</time>
      </trkpt>
      <trkpt lat="45.26801" lon="6.16703">
        <ele>2353.7</ele>
        <time>2020-02-09T09:43:03Z</time>
      </trkpt>
      <trkpt lat="45.268" lon="6.16707">
        <ele>2353.3</ele>
        <time>2020-02-09T09:43:06Z</time>
      </trkpt>
      <trkpt lat="45.268" lon="6.16712">
        <ele>2354.5</ele>
        <time>2020-02-09T09:43:09Z</time>
      </trkpt>
      <trkpt lat="45.268" lon="6.16716">
        <ele>2354.2</ele>
        <time>2020-02-09T09:43:12Z</time>
      </trkpt>
      <trkpt lat="45.26798" lon="6.16711">
        <ele>2354.5</ele>
        <time>2020-02-09T09:43:26Z</time>
      </trkpt>
      <trkpt lat="45.26796" lon="6.16708">
        <ele>2356.5</ele>
        <time>2020-02-09T09:43:31Z</time>
      </trkpt>
      <trkpt lat="45.26794" lon="6.16704">
        <ele>2358.4</ele>
        <time>2020-02-09T09:43:37Z</time>
      </trkpt>
      <trkpt lat="45.26792" lon="6.16701">
        <ele>2358.8</ele>
        <time>2020-02-09T09:43:40Z</time>
      </trkpt>
      <trkpt lat="45.26789" lon="6.16697">
        <ele>2360.7</ele>
        <time>2020-02-09T09:43:43Z</time>
      </trkpt>
      <trkpt lat="45.26788" lon="6.16693">
        <ele>2362.7</ele>
        <time>2020-02-09T09:43:45Z</time>
      </trkpt>
      <trkpt lat="45.26787" lon="6.16689">
        <ele>2363.2</ele>
        <time>2020-02-09T09:43:48Z</time>
      </trkpt>
      <trkpt lat="45.26786" lon="6.16684">
        <ele>2363.7</ele>
        <time>2020-02-09T09:43:54Z</time>
      </trkpt>
      <trkpt lat="45.26785" lon="6.1668">
        <ele>2365.8</ele>
        <time>2020-02-09T09:43:58Z</time>
      </trkpt>
      <trkpt lat="45.26783" lon="6.16677">
        <ele>2365.8</ele>
        <time>2020-02-09T09:44:01Z</time>
      </trkpt>
      <trkpt lat="45.26781" lon="6.16681">
        <ele>2366.9</ele>
        <time>2020-02-09T09:44:15Z</time>
      </trkpt>
      <trkpt lat="45.2678" lon="6.16684">
        <ele>2366.9</ele>
        <time>2020-02-09T09:44:18Z</time>
      </trkpt>
      <trkpt lat="45.2678" lon="6.16689">
        <ele>2366.3</ele>
        <time>2020-02-09T09:44:26Z</time>
      </trkpt>
      <trkpt lat="45.26781" lon="6.16694">
        <ele>2365.3</ele>
        <time>2020-02-09T09:44:29Z</time>
      </trkpt>
      <trkpt lat="45.26777" lon="6.16695">
        <ele>2367</ele>
        <time>2020-02-09T09:44:42Z</time>
      </trkpt>
      <trkpt lat="45.26774" lon="6.16695">
        <ele>2368.8</ele>
        <time>2020-02-09T09:44:46Z</time>
      </trkpt>
      <trkpt lat="45.26772" lon="6.16698">
        <ele>2370</ele>
        <time>2020-02-09T09:44:52Z</time>
      </trkpt>
      <trkpt lat="45.26769" lon="6.16701">
        <ele>2371.6</ele>
        <time>2020-02-09T09:44:56Z</time>
      </trkpt>
      <trkpt lat="45.26768" lon="6.16706">
        <ele>2371.1</ele>
        <time>2020-02-09T09:45:00Z</time>
      </trkpt>
      <trkpt lat="45.26766" lon="6.16709">
        <ele>2371.9</ele>
        <time>2020-02-09T09:45:11Z</time>
      </trkpt>
      <trkpt lat="45.26763" lon="6.16711">
        <ele>2372.7</ele>
        <time>2020-02-09T09:45:15Z</time>
      </trkpt>
      <trkpt lat="45.2676" lon="6.16713">
        <ele>2374.1</ele>
        <time>2020-02-09T09:45:18Z</time>
      </trkpt>
      <trkpt lat="45.26757" lon="6.16715">
        <ele>2375.7</ele>
        <time>2020-02-09T09:45:22Z</time>
      </trkpt>
      <trkpt lat="45.26759" lon="6.16719">
        <ele>2373.6</ele>
        <time>2020-02-09T09:45:48Z</time>
      </trkpt>
      <trkpt lat="45.2676" lon="6.16722">
        <ele>2373</ele>
        <time>2020-02-09T09:45:54Z</time>
      </trkpt>
      <trkpt lat="45.26763" lon="6.16723">
        <ele>2371.6</ele>
        <time>2020-02-09T09:46:38Z</time>
      </trkpt>
      <trkpt lat="45.2676" lon="6.16723">
        <ele>2373</ele>
        <time>2020-02-09T09:47:21Z</time>
      </trkpt>
      <trkpt lat="45.26762" lon="6.16719">
        <ele>2372.2</ele>
        <time>2020-02-09T09:47:31Z</time>
      </trkpt>
      <trkpt lat="45.26758" lon="6.1672">
        <ele>2373</ele>
        <time>2020-02-09T09:48:12Z</time>
      </trkpt>
      <trkpt lat="45.26756" lon="6.16722">
        <ele>2374.5</ele>
        <time>2020-02-09T09:48:15Z</time>
      </trkpt>
      <trkpt lat="45.26753" lon="6.16723">
        <ele>2376.2</ele>
        <time>2020-02-09T09:48:17Z</time>
      </trkpt>
      <trkpt lat="45.2675" lon="6.16726">
        <ele>2377.4</ele>
        <time>2020-02-09T09:48:20Z</time>
      </trkpt>
      <trkpt lat="45.26748" lon="6.16728">
        <ele>2378.5</ele>
        <time>2020-02-09T09:48:23Z</time>
      </trkpt>
      <trkpt lat="45.26745" lon="6.1673">
        <ele>2380.2</ele>
        <time>2020-02-09T09:48:26Z</time>
      </trkpt>
      <trkpt lat="45.26744" lon="6.16734">
        <ele>2379.5</ele>
        <time>2020-02-09T09:48:36Z</time>
      </trkpt>
      <trkpt lat="45.2674" lon="6.16735">
        <ele>2381</ele>
        <time>2020-02-09T09:48:46Z</time>
      </trkpt>
      <trkpt lat="45.26737" lon="6.16736">
        <ele>2382.4</ele>
        <time>2020-02-09T09:48:49Z</time>
      </trkpt>
      <trkpt lat="45.26734" lon="6.16738">
        <ele>2383.1</ele>
        <time>2020-02-09T09:48:52Z</time>
      </trkpt>
      <trkpt lat="45.26732" lon="6.16742">
        <ele>2383.7</ele>
        <time>2020-02-09T09:48:57Z</time>
      </trkpt>
      <trkpt lat="45.26729" lon="6.16743">
        <ele>2385.2</ele>
        <time>2020-02-09T09:49:00Z</time>
      </trkpt>
      <trkpt lat="45.26727" lon="6.16747">
        <ele>2386</ele>
        <time>2020-02-09T09:49:02Z</time>
      </trkpt>
      <trkpt lat="45.26725" lon="6.16751">
        <ele>2385.2</ele>
        <time>2020-02-09T09:49:06Z</time>
      </trkpt>
      <trkpt lat="45.26723" lon="6.16754">
        <ele>2386</ele>
        <time>2020-02-09T09:49:09Z</time>
      </trkpt>
      <trkpt lat="45.26721" lon="6.16758">
        <ele>2386.9</ele>
        <time>2020-02-09T09:49:12Z</time>
      </trkpt>
      <trkpt lat="45.2672" lon="6.16762">
        <ele>2386.9</ele>
        <time>2020-02-09T09:49:19Z</time>
      </trkpt>
      <trkpt lat="45.26718" lon="6.16765">
        <ele>2387.9</ele>
        <time>2020-02-09T09:49:25Z</time>
      </trkpt>
      <trkpt lat="45.26716" lon="6.16768">
        <ele>2387.1</ele>
        <time>2020-02-09T09:49:28Z</time>
      </trkpt>
      <trkpt lat="45.26714" lon="6.16771">
        <ele>2389</ele>
        <time>2020-02-09T09:49:31Z</time>
      </trkpt>
      <trkpt lat="45.26711" lon="6.16774">
        <ele>2390.6</ele>
        <time>2020-02-09T09:49:34Z</time>
      </trkpt>
      <trkpt lat="45.26708" lon="6.16773">
        <ele>2392.2</ele>
        <time>2020-02-09T09:49:42Z</time>
      </trkpt>
      <trkpt lat="45.26707" lon="6.16777">
        <ele>2391.4</ele>
        <time>2020-02-09T09:49:45Z</time>
      </trkpt>
      <trkpt lat="45.26706" lon="6.16781">
        <ele>2392.2</ele>
        <time>2020-02-09T09:49:50Z</time>
      </trkpt>
      <trkpt lat="45.26703" lon="6.16785">
        <ele>2391.5</ele>
        <time>2020-02-09T09:49:54Z</time>
      </trkpt>
      <trkpt lat="45.26703" lon="6.1679">
        <ele>2392.4</ele>
        <time>2020-02-09T09:49:59Z</time>
      </trkpt>
      <trkpt lat="45.26703" lon="6.16796">
        <ele>2390.2</ele>
        <time>2020-02-09T09:50:03Z</time>
      </trkpt>
      <trkpt lat="45.26705" lon="6.168">
        <ele>2389.5</ele>
        <time>2020-02-09T09:50:08Z</time>
      </trkpt>
      <trkpt lat="45.26705" lon="6.16805">
        <ele>2389</ele>
        <time>2020-02-09T09:50:13Z</time>
      </trkpt>
      <trkpt lat="45.26702" lon="6.16804">
        <ele>2390.5</ele>
        <time>2020-02-09T09:50:23Z</time>
      </trkpt>
      <trkpt lat="45.26699" lon="6.16802">
        <ele>2392.2</ele>
        <time>2020-02-09T09:50:37Z</time>
      </trkpt>
      <trkpt lat="45.26697" lon="6.16804">
        <ele>2394.1</ele>
        <time>2020-02-09T09:50:52Z</time>
      </trkpt>
      <trkpt lat="45.26695" lon="6.16807">
        <ele>2393.4</ele>
        <time>2020-02-09T09:50:56Z</time>
      </trkpt>
      <trkpt lat="45.26693" lon="6.16811">
        <ele>2394.7</ele>
        <time>2020-02-09T09:51:06Z</time>
      </trkpt>
      <trkpt lat="45.26695" lon="6.16814">
        <ele>2392.2</ele>
        <time>2020-02-09T09:51:16Z</time>
      </trkpt>
      <trkpt lat="45.26694" lon="6.16817">
        <ele>2394</ele>
        <time>2020-02-09T09:51:23Z</time>
      </trkpt>
      <trkpt lat="45.26695" lon="6.16813">
        <ele>2392.8</ele>
        <time>2020-02-09T09:51:30Z</time>
      </trkpt>
      <trkpt lat="45.26692" lon="6.16813">
        <ele>2394.7</ele>
        <time>2020-02-09T09:51:38Z</time>
      </trkpt>
      <trkpt lat="45.26689" lon="6.1681">
        <ele>2396.5</ele>
        <time>2020-02-09T09:51:44Z</time>
      </trkpt>
      <trkpt lat="45.26685" lon="6.16808">
        <ele>2399</ele>
        <time>2020-02-09T09:51:48Z</time>
      </trkpt>
      <trkpt lat="45.26686" lon="6.16805">
        <ele>2399.7</ele>
        <time>2020-02-09T09:51:53Z</time>
      </trkpt>
      <trkpt lat="45.26683" lon="6.16802">
        <ele>2401.4</ele>
        <time>2020-02-09T09:52:02Z</time>
      </trkpt>
      <trkpt lat="45.26681" lon="6.16804">
        <ele>2403</ele>
        <time>2020-02-09T09:52:11Z</time>
      </trkpt>
      <trkpt lat="45.26681" lon="6.16808">
        <ele>2402.3</ele>
        <time>2020-02-09T09:52:20Z</time>
      </trkpt>
      <trkpt lat="45.26682" lon="6.16812">
        <ele>2401.6</ele>
        <time>2020-02-09T09:52:32Z</time>
      </trkpt>
      <trkpt lat="45.26681" lon="6.16818">
        <ele>2400.8</ele>
        <time>2020-02-09T09:52:46Z</time>
      </trkpt>
      <trkpt lat="45.26679" lon="6.16821">
        <ele>2400.1</ele>
        <time>2020-02-09T09:52:52Z</time>
      </trkpt>
      <trkpt lat="45.26677" lon="6.16825">
        <ele>2400.9</ele>
        <time>2020-02-09T09:53:00Z</time>
      </trkpt>
      <trkpt lat="45.26676" lon="6.16829">
        <ele>2401.7</ele>
        <time>2020-02-09T09:53:04Z</time>
      </trkpt>
      <trkpt lat="45.26676" lon="6.16833">
        <ele>2401</ele>
        <time>2020-02-09T09:53:16Z</time>
      </trkpt>
      <trkpt lat="45.26674" lon="6.16835">
        <ele>2400.3</ele>
        <time>2020-02-09T09:53:23Z</time>
      </trkpt>
      <trkpt lat="45.26672" lon="6.16833">
        <ele>2402.8</ele>
        <time>2020-02-09T09:53:41Z</time>
      </trkpt>
      <trkpt lat="45.26671" lon="6.16829">
        <ele>2403.5</ele>
        <time>2020-02-09T09:53:46Z</time>
      </trkpt>
      <trkpt lat="45.26669" lon="6.16826">
        <ele>2406.1</ele>
        <time>2020-02-09T09:53:57Z</time>
      </trkpt>
      <trkpt lat="45.26667" lon="6.16821">
        <ele>2408.9</ele>
        <time>2020-02-09T09:54:01Z</time>
      </trkpt>
      <trkpt lat="45.26667" lon="6.16826">
        <ele>2406.1</ele>
        <time>2020-02-09T09:54:12Z</time>
      </trkpt>
      <trkpt lat="45.26669" lon="6.16829">
        <ele>2405.4</ele>
        <time>2020-02-09T09:54:15Z</time>
      </trkpt>
      <trkpt lat="45.26667" lon="6.16833">
        <ele>2404.6</ele>
        <time>2020-02-09T09:54:22Z</time>
      </trkpt>
      <trkpt lat="45.26668" lon="6.16828">
        <ele>2405.4</ele>
        <time>2020-02-09T09:54:32Z</time>
      </trkpt>
      <trkpt lat="45.26668" lon="6.16824">
        <ele>2406.1</ele>
        <time>2020-02-09T09:54:41Z</time>
      </trkpt>
      <trkpt lat="45.26667" lon="6.1682">
        <ele>2406.9</ele>
        <time>2020-02-09T09:54:48Z</time>
      </trkpt>
      <trkpt lat="45.26666" lon="6.16824">
        <ele>2408.1</ele>
        <time>2020-02-09T09:54:57Z</time>
      </trkpt>
      <trkpt lat="45.26663" lon="6.16827">
        <ele>2409.2</ele>
        <time>2020-02-09T09:55:07Z</time>
      </trkpt>
      <trkpt lat="45.26661" lon="6.1683">
        <ele>2410.9</ele>
        <time>2020-02-09T09:56:26Z</time>
      </trkpt>
      <trkpt lat="45.26662" lon="6.16825">
        <ele>2410</ele>
        <time>2020-02-09T09:56:35Z</time>
      </trkpt>
      <trkpt lat="45.2666" lon="6.16822">
        <ele>2412.6</ele>
        <time>2020-02-09T09:56:41Z</time>
      </trkpt>
      <trkpt lat="45.26658" lon="6.16824">
        <ele>2413.4</ele>
        <time>2020-02-09T09:57:05Z</time>
      </trkpt>
      <trkpt lat="45.26655" lon="6.16823">
        <ele>2413.4</ele>
        <time>2020-02-09T09:57:23Z</time>
      </trkpt>
      <trkpt lat="45.26655" lon="6.16819">
        <ele>2414.3</ele>
        <time>2020-02-09T09:57:49Z</time>
      </trkpt>
      <trkpt lat="45.26658" lon="6.16819">
        <ele>2412.6</ele>
        <time>2020-02-09T09:58:41Z</time>
      </trkpt>
      <trkpt lat="45.2666" lon="6.16823">
        <ele>2411.7</ele>
        <time>2020-02-09T09:58:59Z</time>
      </trkpt>
      <trkpt lat="45.26656" lon="6.16823">
        <ele>2413.4</ele>
        <time>2020-02-09T09:59:25Z</time>
      </trkpt>
      <trkpt lat="45.26656" lon="6.16818">
        <ele>2414.3</ele>
        <time>2020-02-09T09:59:53Z</time>
      </trkpt>
      <trkpt lat="45.26654" lon="6.16821">
        <ele>2416</ele>
        <time>2020-02-09T10:00:06Z</time>
      </trkpt>
      <trkpt lat="45.26657" lon="6.16822">
        <ele>2413.4</ele>
        <time>2020-02-09T10:00:54Z</time>
      </trkpt>
      <trkpt lat="45.2666" lon="6.16824">
        <ele>2411.7</ele>
        <time>2020-02-09T10:00:57Z</time>
      </trkpt>
      <trkpt lat="45.26658" lon="6.16827">
        <ele>2410.9</ele>
        <time>2020-02-09T10:01:18Z</time>
      </trkpt>
      <trkpt lat="45.26658" lon="6.16823">
        <ele>2413.4</ele>
        <time>2020-02-09T10:01:40Z</time>
      </trkpt>
      <trkpt lat="45.26654" lon="6.16825">
        <ele>2415.1</ele>
        <time>2020-02-09T10:01:57Z</time>
      </trkpt>
      <trkpt lat="45.26652" lon="6.16827">
        <ele>2416</ele>
        <time>2020-02-09T10:02:00Z</time>
      </trkpt>
      <trkpt lat="45.26649" lon="6.1683">
        <ele>2416</ele>
        <time>2020-02-09T10:02:04Z</time>
      </trkpt>
      <trkpt lat="45.26647" lon="6.16833">
        <ele>2417</ele>
        <time>2020-02-09T10:02:07Z</time>
      </trkpt>
      <trkpt lat="45.26645" lon="6.16836">
        <ele>2418.2</ele>
        <time>2020-02-09T10:02:11Z</time>
      </trkpt>
      <trkpt lat="45.26643" lon="6.16839">
        <ele>2418.2</ele>
        <time>2020-02-09T10:02:15Z</time>
      </trkpt>
      <trkpt lat="45.2664" lon="6.1684">
        <ele>2419.4</ele>
        <time>2020-02-09T10:02:19Z</time>
      </trkpt>
      <trkpt lat="45.26637" lon="6.16842">
        <ele>2421.3</ele>
        <time>2020-02-09T10:02:24Z</time>
      </trkpt>
      <trkpt lat="45.26635" lon="6.16844">
        <ele>2422.4</ele>
        <time>2020-02-09T10:02:29Z</time>
      </trkpt>
      <trkpt lat="45.26632" lon="6.16844">
        <ele>2424</ele>
        <time>2020-02-09T10:02:35Z</time>
      </trkpt>
      <trkpt lat="45.26632" lon="6.1684">
        <ele>2424.8</ele>
        <time>2020-02-09T10:02:47Z</time>
      </trkpt>
      <trkpt lat="45.26634" lon="6.16836">
        <ele>2423.9</ele>
        <time>2020-02-09T10:02:52Z</time>
      </trkpt>
      <trkpt lat="45.26635" lon="6.16832">
        <ele>2424.8</ele>
        <time>2020-02-09T10:02:56Z</time>
      </trkpt>
      <trkpt lat="45.26636" lon="6.16828">
        <ele>2425.8</ele>
        <time>2020-02-09T10:03:00Z</time>
      </trkpt>
      <trkpt lat="45.26637" lon="6.16824">
        <ele>2424.8</ele>
        <time>2020-02-09T10:03:08Z</time>
      </trkpt>
      <trkpt lat="45.26638" lon="6.1682">
        <ele>2425.8</ele>
        <time>2020-02-09T10:03:15Z</time>
      </trkpt>
      <trkpt lat="45.26639" lon="6.16816">
        <ele>2426.8</ele>
        <time>2020-02-09T10:03:42Z</time>
      </trkpt>
      <trkpt lat="45.26641" lon="6.16817">
        <ele>2424.7</ele>
        <time>2020-02-09T10:03:45Z</time>
      </trkpt>
      <trkpt lat="45.26638" lon="6.1682">
        <ele>2425.8</ele>
        <time>2020-02-09T10:03:56Z</time>
      </trkpt>
      <trkpt lat="45.26636" lon="6.16823">
        <ele>2426.8</ele>
        <time>2020-02-09T10:03:58Z</time>
      </trkpt>
      <trkpt lat="45.26633" lon="6.16826">
        <ele>2428.6</ele>
        <time>2020-02-09T10:04:01Z</time>
      </trkpt>
      <trkpt lat="45.2663" lon="6.16827">
        <ele>2429.3</ele>
        <time>2020-02-09T10:04:04Z</time>
      </trkpt>
      <trkpt lat="45.26628" lon="6.16827">
        <ele>2431</ele>
        <time>2020-02-09T10:04:06Z</time>
      </trkpt>
      <trkpt lat="45.26625" lon="6.16827">
        <ele>2433.7</ele>
        <time>2020-02-09T10:04:09Z</time>
      </trkpt>
      <trkpt lat="45.26621" lon="6.16828">
        <ele>2434.2</ele>
        <time>2020-02-09T10:04:14Z</time>
      </trkpt>
      <trkpt lat="45.26618" lon="6.16827">
        <ele>2435.8</ele>
        <time>2020-02-09T10:04:20Z</time>
      </trkpt>
      <trkpt lat="45.26615" lon="6.16827">
        <ele>2437.3</ele>
        <time>2020-02-09T10:04:26Z</time>
      </trkpt>
      <trkpt lat="45.26612" lon="6.16829">
        <ele>2438.9</ele>
        <time>2020-02-09T10:04:45Z</time>
      </trkpt>
      <trkpt lat="45.2661" lon="6.16831">
        <ele>2440.4</ele>
        <time>2020-02-09T10:04:49Z</time>
      </trkpt>
      <trkpt lat="45.26607" lon="6.16832">
        <ele>2440.7</ele>
        <time>2020-02-09T10:04:53Z</time>
      </trkpt>
      <trkpt lat="45.26604" lon="6.16832">
        <ele>2442</ele>
        <time>2020-02-09T10:04:57Z</time>
      </trkpt>
      <trkpt lat="45.26602" lon="6.16828">
        <ele>2443.3</ele>
        <time>2020-02-09T10:05:10Z</time>
      </trkpt>
      <trkpt lat="45.26604" lon="6.16825">
        <ele>2444.6</ele>
        <time>2020-02-09T10:05:14Z</time>
      </trkpt>
      <trkpt lat="45.26604" lon="6.16821">
        <ele>2444.4</ele>
        <time>2020-02-09T10:05:17Z</time>
      </trkpt>
      <trkpt lat="45.26604" lon="6.16816">
        <ele>2445.7</ele>
        <time>2020-02-09T10:05:22Z</time>
      </trkpt>
      <trkpt lat="45.26606" lon="6.16811">
        <ele>2447</ele>
        <time>2020-02-09T10:05:27Z</time>
      </trkpt>
      <trkpt lat="45.26607" lon="6.16807">
        <ele>2448.3</ele>
        <time>2020-02-09T10:05:30Z</time>
      </trkpt>
      <trkpt lat="45.26608" lon="6.16803">
        <ele>2448</ele>
        <time>2020-02-09T10:05:36Z</time>
      </trkpt>
      <trkpt lat="45.26609" lon="6.16799">
        <ele>2449.3</ele>
        <time>2020-02-09T10:05:41Z</time>
      </trkpt>
      <trkpt lat="45.26608" lon="6.16794">
        <ele>2450.7</ele>
        <time>2020-02-09T10:05:47Z</time>
      </trkpt>
      <trkpt lat="45.2661" lon="6.16791">
        <ele>2450.3</ele>
        <time>2020-02-09T10:06:00Z</time>
      </trkpt>
      <trkpt lat="45.26613" lon="6.16789">
        <ele>2450.3</ele>
        <time>2020-02-09T10:06:04Z</time>
      </trkpt>
      <trkpt lat="45.26614" lon="6.16785">
        <ele>2450</ele>
        <time>2020-02-09T10:06:09Z</time>
      </trkpt>
      <trkpt lat="45.26616" lon="6.16782">
        <ele>2449.8</ele>
        <time>2020-02-09T10:06:13Z</time>
      </trkpt>
      <trkpt lat="45.26617" lon="6.16778">
        <ele>2451.5</ele>
        <time>2020-02-09T10:06:21Z</time>
      </trkpt>
      <trkpt lat="45.26619" lon="6.16775">
        <ele>2451.4</ele>
        <time>2020-02-09T10:06:26Z</time>
      </trkpt>
      <trkpt lat="45.26617" lon="6.16772">
        <ele>2453.3</ele>
        <time>2020-02-09T10:06:30Z</time>
      </trkpt>
      <trkpt lat="45.26614" lon="6.16774">
        <ele>2455.2</ele>
        <time>2020-02-09T10:06:32Z</time>
      </trkpt>
      <trkpt lat="45.26612" lon="6.16777">
        <ele>2455.3</ele>
        <time>2020-02-09T10:06:35Z</time>
      </trkpt>
      <trkpt lat="45.2661" lon="6.16779">
        <ele>2457.2</ele>
        <time>2020-02-09T10:06:39Z</time>
      </trkpt>
      <trkpt lat="45.26607" lon="6.1678">
        <ele>2457.2</ele>
        <time>2020-02-09T10:06:47Z</time>
      </trkpt>
      <trkpt lat="45.26603" lon="6.16779">
        <ele>2460.7</ele>
        <time>2020-02-09T10:06:50Z</time>
      </trkpt>
      <trkpt lat="45.266" lon="6.16779">
        <ele>2462.2</ele>
        <time>2020-02-09T10:06:58Z</time>
      </trkpt>
      <trkpt lat="45.26597" lon="6.16777">
        <ele>2463.7</ele>
        <time>2020-02-09T10:07:03Z</time>
      </trkpt>
      <trkpt lat="45.26594" lon="6.16777">
        <ele>2465.1</ele>
        <time>2020-02-09T10:07:08Z</time>
      </trkpt>
      <trkpt lat="45.26591" lon="6.16778">
        <ele>2466.5</ele>
        <time>2020-02-09T10:07:12Z</time>
      </trkpt>
      <trkpt lat="45.26589" lon="6.16776">
        <ele>2466.5</ele>
        <time>2020-02-09T10:07:27Z</time>
      </trkpt>
      <trkpt lat="45.26588" lon="6.16771">
        <ele>2470</ele>
        <time>2020-02-09T10:07:31Z</time>
      </trkpt>
      <trkpt lat="45.26589" lon="6.16767">
        <ele>2470.3</ele>
        <time>2020-02-09T10:07:36Z</time>
      </trkpt>
      <trkpt lat="45.26591" lon="6.16764">
        <ele>2472.1</ele>
        <time>2020-02-09T10:07:39Z</time>
      </trkpt>
      <trkpt lat="45.26594" lon="6.16763">
        <ele>2470.6</ele>
        <time>2020-02-09T10:07:44Z</time>
      </trkpt>
      <trkpt lat="45.26596" lon="6.1676">
        <ele>2471</ele>
        <time>2020-02-09T10:07:48Z</time>
      </trkpt>
      <trkpt lat="45.26599" lon="6.16759">
        <ele>2469.5</ele>
        <time>2020-02-09T10:07:54Z</time>
      </trkpt>
      <trkpt lat="45.26601" lon="6.16754">
        <ele>2471.4</ele>
        <time>2020-02-09T10:07:57Z</time>
      </trkpt>
      <trkpt lat="45.26602" lon="6.1675">
        <ele>2471.8</ele>
        <time>2020-02-09T10:08:02Z</time>
      </trkpt>
      <trkpt lat="45.26601" lon="6.16749">
        <ele>2474.1</ele>
        <time>2020-02-09T10:08:07Z</time>
      </trkpt>
      <trkpt lat="45.26601" lon="6.16749">
        <ele>2474.1</ele>
        <time>2020-02-09T10:08:20Z</time>
      </trkpt>
      <trkpt lat="45.266" lon="6.16748">
        <ele>2475.7</ele>
        <time>2020-02-09T10:08:28Z</time>
      </trkpt>
      <trkpt lat="45.266" lon="6.16747">
        <ele>2475.7</ele>
        <time>2020-02-09T10:08:33Z</time>
      </trkpt>
      <trkpt lat="45.266" lon="6.16747">
        <ele>2475.7</ele>
        <time>2020-02-09T10:08:35Z</time>
      </trkpt>
      <trkpt lat="45.26599" lon="6.16746">
        <ele>2475.7</ele>
        <time>2020-02-09T10:08:37Z</time>
      </trkpt>
      <trkpt lat="45.26599" lon="6.16746">
        <ele>2475.7</ele>
        <time>2020-02-09T10:08:42Z</time>
      </trkpt>
      <trkpt lat="45.26599" lon="6.16745">
        <ele>2478.1</ele>
        <time>2020-02-09T10:08:46Z</time>
      </trkpt>
      <trkpt lat="45.26598" lon="6.16744">
        <ele>2478.1</ele>
        <time>2020-02-09T10:08:49Z</time>
      </trkpt>
      <trkpt lat="45.26598" lon="6.16744">
        <ele>2478.1</ele>
        <time>2020-02-09T10:09:03Z</time>
      </trkpt>
      <trkpt lat="45.26598" lon="6.16743">
        <ele>2478.1</ele>
        <time>2020-02-09T10:09:07Z</time>
      </trkpt>
      <trkpt lat="45.26597" lon="6.16742">
        <ele>2479.6</ele>
        <time>2020-02-09T10:09:12Z</time>
      </trkpt>
      <trkpt lat="45.26597" lon="6.16742">
        <ele>2479.6</ele>
        <time>2020-02-09T10:09:35Z</time>
      </trkpt>
      <trkpt lat="45.26597" lon="6.16741">
        <ele>2479.6</ele>
        <time>2020-02-09T10:09:38Z</time>
      </trkpt>
      <trkpt lat="45.26596" lon="6.16741">
        <ele>2482.2</ele>
        <time>2020-02-09T10:09:43Z</time>
      </trkpt>
      <trkpt lat="45.26596" lon="6.1674">
        <ele>2482.2</ele>
        <time>2020-02-09T10:09:48Z</time>
      </trkpt>
      <trkpt lat="45.26596" lon="6.16739">
        <ele>2482.2</ele>
        <time>2020-02-09T10:09:54Z</time>
      </trkpt>
      <trkpt lat="45.26595" lon="6.16739">
        <ele>2482.2</ele>
        <time>2020-02-09T10:10:01Z</time>
      </trkpt>
      <trkpt lat="45.26595" lon="6.16738">
        <ele>2482.2</ele>
        <time>2020-02-09T10:10:11Z</time>
      </trkpt>
      <trkpt lat="45.26595" lon="6.16738">
        <ele>2482.2</ele>
        <time>2020-02-09T10:10:14Z</time>
      </trkpt>
      <trkpt lat="45.26594" lon="6.16737">
        <ele>2483.6</ele>
        <time>2020-02-09T10:10:21Z</time>
      </trkpt>
      <trkpt lat="45.26594" lon="6.16736">
        <ele>2486.2</ele>
        <time>2020-02-09T10:10:36Z</time>
      </trkpt>
      <trkpt lat="45.26594" lon="6.16736">
        <ele>2486.2</ele>
        <time>2020-02-09T10:10:44Z</time>
      </trkpt>
      <trkpt lat="45.26593" lon="6.16735">
        <ele>2486.2</ele>
        <time>2020-02-09T10:10:50Z</time>
      </trkpt>
      <trkpt lat="45.26593" lon="6.16734">
        <ele>2486.2</ele>
        <time>2020-02-09T10:10:55Z</time>
      </trkpt>
      <trkpt lat="45.26593" lon="6.16734">
        <ele>2486.2</ele>
        <time>2020-02-09T10:11:03Z</time>
      </trkpt>
      <trkpt lat="45.26592" lon="6.16733">
        <ele>2486.2</ele>
        <time>2020-02-09T10:11:09Z</time>
      </trkpt>
      <trkpt lat="45.26592" lon="6.16733">
        <ele>2486.2</ele>
        <time>2020-02-09T10:11:14Z</time>
      </trkpt>
      <trkpt lat="45.26592" lon="6.16732">
        <ele>2490.3</ele>
        <time>2020-02-09T10:11:18Z</time>
      </trkpt>
      <trkpt lat="45.26591" lon="6.16731">
        <ele>2490.3</ele>
        <time>2020-02-09T10:11:26Z</time>
      </trkpt>
      <trkpt lat="45.26591" lon="6.16731">
        <ele>2490.3</ele>
        <time>2020-02-09T10:11:31Z</time>
      </trkpt>
      <trkpt lat="45.26591" lon="6.1673">
        <ele>2490.3</ele>
        <time>2020-02-09T10:11:35Z</time>
      </trkpt>
      <trkpt lat="45.2659" lon="6.1673">
        <ele>2490.3</ele>
        <time>2020-02-09T10:11:39Z</time>
      </trkpt>
      <trkpt lat="45.2659" lon="6.16729">
        <ele>2490.3</ele>
        <time>2020-02-09T10:11:45Z</time>
      </trkpt>
      <trkpt lat="45.2659" lon="6.16728">
        <ele>2490.3</ele>
        <time>2020-02-09T10:11:50Z</time>
      </trkpt>
      <trkpt lat="45.26589" lon="6.16728">
        <ele>2493</ele>
        <time>2020-02-09T10:12:01Z</time>
      </trkpt>
      <trkpt lat="45.26589" lon="6.16727">
        <ele>2493</ele>
        <time>2020-02-09T10:12:07Z</time>
      </trkpt>
      <trkpt lat="45.26589" lon="6.16726">
        <ele>2494.5</ele>
        <time>2020-02-09T10:12:29Z</time>
      </trkpt>
      <trkpt lat="45.26588" lon="6.16726">
        <ele>2494.5</ele>
        <time>2020-02-09T10:12:34Z</time>
      </trkpt>
      <trkpt lat="45.26588" lon="6.16725">
        <ele>2494.5</ele>
        <time>2020-02-09T10:12:37Z</time>
      </trkpt>
      <trkpt lat="45.26588" lon="6.16725">
        <ele>2494.5</ele>
        <time>2020-02-09T10:12:42Z</time>
      </trkpt>
      <trkpt lat="45.26587" lon="6.16724">
        <ele>2494.5</ele>
        <time>2020-02-09T10:12:56Z</time>
      </trkpt>
      <trkpt lat="45.26587" lon="6.16723">
        <ele>2497.3</ele>
        <time>2020-02-09T10:12:59Z</time>
      </trkpt>
      <trkpt lat="45.26587" lon="6.16723">
        <ele>2497.3</ele>
        <time>2020-02-09T10:13:09Z</time>
      </trkpt>
      <trkpt lat="45.26586" lon="6.16722">
        <ele>2497.3</ele>
        <time>2020-02-09T10:13:17Z</time>
      </trkpt>
      <trkpt lat="45.26586" lon="6.16722">
        <ele>2497.3</ele>
        <time>2020-02-09T10:13:26Z</time>
      </trkpt>
      <trkpt lat="45.26586" lon="6.16721">
        <ele>2498.8</ele>
        <time>2020-02-09T10:14:06Z</time>
      </trkpt>
      <trkpt lat="45.26585" lon="6.1672">
        <ele>2498.8</ele>
        <time>2020-02-09T10:14:32Z</time>
      </trkpt>
      <trkpt lat="45.26585" lon="6.1672">
        <ele>2498.8</ele>
        <time>2020-02-09T10:15:17Z</time>
      </trkpt>
      <trkpt lat="45.26585" lon="6.16719">
        <ele>2501.6</ele>
        <time>2020-02-09T10:15:34Z</time>
      </trkpt>
      <trkpt lat="45.26584" lon="6.16718">
        <ele>2501.6</ele>
        <time>2020-02-09T10:15:56Z</time>
      </trkpt>
      <trkpt lat="45.26584" lon="6.16718">
        <ele>2501.6</ele>
        <time>2020-02-09T10:16:04Z</time>
      </trkpt>
      <trkpt lat="45.26584" lon="6.16717">
        <ele>2501.6</ele>
        <time>2020-02-09T10:16:31Z</time>
      </trkpt>
      <trkpt lat="45.26583" lon="6.16717">
        <ele>2501.6</ele>
        <time>2020-02-09T10:16:53Z</time>
      </trkpt>
      <trkpt lat="45.26583" lon="6.16716">
        <ele>2501.6</ele>
        <time>2020-02-09T10:17:01Z</time>
      </trkpt>
      <trkpt lat="45.26583" lon="6.16715">
        <ele>2503.1</ele>
        <time>2020-02-09T10:17:06Z</time>
      </trkpt>
      <trkpt lat="45.26582" lon="6.16715">
        <ele>2506</ele>
        <time>2020-02-09T10:17:21Z</time>
      </trkpt>
      <trkpt lat="45.26582" lon="6.16714">
        <ele>2506</ele>
        <time>2020-02-09T10:17:52Z</time>
      </trkpt>
      <trkpt lat="45.26582" lon="6.16714">
        <ele>2506</ele>
        <time>2020-02-09T10:18:27Z</time>
      </trkpt>
      <trkpt lat="45.26581" lon="6.16713">
        <ele>2506</ele>
        <time>2020-02-09T10:19:02Z</time>
      </trkpt>
      <trkpt lat="45.26581" lon="6.16712">
        <ele>2506</ele>
        <time>2020-02-09T10:19:41Z</time>
      </trkpt>
      <trkpt lat="45.26581" lon="6.16712">
        <ele>2506</ele>
        <time>2020-02-09T10:19:54Z</time>
      </trkpt>
      <trkpt lat="45.2658" lon="6.16711">
        <ele>2506</ele>
        <time>2020-02-09T10:20:02Z</time>
      </trkpt>
      <trkpt lat="45.2658" lon="6.1671">
        <ele>2508.9</ele>
        <time>2020-02-09T10:20:15Z</time>
      </trkpt>
      <trkpt lat="45.26579" lon="6.1671">
        <ele>2510.4</ele>
        <time>2020-02-09T10:20:19Z</time>
      </trkpt>
      <trkpt lat="45.26579" lon="6.16709">
        <ele>2510.4</ele>
        <time>2020-02-09T10:20:41Z</time>
      </trkpt>
      <trkpt lat="45.26579" lon="6.16709">
        <ele>2510.4</ele>
        <time>2020-02-09T10:20:59Z</time>
      </trkpt>
      <trkpt lat="45.26578" lon="6.16708">
        <ele>2510.4</ele>
        <time>2020-02-09T10:21:19Z</time>
      </trkpt>
      <trkpt lat="45.26578" lon="6.16707">
        <ele>2510.4</ele>
        <time>2020-02-09T10:21:27Z</time>
      </trkpt>
      <trkpt lat="45.26578" lon="6.16707">
        <ele>2510.4</ele>
        <time>2020-02-09T10:21:30Z</time>
      </trkpt>
      <trkpt lat="45.26577" lon="6.16706">
        <ele>2513.5</ele>
        <time>2020-02-09T10:21:45Z</time>
      </trkpt>
      <trkpt lat="45.26577" lon="6.16706">
        <ele>2513.5</ele>
        <time>2020-02-09T10:21:59Z</time>
      </trkpt>
      <trkpt lat="45.26577" lon="6.16705">
        <ele>2513.5</ele>
        <time>2020-02-09T10:22:02Z</time>
      </trkpt>
      <trkpt lat="45.26576" lon="6.16704">
        <ele>2514.8</ele>
        <time>2020-02-09T10:22:04Z</time>
      </trkpt>
      <trkpt lat="45.26576" lon="6.16704">
        <ele>2514.8</ele>
        <time>2020-02-09T10:22:10Z</time>
      </trkpt>
      <trkpt lat="45.26576" lon="6.16703">
        <ele>2514.8</ele>
        <time>2020-02-09T10:22:14Z</time>
      </trkpt>
      <trkpt lat="45.26575" lon="6.16702">
        <ele>2514.8</ele>
        <time>2020-02-09T10:22:19Z</time>
      </trkpt>
      <trkpt lat="45.26575" lon="6.16702">
        <ele>2518.2</ele>
        <time>2020-02-09T10:22:41Z</time>
      </trkpt>
      <trkpt lat="45.26575" lon="6.16701">
        <ele>2518.2</ele>
        <time>2020-02-09T10:22:42Z</time>
      </trkpt>
      <trkpt lat="45.26577" lon="6.16704">
        <ele>2513.5</ele>
        <time>2020-02-09T10:22:45Z</time>
      </trkpt>
      <trkpt lat="45.26579" lon="6.16701">
        <ele>2516.9</ele>
        <time>2020-02-09T10:23:19Z</time>
      </trkpt>
      <trkpt lat="45.26581" lon="6.16699">
        <ele>2515.4</ele>
        <time>2020-02-09T10:23:33Z</time>
      </trkpt>
      <trkpt lat="45.26582" lon="6.16703">
        <ele>2512.1</ele>
        <time>2020-02-09T10:23:52Z</time>
      </trkpt>
      <trkpt lat="45.2658" lon="6.16706">
        <ele>2512.1</ele>
        <time>2020-02-09T10:24:05Z</time>
      </trkpt>
      <trkpt lat="45.26578" lon="6.16708">
        <ele>2510.4</ele>
        <time>2020-02-09T10:24:28Z</time>
      </trkpt>
      <trkpt lat="45.2658" lon="6.16705">
        <ele>2512.1</ele>
        <time>2020-02-09T10:25:12Z</time>
      </trkpt>
      <trkpt lat="45.2658" lon="6.16701">
        <ele>2515.4</ele>
        <time>2020-02-09T10:25:33Z</time>
      </trkpt>
      <trkpt lat="45.26578" lon="6.16697">
        <ele>2520.5</ele>
        <time>2020-02-09T10:25:39Z</time>
      </trkpt>
      <trkpt lat="45.26576" lon="6.167">
        <ele>2518.2</ele>
        <time>2020-02-09T10:25:51Z</time>
      </trkpt>
      <trkpt lat="45.26575" lon="6.16704">
        <ele>2514.8</ele>
        <time>2020-02-09T10:25:54Z</time>
      </trkpt>
      <trkpt lat="45.26572" lon="6.16704">
        <ele>2515.9</ele>
        <time>2020-02-09T10:26:03Z</time>
      </trkpt>
      <trkpt lat="45.26569" lon="6.16703">
        <ele>2516.9</ele>
        <time>2020-02-09T10:26:07Z</time>
      </trkpt>
      <trkpt lat="45.26572" lon="6.16704">
        <ele>2515.9</ele>
        <time>2020-02-09T10:26:24Z</time>
      </trkpt>
      <trkpt lat="45.26575" lon="6.16706">
        <ele>2514.8</ele>
        <time>2020-02-09T10:26:35Z</time>
      </trkpt>
      <trkpt lat="45.26578" lon="6.16704">
        <ele>2513.5</ele>
        <time>2020-02-09T10:26:40Z</time>
      </trkpt>
      <trkpt lat="45.26579" lon="6.167">
        <ele>2516.9</ele>
        <time>2020-02-09T10:26:44Z</time>
      </trkpt>
      <trkpt lat="45.26581" lon="6.16701">
        <ele>2515.4</ele>
        <time>2020-02-09T10:27:36Z</time>
      </trkpt>
      <trkpt lat="45.26582" lon="6.16697">
        <ele>2519.1</ele>
        <time>2020-02-09T10:27:54Z</time>
      </trkpt>
      <trkpt lat="45.26581" lon="6.16701">
        <ele>2515.4</ele>
        <time>2020-02-09T10:28:50Z</time>
      </trkpt>
      <trkpt lat="45.26584" lon="6.16699">
        <ele>2513.9</ele>
        <time>2020-02-09T10:29:26Z</time>
      </trkpt>
      <trkpt lat="45.26582" lon="6.16702">
        <ele>2512.1</ele>
        <time>2020-02-09T10:29:43Z</time>
      </trkpt>
      <trkpt lat="45.26581" lon="6.16698">
        <ele>2515.4</ele>
        <time>2020-02-09T10:30:17Z</time>
      </trkpt>
      <trkpt lat="45.2658" lon="6.16702">
        <ele>2512.1</ele>
        <time>2020-02-09T10:31:17Z</time>
      </trkpt>
      <trkpt lat="45.2658" lon="6.16706">
        <ele>2512.1</ele>
        <time>2020-02-09T10:31:53Z</time>
      </trkpt>
      <trkpt lat="45.26583" lon="6.16707">
        <ele>2507.4</ele>
        <time>2020-02-09T10:32:02Z</time>
      </trkpt>
      <trkpt lat="45.2658" lon="6.16709">
        <ele>2508.9</ele>
        <time>2020-02-09T10:32:17Z</time>
      </trkpt>
      <trkpt lat="45.26577" lon="6.16707">
        <ele>2510.4</ele>
        <time>2020-02-09T10:32:21Z</time>
      </trkpt>
      <trkpt lat="45.26575" lon="6.16702">
        <ele>2518.2</ele>
        <time>2020-02-09T10:32:30Z</time>
      </trkpt>
      <trkpt lat="45.26575" lon="6.16698">
        <ele>2521.8</ele>
        <time>2020-02-09T10:32:37Z</time>
      </trkpt>
      <trkpt lat="45.26574" lon="6.16702">
        <ele>2518.2</ele>
        <time>2020-02-09T10:32:41Z</time>
      </trkpt>
      <trkpt lat="45.26571" lon="6.16702">
        <ele>2519.3</ele>
        <time>2020-02-09T10:32:48Z</time>
      </trkpt>
      <trkpt lat="45.26569" lon="6.16699">
        <ele>2520.3</ele>
        <time>2020-02-09T10:32:51Z</time>
      </trkpt>
      <trkpt lat="45.26569" lon="6.16694">
        <ele>2523.9</ele>
        <time>2020-02-09T10:33:02Z</time>
      </trkpt>
      <trkpt lat="45.26567" lon="6.16691">
        <ele>2528.7</ele>
        <time>2020-02-09T10:33:13Z</time>
      </trkpt>
      <trkpt lat="45.2657" lon="6.16688">
        <ele>2531.5</ele>
        <time>2020-02-09T10:33:16Z</time>
      </trkpt>
      <trkpt lat="45.2657" lon="6.16684">
        <ele>2535.2</ele>
        <time>2020-02-09T10:33:22Z</time>
      </trkpt>
      <trkpt lat="45.26569" lon="6.16681">
        <ele>2538.8</ele>
        <time>2020-02-09T10:33:33Z</time>
      </trkpt>
      <trkpt lat="45.26569" lon="6.16677">
        <ele>2538.8</ele>
        <time>2020-02-09T10:33:43Z</time>
      </trkpt>
      <trkpt lat="45.26566" lon="6.16677">
        <ele>2539.7</ele>
        <time>2020-02-09T10:33:51Z</time>
      </trkpt>
      <trkpt lat="45.26566" lon="6.16681">
        <ele>2536.1</ele>
        <time>2020-02-09T10:33:55Z</time>
      </trkpt>
      <trkpt lat="45.26564" lon="6.16684">
        <ele>2537.1</ele>
        <time>2020-02-09T10:34:08Z</time>
      </trkpt>
      <trkpt lat="45.26561" lon="6.16688">
        <ele>2534.6</ele>
        <time>2020-02-09T10:34:14Z</time>
      </trkpt>
      <trkpt lat="45.26559" lon="6.16686">
        <ele>2534.6</ele>
        <time>2020-02-09T10:34:26Z</time>
      </trkpt>
      <trkpt lat="45.26558" lon="6.16681">
        <ele>2539.2</ele>
        <time>2020-02-09T10:34:33Z</time>
      </trkpt>
      <trkpt lat="45.26556" lon="6.16678">
        <ele>2542.7</ele>
        <time>2020-02-09T10:34:38Z</time>
      </trkpt>
      <trkpt lat="45.26553" lon="6.16678">
        <ele>2543.7</ele>
        <time>2020-02-09T10:34:54Z</time>
      </trkpt>
      <trkpt lat="45.26552" lon="6.16674">
        <ele>2547.8</ele>
        <time>2020-02-09T10:35:06Z</time>
      </trkpt>
      <trkpt lat="45.2655" lon="6.16671">
        <ele>2551.1</ele>
        <time>2020-02-09T10:35:12Z</time>
      </trkpt>
      <trkpt lat="45.26552" lon="6.16669">
        <ele>2550.4</ele>
        <time>2020-02-09T10:35:21Z</time>
      </trkpt>
      <trkpt lat="45.26551" lon="6.16664">
        <ele>2554.4</ele>
        <time>2020-02-09T10:35:28Z</time>
      </trkpt>
      <trkpt lat="45.26552" lon="6.16661">
        <ele>2557.1</ele>
        <time>2020-02-09T10:35:34Z</time>
      </trkpt>
      <trkpt lat="45.26552" lon="6.16656">
        <ele>2561.2</ele>
        <time>2020-02-09T10:35:44Z</time>
      </trkpt>
      <trkpt lat="45.26551" lon="6.16652">
        <ele>2564.6</ele>
        <time>2020-02-09T10:36:19Z</time>
      </trkpt>
      <trkpt lat="45.26551" lon="6.16648">
        <ele>2568.1</ele>
        <time>2020-02-09T10:36:24Z</time>
      </trkpt>
      <trkpt lat="45.26548" lon="6.16646">
        <ele>2572</ele>
        <time>2020-02-09T10:36:36Z</time>
      </trkpt>
      <trkpt lat="45.26551" lon="6.16648">
        <ele>2568.1</ele>
        <time>2020-02-09T10:37:04Z</time>
      </trkpt>
      <trkpt lat="45.26548" lon="6.16649">
        <ele>2568.6</ele>
        <time>2020-02-09T10:37:38Z</time>
      </trkpt>
      <trkpt lat="45.26547" lon="6.16646">
        <ele>2572</ele>
        <time>2020-02-09T10:37:57Z</time>
      </trkpt>
      <trkpt lat="45.26544" lon="6.16644">
        <ele>2572.4</ele>
        <time>2020-02-09T10:38:08Z</time>
      </trkpt>
      <trkpt lat="45.26544" lon="6.1664">
        <ele>2575.8</ele>
        <time>2020-02-09T10:38:16Z</time>
      </trkpt>
      <trkpt lat="45.26547" lon="6.16641">
        <ele>2575.5</ele>
        <time>2020-02-09T10:38:25Z</time>
      </trkpt>
      <trkpt lat="45.26546" lon="6.16636">
        <ele>2579.1</ele>
        <time>2020-02-09T10:38:35Z</time>
      </trkpt>
      <trkpt lat="45.26548" lon="6.16633">
        <ele>2581.8</ele>
        <time>2020-02-09T10:38:41Z</time>
      </trkpt>
      <trkpt lat="45.26548" lon="6.16628">
        <ele>2584.6</ele>
        <time>2020-02-09T10:38:45Z</time>
      </trkpt>
      <trkpt lat="45.26549" lon="6.16623">
        <ele>2587.3</ele>
        <time>2020-02-09T10:38:57Z</time>
      </trkpt>
      <trkpt lat="45.26548" lon="6.16619">
        <ele>2589.8</ele>
        <time>2020-02-09T10:39:01Z</time>
      </trkpt>
      <trkpt lat="45.26551" lon="6.16617">
        <ele>2589.3</ele>
        <time>2020-02-09T10:39:16Z</time>
      </trkpt>
      <trkpt lat="45.26548" lon="6.16619">
        <ele>2589.8</ele>
        <time>2020-02-09T10:39:30Z</time>
      </trkpt>
      <trkpt lat="45.26547" lon="6.16622">
        <ele>2587.3</ele>
        <time>2020-02-09T10:39:59Z</time>
      </trkpt>
      <trkpt lat="45.26543" lon="6.16623">
        <ele>2587.7</ele>
        <time>2020-02-09T10:40:04Z</time>
      </trkpt>
      <trkpt lat="45.26541" lon="6.16622">
        <ele>2588</ele>
        <time>2020-02-09T10:40:27Z</time>
      </trkpt>
      <trkpt lat="45.26538" lon="6.16623">
        <ele>2588.3</ele>
        <time>2020-02-09T10:40:38Z</time>
      </trkpt>
      <trkpt lat="45.2654" lon="6.1662">
        <ele>2590.9</ele>
        <time>2020-02-09T10:40:56Z</time>
      </trkpt>
      <trkpt lat="45.26541" lon="6.16617">
        <ele>2590.6</ele>
        <time>2020-02-09T10:41:07Z</time>
      </trkpt>
      <trkpt lat="45.26541" lon="6.16612">
        <ele>2593.2</ele>
        <time>2020-02-09T10:41:27Z</time>
      </trkpt>
      <trkpt lat="45.26542" lon="6.16609">
        <ele>2595.8</ele>
        <time>2020-02-09T10:41:39Z</time>
      </trkpt>
      <trkpt lat="45.26544" lon="6.16605">
        <ele>2598</ele>
        <time>2020-02-09T10:41:48Z</time>
      </trkpt>
      <trkpt lat="45.26541" lon="6.16604">
        <ele>2598.4</ele>
        <time>2020-02-09T10:42:08Z</time>
      </trkpt>
      <trkpt lat="45.26543" lon="6.166">
        <ele>2600.9</ele>
        <time>2020-02-09T10:42:20Z</time>
      </trkpt>
      <trkpt lat="45.26541" lon="6.16603">
        <ele>2600.9</ele>
        <time>2020-02-09T10:42:25Z</time>
      </trkpt>
      <trkpt lat="45.26538" lon="6.16605">
        <ele>2598.7</ele>
        <time>2020-02-09T10:42:38Z</time>
      </trkpt>
      <trkpt lat="45.26541" lon="6.16602">
        <ele>2600.9</ele>
        <time>2020-02-09T10:43:04Z</time>
      </trkpt>
      <trkpt lat="45.26542" lon="6.16599">
        <ele>2603.3</ele>
        <time>2020-02-09T10:43:08Z</time>
      </trkpt>
      <trkpt lat="45.26542" lon="6.16595">
        <ele>2603.3</ele>
        <time>2020-02-09T10:43:13Z</time>
      </trkpt>
      <trkpt lat="45.26543" lon="6.16591">
        <ele>2605.1</ele>
        <time>2020-02-09T10:43:28Z</time>
      </trkpt>
      <trkpt lat="45.26547" lon="6.1659">
        <ele>2606.7</ele>
        <time>2020-02-09T10:43:32Z</time>
      </trkpt>
      <trkpt lat="45.26549" lon="6.16588">
        <ele>2606.7</ele>
        <time>2020-02-09T10:43:35Z</time>
      </trkpt>
      <trkpt lat="45.26551" lon="6.16586">
        <ele>2606</ele>
        <time>2020-02-09T10:43:42Z</time>
      </trkpt>
      <trkpt lat="45.26554" lon="6.16583">
        <ele>2607</ele>
        <time>2020-02-09T10:43:46Z</time>
      </trkpt>
      <trkpt lat="45.26551" lon="6.16585">
        <ele>2607.9</ele>
        <time>2020-02-09T10:43:56Z</time>
      </trkpt>
      <trkpt lat="45.26548" lon="6.16586">
        <ele>2606.7</ele>
        <time>2020-02-09T10:44:00Z</time>
      </trkpt>
      <trkpt lat="45.26544" lon="6.16586">
        <ele>2609.2</ele>
        <time>2020-02-09T10:44:01Z</time>
      </trkpt>
      <trkpt lat="45.26541" lon="6.16584">
        <ele>2609.6</ele>
        <time>2020-02-09T10:44:23Z</time>
      </trkpt>
      <trkpt lat="45.26543" lon="6.16582">
        <ele>2611.5</ele>
        <time>2020-02-09T10:44:33Z</time>
      </trkpt>
      <trkpt lat="45.26547" lon="6.16584">
        <ele>2608.6</ele>
        <time>2020-02-09T10:44:36Z</time>
      </trkpt>
      <trkpt lat="45.26548" lon="6.1658">
        <ele>2610.5</ele>
        <time>2020-02-09T10:44:41Z</time>
      </trkpt>
      <trkpt lat="45.26546" lon="6.16577">
        <ele>2612.9</ele>
        <time>2020-02-09T10:44:59Z</time>
      </trkpt>
      <trkpt lat="45.26549" lon="6.16575">
        <ele>2612.3</ele>
        <time>2020-02-09T10:45:11Z</time>
      </trkpt>
      <trkpt lat="45.26551" lon="6.16571">
        <ele>2613.2</ele>
        <time>2020-02-09T10:45:16Z</time>
      </trkpt>
      <trkpt lat="45.26551" lon="6.16567">
        <ele>2614.9</ele>
        <time>2020-02-09T10:45:25Z</time>
      </trkpt>
      <trkpt lat="45.26551" lon="6.16563">
        <ele>2616.6</ele>
        <time>2020-02-09T10:45:32Z</time>
      </trkpt>
      <trkpt lat="45.26554" lon="6.16559">
        <ele>2617.3</ele>
        <time>2020-02-09T10:45:39Z</time>
      </trkpt>
      <trkpt lat="45.26556" lon="6.16561">
        <ele>2614.4</ele>
        <time>2020-02-09T10:45:52Z</time>
      </trkpt>
      <trkpt lat="45.26555" lon="6.16558">
        <ele>2617.3</ele>
        <time>2020-02-09T10:46:05Z</time>
      </trkpt>
      <trkpt lat="45.26557" lon="6.16556">
        <ele>2617.5</ele>
        <time>2020-02-09T10:46:25Z</time>
      </trkpt>
      <trkpt lat="45.26556" lon="6.16559">
        <ele>2616</ele>
        <time>2020-02-09T10:46:40Z</time>
      </trkpt>
      <trkpt lat="45.26553" lon="6.16562">
        <ele>2615.6</ele>
        <time>2020-02-09T10:46:50Z</time>
      </trkpt>
      <trkpt lat="45.26552" lon="6.16566">
        <ele>2614.9</ele>
        <time>2020-02-09T10:46:53Z</time>
      </trkpt>
      <trkpt lat="45.26551" lon="6.1657">
        <ele>2613.2</ele>
        <time>2020-02-09T10:47:16Z</time>
      </trkpt>
      <trkpt lat="45.26548" lon="6.16568">
        <ele>2615.7</ele>
        <time>2020-02-09T10:47:33Z</time>
      </trkpt>
      <trkpt lat="45.2655" lon="6.16565">
        <ele>2614.9</ele>
        <time>2020-02-09T10:48:25Z</time>
      </trkpt>
      <trkpt lat="45.26551" lon="6.1656">
        <ele>2618.3</ele>
        <time>2020-02-09T10:48:28Z</time>
      </trkpt>
      <trkpt lat="45.26553" lon="6.16562">
        <ele>2615.6</ele>
        <time>2020-02-09T10:48:34Z</time>
      </trkpt>
      <trkpt lat="45.26553" lon="6.16558">
        <ele>2617.3</ele>
        <time>2020-02-09T10:48:42Z</time>
      </trkpt>
      <trkpt lat="45.26553" lon="6.16554">
        <ele>2618.8</ele>
        <time>2020-02-09T10:48:52Z</time>
      </trkpt>
      <trkpt lat="45.26555" lon="6.16551">
        <ele>2620.3</ele>
        <time>2020-02-09T10:48:58Z</time>
      </trkpt>
      <trkpt lat="45.26557" lon="6.16554">
        <ele>2617.5</ele>
        <time>2020-02-09T10:49:07Z</time>
      </trkpt>
      <trkpt lat="45.26559" lon="6.16557">
        <ele>2614.6</ele>
        <time>2020-02-09T10:49:17Z</time>
      </trkpt>
      <trkpt lat="45.26557" lon="6.16561">
        <ele>2614.4</ele>
        <time>2020-02-09T10:49:21Z</time>
      </trkpt>
      <trkpt lat="45.26554" lon="6.1658">
        <ele>2608.8</ele>
        <time>2020-02-09T10:51:06Z</time>
      </trkpt>
      <trkpt lat="45.26551" lon="6.16586">
        <ele>2606</ele>
        <time>2020-02-09T10:51:08Z</time>
      </trkpt>
      <trkpt lat="45.2655" lon="6.1659">
        <ele>2606</ele>
        <time>2020-02-09T10:51:09Z</time>
      </trkpt>
      <trkpt lat="45.26549" lon="6.16595">
        <ele>2602.4</ele>
        <time>2020-02-09T10:51:11Z</time>
      </trkpt>
      <trkpt lat="45.26548" lon="6.16591">
        <ele>2604.6</ele>
        <time>2020-02-09T10:51:12Z</time>
      </trkpt>
      <trkpt lat="45.26546" lon="6.16586">
        <ele>2609.2</ele>
        <time>2020-02-09T10:51:14Z</time>
      </trkpt>
      <trkpt lat="45.26544" lon="6.16583">
        <ele>2609.2</ele>
        <time>2020-02-09T10:51:16Z</time>
      </trkpt>
      <trkpt lat="45.2654" lon="6.16583">
        <ele>2609.6</ele>
        <time>2020-02-09T10:51:19Z</time>
      </trkpt>
      <trkpt lat="45.26538" lon="6.16586">
        <ele>2610</ele>
        <time>2020-02-09T10:51:21Z</time>
      </trkpt>
      <trkpt lat="45.26536" lon="6.16589">
        <ele>2608.3</ele>
        <time>2020-02-09T10:51:24Z</time>
      </trkpt>
      <trkpt lat="45.26537" lon="6.16586">
        <ele>2610.4</ele>
        <time>2020-02-09T10:51:34Z</time>
      </trkpt>
      <trkpt lat="45.2654" lon="6.16584">
        <ele>2610</ele>
        <time>2020-02-09T10:51:46Z</time>
      </trkpt>
      <trkpt lat="45.26543" lon="6.16582">
        <ele>2609.6</ele>
        <time>2020-02-09T10:51:52Z</time>
      </trkpt>
      <trkpt lat="45.2654" lon="6.16585">
        <ele>2610</ele>
        <time>2020-02-09T10:52:00Z</time>
      </trkpt>
      <trkpt lat="45.26538" lon="6.16588">
        <ele>2608</ele>
        <time>2020-02-09T10:52:04Z</time>
      </trkpt>
      <trkpt lat="45.26536" lon="6.16591">
        <ele>2606.2</ele>
        <time>2020-02-09T10:52:08Z</time>
      </trkpt>
      <trkpt lat="45.26539" lon="6.16592">
        <ele>2605.9</ele>
        <time>2020-02-09T10:52:25Z</time>
      </trkpt>
      <trkpt lat="45.26539" lon="6.16588">
        <ele>2608</ele>
        <time>2020-02-09T10:52:43Z</time>
      </trkpt>
      <trkpt lat="45.26539" lon="6.16584">
        <ele>2610</ele>
        <time>2020-02-09T10:52:51Z</time>
      </trkpt>
      <trkpt lat="45.26537" lon="6.16587">
        <ele>2608.3</ele>
        <time>2020-02-09T10:52:59Z</time>
      </trkpt>
      <trkpt lat="45.26534" lon="6.16587">
        <ele>2608.3</ele>
        <time>2020-02-09T10:53:08Z</time>
      </trkpt>
      <trkpt lat="45.26537" lon="6.16586">
        <ele>2610.4</ele>
        <time>2020-02-09T10:53:38Z</time>
      </trkpt>
      <trkpt lat="45.26537" lon="6.16582">
        <ele>2610.4</ele>
        <time>2020-02-09T10:53:43Z</time>
      </trkpt>
      <trkpt lat="45.26539" lon="6.16586">
        <ele>2610</ele>
        <time>2020-02-09T10:53:48Z</time>
      </trkpt>
      <trkpt lat="45.26541" lon="6.16582">
        <ele>2609.6</ele>
        <time>2020-02-09T10:54:16Z</time>
      </trkpt>
      <trkpt lat="45.26543" lon="6.1658">
        <ele>2611.5</ele>
        <time>2020-02-09T10:54:36Z</time>
      </trkpt>
      <trkpt lat="45.26547" lon="6.16579">
        <ele>2610.5</ele>
        <time>2020-02-09T10:54:39Z</time>
      </trkpt>
      <trkpt lat="45.2655" lon="6.16578">
        <ele>2609.8</ele>
        <time>2020-02-09T10:54:44Z</time>
      </trkpt>
      <trkpt lat="45.26548" lon="6.16575">
        <ele>2612.3</ele>
        <time>2020-02-09T10:55:03Z</time>
      </trkpt>
      <trkpt lat="45.26547" lon="6.16571">
        <ele>2614</ele>
        <time>2020-02-09T10:55:36Z</time>
      </trkpt>
      <trkpt lat="45.26546" lon="6.16566">
        <ele>2616.4</ele>
        <time>2020-02-09T10:55:40Z</time>
      </trkpt>
      <trkpt lat="45.26548" lon="6.16563">
        <ele>2617.5</ele>
        <time>2020-02-09T10:55:46Z</time>
      </trkpt>
      <trkpt lat="45.26551" lon="6.16561">
        <ele>2616.6</ele>
        <time>2020-02-09T10:55:55Z</time>
      </trkpt>
      <trkpt lat="45.26552" lon="6.16557">
        <ele>2618.3</ele>
        <time>2020-02-09T10:56:05Z</time>
      </trkpt>
      <trkpt lat="45.26548" lon="6.16557">
        <ele>2619.2</ele>
        <time>2020-02-09T10:56:12Z</time>
      </trkpt>
      <trkpt lat="45.26546" lon="6.16559">
        <ele>2619.9</ele>
        <time>2020-02-09T10:56:28Z</time>
      </trkpt>
      <trkpt lat="45.26543" lon="6.16559">
        <ele>2620.6</ele>
        <time>2020-02-09T10:56:37Z</time>
      </trkpt>
      <trkpt lat="45.26543" lon="6.16563">
        <ele>2618.7</ele>
        <time>2020-02-09T10:56:55Z</time>
      </trkpt>
      <trkpt lat="45.26544" lon="6.16566">
        <ele>2616.4</ele>
        <time>2020-02-09T10:57:00Z</time>
      </trkpt>
      <trkpt lat="45.26543" lon="6.16563">
        <ele>2618.7</ele>
        <time>2020-02-09T10:57:17Z</time>
      </trkpt>
      <trkpt lat="45.26545" lon="6.16559">
        <ele>2619.9</ele>
        <time>2020-02-09T10:57:31Z</time>
      </trkpt>
      <trkpt lat="45.26545" lon="6.16555">
        <ele>2621.7</ele>
        <time>2020-02-09T10:57:42Z</time>
      </trkpt>
      <trkpt lat="45.26545" lon="6.1656">
        <ele>2619.9</ele>
        <time>2020-02-09T10:57:52Z</time>
      </trkpt>
      <trkpt lat="45.26543" lon="6.16555">
        <ele>2622.4</ele>
        <time>2020-02-09T10:58:00Z</time>
      </trkpt>
      <trkpt lat="45.26546" lon="6.16553">
        <ele>2621.7</ele>
        <time>2020-02-09T10:58:21Z</time>
      </trkpt>
      <trkpt lat="45.26545" lon="6.16548">
        <ele>2623.3</ele>
        <time>2020-02-09T10:58:25Z</time>
      </trkpt>
      <trkpt lat="45.26549" lon="6.16549">
        <ele>2622.5</ele>
        <time>2020-02-09T10:59:04Z</time>
      </trkpt>
      <trkpt lat="45.26551" lon="6.16545">
        <ele>2622.9</ele>
        <time>2020-02-09T10:59:07Z</time>
      </trkpt>
      <trkpt lat="45.26547" lon="6.16544">
        <ele>2624</ele>
        <time>2020-02-09T10:59:16Z</time>
      </trkpt>
      <trkpt lat="45.26545" lon="6.16546">
        <ele>2624.9</ele>
        <time>2020-02-09T10:59:37Z</time>
      </trkpt>
      <trkpt lat="45.26544" lon="6.16549">
        <ele>2623.3</ele>
        <time>2020-02-09T10:59:42Z</time>
      </trkpt>
      <trkpt lat="45.26539" lon="6.16551">
        <ele>2624.8</ele>
        <time>2020-02-09T11:00:14Z</time>
      </trkpt>
      <trkpt lat="45.26537" lon="6.16555">
        <ele>2623.6</ele>
        <time>2020-02-09T11:00:24Z</time>
      </trkpt>
      <trkpt lat="45.26535" lon="6.16557">
        <ele>2621.7</ele>
        <time>2020-02-09T11:00:31Z</time>
      </trkpt>
      <trkpt lat="45.26532" lon="6.1656">
        <ele>2622.2</ele>
        <time>2020-02-09T11:00:34Z</time>
      </trkpt>
      <trkpt lat="45.2653" lon="6.16563">
        <ele>2620.6</ele>
        <time>2020-02-09T11:00:37Z</time>
      </trkpt>
      <trkpt lat="45.26533" lon="6.16561">
        <ele>2620.2</ele>
        <time>2020-02-09T11:00:57Z</time>
      </trkpt>
      <trkpt lat="45.26534" lon="6.16557">
        <ele>2622.2</ele>
        <time>2020-02-09T11:01:11Z</time>
      </trkpt>
      <trkpt lat="45.26537" lon="6.16555">
        <ele>2623.6</ele>
        <time>2020-02-09T11:01:28Z</time>
      </trkpt>
      <trkpt lat="45.26534" lon="6.16553">
        <ele>2624.2</ele>
        <time>2020-02-09T11:01:49Z</time>
      </trkpt>
      <trkpt lat="45.26533" lon="6.16557">
        <ele>2622.2</ele>
        <time>2020-02-09T11:01:55Z</time>
      </trkpt>
      <trkpt lat="45.26531" lon="6.1656">
        <ele>2622.6</ele>
        <time>2020-02-09T11:01:58Z</time>
      </trkpt>
      <trkpt lat="45.26528" lon="6.1656">
        <ele>2622.9</ele>
        <time>2020-02-09T11:02:07Z</time>
      </trkpt>
      <trkpt lat="45.26527" lon="6.16557">
        <ele>2622.9</ele>
        <time>2020-02-09T11:02:23Z</time>
      </trkpt>
      <trkpt lat="45.26525" lon="6.16553">
        <ele>2625.3</ele>
        <time>2020-02-09T11:02:30Z</time>
      </trkpt>
      <trkpt lat="45.26521" lon="6.16551">
        <ele>2627.7</ele>
        <time>2020-02-09T11:02:33Z</time>
      </trkpt>
      <trkpt lat="45.26519" lon="6.16549">
        <ele>2627.8</ele>
        <time>2020-02-09T11:02:38Z</time>
      </trkpt>
      <trkpt lat="45.26522" lon="6.16552">
        <ele>2625.5</ele>
        <time>2020-02-09T11:02:46Z</time>
      </trkpt>
      <trkpt lat="45.26526" lon="6.16554">
        <ele>2625</ele>
        <time>2020-02-09T11:02:48Z</time>
      </trkpt>
      <trkpt lat="45.26529" lon="6.16555">
        <ele>2624.6</ele>
        <time>2020-02-09T11:02:55Z</time>
      </trkpt>
      <trkpt lat="45.26529" lon="6.1655">
        <ele>2626.6</ele>
        <time>2020-02-09T11:03:24Z</time>
      </trkpt>
      <trkpt lat="45.2653" lon="6.16546">
        <ele>2628.5</ele>
        <time>2020-02-09T11:03:28Z</time>
      </trkpt>
      <trkpt lat="45.26533" lon="6.16544">
        <ele>2627.9</ele>
        <time>2020-02-09T11:03:32Z</time>
      </trkpt>
      <trkpt lat="45.26535" lon="6.16542">
        <ele>2628.8</ele>
        <time>2020-02-09T11:03:36Z</time>
      </trkpt>
      <trkpt lat="45.26537" lon="6.16539">
        <ele>2630.2</ele>
        <time>2020-02-09T11:03:44Z</time>
      </trkpt>
      <trkpt lat="45.26538" lon="6.16535">
        <ele>2629.3</ele>
        <time>2020-02-09T11:03:52Z</time>
      </trkpt>
      <trkpt lat="45.26539" lon="6.16531">
        <ele>2630.6</ele>
        <time>2020-02-09T11:03:57Z</time>
      </trkpt>
      <trkpt lat="45.26538" lon="6.16534">
        <ele>2630.6</ele>
        <time>2020-02-09T11:04:43Z</time>
      </trkpt>
      <trkpt lat="45.26537" lon="6.16538">
        <ele>2630.2</ele>
        <time>2020-02-09T11:04:54Z</time>
      </trkpt>
      <trkpt lat="45.26538" lon="6.16534">
        <ele>2630.6</ele>
        <time>2020-02-09T11:05:20Z</time>
      </trkpt>
      <trkpt lat="45.26539" lon="6.1653">
        <ele>2631.9</ele>
        <time>2020-02-09T11:07:20Z</time>
      </trkpt>
      <trkpt lat="45.26537" lon="6.16527">
        <ele>2632.9</ele>
        <time>2020-02-09T11:07:50Z</time>
      </trkpt>
      <trkpt lat="45.26536" lon="6.16523">
        <ele>2634.3</ele>
        <time>2020-02-09T11:08:05Z</time>
      </trkpt>
      <trkpt lat="45.26535" lon="6.1652">
        <ele>2635.5</ele>
        <time>2020-02-09T11:08:09Z</time>
      </trkpt>
      <trkpt lat="45.26534" lon="6.16515">
        <ele>2638.1</ele>
        <time>2020-02-09T11:08:13Z</time>
      </trkpt>
      <trkpt lat="45.26532" lon="6.16518">
        <ele>2636.7</ele>
        <time>2020-02-09T11:08:35Z</time>
      </trkpt>
      <trkpt lat="45.26534" lon="6.16516">
        <ele>2638.1</ele>
        <time>2020-02-09T11:08:47Z</time>
      </trkpt>
      <trkpt lat="45.26535" lon="6.16512">
        <ele>2638</ele>
        <time>2020-02-09T11:08:56Z</time>
      </trkpt>
      <trkpt lat="45.26533" lon="6.16514">
        <ele>2638.1</ele>
        <time>2020-02-09T11:09:04Z</time>
      </trkpt>
      <trkpt lat="45.26531" lon="6.16512">
        <ele>2640.6</ele>
        <time>2020-02-09T11:09:11Z</time>
      </trkpt>
      <trkpt lat="45.26531" lon="6.16507">
        <ele>2641.9</ele>
        <time>2020-02-09T11:09:30Z</time>
      </trkpt>
      <trkpt lat="45.26529" lon="6.16504">
        <ele>2643.1</ele>
        <time>2020-02-09T11:09:55Z</time>
      </trkpt>
      <trkpt lat="45.26526" lon="6.16505">
        <ele>2643.1</ele>
        <time>2020-02-09T11:10:09Z</time>
      </trkpt>
      <trkpt lat="45.26524" lon="6.16508">
        <ele>2644</ele>
        <time>2020-02-09T11:10:18Z</time>
      </trkpt>
      <trkpt lat="45.26523" lon="6.16504">
        <ele>2645.4</ele>
        <time>2020-02-09T11:10:45Z</time>
      </trkpt>
      <trkpt lat="45.2652" lon="6.16504">
        <ele>2646.3</ele>
        <time>2020-02-09T11:10:50Z</time>
      </trkpt>
      <trkpt lat="45.26517" lon="6.16503">
        <ele>2647</ele>
        <time>2020-02-09T11:10:57Z</time>
      </trkpt>
      <trkpt lat="45.26518" lon="6.16507">
        <ele>2645.5</ele>
        <time>2020-02-09T11:11:45Z</time>
      </trkpt>
      <trkpt lat="45.26516" lon="6.16504">
        <ele>2647.5</ele>
        <time>2020-02-09T11:11:56Z</time>
      </trkpt>
      <trkpt lat="45.26513" lon="6.16502">
        <ele>2647.5</ele>
        <time>2020-02-09T11:12:00Z</time>
      </trkpt>
      <trkpt lat="45.26513" lon="6.16498">
        <ele>2648.9</ele>
        <time>2020-02-09T11:12:11Z</time>
      </trkpt>
      <trkpt lat="45.26515" lon="6.16494">
        <ele>2650.3</ele>
        <time>2020-02-09T11:12:47Z</time>
      </trkpt>
      <trkpt lat="45.26514" lon="6.16491">
        <ele>2651.5</ele>
        <time>2020-02-09T11:12:56Z</time>
      </trkpt>
      <trkpt lat="45.26511" lon="6.16489">
        <ele>2652</ele>
        <time>2020-02-09T11:13:12Z</time>
      </trkpt>
      <trkpt lat="45.26509" lon="6.16485">
        <ele>2653.6</ele>
        <time>2020-02-09T11:13:22Z</time>
      </trkpt>
      <trkpt lat="45.26511" lon="6.16488">
        <ele>2652</ele>
        <time>2020-02-09T11:13:44Z</time>
      </trkpt>
      <trkpt lat="45.26509" lon="6.16485">
        <ele>2653.6</ele>
        <time>2020-02-09T11:13:52Z</time>
      </trkpt>
      <trkpt lat="45.26507" lon="6.16482">
        <ele>2654.8</ele>
        <time>2020-02-09T11:14:00Z</time>
      </trkpt>
      <trkpt lat="45.26507" lon="6.16478">
        <ele>2656.4</ele>
        <time>2020-02-09T11:14:07Z</time>
      </trkpt>
      <trkpt lat="45.26504" lon="6.16475">
        <ele>2656.4</ele>
        <time>2020-02-09T11:14:16Z</time>
      </trkpt>
      <trkpt lat="45.26504" lon="6.16471">
        <ele>2657.6</ele>
        <time>2020-02-09T11:14:27Z</time>
      </trkpt>
      <trkpt lat="45.26501" lon="6.16469">
        <ele>2659.6</ele>
        <time>2020-02-09T11:14:32Z</time>
      </trkpt>
      <trkpt lat="45.26498" lon="6.16467">
        <ele>2659.6</ele>
        <time>2020-02-09T11:14:44Z</time>
      </trkpt>
      <trkpt lat="45.26497" lon="6.16463">
        <ele>2661.2</ele>
        <time>2020-02-09T11:14:51Z</time>
      </trkpt>
      <trkpt lat="45.26494" lon="6.16462">
        <ele>2661.4</ele>
        <time>2020-02-09T11:15:02Z</time>
      </trkpt>
      <trkpt lat="45.26491" lon="6.1646">
        <ele>2662.8</ele>
        <time>2020-02-09T11:15:11Z</time>
      </trkpt>
      <trkpt lat="45.26489" lon="6.16457">
        <ele>2663.9</ele>
        <time>2020-02-09T11:15:16Z</time>
      </trkpt>
      <trkpt lat="45.26487" lon="6.16457">
        <ele>2664</ele>
        <time>2020-02-09T11:15:26Z</time>
      </trkpt>
      <trkpt lat="45.26484" lon="6.16455">
        <ele>2664</ele>
        <time>2020-02-09T11:15:29Z</time>
      </trkpt>
      <trkpt lat="45.26481" lon="6.16454">
        <ele>2664</ele>
        <time>2020-02-09T11:15:34Z</time>
      </trkpt>
      <trkpt lat="45.26479" lon="6.16455">
        <ele>2664.1</ele>
        <time>2020-02-09T11:15:40Z</time>
      </trkpt>
      <trkpt lat="45.26476" lon="6.16456">
        <ele>2664.2</ele>
        <time>2020-02-09T11:15:43Z</time>
      </trkpt>
      <trkpt lat="45.26473" lon="6.16457">
        <ele>2664.3</ele>
        <time>2020-02-09T11:15:47Z</time>
      </trkpt>
      <trkpt lat="45.2647" lon="6.16456">
        <ele>2664.4</ele>
        <time>2020-02-09T11:15:54Z</time>
      </trkpt>
      <trkpt lat="45.26468" lon="6.16455">
        <ele>2664.4</ele>
        <time>2020-02-09T11:15:57Z</time>
      </trkpt>
      <trkpt lat="45.26464" lon="6.16454">
        <ele>2664.4</ele>
        <time>2020-02-09T11:15:59Z</time>
      </trkpt>
      <trkpt lat="45.26461" lon="6.16454">
        <ele>2664.3</ele>
        <time>2020-02-09T11:16:02Z</time>
      </trkpt>
      <trkpt lat="45.26458" lon="6.16452">
        <ele>2665.5</ele>
        <time>2020-02-09T11:17:01Z</time>
      </trkpt>
      <trkpt lat="45.26456" lon="6.16454">
        <ele>2664.2</ele>
        <time>2020-02-09T11:17:04Z</time>
      </trkpt>
      <trkpt lat="45.26454" lon="6.16456">
        <ele>2664.1</ele>
        <time>2020-02-09T11:17:07Z</time>
      </trkpt>
      <trkpt lat="45.26455" lon="6.16452">
        <ele>2665.4</ele>
        <time>2020-02-09T11:17:34Z</time>
      </trkpt>
      <trkpt lat="45.26454" lon="6.16448">
        <ele>2666.5</ele>
        <time>2020-02-09T11:17:39Z</time>
      </trkpt>
      <trkpt lat="45.26452" lon="6.16444">
        <ele>2667.6</ele>
        <time>2020-02-09T11:17:45Z</time>
      </trkpt>
      <trkpt lat="45.2645" lon="6.16443">
        <ele>2667.6</ele>
        <time>2020-02-09T11:17:57Z</time>
      </trkpt>
      <trkpt lat="45.26446" lon="6.1644">
        <ele>2668.7</ele>
        <time>2020-02-09T11:18:01Z</time>
      </trkpt>
      <trkpt lat="45.26443" lon="6.16439">
        <ele>2668.6</ele>
        <time>2020-02-09T11:18:06Z</time>
      </trkpt>
      <trkpt lat="45.2644" lon="6.16438">
        <ele>2668.5</ele>
        <time>2020-02-09T11:18:11Z</time>
      </trkpt>
      <trkpt lat="45.26437" lon="6.16438">
        <ele>2668.4</ele>
        <time>2020-02-09T11:18:16Z</time>
      </trkpt>
      <trkpt lat="45.26436" lon="6.16434">
        <ele>2669.6</ele>
        <time>2020-02-09T11:18:24Z</time>
      </trkpt>
      <trkpt lat="45.26433" lon="6.1643">
        <ele>2670.6</ele>
        <time>2020-02-09T11:18:33Z</time>
      </trkpt>
      <trkpt lat="45.2643" lon="6.16427">
        <ele>2671.7</ele>
        <time>2020-02-09T11:18:36Z</time>
      </trkpt>
      <trkpt lat="45.26431" lon="6.16431">
        <ele>2670.5</ele>
        <time>2020-02-09T11:18:56Z</time>
      </trkpt>
      <trkpt lat="45.26429" lon="6.16434">
        <ele>2669.3</ele>
        <time>2020-02-09T11:19:03Z</time>
      </trkpt>
      <trkpt lat="45.26431" lon="6.16434">
        <ele>2669.3</ele>
        <time>2020-02-09T11:19:44Z</time>
      </trkpt>
      <trkpt lat="45.26427" lon="6.16434">
        <ele>2669</ele>
        <time>2020-02-09T11:21:19Z</time>
      </trkpt>
      <trkpt lat="45.2643" lon="6.16435">
        <ele>2669.3</ele>
        <time>2020-02-09T11:22:12Z</time>
      </trkpt>
      <trkpt lat="45.26427" lon="6.16434">
        <ele>2669</ele>
        <time>2020-02-09T11:22:59Z</time>
      </trkpt>
      <trkpt lat="45.2643" lon="6.16433">
        <ele>2669.3</ele>
        <time>2020-02-09T11:23:36Z</time>
      </trkpt>
      <trkpt lat="45.2643" lon="6.16437">
        <ele>2668</ele>
        <time>2020-02-09T11:25:20Z</time>
      </trkpt>
      <trkpt lat="45.26432" lon="6.16434">
        <ele>2669.4</ele>
        <time>2020-02-09T11:26:21Z</time>
      </trkpt>
      <trkpt lat="45.26433" lon="6.16438">
        <ele>2668.2</ele>
        <time>2020-02-09T11:28:09Z</time>
      </trkpt>
      <trkpt lat="45.26435" lon="6.16436">
        <ele>2669.6</ele>
        <time>2020-02-09T11:28:44Z</time>
      </trkpt>
      <trkpt lat="45.26437" lon="6.16433">
        <ele>2669.6</ele>
        <time>2020-02-09T11:29:58Z</time>
      </trkpt>
      <trkpt lat="45.26434" lon="6.16433">
        <ele>2669.4</ele>
        <time>2020-02-09T11:30:36Z</time>
      </trkpt>
      <trkpt lat="45.26431" lon="6.16433">
        <ele>2669.3</ele>
        <time>2020-02-09T11:30:57Z</time>
      </trkpt>
      <trkpt lat="45.26429" lon="6.16436">
        <ele>2669.3</ele>
        <time>2020-02-09T11:31:08Z</time>
      </trkpt>
      <trkpt lat="45.26426" lon="6.16434">
        <ele>2669</ele>
        <time>2020-02-09T11:31:29Z</time>
      </trkpt>
      <trkpt lat="45.26429" lon="6.16433">
        <ele>2669.3</ele>
        <time>2020-02-09T11:32:00Z</time>
      </trkpt>
      <trkpt lat="45.26429" lon="6.16428">
        <ele>2670.5</ele>
        <time>2020-02-09T11:32:38Z</time>
      </trkpt>
      <trkpt lat="45.2643" lon="6.16425">
        <ele>2671.7</ele>
        <time>2020-02-09T11:32:41Z</time>
      </trkpt>
      <trkpt lat="45.26431" lon="6.1642">
        <ele>2673</ele>
        <time>2020-02-09T11:32:53Z</time>
      </trkpt>
      <trkpt lat="45.2643" lon="6.16417">
        <ele>2674.3</ele>
        <time>2020-02-09T11:33:00Z</time>
      </trkpt>
      <trkpt lat="45.26428" lon="6.16413">
        <ele>2675.3</ele>
        <time>2020-02-09T11:33:04Z</time>
      </trkpt>
      <trkpt lat="45.26427" lon="6.16409">
        <ele>2676.4</ele>
        <time>2020-02-09T11:33:08Z</time>
      </trkpt>
      <trkpt lat="45.26425" lon="6.16405">
        <ele>2677.2</ele>
        <time>2020-02-09T11:33:15Z</time>
      </trkpt>
      <trkpt lat="45.26422" lon="6.16402">
        <ele>2677.9</ele>
        <time>2020-02-09T11:33:23Z</time>
      </trkpt>
      <trkpt lat="45.26421" lon="6.16397">
        <ele>2678.8</ele>
        <time>2020-02-09T11:33:29Z</time>
      </trkpt>
      <trkpt lat="45.26421" lon="6.16392">
        <ele>2679.7</ele>
        <time>2020-02-09T11:33:38Z</time>
      </trkpt>
      <trkpt lat="45.2642" lon="6.16387">
        <ele>2680.6</ele>
        <time>2020-02-09T11:33:43Z</time>
      </trkpt>
      <trkpt lat="45.26419" lon="6.16383">
        <ele>2681.4</ele>
        <time>2020-02-09T11:33:52Z</time>
      </trkpt>
      <trkpt lat="45.26418" lon="6.16379">
        <ele>2682.3</ele>
        <time>2020-02-09T11:33:57Z</time>
      </trkpt>
      <trkpt lat="45.26416" lon="6.16376">
        <ele>2682.2</ele>
        <time>2020-02-09T11:34:19Z</time>
      </trkpt>
      <trkpt lat="45.26417" lon="6.16372">
        <ele>2683.3</ele>
        <time>2020-02-09T11:34:24Z</time>
      </trkpt>
      <trkpt lat="45.2642" lon="6.1637">
        <ele>2684.3</ele>
        <time>2020-02-09T11:34:33Z</time>
      </trkpt>
      <trkpt lat="45.26423" lon="6.16369">
        <ele>2684.4</ele>
        <time>2020-02-09T11:34:37Z</time>
      </trkpt>
      <trkpt lat="45.26426" lon="6.16367">
        <ele>2685.3</ele>
        <time>2020-02-09T11:34:40Z</time>
      </trkpt>
      <trkpt lat="45.26429" lon="6.16365">
        <ele>2685.3</ele>
        <time>2020-02-09T11:34:43Z</time>
      </trkpt>
      <trkpt lat="45.26432" lon="6.16363">
        <ele>2686</ele>
        <time>2020-02-09T11:34:47Z</time>
      </trkpt>
      <trkpt lat="45.26431" lon="6.16358">
        <ele>2686.7</ele>
        <time>2020-02-09T11:34:57Z</time>
      </trkpt>
      <trkpt lat="45.26428" lon="6.16355">
        <ele>2686.7</ele>
        <time>2020-02-09T11:35:00Z</time>
      </trkpt>
      <trkpt lat="45.26426" lon="6.16352">
        <ele>2687.4</ele>
        <time>2020-02-09T11:35:03Z</time>
      </trkpt>
      <trkpt lat="45.26425" lon="6.16348">
        <ele>2688.1</ele>
        <time>2020-02-09T11:35:06Z</time>
      </trkpt>
      <trkpt lat="45.26425" lon="6.16343">
        <ele>2688.8</ele>
        <time>2020-02-09T11:35:14Z</time>
      </trkpt>
      <trkpt lat="45.26423" lon="6.1634">
        <ele>2689.5</ele>
        <time>2020-02-09T11:35:17Z</time>
      </trkpt>
      <trkpt lat="45.26422" lon="6.16336">
        <ele>2690.2</ele>
        <time>2020-02-09T11:35:22Z</time>
      </trkpt>
      <trkpt lat="45.26421" lon="6.16333">
        <ele>2691.3</ele>
        <time>2020-02-09T11:35:26Z</time>
      </trkpt>
      <trkpt lat="45.26419" lon="6.1633">
        <ele>2691.5</ele>
        <time>2020-02-09T11:35:31Z</time>
      </trkpt>
      <trkpt lat="45.26417" lon="6.16328">
        <ele>2692.2</ele>
        <time>2020-02-09T11:35:37Z</time>
      </trkpt>
      <trkpt lat="45.26414" lon="6.16325">
        <ele>2692.4</ele>
        <time>2020-02-09T11:35:45Z</time>
      </trkpt>
      <trkpt lat="45.26412" lon="6.16322">
        <ele>2693.4</ele>
        <time>2020-02-09T11:35:50Z</time>
      </trkpt>
      <trkpt lat="45.26411" lon="6.16318">
        <ele>2694</ele>
        <time>2020-02-09T11:35:54Z</time>
      </trkpt>
      <trkpt lat="45.26409" lon="6.16314">
        <ele>2694.9</ele>
        <time>2020-02-09T11:35:59Z</time>
      </trkpt>
      <trkpt lat="45.26406" lon="6.16313">
        <ele>2695.2</ele>
        <time>2020-02-09T11:36:05Z</time>
      </trkpt>
      <trkpt lat="45.26405" lon="6.16309">
        <ele>2695.8</ele>
        <time>2020-02-09T11:36:16Z</time>
      </trkpt>
      <trkpt lat="45.26404" lon="6.16305">
        <ele>2696.7</ele>
        <time>2020-02-09T11:36:23Z</time>
      </trkpt>
      <trkpt lat="45.26402" lon="6.16302">
        <ele>2697.3</ele>
        <time>2020-02-09T11:36:26Z</time>
      </trkpt>
      <trkpt lat="45.26401" lon="6.16299">
        <ele>2698.2</ele>
        <time>2020-02-09T11:36:34Z</time>
      </trkpt>
      <trkpt lat="45.264" lon="6.16295">
        <ele>2698.2</ele>
        <time>2020-02-09T11:36:41Z</time>
      </trkpt>
      <trkpt lat="45.264" lon="6.16291">
        <ele>2698.7</ele>
        <time>2020-02-09T11:36:46Z</time>
      </trkpt>
      <trkpt lat="45.264" lon="6.16286">
        <ele>2699.7</ele>
        <time>2020-02-09T11:36:52Z</time>
      </trkpt>
      <trkpt lat="45.26396" lon="6.16283">
        <ele>2700.1</ele>
        <time>2020-02-09T11:36:56Z</time>
      </trkpt>
      <trkpt lat="45.26394" lon="6.16281">
        <ele>2701</ele>
        <time>2020-02-09T11:37:01Z</time>
      </trkpt>
      <trkpt lat="45.26392" lon="6.16277">
        <ele>2701.9</ele>
        <time>2020-02-09T11:37:05Z</time>
      </trkpt>
      <trkpt lat="45.2639" lon="6.16273">
        <ele>2701.9</ele>
        <time>2020-02-09T11:37:08Z</time>
      </trkpt>
      <trkpt lat="45.26388" lon="6.16271">
        <ele>2702.7</ele>
        <time>2020-02-09T11:37:16Z</time>
      </trkpt>
      <trkpt lat="45.26385" lon="6.16268">
        <ele>2703.5</ele>
        <time>2020-02-09T11:37:22Z</time>
      </trkpt>
      <trkpt lat="45.26384" lon="6.16264">
        <ele>2703.7</ele>
        <time>2020-02-09T11:37:28Z</time>
      </trkpt>
      <trkpt lat="45.26382" lon="6.16261">
        <ele>2704.1</ele>
        <time>2020-02-09T11:37:34Z</time>
      </trkpt>
      <trkpt lat="45.26381" lon="6.16258">
        <ele>2704.2</ele>
        <time>2020-02-09T11:37:38Z</time>
      </trkpt>
      <trkpt lat="45.2638" lon="6.16254">
        <ele>2704.7</ele>
        <time>2020-02-09T11:37:43Z</time>
      </trkpt>
      <trkpt lat="45.2638" lon="6.16249">
        <ele>2704.8</ele>
        <time>2020-02-09T11:37:54Z</time>
      </trkpt>
      <trkpt lat="45.26381" lon="6.16245">
        <ele>2704.5</ele>
        <time>2020-02-09T11:38:01Z</time>
      </trkpt>
      <trkpt lat="45.26383" lon="6.16241">
        <ele>2704.5</ele>
        <time>2020-02-09T11:38:06Z</time>
      </trkpt>
      <trkpt lat="45.26383" lon="6.16237">
        <ele>2703.9</ele>
        <time>2020-02-09T11:38:12Z</time>
      </trkpt>
      <trkpt lat="45.26384" lon="6.16233">
        <ele>2703.6</ele>
        <time>2020-02-09T11:38:18Z</time>
      </trkpt>
      <trkpt lat="45.26385" lon="6.16229">
        <ele>2703.3</ele>
        <time>2020-02-09T11:38:23Z</time>
      </trkpt>
      <trkpt lat="45.26384" lon="6.16225">
        <ele>2702.9</ele>
        <time>2020-02-09T11:38:30Z</time>
      </trkpt>
      <trkpt lat="45.26384" lon="6.1622">
        <ele>2702.5</ele>
        <time>2020-02-09T11:38:35Z</time>
      </trkpt>
      <trkpt lat="45.26382" lon="6.16217">
        <ele>2703</ele>
        <time>2020-02-09T11:38:39Z</time>
      </trkpt>
      <trkpt lat="45.2638" lon="6.16214">
        <ele>2703</ele>
        <time>2020-02-09T11:38:43Z</time>
      </trkpt>
      <trkpt lat="45.26378" lon="6.16211">
        <ele>2702.6</ele>
        <time>2020-02-09T11:38:57Z</time>
      </trkpt>
      <trkpt lat="45.26377" lon="6.16208">
        <ele>2702.5</ele>
        <time>2020-02-09T11:39:03Z</time>
      </trkpt>
      <trkpt lat="45.26375" lon="6.16204">
        <ele>2702.5</ele>
        <time>2020-02-09T11:39:07Z</time>
      </trkpt>
      <trkpt lat="45.26372" lon="6.16202">
        <ele>2702.3</ele>
        <time>2020-02-09T11:39:10Z</time>
      </trkpt>
      <trkpt lat="45.2637" lon="6.16198">
        <ele>2702.2</ele>
        <time>2020-02-09T11:39:16Z</time>
      </trkpt>
      <trkpt lat="45.26368" lon="6.16195">
        <ele>2702</ele>
        <time>2020-02-09T11:39:20Z</time>
      </trkpt>
      <trkpt lat="45.26367" lon="6.16191">
        <ele>2701.5</ele>
        <time>2020-02-09T11:39:24Z</time>
      </trkpt>
      <trkpt lat="45.26366" lon="6.16186">
        <ele>2700.9</ele>
        <time>2020-02-09T11:39:29Z</time>
      </trkpt>
      <trkpt lat="45.26366" lon="6.16181">
        <ele>2700.3</ele>
        <time>2020-02-09T11:39:33Z</time>
      </trkpt>
      <trkpt lat="45.26366" lon="6.16177">
        <ele>2699.7</ele>
        <time>2020-02-09T11:39:38Z</time>
      </trkpt>
      <trkpt lat="45.26364" lon="6.16174">
        <ele>2699.4</ele>
        <time>2020-02-09T11:39:45Z</time>
      </trkpt>
      <trkpt lat="45.26364" lon="6.16169">
        <ele>2698.7</ele>
        <time>2020-02-09T11:39:49Z</time>
      </trkpt>
      <trkpt lat="45.26364" lon="6.16165">
        <ele>2698</ele>
        <time>2020-02-09T11:39:53Z</time>
      </trkpt>
      <trkpt lat="45.26364" lon="6.1616">
        <ele>2697.1</ele>
        <time>2020-02-09T11:39:57Z</time>
      </trkpt>
      <trkpt lat="45.26364" lon="6.16156">
        <ele>2696.2</ele>
        <time>2020-02-09T11:40:01Z</time>
      </trkpt>
      <trkpt lat="45.26364" lon="6.16154">
        <ele>2696.2</ele>
        <time>2020-02-09T12:10:10Z</time>
      </trkpt>
      <trkpt lat="45.26366" lon="6.1615">
        <ele>2694.7</ele>
        <time>2020-02-09T12:10:55Z</time>
      </trkpt>
      <trkpt lat="45.26365" lon="6.16154">
        <ele>2695.7</ele>
        <time>2020-02-09T12:11:25Z</time>
      </trkpt>
      <trkpt lat="45.26365" lon="6.16159">
        <ele>2696.6</ele>
        <time>2020-02-09T12:11:27Z</time>
      </trkpt>
      <trkpt lat="45.26364" lon="6.16166">
        <ele>2698</ele>
        <time>2020-02-09T12:11:29Z</time>
      </trkpt>
      <trkpt lat="45.26363" lon="6.16169">
        <ele>2698.7</ele>
        <time>2020-02-09T12:11:30Z</time>
      </trkpt>
      <trkpt lat="45.26361" lon="6.16171">
        <ele>2699.8</ele>
        <time>2020-02-09T12:11:32Z</time>
      </trkpt>
      <trkpt lat="45.26359" lon="6.16174">
        <ele>2700.1</ele>
        <time>2020-02-09T12:11:36Z</time>
      </trkpt>
      <trkpt lat="45.26356" lon="6.16171">
        <ele>2700.4</ele>
        <time>2020-02-09T12:11:39Z</time>
      </trkpt>
      <trkpt lat="45.26353" lon="6.16165">
        <ele>2698.9</ele>
        <time>2020-02-09T12:11:41Z</time>
      </trkpt>
      <trkpt lat="45.26351" lon="6.16161">
        <ele>2698.2</ele>
        <time>2020-02-09T12:11:42Z</time>
      </trkpt>
      <trkpt lat="45.2635" lon="6.16157">
        <ele>2698.2</ele>
        <time>2020-02-09T12:11:43Z</time>
      </trkpt>
      <trkpt lat="45.26349" lon="6.16153">
        <ele>2697.4</ele>
        <time>2020-02-09T12:11:45Z</time>
      </trkpt>
      <trkpt lat="45.26345" lon="6.16154">
        <ele>2697.5</ele>
        <time>2020-02-09T12:11:50Z</time>
      </trkpt>
      <trkpt lat="45.26341" lon="6.16154">
        <ele>2697.5</ele>
        <time>2020-02-09T12:11:52Z</time>
      </trkpt>
      <trkpt lat="45.26338" lon="6.16153">
        <ele>2697.5</ele>
        <time>2020-02-09T12:11:56Z</time>
      </trkpt>
      <trkpt lat="45.26335" lon="6.16154">
        <ele>2697.5</ele>
        <time>2020-02-09T12:12:06Z</time>
      </trkpt>
      <trkpt lat="45.26333" lon="6.16156">
        <ele>2697.4</ele>
        <time>2020-02-09T12:12:08Z</time>
      </trkpt>
      <trkpt lat="45.26329" lon="6.16155">
        <ele>2697.2</ele>
        <time>2020-02-09T12:12:10Z</time>
      </trkpt>
      <trkpt lat="45.2633" lon="6.16151">
        <ele>2696.2</ele>
        <time>2020-02-09T12:12:12Z</time>
      </trkpt>
      <trkpt lat="45.26329" lon="6.16146">
        <ele>2695.2</ele>
        <time>2020-02-09T12:12:14Z</time>
      </trkpt>
      <trkpt lat="45.26328" lon="6.16142">
        <ele>2693.8</ele>
        <time>2020-02-09T12:12:22Z</time>
      </trkpt>
      <trkpt lat="45.26325" lon="6.16145">
        <ele>2694.6</ele>
        <time>2020-02-09T12:12:24Z</time>
      </trkpt>
      <trkpt lat="45.26322" lon="6.16144">
        <ele>2693.1</ele>
        <time>2020-02-09T12:12:27Z</time>
      </trkpt>
      <trkpt lat="45.26318" lon="6.16148">
        <ele>2693.9</ele>
        <time>2020-02-09T12:12:29Z</time>
      </trkpt>
      <trkpt lat="45.26315" lon="6.16148">
        <ele>2693.5</ele>
        <time>2020-02-09T12:12:31Z</time>
      </trkpt>
      <trkpt lat="45.26312" lon="6.16144">
        <ele>2691.9</ele>
        <time>2020-02-09T12:12:33Z</time>
      </trkpt>
      <trkpt lat="45.2631" lon="6.16141">
        <ele>2691.3</ele>
        <time>2020-02-09T12:12:35Z</time>
      </trkpt>
      <trkpt lat="45.26307" lon="6.16141">
        <ele>2690.8</ele>
        <time>2020-02-09T12:12:37Z</time>
      </trkpt>
      <trkpt lat="45.26303" lon="6.16142">
        <ele>2690.2</ele>
        <time>2020-02-09T12:12:39Z</time>
      </trkpt>
      <trkpt lat="45.263" lon="6.16143">
        <ele>2689.6</ele>
        <time>2020-02-09T12:12:41Z</time>
      </trkpt>
      <trkpt lat="45.26298" lon="6.16144">
        <ele>2689</ele>
        <time>2020-02-09T12:12:43Z</time>
      </trkpt>
      <trkpt lat="45.26293" lon="6.1615">
        <ele>2690.8</ele>
        <time>2020-02-09T12:12:45Z</time>
      </trkpt>
      <trkpt lat="45.26289" lon="6.16154">
        <ele>2690.8</ele>
        <time>2020-02-09T12:12:46Z</time>
      </trkpt>
      <trkpt lat="45.26285" lon="6.16158">
        <ele>2691.2</ele>
        <time>2020-02-09T12:12:47Z</time>
      </trkpt>
      <trkpt lat="45.26283" lon="6.16154">
        <ele>2689.5</ele>
        <time>2020-02-09T12:12:52Z</time>
      </trkpt>
      <trkpt lat="45.26285" lon="6.16149">
        <ele>2688.9</ele>
        <time>2020-02-09T12:12:54Z</time>
      </trkpt>
      <trkpt lat="45.26285" lon="6.16145">
        <ele>2687.6</ele>
        <time>2020-02-09T12:12:55Z</time>
      </trkpt>
      <trkpt lat="45.26286" lon="6.1614">
        <ele>2685</ele>
        <time>2020-02-09T12:12:57Z</time>
      </trkpt>
      <trkpt lat="45.26284" lon="6.16136">
        <ele>2683.7</ele>
        <time>2020-02-09T12:13:04Z</time>
      </trkpt>
      <trkpt lat="45.26282" lon="6.1613">
        <ele>2681.5</ele>
        <time>2020-02-09T12:13:06Z</time>
      </trkpt>
      <trkpt lat="45.26281" lon="6.16126">
        <ele>2679.9</ele>
        <time>2020-02-09T12:13:08Z</time>
      </trkpt>
      <trkpt lat="45.26277" lon="6.16129">
        <ele>2679.5</ele>
        <time>2020-02-09T12:13:10Z</time>
      </trkpt>
      <trkpt lat="45.26273" lon="6.16129">
        <ele>2678.6</ele>
        <time>2020-02-09T12:13:12Z</time>
      </trkpt>
      <trkpt lat="45.26271" lon="6.16128">
        <ele>2677.6</ele>
        <time>2020-02-09T12:13:17Z</time>
      </trkpt>
      <trkpt lat="45.26271" lon="6.1612">
        <ele>2674.3</ele>
        <time>2020-02-09T12:13:20Z</time>
      </trkpt>
      <trkpt lat="45.26274" lon="6.16116">
        <ele>2673.3</ele>
        <time>2020-02-09T12:13:22Z</time>
      </trkpt>
      <trkpt lat="45.26274" lon="6.16112">
        <ele>2671.2</ele>
        <time>2020-02-09T12:13:31Z</time>
      </trkpt>
      <trkpt lat="45.2627" lon="6.16111">
        <ele>2670.1</ele>
        <time>2020-02-09T12:13:38Z</time>
      </trkpt>
      <trkpt lat="45.26267" lon="6.16113">
        <ele>2669.1</ele>
        <time>2020-02-09T12:13:39Z</time>
      </trkpt>
      <trkpt lat="45.26264" lon="6.16116">
        <ele>2670.1</ele>
        <time>2020-02-09T12:13:40Z</time>
      </trkpt>
      <trkpt lat="45.26261" lon="6.16118">
        <ele>2669</ele>
        <time>2020-02-09T12:13:41Z</time>
      </trkpt>
      <trkpt lat="45.26257" lon="6.1612">
        <ele>2669.9</ele>
        <time>2020-02-09T12:13:43Z</time>
      </trkpt>
      <trkpt lat="45.26254" lon="6.16121">
        <ele>2668.8</ele>
        <time>2020-02-09T12:13:45Z</time>
      </trkpt>
      <trkpt lat="45.26251" lon="6.16122">
        <ele>2667.6</ele>
        <time>2020-02-09T12:13:50Z</time>
      </trkpt>
      <trkpt lat="45.26252" lon="6.16117">
        <ele>2665.6</ele>
        <time>2020-02-09T12:13:56Z</time>
      </trkpt>
      <trkpt lat="45.26253" lon="6.16113">
        <ele>2663.4</ele>
        <time>2020-02-09T12:13:58Z</time>
      </trkpt>
      <trkpt lat="45.26253" lon="6.16108">
        <ele>2662.1</ele>
        <time>2020-02-09T12:14:00Z</time>
      </trkpt>
      <trkpt lat="45.26255" lon="6.16104">
        <ele>2659.7</ele>
        <time>2020-02-09T12:14:11Z</time>
      </trkpt>
      <trkpt lat="45.26253" lon="6.161">
        <ele>2656.4</ele>
        <time>2020-02-09T12:14:18Z</time>
      </trkpt>
      <trkpt lat="45.26253" lon="6.16096">
        <ele>2654.1</ele>
        <time>2020-02-09T12:14:23Z</time>
      </trkpt>
      <trkpt lat="45.26252" lon="6.16093">
        <ele>2651.6</ele>
        <time>2020-02-09T12:14:26Z</time>
      </trkpt>
      <trkpt lat="45.2625" lon="6.1609">
        <ele>2650.5</ele>
        <time>2020-02-09T12:14:31Z</time>
      </trkpt>
      <trkpt lat="45.26247" lon="6.16086">
        <ele>2647.1</ele>
        <time>2020-02-09T12:14:39Z</time>
      </trkpt>
      <trkpt lat="45.26244" lon="6.16084">
        <ele>2646</ele>
        <time>2020-02-09T12:14:43Z</time>
      </trkpt>
      <trkpt lat="45.26242" lon="6.16086">
        <ele>2645.8</ele>
        <time>2020-02-09T12:14:48Z</time>
      </trkpt>
      <trkpt lat="45.26241" lon="6.16082">
        <ele>2642.4</ele>
        <time>2020-02-09T12:15:03Z</time>
      </trkpt>
      <trkpt lat="45.26238" lon="6.1608">
        <ele>2642.3</ele>
        <time>2020-02-09T12:15:05Z</time>
      </trkpt>
      <trkpt lat="45.26235" lon="6.16079">
        <ele>2638</ele>
        <time>2020-02-09T12:15:09Z</time>
      </trkpt>
      <trkpt lat="45.26236" lon="6.16074">
        <ele>2636.3</ele>
        <time>2020-02-09T12:15:15Z</time>
      </trkpt>
      <trkpt lat="45.26239" lon="6.16071">
        <ele>2637.1</ele>
        <time>2020-02-09T12:15:29Z</time>
      </trkpt>
      <trkpt lat="45.26238" lon="6.16075">
        <ele>2636.1</ele>
        <time>2020-02-09T12:15:43Z</time>
      </trkpt>
      <trkpt lat="45.26235" lon="6.16074">
        <ele>2635.9</ele>
        <time>2020-02-09T12:16:13Z</time>
      </trkpt>
      <trkpt lat="45.26233" lon="6.16076">
        <ele>2637.4</ele>
        <time>2020-02-09T12:16:22Z</time>
      </trkpt>
      <trkpt lat="45.26231" lon="6.16072">
        <ele>2634.1</ele>
        <time>2020-02-09T12:16:28Z</time>
      </trkpt>
      <trkpt lat="45.2623" lon="6.16069">
        <ele>2631.5</ele>
        <time>2020-02-09T12:16:42Z</time>
      </trkpt>
      <trkpt lat="45.26227" lon="6.16069">
        <ele>2630.6</ele>
        <time>2020-02-09T12:16:46Z</time>
      </trkpt>
      <trkpt lat="45.26225" lon="6.16071">
        <ele>2629.7</ele>
        <time>2020-02-09T12:17:01Z</time>
      </trkpt>
      <trkpt lat="45.26225" lon="6.16067">
        <ele>2629.6</ele>
        <time>2020-02-09T12:17:08Z</time>
      </trkpt>
      <trkpt lat="45.26223" lon="6.16064">
        <ele>2626</ele>
        <time>2020-02-09T12:17:12Z</time>
      </trkpt>
      <trkpt lat="45.26222" lon="6.1606">
        <ele>2623.4</ele>
        <time>2020-02-09T12:17:19Z</time>
      </trkpt>
      <trkpt lat="45.2622" lon="6.16059">
        <ele>2622.5</ele>
        <time>2020-02-09T12:18:18Z</time>
      </trkpt>
      <trkpt lat="45.26219" lon="6.16055">
        <ele>2619.8</ele>
        <time>2020-02-09T12:19:00Z</time>
      </trkpt>
      <trkpt lat="45.2622" lon="6.16051">
        <ele>2618.1</ele>
        <time>2020-02-09T12:20:16Z</time>
      </trkpt>
      <trkpt lat="45.26218" lon="6.16048">
        <ele>2614.9</ele>
        <time>2020-02-09T12:20:49Z</time>
      </trkpt>
      <trkpt lat="45.26218" lon="6.16043">
        <ele>2612.6</ele>
        <time>2020-02-09T12:21:07Z</time>
      </trkpt>
      <trkpt lat="45.26216" lon="6.1604">
        <ele>2609.4</ele>
        <time>2020-02-09T12:21:11Z</time>
      </trkpt>
      <trkpt lat="45.26215" lon="6.16043">
        <ele>2611.5</ele>
        <time>2020-02-09T12:21:15Z</time>
      </trkpt>
      <trkpt lat="45.26217" lon="6.16046">
        <ele>2614.4</ele>
        <time>2020-02-09T12:21:28Z</time>
      </trkpt>
      <trkpt lat="45.26215" lon="6.16049">
        <ele>2613.4</ele>
        <time>2020-02-09T12:21:53Z</time>
      </trkpt>
      <trkpt lat="45.26218" lon="6.16049">
        <ele>2614.1</ele>
        <time>2020-02-09T12:22:12Z</time>
      </trkpt>
      <trkpt lat="45.2622" lon="6.16053">
        <ele>2616.3</ele>
        <time>2020-02-09T12:22:21Z</time>
      </trkpt>
      <trkpt lat="45.26219" lon="6.16048">
        <ele>2613.8</ele>
        <time>2020-02-09T12:22:44Z</time>
      </trkpt>
      <trkpt lat="45.26216" lon="6.16047">
        <ele>2612.9</ele>
        <time>2020-02-09T12:23:15Z</time>
      </trkpt>
      <trkpt lat="45.26214" lon="6.16044">
        <ele>2609.9</ele>
        <time>2020-02-09T12:23:32Z</time>
      </trkpt>
      <trkpt lat="45.26213" lon="6.16048">
        <ele>2612</ele>
        <time>2020-02-09T12:23:39Z</time>
      </trkpt>
      <trkpt lat="45.26214" lon="6.16052">
        <ele>2614.1</ele>
        <time>2020-02-09T12:24:00Z</time>
      </trkpt>
      <trkpt lat="45.26217" lon="6.1605">
        <ele>2614.7</ele>
        <time>2020-02-09T12:24:51Z</time>
      </trkpt>
      <trkpt lat="45.26219" lon="6.16053">
        <ele>2615.4</ele>
        <time>2020-02-09T12:24:57Z</time>
      </trkpt>
      <trkpt lat="45.26221" lon="6.16056">
        <ele>2618.5</ele>
        <time>2020-02-09T12:25:10Z</time>
      </trkpt>
      <trkpt lat="45.26223" lon="6.16059">
        <ele>2620.9</ele>
        <time>2020-02-09T12:25:23Z</time>
      </trkpt>
      <trkpt lat="45.2622" lon="6.16058">
        <ele>2617.4</ele>
        <time>2020-02-09T12:25:45Z</time>
      </trkpt>
      <trkpt lat="45.26218" lon="6.16056">
        <ele>2617.3</ele>
        <time>2020-02-09T12:25:53Z</time>
      </trkpt>
      <trkpt lat="45.26215" lon="6.16055">
        <ele>2616.3</ele>
        <time>2020-02-09T12:26:42Z</time>
      </trkpt>
      <trkpt lat="45.26217" lon="6.16058">
        <ele>2617</ele>
        <time>2020-02-09T12:27:12Z</time>
      </trkpt>
      <trkpt lat="45.2622" lon="6.16058">
        <ele>2616.9</ele>
        <time>2020-02-09T12:27:46Z</time>
      </trkpt>
      <trkpt lat="45.26223" lon="6.16059">
        <ele>2620.1</ele>
        <time>2020-02-09T12:27:57Z</time>
      </trkpt>
      <trkpt lat="45.26224" lon="6.16062">
        <ele>2620.8</ele>
        <time>2020-02-09T12:28:08Z</time>
      </trkpt>
      <trkpt lat="45.26223" lon="6.16065">
        <ele>2623.2</ele>
        <time>2020-02-09T12:28:20Z</time>
      </trkpt>
      <trkpt lat="45.26226" lon="6.16066">
        <ele>2623.9</ele>
        <time>2020-02-09T12:28:30Z</time>
      </trkpt>
      <trkpt lat="45.26226" lon="6.16062">
        <ele>2621.2</ele>
        <time>2020-02-09T12:28:42Z</time>
      </trkpt>
      <trkpt lat="45.26228" lon="6.16065">
        <ele>2623.6</ele>
        <time>2020-02-09T12:29:05Z</time>
      </trkpt>
      <trkpt lat="45.26226" lon="6.16061">
        <ele>2621</ele>
        <time>2020-02-09T12:29:18Z</time>
      </trkpt>
      <trkpt lat="45.26225" lon="6.16058">
        <ele>2617.5</ele>
        <time>2020-02-09T12:29:21Z</time>
      </trkpt>
      <trkpt lat="45.26223" lon="6.16056">
        <ele>2616.6</ele>
        <time>2020-02-09T12:29:33Z</time>
      </trkpt>
      <trkpt lat="45.2622" lon="6.16054">
        <ele>2615.6</ele>
        <time>2020-02-09T12:29:48Z</time>
      </trkpt>
      <trkpt lat="45.26219" lon="6.16051">
        <ele>2613.1</ele>
        <time>2020-02-09T12:29:55Z</time>
      </trkpt>
      <trkpt lat="45.26217" lon="6.16047">
        <ele>2610.6</ele>
        <time>2020-02-09T12:30:06Z</time>
      </trkpt>
      <trkpt lat="45.26219" lon="6.16043">
        <ele>2608.3</ele>
        <time>2020-02-09T12:30:30Z</time>
      </trkpt>
      <trkpt lat="45.26217" lon="6.16046">
        <ele>2610.4</ele>
        <time>2020-02-09T12:30:41Z</time>
      </trkpt>
      <trkpt lat="45.26219" lon="6.16049">
        <ele>2610.2</ele>
        <time>2020-02-09T12:30:46Z</time>
      </trkpt>
      <trkpt lat="45.26219" lon="6.16053">
        <ele>2612.4</ele>
        <time>2020-02-09T12:30:49Z</time>
      </trkpt>
      <trkpt lat="45.26217" lon="6.16057">
        <ele>2614.7</ele>
        <time>2020-02-09T12:30:56Z</time>
      </trkpt>
      <trkpt lat="45.26214" lon="6.16057">
        <ele>2613.7</ele>
        <time>2020-02-09T12:31:36Z</time>
      </trkpt>
      <trkpt lat="45.26216" lon="6.16061">
        <ele>2616.1</ele>
        <time>2020-02-09T12:32:15Z</time>
      </trkpt>
      <trkpt lat="45.26218" lon="6.16065">
        <ele>2619.3</ele>
        <time>2020-02-09T12:32:19Z</time>
      </trkpt>
      <trkpt lat="45.26216" lon="6.16068">
        <ele>2620.7</ele>
        <time>2020-02-09T12:32:40Z</time>
      </trkpt>
      <trkpt lat="45.26215" lon="6.16064">
        <ele>2618.1</ele>
        <time>2020-02-09T12:32:53Z</time>
      </trkpt>
      <trkpt lat="45.26216" lon="6.1606">
        <ele>2615.6</ele>
        <time>2020-02-09T12:33:01Z</time>
      </trkpt>
      <trkpt lat="45.26217" lon="6.16056">
        <ele>2613</ele>
        <time>2020-02-09T12:33:19Z</time>
      </trkpt>
      <trkpt lat="45.26214" lon="6.16054">
        <ele>2612.1</ele>
        <time>2020-02-09T12:33:37Z</time>
      </trkpt>
      <trkpt lat="45.26213" lon="6.16058">
        <ele>2612</ele>
        <time>2020-02-09T12:33:40Z</time>
      </trkpt>
      <trkpt lat="45.26215" lon="6.16055">
        <ele>2612.6</ele>
        <time>2020-02-09T12:34:04Z</time>
      </trkpt>
      <trkpt lat="45.26217" lon="6.16057">
        <ele>2613.3</ele>
        <time>2020-02-09T12:34:13Z</time>
      </trkpt>
      <trkpt lat="45.2622" lon="6.16056">
        <ele>2614</ele>
        <time>2020-02-09T12:35:06Z</time>
      </trkpt>
      <trkpt lat="45.26223" lon="6.16055">
        <ele>2613.9</ele>
        <time>2020-02-09T12:35:20Z</time>
      </trkpt>
      <trkpt lat="45.26225" lon="6.16053">
        <ele>2612.3</ele>
        <time>2020-02-09T12:35:38Z</time>
      </trkpt>
      <trkpt lat="45.26223" lon="6.1605">
        <ele>2611.4</ele>
        <time>2020-02-09T12:35:57Z</time>
      </trkpt>
      <trkpt lat="45.26221" lon="6.16053">
        <ele>2611.4</ele>
        <time>2020-02-09T12:36:34Z</time>
      </trkpt>
      <trkpt lat="45.26219" lon="6.16056">
        <ele>2613</ele>
        <time>2020-02-09T12:36:48Z</time>
      </trkpt>
      <trkpt lat="45.2622" lon="6.16052">
        <ele>2610.6</ele>
        <time>2020-02-09T12:37:13Z</time>
      </trkpt>
      <trkpt lat="45.26222" lon="6.16054">
        <ele>2613.9</ele>
        <time>2020-02-09T12:37:25Z</time>
      </trkpt>
      <trkpt lat="45.2622" lon="6.16053">
        <ele>2610.6</ele>
        <time>2020-02-09T12:38:38Z</time>
      </trkpt>
      <trkpt lat="45.26219" lon="6.16057">
        <ele>2613</ele>
        <time>2020-02-09T12:39:34Z</time>
      </trkpt>
      <trkpt lat="45.26219" lon="6.16053">
        <ele>2610.6</ele>
        <time>2020-02-09T12:40:29Z</time>
      </trkpt>
      <trkpt lat="45.26217" lon="6.16056">
        <ele>2612.2</ele>
        <time>2020-02-09T12:40:48Z</time>
      </trkpt>
      <trkpt lat="45.26213" lon="6.16055">
        <ele>2611.5</ele>
        <time>2020-02-09T12:41:45Z</time>
      </trkpt>
      <trkpt lat="45.2621" lon="6.16056">
        <ele>2610.8</ele>
        <time>2020-02-09T12:41:54Z</time>
      </trkpt>
      <trkpt lat="45.26213" lon="6.16055">
        <ele>2611.5</ele>
        <time>2020-02-09T12:42:21Z</time>
      </trkpt>
      <trkpt lat="45.26214" lon="6.16058">
        <ele>2612.2</ele>
        <time>2020-02-09T12:42:53Z</time>
      </trkpt>
      <trkpt lat="45.26217" lon="6.16056">
        <ele>2612.2</ele>
        <time>2020-02-09T12:43:17Z</time>
      </trkpt>
      <trkpt lat="45.26217" lon="6.1606">
        <ele>2615.5</ele>
        <time>2020-02-09T12:43:31Z</time>
      </trkpt>
      <trkpt lat="45.26219" lon="6.16056">
        <ele>2613</ele>
        <time>2020-02-09T12:44:36Z</time>
      </trkpt>
      <trkpt lat="45.26216" lon="6.16058">
        <ele>2612.2</ele>
        <time>2020-02-09T12:45:18Z</time>
      </trkpt>
      <trkpt lat="45.26217" lon="6.16054">
        <ele>2612.2</ele>
        <time>2020-02-09T12:45:37Z</time>
      </trkpt>
      <trkpt lat="45.26214" lon="6.16054">
        <ele>2612.2</ele>
        <time>2020-02-09T12:45:58Z</time>
      </trkpt>
      <trkpt lat="45.26217" lon="6.16057">
        <ele>2612.2</ele>
        <time>2020-02-09T12:46:51Z</time>
      </trkpt>
      <trkpt lat="45.26218" lon="6.16061">
        <ele>2615.5</ele>
        <time>2020-02-09T12:47:47Z</time>
      </trkpt>
      <trkpt lat="45.26219" lon="6.16056">
        <ele>2613</ele>
        <time>2020-02-09T12:48:08Z</time>
      </trkpt>
      <trkpt lat="45.26216" lon="6.16054">
        <ele>2612.2</ele>
        <time>2020-02-09T12:48:23Z</time>
      </trkpt>
      <trkpt lat="45.26214" lon="6.16051">
        <ele>2609.8</ele>
        <time>2020-02-09T12:48:34Z</time>
      </trkpt>
      <trkpt lat="45.26216" lon="6.16048">
        <ele>2607.5</ele>
        <time>2020-02-09T12:48:49Z</time>
      </trkpt>
      <trkpt lat="45.26217" lon="6.16052">
        <ele>2609.8</ele>
        <time>2020-02-09T12:49:23Z</time>
      </trkpt>
      <trkpt lat="45.26214" lon="6.16051">
        <ele>2609.1</ele>
        <time>2020-02-09T12:49:43Z</time>
      </trkpt>
      <trkpt lat="45.26216" lon="6.16055">
        <ele>2612.2</ele>
        <time>2020-02-09T12:49:53Z</time>
      </trkpt>
      <trkpt lat="45.26218" lon="6.16052">
        <ele>2610.6</ele>
        <time>2020-02-09T12:50:05Z</time>
      </trkpt>
      <trkpt lat="45.26216" lon="6.16054">
        <ele>2612.2</ele>
        <time>2020-02-09T12:50:22Z</time>
      </trkpt>
      <trkpt lat="45.26213" lon="6.16053">
        <ele>2609.1</ele>
        <time>2020-02-09T12:50:34Z</time>
      </trkpt>
      <trkpt lat="45.26216" lon="6.16056">
        <ele>2612.2</ele>
        <time>2020-02-09T12:50:40Z</time>
      </trkpt>
      <trkpt lat="45.26218" lon="6.16056">
        <ele>2613</ele>
        <time>2020-02-09T12:50:47Z</time>
      </trkpt>
      <trkpt lat="45.26221" lon="6.16058">
        <ele>2613.9</ele>
        <time>2020-02-09T12:50:52Z</time>
      </trkpt>
      <trkpt lat="45.26224" lon="6.16056">
        <ele>2614.7</ele>
        <time>2020-02-09T12:50:57Z</time>
      </trkpt>
      <trkpt lat="45.26221" lon="6.16056">
        <ele>2613.9</ele>
        <time>2020-02-09T12:51:10Z</time>
      </trkpt>
      <trkpt lat="45.26223" lon="6.16059">
        <ele>2616.4</ele>
        <time>2020-02-09T12:51:17Z</time>
      </trkpt>
      <trkpt lat="45.2622" lon="6.16061">
        <ele>2616.4</ele>
        <time>2020-02-09T12:51:37Z</time>
      </trkpt>
      <trkpt lat="45.26218" lon="6.1606">
        <ele>2615.5</ele>
        <time>2020-02-09T12:51:43Z</time>
      </trkpt>
      <trkpt lat="45.26216" lon="6.16057">
        <ele>2612.2</ele>
        <time>2020-02-09T12:51:47Z</time>
      </trkpt>
      <trkpt lat="45.26218" lon="6.16054">
        <ele>2613</ele>
        <time>2020-02-09T12:51:56Z</time>
      </trkpt>
      <trkpt lat="45.2622" lon="6.16051">
        <ele>2610.6</ele>
        <time>2020-02-09T12:52:00Z</time>
      </trkpt>
      <trkpt lat="45.26223" lon="6.16049">
        <ele>2609.1</ele>
        <time>2020-02-09T12:52:03Z</time>
      </trkpt>
      <trkpt lat="45.2622" lon="6.16052">
        <ele>2610.6</ele>
        <time>2020-02-09T12:52:10Z</time>
      </trkpt>
      <trkpt lat="45.26217" lon="6.16054">
        <ele>2610.6</ele>
        <time>2020-02-09T12:52:17Z</time>
      </trkpt>
      <trkpt lat="45.26214" lon="6.16052">
        <ele>2609.1</ele>
        <time>2020-02-09T12:52:44Z</time>
      </trkpt>
      <trkpt lat="45.26211" lon="6.16054">
        <ele>2608.4</ele>
        <time>2020-02-09T12:52:50Z</time>
      </trkpt>
      <trkpt lat="45.26208" lon="6.16052">
        <ele>2608.4</ele>
        <time>2020-02-09T12:53:00Z</time>
      </trkpt>
      <trkpt lat="45.26211" lon="6.16052">
        <ele>2609.1</ele>
        <time>2020-02-09T12:53:07Z</time>
      </trkpt>
      <trkpt lat="45.26213" lon="6.16049">
        <ele>2606.8</ele>
        <time>2020-02-09T12:53:17Z</time>
      </trkpt>
      <trkpt lat="45.26216" lon="6.16049">
        <ele>2607.5</ele>
        <time>2020-02-09T12:53:19Z</time>
      </trkpt>
      <trkpt lat="45.2622" lon="6.1605">
        <ele>2610.6</ele>
        <time>2020-02-09T12:53:22Z</time>
      </trkpt>
      <trkpt lat="45.26223" lon="6.16052">
        <ele>2611.4</ele>
        <time>2020-02-09T12:53:29Z</time>
      </trkpt>
      <trkpt lat="45.26222" lon="6.16048">
        <ele>2609.1</ele>
        <time>2020-02-09T12:53:46Z</time>
      </trkpt>
      <trkpt lat="45.2622" lon="6.16044">
        <ele>2606.9</ele>
        <time>2020-02-09T12:53:52Z</time>
      </trkpt>
      <trkpt lat="45.26219" lon="6.1604">
        <ele>2603.9</ele>
        <time>2020-02-09T12:53:59Z</time>
      </trkpt>
      <trkpt lat="45.26217" lon="6.16043">
        <ele>2605.3</ele>
        <time>2020-02-09T12:54:08Z</time>
      </trkpt>
      <trkpt lat="45.26213" lon="6.16043">
        <ele>2604.6</ele>
        <time>2020-02-09T12:54:12Z</time>
      </trkpt>
      <trkpt lat="45.26211" lon="6.16045">
        <ele>2603.9</ele>
        <time>2020-02-09T12:54:16Z</time>
      </trkpt>
      <trkpt lat="45.2621" lon="6.16049">
        <ele>2606.1</ele>
        <time>2020-02-09T12:54:29Z</time>
      </trkpt>
      <trkpt lat="45.26207" lon="6.1605">
        <ele>2607.8</ele>
        <time>2020-02-09T12:54:38Z</time>
      </trkpt>
      <trkpt lat="45.26204" lon="6.16049">
        <ele>2604.8</ele>
        <time>2020-02-09T12:54:43Z</time>
      </trkpt>
      <trkpt lat="45.26207" lon="6.16051">
        <ele>2607.8</ele>
        <time>2020-02-09T12:54:52Z</time>
      </trkpt>
      <trkpt lat="45.26209" lon="6.16053">
        <ele>2608.4</ele>
        <time>2020-02-09T12:55:13Z</time>
      </trkpt>
      <trkpt lat="45.26209" lon="6.16057">
        <ele>2610.8</ele>
        <time>2020-02-09T12:55:23Z</time>
      </trkpt>
      <trkpt lat="45.2621" lon="6.16053">
        <ele>2608.4</ele>
        <time>2020-02-09T12:55:45Z</time>
      </trkpt>
      <trkpt lat="45.26211" lon="6.16049">
        <ele>2606.8</ele>
        <time>2020-02-09T12:56:12Z</time>
      </trkpt>
      <trkpt lat="45.2621" lon="6.16046">
        <ele>2606.1</ele>
        <time>2020-02-09T12:56:18Z</time>
      </trkpt>
      <trkpt lat="45.2621" lon="6.1605">
        <ele>2608.4</ele>
        <time>2020-02-09T12:56:26Z</time>
      </trkpt>
      <trkpt lat="45.26212" lon="6.16054">
        <ele>2609.1</ele>
        <time>2020-02-09T12:56:30Z</time>
      </trkpt>
      <trkpt lat="45.26213" lon="6.16057">
        <ele>2611.5</ele>
        <time>2020-02-09T12:56:33Z</time>
      </trkpt>
      <trkpt lat="45.26214" lon="6.16061">
        <ele>2613.9</ele>
        <time>2020-02-09T12:56:40Z</time>
      </trkpt>
      <trkpt lat="45.26215" lon="6.16065">
        <ele>2617.1</ele>
        <time>2020-02-09T12:56:46Z</time>
      </trkpt>
      <trkpt lat="45.26218" lon="6.16062">
        <ele>2615.5</ele>
        <time>2020-02-09T12:56:51Z</time>
      </trkpt>
      <trkpt lat="45.26221" lon="6.16061">
        <ele>2616.4</ele>
        <time>2020-02-09T12:56:57Z</time>
      </trkpt>
      <trkpt lat="45.26224" lon="6.16063">
        <ele>2619.7</ele>
        <time>2020-02-09T12:57:04Z</time>
      </trkpt>
      <trkpt lat="45.26226" lon="6.16065">
        <ele>2619.7</ele>
        <time>2020-02-09T12:57:12Z</time>
      </trkpt>
      <trkpt lat="45.26223" lon="6.16063">
        <ele>2619.7</ele>
        <time>2020-02-09T12:57:23Z</time>
      </trkpt>
      <trkpt lat="45.26221" lon="6.1606">
        <ele>2616.4</ele>
        <time>2020-02-09T12:57:32Z</time>
      </trkpt>
      <trkpt lat="45.26219" lon="6.16057">
        <ele>2613</ele>
        <time>2020-02-09T12:57:41Z</time>
      </trkpt>
      <trkpt lat="45.26216" lon="6.16057">
        <ele>2612.2</ele>
        <time>2020-02-09T12:58:23Z</time>
      </trkpt>
      <trkpt lat="45.26217" lon="6.16062">
        <ele>2615.5</ele>
        <time>2020-02-09T12:58:42Z</time>
      </trkpt>
      <trkpt lat="45.2622" lon="6.1606">
        <ele>2615.5</ele>
        <time>2020-02-09T12:58:48Z</time>
      </trkpt>
      <trkpt lat="45.26217" lon="6.1606">
        <ele>2614.7</ele>
        <time>2020-02-09T12:59:34Z</time>
      </trkpt>
      <trkpt lat="45.26219" lon="6.16056">
        <ele>2613</ele>
        <time>2020-02-09T13:00:36Z</time>
      </trkpt>
      <trkpt lat="45.26216" lon="6.16054">
        <ele>2609.8</ele>
        <time>2020-02-09T13:00:41Z</time>
      </trkpt>
      <trkpt lat="45.26215" lon="6.16049">
        <ele>2607.5</ele>
        <time>2020-02-09T13:00:44Z</time>
      </trkpt>
      <trkpt lat="45.26213" lon="6.16047">
        <ele>2606.8</ele>
        <time>2020-02-09T13:00:49Z</time>
      </trkpt>
      <trkpt lat="45.2621" lon="6.16046">
        <ele>2606.1</ele>
        <time>2020-02-09T13:00:52Z</time>
      </trkpt>
      <trkpt lat="45.2621" lon="6.1605">
        <ele>2606.1</ele>
        <time>2020-02-09T13:01:03Z</time>
      </trkpt>
      <trkpt lat="45.26213" lon="6.1605">
        <ele>2606.8</ele>
        <time>2020-02-09T13:01:27Z</time>
      </trkpt>
      <trkpt lat="45.26216" lon="6.16051">
        <ele>2609.8</ele>
        <time>2020-02-09T13:01:37Z</time>
      </trkpt>
      <trkpt lat="45.26218" lon="6.16052">
        <ele>2610.6</ele>
        <time>2020-02-09T13:01:45Z</time>
      </trkpt>
      <trkpt lat="45.26215" lon="6.1605">
        <ele>2607.5</ele>
        <time>2020-02-09T13:01:51Z</time>
      </trkpt>
      <trkpt lat="45.26213" lon="6.16049">
        <ele>2606.8</ele>
        <time>2020-02-09T13:02:07Z</time>
      </trkpt>
      <trkpt lat="45.26211" lon="6.16053">
        <ele>2609.1</ele>
        <time>2020-02-09T13:02:16Z</time>
      </trkpt>
      <trkpt lat="45.26214" lon="6.16052">
        <ele>2609.8</ele>
        <time>2020-02-09T13:02:42Z</time>
      </trkpt>
      <trkpt lat="45.26215" lon="6.16056">
        <ele>2612.2</ele>
        <time>2020-02-09T13:03:06Z</time>
      </trkpt>
      <trkpt lat="45.26214" lon="6.1606">
        <ele>2613.9</ele>
        <time>2020-02-09T13:03:25Z</time>
      </trkpt>
      <trkpt lat="45.26212" lon="6.16055">
        <ele>2611.5</ele>
        <time>2020-02-09T13:03:31Z</time>
      </trkpt>
      <trkpt lat="45.26215" lon="6.1605">
        <ele>2609.8</ele>
        <time>2020-02-09T13:03:45Z</time>
      </trkpt>
      <trkpt lat="45.26212" lon="6.16052">
        <ele>2609.1</ele>
        <time>2020-02-09T13:04:16Z</time>
      </trkpt>
      <trkpt lat="45.26214" lon="6.16055">
        <ele>2612.2</ele>
        <time>2020-02-09T13:04:26Z</time>
      </trkpt>
      <trkpt lat="45.26215" lon="6.1606">
        <ele>2614.7</ele>
        <time>2020-02-09T13:04:49Z</time>
      </trkpt>
      <trkpt lat="45.26217" lon="6.16059">
        <ele>2615.5</ele>
        <time>2020-02-09T13:04:54Z</time>
      </trkpt>
      <trkpt lat="45.2622" lon="6.1606">
        <ele>2615.5</ele>
        <time>2020-02-09T13:05:11Z</time>
      </trkpt>
      <trkpt lat="45.26221" lon="6.16056">
        <ele>2613.9</ele>
        <time>2020-02-09T13:05:34Z</time>
      </trkpt>
      <trkpt lat="45.26224" lon="6.16058">
        <ele>2614.7</ele>
        <time>2020-02-09T13:05:39Z</time>
      </trkpt>
      <trkpt lat="45.26221" lon="6.16061">
        <ele>2616.4</ele>
        <time>2020-02-09T13:06:09Z</time>
      </trkpt>
      <trkpt lat="45.26217" lon="6.16061">
        <ele>2615.5</ele>
        <time>2020-02-09T13:06:20Z</time>
      </trkpt>
      <trkpt lat="45.2622" lon="6.16062">
        <ele>2615.5</ele>
        <time>2020-02-09T13:07:04Z</time>
      </trkpt>
      <trkpt lat="45.26223" lon="6.16062">
        <ele>2616.4</ele>
        <time>2020-02-09T13:07:18Z</time>
      </trkpt>
      <trkpt lat="45.26226" lon="6.16062">
        <ele>2617.2</ele>
        <time>2020-02-09T13:07:48Z</time>
      </trkpt>
      <trkpt lat="45.26224" lon="6.16058">
        <ele>2614.7</ele>
        <time>2020-02-09T13:07:55Z</time>
      </trkpt>
      <trkpt lat="45.26222" lon="6.16061">
        <ele>2616.4</ele>
        <time>2020-02-09T13:07:59Z</time>
      </trkpt>
      <trkpt lat="45.2622" lon="6.16058">
        <ele>2613</ele>
        <time>2020-02-09T13:08:03Z</time>
      </trkpt>
      <trkpt lat="45.26218" lon="6.16061">
        <ele>2615.5</ele>
        <time>2020-02-09T13:08:37Z</time>
      </trkpt>
      <trkpt lat="45.2622" lon="6.16059">
        <ele>2616.4</ele>
        <time>2020-02-09T13:08:57Z</time>
      </trkpt>
      <trkpt lat="45.26223" lon="6.16061">
        <ele>2616.4</ele>
        <time>2020-02-09T13:09:03Z</time>
      </trkpt>
      <trkpt lat="45.26225" lon="6.16064">
        <ele>2619.7</ele>
        <time>2020-02-09T13:09:09Z</time>
      </trkpt>
      <trkpt lat="45.26223" lon="6.16061">
        <ele>2616.4</ele>
        <time>2020-02-09T13:09:24Z</time>
      </trkpt>
      <trkpt lat="45.2622" lon="6.16061">
        <ele>2615.5</ele>
        <time>2020-02-09T13:09:50Z</time>
      </trkpt>
      <trkpt lat="45.26217" lon="6.16061">
        <ele>2614.7</ele>
        <time>2020-02-09T13:09:57Z</time>
      </trkpt>
      <trkpt lat="45.26218" lon="6.16058">
        <ele>2613</ele>
        <time>2020-02-09T13:10:14Z</time>
      </trkpt>
      <trkpt lat="45.26216" lon="6.16059">
        <ele>2614.7</ele>
        <time>2020-02-09T13:11:12Z</time>
      </trkpt>
      <trkpt lat="45.26214" lon="6.16056">
        <ele>2612.2</ele>
        <time>2020-02-09T13:11:20Z</time>
      </trkpt>
      <trkpt lat="45.26211" lon="6.16053">
        <ele>2608.4</ele>
        <time>2020-02-09T13:11:24Z</time>
      </trkpt>
      <trkpt lat="45.26214" lon="6.16053">
        <ele>2609.1</ele>
        <time>2020-02-09T13:11:54Z</time>
      </trkpt>
      <trkpt lat="45.26211" lon="6.16052">
        <ele>2609.1</ele>
        <time>2020-02-09T13:12:15Z</time>
      </trkpt>
      <trkpt lat="45.26209" lon="6.16054">
        <ele>2608.4</ele>
        <time>2020-02-09T13:12:32Z</time>
      </trkpt>
      <trkpt lat="45.26207" lon="6.16051">
        <ele>2607.8</ele>
        <time>2020-02-09T13:12:52Z</time>
      </trkpt>
      <trkpt lat="45.26209" lon="6.16049">
        <ele>2606.1</ele>
        <time>2020-02-09T13:13:31Z</time>
      </trkpt>
      <trkpt lat="45.26209" lon="6.16052">
        <ele>2608.4</ele>
        <time>2020-02-09T13:14:14Z</time>
      </trkpt>
      <trkpt lat="45.26212" lon="6.16052">
        <ele>2609.1</ele>
        <time>2020-02-09T13:14:54Z</time>
      </trkpt>
      <trkpt lat="45.26215" lon="6.16051">
        <ele>2609.8</ele>
        <time>2020-02-09T13:15:26Z</time>
      </trkpt>
      <trkpt lat="45.26213" lon="6.16048">
        <ele>2606.8</ele>
        <time>2020-02-09T13:15:35Z</time>
      </trkpt>
      <trkpt lat="45.2621" lon="6.16047">
        <ele>2606.1</ele>
        <time>2020-02-09T13:15:42Z</time>
      </trkpt>
      <trkpt lat="45.26208" lon="6.16049">
        <ele>2605.5</ele>
        <time>2020-02-09T13:15:52Z</time>
      </trkpt>
      <trkpt lat="45.26205" lon="6.16049">
        <ele>2604.8</ele>
        <time>2020-02-09T13:16:00Z</time>
      </trkpt>
      <trkpt lat="45.26204" lon="6.16044">
        <ele>2602.7</ele>
        <time>2020-02-09T13:16:27Z</time>
      </trkpt>
      <trkpt lat="45.26205" lon="6.16048">
        <ele>2604.8</ele>
        <time>2020-02-09T13:16:51Z</time>
      </trkpt>
      <trkpt lat="45.26203" lon="6.16044">
        <ele>2602.7</ele>
        <time>2020-02-09T13:17:11Z</time>
      </trkpt>
      <trkpt lat="45.26201" lon="6.16041">
        <ele>2599.8</ele>
        <time>2020-02-09T13:17:18Z</time>
      </trkpt>
      <trkpt lat="45.26198" lon="6.16041">
        <ele>2599</ele>
        <time>2020-02-09T13:17:23Z</time>
      </trkpt>
      <trkpt lat="45.26196" lon="6.1604">
        <ele>2598.1</ele>
        <time>2020-02-09T13:17:28Z</time>
      </trkpt>
      <trkpt lat="45.26196" lon="6.16036">
        <ele>2596.9</ele>
        <time>2020-02-09T13:17:42Z</time>
      </trkpt>
      <trkpt lat="45.26196" lon="6.16032">
        <ele>2594.7</ele>
        <time>2020-02-09T13:17:46Z</time>
      </trkpt>
      <trkpt lat="45.26196" lon="6.16028">
        <ele>2591.5</ele>
        <time>2020-02-09T13:18:12Z</time>
      </trkpt>
      <trkpt lat="45.26198" lon="6.16031">
        <ele>2594.7</ele>
        <time>2020-02-09T13:18:26Z</time>
      </trkpt>
      <trkpt lat="45.262" lon="6.16033">
        <ele>2597.7</ele>
        <time>2020-02-09T13:18:43Z</time>
      </trkpt>
      <trkpt lat="45.26197" lon="6.16034">
        <ele>2596.9</ele>
        <time>2020-02-09T13:18:52Z</time>
      </trkpt>
      <trkpt lat="45.26195" lon="6.1603">
        <ele>2593.8</ele>
        <time>2020-02-09T13:18:55Z</time>
      </trkpt>
      <trkpt lat="45.26197" lon="6.16032">
        <ele>2594.7</ele>
        <time>2020-02-09T13:19:09Z</time>
      </trkpt>
      <trkpt lat="45.26197" lon="6.16028">
        <ele>2592.3</ele>
        <time>2020-02-09T13:19:24Z</time>
      </trkpt>
      <trkpt lat="45.26199" lon="6.16025">
        <ele>2592.3</ele>
        <time>2020-02-09T13:19:26Z</time>
      </trkpt>
      <trkpt lat="45.26197" lon="6.1603">
        <ele>2594.7</ele>
        <time>2020-02-09T13:19:33Z</time>
      </trkpt>
      <trkpt lat="45.26194" lon="6.16031">
        <ele>2593.8</ele>
        <time>2020-02-09T13:19:43Z</time>
      </trkpt>
      <trkpt lat="45.26196" lon="6.16027">
        <ele>2591.5</ele>
        <time>2020-02-09T13:19:49Z</time>
      </trkpt>
      <trkpt lat="45.26195" lon="6.16023">
        <ele>2589.1</ele>
        <time>2020-02-09T13:19:57Z</time>
      </trkpt>
      <trkpt lat="45.26192" lon="6.16021">
        <ele>2588.3</ele>
        <time>2020-02-09T13:20:10Z</time>
      </trkpt>
      <trkpt lat="45.26192" lon="6.16016">
        <ele>2585.9</ele>
        <time>2020-02-09T13:20:16Z</time>
      </trkpt>
      <trkpt lat="45.26189" lon="6.16012">
        <ele>2582.8</ele>
        <time>2020-02-09T13:20:26Z</time>
      </trkpt>
      <trkpt lat="45.26187" lon="6.1601">
        <ele>2579.7</ele>
        <time>2020-02-09T13:20:30Z</time>
      </trkpt>
      <trkpt lat="45.26184" lon="6.16012">
        <ele>2582</ele>
        <time>2020-02-09T13:20:41Z</time>
      </trkpt>
      <trkpt lat="45.26187" lon="6.16014">
        <ele>2582</ele>
        <time>2020-02-09T13:21:02Z</time>
      </trkpt>
      <trkpt lat="45.2619" lon="6.16015">
        <ele>2583.6</ele>
        <time>2020-02-09T13:21:07Z</time>
      </trkpt>
      <trkpt lat="45.26192" lon="6.16018">
        <ele>2585.9</ele>
        <time>2020-02-09T13:21:12Z</time>
      </trkpt>
      <trkpt lat="45.26192" lon="6.16022">
        <ele>2588.3</ele>
        <time>2020-02-09T13:21:19Z</time>
      </trkpt>
      <trkpt lat="45.26189" lon="6.16022">
        <ele>2587.5</ele>
        <time>2020-02-09T13:21:25Z</time>
      </trkpt>
      <trkpt lat="45.26189" lon="6.16019">
        <ele>2585.1</ele>
        <time>2020-02-09T13:21:38Z</time>
      </trkpt>
      <trkpt lat="45.2619" lon="6.16014">
        <ele>2582.8</ele>
        <time>2020-02-09T13:21:42Z</time>
      </trkpt>
      <trkpt lat="45.2619" lon="6.16009">
        <ele>2580.4</ele>
        <time>2020-02-09T13:21:55Z</time>
      </trkpt>
      <trkpt lat="45.26188" lon="6.16005">
        <ele>2578.1</ele>
        <time>2020-02-09T13:21:58Z</time>
      </trkpt>
      <trkpt lat="45.26188" lon="6.16009">
        <ele>2580.4</ele>
        <time>2020-02-09T13:22:12Z</time>
      </trkpt>
      <trkpt lat="45.2619" lon="6.16012">
        <ele>2582.8</ele>
        <time>2020-02-09T13:22:28Z</time>
      </trkpt>
      <trkpt lat="45.26189" lon="6.16017">
        <ele>2585.1</ele>
        <time>2020-02-09T13:22:34Z</time>
      </trkpt>
      <trkpt lat="45.26188" lon="6.16013">
        <ele>2582.8</ele>
        <time>2020-02-09T13:23:06Z</time>
      </trkpt>
      <trkpt lat="45.26191" lon="6.16016">
        <ele>2585.9</ele>
        <time>2020-02-09T13:23:19Z</time>
      </trkpt>
      <trkpt lat="45.26192" lon="6.16019">
        <ele>2585.9</ele>
        <time>2020-02-09T13:23:25Z</time>
      </trkpt>
      <trkpt lat="45.26195" lon="6.16018">
        <ele>2586.7</ele>
        <time>2020-02-09T13:23:30Z</time>
      </trkpt>
      <trkpt lat="45.26193" lon="6.16022">
        <ele>2589.1</ele>
        <time>2020-02-09T13:23:40Z</time>
      </trkpt>
      <trkpt lat="45.26194" lon="6.16025">
        <ele>2591.5</ele>
        <time>2020-02-09T13:23:46Z</time>
      </trkpt>
      <trkpt lat="45.26197" lon="6.16028">
        <ele>2592.3</ele>
        <time>2020-02-09T13:23:52Z</time>
      </trkpt>
      <trkpt lat="45.26198" lon="6.16025">
        <ele>2592.3</ele>
        <time>2020-02-09T13:24:01Z</time>
      </trkpt>
      <trkpt lat="45.26196" lon="6.16023">
        <ele>2589.1</ele>
        <time>2020-02-09T13:24:04Z</time>
      </trkpt>
      <trkpt lat="45.26193" lon="6.16025">
        <ele>2591.5</ele>
        <time>2020-02-09T13:24:13Z</time>
      </trkpt>
      <trkpt lat="45.26194" lon="6.16029">
        <ele>2593.8</ele>
        <time>2020-02-09T13:24:37Z</time>
      </trkpt>
      <trkpt lat="45.26196" lon="6.16032">
        <ele>2593.8</ele>
        <time>2020-02-09T13:24:46Z</time>
      </trkpt>
      <trkpt lat="45.26193" lon="6.16032">
        <ele>2593.8</ele>
        <time>2020-02-09T13:25:09Z</time>
      </trkpt>
      <trkpt lat="45.26191" lon="6.16029">
        <ele>2592.9</ele>
        <time>2020-02-09T13:25:49Z</time>
      </trkpt>
      <trkpt lat="45.26193" lon="6.16033">
        <ele>2592.9</ele>
        <time>2020-02-09T13:25:58Z</time>
      </trkpt>
      <trkpt lat="45.26194" lon="6.1603">
        <ele>2593.8</ele>
        <time>2020-02-09T13:26:14Z</time>
      </trkpt>
      <trkpt lat="45.26193" lon="6.16026">
        <ele>2590.6</ele>
        <time>2020-02-09T13:26:25Z</time>
      </trkpt>
      <trkpt lat="45.2619" lon="6.16024">
        <ele>2587.5</ele>
        <time>2020-02-09T13:26:30Z</time>
      </trkpt>
      <trkpt lat="45.26188" lon="6.16027">
        <ele>2589.8</ele>
        <time>2020-02-09T13:26:40Z</time>
      </trkpt>
      <trkpt lat="45.26185" lon="6.16027">
        <ele>2589.1</ele>
        <time>2020-02-09T13:27:04Z</time>
      </trkpt>
      <trkpt lat="45.26182" lon="6.16026">
        <ele>2588.3</ele>
        <time>2020-02-09T13:27:11Z</time>
      </trkpt>
      <trkpt lat="45.26185" lon="6.16026">
        <ele>2589.1</ele>
        <time>2020-02-09T13:27:21Z</time>
      </trkpt>
      <trkpt lat="45.26188" lon="6.16028">
        <ele>2589.8</ele>
        <time>2020-02-09T13:27:32Z</time>
      </trkpt>
      <trkpt lat="45.26185" lon="6.16025">
        <ele>2589.1</ele>
        <time>2020-02-09T13:27:39Z</time>
      </trkpt>
      <trkpt lat="45.26183" lon="6.16022">
        <ele>2586</ele>
        <time>2020-02-09T13:27:43Z</time>
      </trkpt>
      <trkpt lat="45.26182" lon="6.16018">
        <ele>2583.6</ele>
        <time>2020-02-09T13:27:47Z</time>
      </trkpt>
      <trkpt lat="45.26179" lon="6.16017">
        <ele>2582.9</ele>
        <time>2020-02-09T13:27:56Z</time>
      </trkpt>
      <trkpt lat="45.26175" lon="6.16016">
        <ele>2582</ele>
        <time>2020-02-09T13:28:02Z</time>
      </trkpt>
      <trkpt lat="45.26172" lon="6.16016">
        <ele>2581</ele>
        <time>2020-02-09T13:28:14Z</time>
      </trkpt>
      <trkpt lat="45.26169" lon="6.16015">
        <ele>2577.5</ele>
        <time>2020-02-09T13:28:17Z</time>
      </trkpt>
      <trkpt lat="45.26173" lon="6.16013">
        <ele>2578.6</ele>
        <time>2020-02-09T13:28:30Z</time>
      </trkpt>
      <trkpt lat="45.26175" lon="6.16011">
        <ele>2577.2</ele>
        <time>2020-02-09T13:28:33Z</time>
      </trkpt>
      <trkpt lat="45.26176" lon="6.16007">
        <ele>2577.2</ele>
        <time>2020-02-09T13:29:15Z</time>
      </trkpt>
      <trkpt lat="45.26174" lon="6.16004">
        <ele>2573.8</ele>
        <time>2020-02-09T13:29:41Z</time>
      </trkpt>
      <trkpt lat="45.26171" lon="6.16002">
        <ele>2570.2</ele>
        <time>2020-02-09T13:29:56Z</time>
      </trkpt>
      <trkpt lat="45.26168" lon="6.16001">
        <ele>2569</ele>
        <time>2020-02-09T13:30:02Z</time>
      </trkpt>
      <trkpt lat="45.26166" lon="6.15999">
        <ele>2569</ele>
        <time>2020-02-09T13:30:12Z</time>
      </trkpt>
      <trkpt lat="45.26166" lon="6.15995">
        <ele>2565.4</ele>
        <time>2020-02-09T13:30:17Z</time>
      </trkpt>
      <trkpt lat="45.26167" lon="6.15992">
        <ele>2564.2</ele>
        <time>2020-02-09T13:30:44Z</time>
      </trkpt>
      <trkpt lat="45.2617" lon="6.15992">
        <ele>2565.4</ele>
        <time>2020-02-09T13:31:05Z</time>
      </trkpt>
      <trkpt lat="45.26167" lon="6.15993">
        <ele>2564.2</ele>
        <time>2020-02-09T13:31:28Z</time>
      </trkpt>
      <trkpt lat="45.2617" lon="6.15993">
        <ele>2565.4</ele>
        <time>2020-02-09T13:31:56Z</time>
      </trkpt>
      <trkpt lat="45.26173" lon="6.15991">
        <ele>2566.5</ele>
        <time>2020-02-09T13:32:01Z</time>
      </trkpt>
      <trkpt lat="45.26172" lon="6.15988">
        <ele>2564</ele>
        <time>2020-02-09T13:32:11Z</time>
      </trkpt>
      <trkpt lat="45.26169" lon="6.15986">
        <ele>2562.9</ele>
        <time>2020-02-09T13:32:26Z</time>
      </trkpt>
      <trkpt lat="45.2617" lon="6.15991">
        <ele>2565.4</ele>
        <time>2020-02-09T13:32:54Z</time>
      </trkpt>
      <trkpt lat="45.26169" lon="6.15987">
        <ele>2561.7</ele>
        <time>2020-02-09T13:33:27Z</time>
      </trkpt>
      <trkpt lat="45.26168" lon="6.15983">
        <ele>2559.1</ele>
        <time>2020-02-09T13:33:36Z</time>
      </trkpt>
      <trkpt lat="45.2617" lon="6.15986">
        <ele>2562.9</ele>
        <time>2020-02-09T13:33:45Z</time>
      </trkpt>
      <trkpt lat="45.26172" lon="6.15983">
        <ele>2561.4</ele>
        <time>2020-02-09T13:33:54Z</time>
      </trkpt>
      <trkpt lat="45.26175" lon="6.15982">
        <ele>2562.5</ele>
        <time>2020-02-09T13:34:01Z</time>
      </trkpt>
      <trkpt lat="45.26178" lon="6.15982">
        <ele>2562.5</ele>
        <time>2020-02-09T13:34:09Z</time>
      </trkpt>
      <trkpt lat="45.26175" lon="6.1598">
        <ele>2559.8</ele>
        <time>2020-02-09T13:34:29Z</time>
      </trkpt>
      <trkpt lat="45.26173" lon="6.15978">
        <ele>2558.7</ele>
        <time>2020-02-09T13:34:36Z</time>
      </trkpt>
      <trkpt lat="45.2617" lon="6.15976">
        <ele>2554.8</ele>
        <time>2020-02-09T13:34:47Z</time>
      </trkpt>
      <trkpt lat="45.26171" lon="6.15972">
        <ele>2552</ele>
        <time>2020-02-09T13:35:14Z</time>
      </trkpt>
      <trkpt lat="45.26168" lon="6.15971">
        <ele>2550.8</ele>
        <time>2020-02-09T13:35:19Z</time>
      </trkpt>
      <trkpt lat="45.26167" lon="6.15967">
        <ele>2548.1</ele>
        <time>2020-02-09T13:35:30Z</time>
      </trkpt>
      <trkpt lat="45.26166" lon="6.15963">
        <ele>2545.5</ele>
        <time>2020-02-09T13:35:37Z</time>
      </trkpt>
      <trkpt lat="45.26165" lon="6.1596">
        <ele>2541.8</ele>
        <time>2020-02-09T13:35:43Z</time>
      </trkpt>
      <trkpt lat="45.26166" lon="6.15956">
        <ele>2542.9</ele>
        <time>2020-02-09T13:36:16Z</time>
      </trkpt>
      <trkpt lat="45.26169" lon="6.15953">
        <ele>2541.6</ele>
        <time>2020-02-09T13:36:26Z</time>
      </trkpt>
      <trkpt lat="45.26166" lon="6.15953">
        <ele>2539.4</ele>
        <time>2020-02-09T13:36:36Z</time>
      </trkpt>
      <trkpt lat="45.26163" lon="6.15953">
        <ele>2539.4</ele>
        <time>2020-02-09T13:36:43Z</time>
      </trkpt>
      <trkpt lat="45.26166" lon="6.15953">
        <ele>2539.4</ele>
        <time>2020-02-09T13:37:06Z</time>
      </trkpt>
      <trkpt lat="45.26166" lon="6.15949">
        <ele>2537.1</ele>
        <time>2020-02-09T13:37:22Z</time>
      </trkpt>
      <trkpt lat="45.26165" lon="6.15944">
        <ele>2534.7</ele>
        <time>2020-02-09T13:37:33Z</time>
      </trkpt>
      <trkpt lat="45.26166" lon="6.1594">
        <ele>2533.4</ele>
        <time>2020-02-09T13:37:49Z</time>
      </trkpt>
      <trkpt lat="45.26167" lon="6.15936">
        <ele>2531.2</ele>
        <time>2020-02-09T13:37:53Z</time>
      </trkpt>
      <trkpt lat="45.26165" lon="6.15933">
        <ele>2528</ele>
        <time>2020-02-09T13:37:58Z</time>
      </trkpt>
      <trkpt lat="45.26162" lon="6.15932">
        <ele>2527</ele>
        <time>2020-02-09T13:38:08Z</time>
      </trkpt>
      <trkpt lat="45.26161" lon="6.15928">
        <ele>2524.9</ele>
        <time>2020-02-09T13:38:39Z</time>
      </trkpt>
      <trkpt lat="45.26159" lon="6.15925">
        <ele>2522.1</ele>
        <time>2020-02-09T13:38:51Z</time>
      </trkpt>
      <trkpt lat="45.26157" lon="6.15922">
        <ele>2522.1</ele>
        <time>2020-02-09T13:39:11Z</time>
      </trkpt>
      <trkpt lat="45.2616" lon="6.15921">
        <ele>2521.2</ele>
        <time>2020-02-09T13:39:38Z</time>
      </trkpt>
      <trkpt lat="45.26157" lon="6.15919">
        <ele>2520.3</ele>
        <time>2020-02-09T13:39:53Z</time>
      </trkpt>
      <trkpt lat="45.26158" lon="6.15915">
        <ele>2518.7</ele>
        <time>2020-02-09T13:40:01Z</time>
      </trkpt>
      <trkpt lat="45.26159" lon="6.15911">
        <ele>2517.2</ele>
        <time>2020-02-09T13:40:40Z</time>
      </trkpt>
      <trkpt lat="45.26159" lon="6.15906">
        <ele>2515.9</ele>
        <time>2020-02-09T13:40:54Z</time>
      </trkpt>
      <trkpt lat="45.26157" lon="6.15903">
        <ele>2514.7</ele>
        <time>2020-02-09T13:41:03Z</time>
      </trkpt>
      <trkpt lat="45.26157" lon="6.15898">
        <ele>2512.8</ele>
        <time>2020-02-09T13:41:12Z</time>
      </trkpt>
      <trkpt lat="45.26156" lon="6.15893">
        <ele>2511.7</ele>
        <time>2020-02-09T13:41:15Z</time>
      </trkpt>
      <trkpt lat="45.26155" lon="6.15889">
        <ele>2510.6</ele>
        <time>2020-02-09T13:41:19Z</time>
      </trkpt>
      <trkpt lat="45.26155" lon="6.15885">
        <ele>2509.5</ele>
        <time>2020-02-09T13:41:34Z</time>
      </trkpt>
      <trkpt lat="45.26155" lon="6.1588">
        <ele>2508.5</ele>
        <time>2020-02-09T13:41:39Z</time>
      </trkpt>
      <trkpt lat="45.26155" lon="6.15876">
        <ele>2507.6</ele>
        <time>2020-02-09T13:41:52Z</time>
      </trkpt>
      <trkpt lat="45.26156" lon="6.15873">
        <ele>2506.9</ele>
        <time>2020-02-09T13:42:03Z</time>
      </trkpt>
      <trkpt lat="45.2616" lon="6.15874">
        <ele>2508.6</ele>
        <time>2020-02-09T13:42:23Z</time>
      </trkpt>
      <trkpt lat="45.26161" lon="6.15878">
        <ele>2509.4</ele>
        <time>2020-02-09T13:42:32Z</time>
      </trkpt>
      <trkpt lat="45.26163" lon="6.1588">
        <ele>2511.2</ele>
        <time>2020-02-09T13:42:35Z</time>
      </trkpt>
      <trkpt lat="45.26165" lon="6.15877">
        <ele>2510.3</ele>
        <time>2020-02-09T13:42:48Z</time>
      </trkpt>
      <trkpt lat="45.26161" lon="6.1588">
        <ele>2510.2</ele>
        <time>2020-02-09T13:42:58Z</time>
      </trkpt>
      <trkpt lat="45.2616" lon="6.15876">
        <ele>2508.5</ele>
        <time>2020-02-09T13:43:08Z</time>
      </trkpt>
      <trkpt lat="45.2616" lon="6.15872">
        <ele>2508.6</ele>
        <time>2020-02-09T13:43:41Z</time>
      </trkpt>
      <trkpt lat="45.26158" lon="6.15876">
        <ele>2508.5</ele>
        <time>2020-02-09T13:43:53Z</time>
      </trkpt>
      <trkpt lat="45.26161" lon="6.15877">
        <ele>2509.4</ele>
        <time>2020-02-09T13:44:02Z</time>
      </trkpt>
      <trkpt lat="45.26159" lon="6.15881">
        <ele>2509.4</ele>
        <time>2020-02-09T13:44:37Z</time>
      </trkpt>
      <trkpt lat="45.26157" lon="6.15877">
        <ele>2508.5</ele>
        <time>2020-02-09T13:45:08Z</time>
      </trkpt>
      <trkpt lat="45.26158" lon="6.15873">
        <ele>2507.7</ele>
        <time>2020-02-09T13:45:38Z</time>
      </trkpt>
      <trkpt lat="45.26155" lon="6.15873">
        <ele>2506.9</ele>
        <time>2020-02-09T13:46:33Z</time>
      </trkpt>
      <trkpt lat="45.26157" lon="6.15874">
        <ele>2508.5</ele>
        <time>2020-02-09T13:46:43Z</time>
      </trkpt>
      <trkpt lat="45.26157" lon="6.15878">
        <ele>2508.5</ele>
        <time>2020-02-09T13:47:03Z</time>
      </trkpt>
      <trkpt lat="45.2616" lon="6.15877">
        <ele>2508.5</ele>
        <time>2020-02-09T13:47:53Z</time>
      </trkpt>
      <trkpt lat="45.26163" lon="6.15876">
        <ele>2509.4</ele>
        <time>2020-02-09T13:47:57Z</time>
      </trkpt>
      <trkpt lat="45.26161" lon="6.15872">
        <ele>2508.6</ele>
        <time>2020-02-09T13:48:10Z</time>
      </trkpt>
      <trkpt lat="45.26158" lon="6.1587">
        <ele>2507.7</ele>
        <time>2020-02-09T13:48:13Z</time>
      </trkpt>
      <trkpt lat="45.26155" lon="6.1587">
        <ele>2506.9</ele>
        <time>2020-02-09T13:48:31Z</time>
      </trkpt>
      <trkpt lat="45.26153" lon="6.15872">
        <ele>2506</ele>
        <time>2020-02-09T13:49:05Z</time>
      </trkpt>
      <trkpt lat="45.26151" lon="6.15871">
        <ele>2505.2</ele>
        <time>2020-02-09T13:49:14Z</time>
      </trkpt>
      <trkpt lat="45.26154" lon="6.15871">
        <ele>2506.9</ele>
        <time>2020-02-09T13:49:24Z</time>
      </trkpt>
      <trkpt lat="45.26157" lon="6.1587">
        <ele>2507.7</ele>
        <time>2020-02-09T13:49:56Z</time>
      </trkpt>
      <trkpt lat="45.2616" lon="6.15868">
        <ele>2508</ele>
        <time>2020-02-09T13:50:02Z</time>
      </trkpt>
      <trkpt lat="45.26162" lon="6.15865">
        <ele>2507.4</ele>
        <time>2020-02-09T13:50:42Z</time>
      </trkpt>
      <trkpt lat="45.26163" lon="6.15868">
        <ele>2508.9</ele>
        <time>2020-02-09T13:50:46Z</time>
      </trkpt>
      <trkpt lat="45.26162" lon="6.15873">
        <ele>2508.6</ele>
        <time>2020-02-09T13:50:58Z</time>
      </trkpt>
      <trkpt lat="45.26165" lon="6.15876">
        <ele>2510.3</ele>
        <time>2020-02-09T13:51:09Z</time>
      </trkpt>
      <trkpt lat="45.26162" lon="6.15875">
        <ele>2509.4</ele>
        <time>2020-02-09T13:51:14Z</time>
      </trkpt>
      <trkpt lat="45.26158" lon="6.15873">
        <ele>2507.7</ele>
        <time>2020-02-09T13:51:57Z</time>
      </trkpt>
      <trkpt lat="45.26157" lon="6.1587">
        <ele>2507.7</ele>
        <time>2020-02-09T13:52:05Z</time>
      </trkpt>
      <trkpt lat="45.26154" lon="6.15872">
        <ele>2506.9</ele>
        <time>2020-02-09T13:52:17Z</time>
      </trkpt>
      <trkpt lat="45.26157" lon="6.1587">
        <ele>2507.7</ele>
        <time>2020-02-09T13:52:36Z</time>
      </trkpt>
      <trkpt lat="45.26155" lon="6.15873">
        <ele>2506.9</ele>
        <time>2020-02-09T13:52:49Z</time>
      </trkpt>
      <trkpt lat="45.26155" lon="6.15868">
        <ele>2506.2</ele>
        <time>2020-02-09T13:53:31Z</time>
      </trkpt>
      <trkpt lat="45.26154" lon="6.15865">
        <ele>2505.3</ele>
        <time>2020-02-09T13:53:39Z</time>
      </trkpt>
      <trkpt lat="45.2615" lon="6.15863">
        <ele>2503.9</ele>
        <time>2020-02-09T13:53:50Z</time>
      </trkpt>
      <trkpt lat="45.26145" lon="6.15865">
        <ele>2502.3</ele>
        <time>2020-02-09T13:53:52Z</time>
      </trkpt>
      <trkpt lat="45.26141" lon="6.15866">
        <ele>2502.1</ele>
        <time>2020-02-09T13:53:53Z</time>
      </trkpt>
      <trkpt lat="45.26137" lon="6.15865">
        <ele>2500.6</ele>
        <time>2020-02-09T13:53:54Z</time>
      </trkpt>
      <trkpt lat="45.26135" lon="6.1586">
        <ele>2499.1</ele>
        <time>2020-02-09T13:53:55Z</time>
      </trkpt>
      <trkpt lat="45.26133" lon="6.15855">
        <ele>2498.5</ele>
        <time>2020-02-09T13:53:56Z</time>
      </trkpt>
      <trkpt lat="45.26134" lon="6.15848">
        <ele>2497.4</ele>
        <time>2020-02-09T13:53:57Z</time>
      </trkpt>
      <trkpt lat="45.26134" lon="6.15839">
        <ele>2496.4</ele>
        <time>2020-02-09T13:53:58Z</time>
      </trkpt>
      <trkpt lat="45.26134" lon="6.15831">
        <ele>2495.5</ele>
        <time>2020-02-09T13:53:59Z</time>
      </trkpt>
      <trkpt lat="45.26132" lon="6.15824">
        <ele>2494.4</ele>
        <time>2020-02-09T13:54:00Z</time>
      </trkpt>
      <trkpt lat="45.2613" lon="6.15816">
        <ele>2493.8</ele>
        <time>2020-02-09T13:54:01Z</time>
      </trkpt>
      <trkpt lat="45.26127" lon="6.15815">
        <ele>2493.1</ele>
        <time>2020-02-09T13:54:02Z</time>
      </trkpt>
      <trkpt lat="45.26123" lon="6.15817">
        <ele>2491.9</ele>
        <time>2020-02-09T13:54:03Z</time>
      </trkpt>
      <trkpt lat="45.26118" lon="6.15818">
        <ele>2491.3</ele>
        <time>2020-02-09T13:54:04Z</time>
      </trkpt>
      <trkpt lat="45.26114" lon="6.15816">
        <ele>2489.9</ele>
        <time>2020-02-09T13:54:05Z</time>
      </trkpt>
      <trkpt lat="45.2611" lon="6.15814">
        <ele>2489.1</ele>
        <time>2020-02-09T13:54:06Z</time>
      </trkpt>
      <trkpt lat="45.26106" lon="6.15815">
        <ele>2488.3</ele>
        <time>2020-02-09T13:54:07Z</time>
      </trkpt>
      <trkpt lat="45.26101" lon="6.15816">
        <ele>2487</ele>
        <time>2020-02-09T13:54:08Z</time>
      </trkpt>
      <trkpt lat="45.26097" lon="6.15813">
        <ele>2486.1</ele>
        <time>2020-02-09T13:54:09Z</time>
      </trkpt>
      <trkpt lat="45.26094" lon="6.15809">
        <ele>2485.1</ele>
        <time>2020-02-09T13:54:10Z</time>
      </trkpt>
      <trkpt lat="45.26092" lon="6.15802">
        <ele>2484.1</ele>
        <time>2020-02-09T13:54:11Z</time>
      </trkpt>
      <trkpt lat="45.2609" lon="6.15796">
        <ele>2483.4</ele>
        <time>2020-02-09T13:54:12Z</time>
      </trkpt>
      <trkpt lat="45.26089" lon="6.15792">
        <ele>2482.3</ele>
        <time>2020-02-09T13:54:13Z</time>
      </trkpt>
      <trkpt lat="45.26087" lon="6.15788">
        <ele>2482</ele>
        <time>2020-02-09T13:54:14Z</time>
      </trkpt>
      <trkpt lat="45.26085" lon="6.15781">
        <ele>2480.8</ele>
        <time>2020-02-09T13:54:15Z</time>
      </trkpt>
      <trkpt lat="45.26082" lon="6.15774">
        <ele>2479.4</ele>
        <time>2020-02-09T13:54:16Z</time>
      </trkpt>
      <trkpt lat="45.26079" lon="6.15767">
        <ele>2478.2</ele>
        <time>2020-02-09T13:54:17Z</time>
      </trkpt>
      <trkpt lat="45.26077" lon="6.15761">
        <ele>2476.9</ele>
        <time>2020-02-09T13:54:18Z</time>
      </trkpt>
      <trkpt lat="45.26074" lon="6.15757">
        <ele>2475.7</ele>
        <time>2020-02-09T13:54:19Z</time>
      </trkpt>
      <trkpt lat="45.26072" lon="6.15753">
        <ele>2474.5</ele>
        <time>2020-02-09T13:54:20Z</time>
      </trkpt>
      <trkpt lat="45.26069" lon="6.1575">
        <ele>2473.5</ele>
        <time>2020-02-09T13:54:21Z</time>
      </trkpt>
      <trkpt lat="45.26065" lon="6.15747">
        <ele>2472.3</ele>
        <time>2020-02-09T13:54:23Z</time>
      </trkpt>
      <trkpt lat="45.26062" lon="6.15744">
        <ele>2471</ele>
        <time>2020-02-09T13:54:26Z</time>
      </trkpt>
      <trkpt lat="45.26059" lon="6.15744">
        <ele>2469.9</ele>
        <time>2020-02-09T13:54:27Z</time>
      </trkpt>
      <trkpt lat="45.26056" lon="6.15742">
        <ele>2468.8</ele>
        <time>2020-02-09T13:54:29Z</time>
      </trkpt>
      <trkpt lat="45.26052" lon="6.1574">
        <ele>2467.3</ele>
        <time>2020-02-09T13:54:31Z</time>
      </trkpt>
      <trkpt lat="45.26049" lon="6.15738">
        <ele>2466.1</ele>
        <time>2020-02-09T13:54:33Z</time>
      </trkpt>
      <trkpt lat="45.26046" lon="6.15737">
        <ele>2464.9</ele>
        <time>2020-02-09T13:54:36Z</time>
      </trkpt>
      <trkpt lat="45.26044" lon="6.15739">
        <ele>2463.7</ele>
        <time>2020-02-09T13:56:27Z</time>
      </trkpt>
      <trkpt lat="45.2604" lon="6.15742">
        <ele>2463</ele>
        <time>2020-02-09T13:56:29Z</time>
      </trkpt>
      <trkpt lat="45.26035" lon="6.15743">
        <ele>2460.8</ele>
        <time>2020-02-09T13:56:31Z</time>
      </trkpt>
      <trkpt lat="45.26033" lon="6.15744">
        <ele>2459.7</ele>
        <time>2020-02-09T13:56:32Z</time>
      </trkpt>
      <trkpt lat="45.2603" lon="6.15746">
        <ele>2460.1</ele>
        <time>2020-02-09T13:56:33Z</time>
      </trkpt>
      <trkpt lat="45.26027" lon="6.15748">
        <ele>2458.9</ele>
        <time>2020-02-09T13:56:34Z</time>
      </trkpt>
      <trkpt lat="45.26023" lon="6.1575">
        <ele>2457</ele>
        <time>2020-02-09T13:56:35Z</time>
      </trkpt>
      <trkpt lat="45.26019" lon="6.15752">
        <ele>2455.9</ele>
        <time>2020-02-09T13:56:36Z</time>
      </trkpt>
      <trkpt lat="45.26016" lon="6.15752">
        <ele>2455</ele>
        <time>2020-02-09T13:56:37Z</time>
      </trkpt>
      <trkpt lat="45.26013" lon="6.15754">
        <ele>2454.2</ele>
        <time>2020-02-09T13:56:38Z</time>
      </trkpt>
      <trkpt lat="45.2601" lon="6.15757">
        <ele>2453.9</ele>
        <time>2020-02-09T13:56:39Z</time>
      </trkpt>
      <trkpt lat="45.26009" lon="6.1576">
        <ele>2454.5</ele>
        <time>2020-02-09T13:56:40Z</time>
      </trkpt>
      <trkpt lat="45.26005" lon="6.15765">
        <ele>2453.4</ele>
        <time>2020-02-09T13:56:42Z</time>
      </trkpt>
      <trkpt lat="45.26006" lon="6.15771">
        <ele>2454.6</ele>
        <time>2020-02-09T13:56:43Z</time>
      </trkpt>
      <trkpt lat="45.26003" lon="6.15775">
        <ele>2454.6</ele>
        <time>2020-02-09T13:56:44Z</time>
      </trkpt>
      <trkpt lat="45.25998" lon="6.15773">
        <ele>2452.9</ele>
        <time>2020-02-09T13:56:46Z</time>
      </trkpt>
      <trkpt lat="45.25994" lon="6.15774">
        <ele>2451.3</ele>
        <time>2020-02-09T13:56:49Z</time>
      </trkpt>
      <trkpt lat="45.25992" lon="6.15775">
        <ele>2451.3</ele>
        <time>2020-02-09T13:57:31Z</time>
      </trkpt>
      <trkpt lat="45.25991" lon="6.15777">
        <ele>2452</ele>
        <time>2020-02-09T13:57:57Z</time>
      </trkpt>
      <trkpt lat="45.25989" lon="6.15778">
        <ele>2451.3</ele>
        <time>2020-02-09T13:58:40Z</time>
      </trkpt>
      <trkpt lat="45.25988" lon="6.1578">
        <ele>2451.9</ele>
        <time>2020-02-09T13:58:41Z</time>
      </trkpt>
      <trkpt lat="45.25985" lon="6.15778">
        <ele>2450.6</ele>
        <time>2020-02-09T13:58:42Z</time>
      </trkpt>
      <trkpt lat="45.25981" lon="6.15777">
        <ele>2449.1</ele>
        <time>2020-02-09T13:58:43Z</time>
      </trkpt>
      <trkpt lat="45.25978" lon="6.15775">
        <ele>2447.7</ele>
        <time>2020-02-09T13:58:44Z</time>
      </trkpt>
      <trkpt lat="45.25974" lon="6.15773">
        <ele>2446.8</ele>
        <time>2020-02-09T13:58:45Z</time>
      </trkpt>
      <trkpt lat="45.25972" lon="6.15769">
        <ele>2445.4</ele>
        <time>2020-02-09T13:58:46Z</time>
      </trkpt>
      <trkpt lat="45.2597" lon="6.15764">
        <ele>2444.8</ele>
        <time>2020-02-09T13:58:47Z</time>
      </trkpt>
      <trkpt lat="45.25967" lon="6.15759">
        <ele>2443.3</ele>
        <time>2020-02-09T13:58:48Z</time>
      </trkpt>
      <trkpt lat="45.25965" lon="6.15755">
        <ele>2441.8</ele>
        <time>2020-02-09T13:58:49Z</time>
      </trkpt>
      <trkpt lat="45.25963" lon="6.15752">
        <ele>2440.3</ele>
        <time>2020-02-09T13:58:50Z</time>
      </trkpt>
      <trkpt lat="45.2596" lon="6.15749">
        <ele>2438.7</ele>
        <time>2020-02-09T13:58:51Z</time>
      </trkpt>
      <trkpt lat="45.25958" lon="6.15744">
        <ele>2438</ele>
        <time>2020-02-09T13:58:52Z</time>
      </trkpt>
      <trkpt lat="45.25955" lon="6.1574">
        <ele>2436.5</ele>
        <time>2020-02-09T13:58:53Z</time>
      </trkpt>
      <trkpt lat="45.25953" lon="6.15735">
        <ele>2435.1</ele>
        <time>2020-02-09T13:58:54Z</time>
      </trkpt>
      <trkpt lat="45.25952" lon="6.1573">
        <ele>2434.5</ele>
        <time>2020-02-09T13:58:55Z</time>
      </trkpt>
      <trkpt lat="45.25951" lon="6.15725">
        <ele>2433.1</ele>
        <time>2020-02-09T13:58:56Z</time>
      </trkpt>
      <trkpt lat="45.25949" lon="6.15721">
        <ele>2432.4</ele>
        <time>2020-02-09T13:58:57Z</time>
      </trkpt>
      <trkpt lat="45.25945" lon="6.15718">
        <ele>2430.2</ele>
        <time>2020-02-09T13:58:59Z</time>
      </trkpt>
      <trkpt lat="45.25942" lon="6.15716">
        <ele>2428.9</ele>
        <time>2020-02-09T13:59:02Z</time>
      </trkpt>
      <trkpt lat="45.25937" lon="6.15719">
        <ele>2428.1</ele>
        <time>2020-02-09T13:59:04Z</time>
      </trkpt>
      <trkpt lat="45.25933" lon="6.15719">
        <ele>2426.7</ele>
        <time>2020-02-09T13:59:06Z</time>
      </trkpt>
      <trkpt lat="45.2593" lon="6.15716">
        <ele>2426.1</ele>
        <time>2020-02-09T13:59:08Z</time>
      </trkpt>
      <trkpt lat="45.25926" lon="6.15712">
        <ele>2424.7</ele>
        <time>2020-02-09T13:59:10Z</time>
      </trkpt>
      <trkpt lat="45.25922" lon="6.15712">
        <ele>2424</ele>
        <time>2020-02-09T13:59:12Z</time>
      </trkpt>
      <trkpt lat="45.25916" lon="6.15713">
        <ele>2422.5</ele>
        <time>2020-02-09T13:59:14Z</time>
      </trkpt>
      <trkpt lat="45.25913" lon="6.15714">
        <ele>2421.8</ele>
        <time>2020-02-09T13:59:15Z</time>
      </trkpt>
      <trkpt lat="45.2591" lon="6.1571">
        <ele>2420.3</ele>
        <time>2020-02-09T13:59:17Z</time>
      </trkpt>
      <trkpt lat="45.25906" lon="6.15705">
        <ele>2418.8</ele>
        <time>2020-02-09T13:59:19Z</time>
      </trkpt>
      <trkpt lat="45.25903" lon="6.15706">
        <ele>2418.2</ele>
        <time>2020-02-09T13:59:21Z</time>
      </trkpt>
      <trkpt lat="45.25901" lon="6.15709">
        <ele>2418.7</ele>
        <time>2020-02-09T13:59:24Z</time>
      </trkpt>
      <trkpt lat="45.25898" lon="6.15707">
        <ele>2418.2</ele>
        <time>2020-02-09T13:59:28Z</time>
      </trkpt>
      <trkpt lat="45.25897" lon="6.15703">
        <ele>2416.7</ele>
        <time>2020-02-09T13:59:31Z</time>
      </trkpt>
      <trkpt lat="45.25894" lon="6.157">
        <ele>2415.2</ele>
        <time>2020-02-09T13:59:33Z</time>
      </trkpt>
      <trkpt lat="45.2589" lon="6.157">
        <ele>2414.7</ele>
        <time>2020-02-09T13:59:36Z</time>
      </trkpt>
      <trkpt lat="45.25889" lon="6.15695">
        <ele>2413.7</ele>
        <time>2020-02-09T13:59:38Z</time>
      </trkpt>
      <trkpt lat="45.25886" lon="6.15695">
        <ele>2413.3</ele>
        <time>2020-02-09T13:59:40Z</time>
      </trkpt>
      <trkpt lat="45.25885" lon="6.15699">
        <ele>2414.3</ele>
        <time>2020-02-09T13:59:48Z</time>
      </trkpt>
      <trkpt lat="45.25884" lon="6.15692">
        <ele>2412</ele>
        <time>2020-02-09T13:59:51Z</time>
      </trkpt>
      <trkpt lat="45.25885" lon="6.15687">
        <ele>2411.1</ele>
        <time>2020-02-09T13:59:53Z</time>
      </trkpt>
      <trkpt lat="45.25884" lon="6.15683">
        <ele>2410.3</ele>
        <time>2020-02-09T13:59:55Z</time>
      </trkpt>
      <trkpt lat="45.2588" lon="6.1568">
        <ele>2409.2</ele>
        <time>2020-02-09T13:59:58Z</time>
      </trkpt>
      <trkpt lat="45.25879" lon="6.15676">
        <ele>2408</ele>
        <time>2020-02-09T13:59:59Z</time>
      </trkpt>
      <trkpt lat="45.25875" lon="6.15674">
        <ele>2407.7</ele>
        <time>2020-02-09T14:00:00Z</time>
      </trkpt>
      <trkpt lat="45.2587" lon="6.15673">
        <ele>2407.4</ele>
        <time>2020-02-09T14:00:02Z</time>
      </trkpt>
      <trkpt lat="45.25866" lon="6.15671">
        <ele>2406</ele>
        <time>2020-02-09T14:00:04Z</time>
      </trkpt>
      <trkpt lat="45.25864" lon="6.15666">
        <ele>2405.1</ele>
        <time>2020-02-09T14:00:05Z</time>
      </trkpt>
      <trkpt lat="45.25861" lon="6.15665">
        <ele>2404.7</ele>
        <time>2020-02-09T14:00:06Z</time>
      </trkpt>
      <trkpt lat="45.25855" lon="6.15663">
        <ele>2403.2</ele>
        <time>2020-02-09T14:00:09Z</time>
      </trkpt>
      <trkpt lat="45.2585" lon="6.15662">
        <ele>2402.7</ele>
        <time>2020-02-09T14:00:10Z</time>
      </trkpt>
      <trkpt lat="45.25842" lon="6.15662">
        <ele>2402.1</ele>
        <time>2020-02-09T14:00:11Z</time>
      </trkpt>
      <trkpt lat="45.25835" lon="6.15661">
        <ele>2401.6</ele>
        <time>2020-02-09T14:00:12Z</time>
      </trkpt>
      <trkpt lat="45.25832" lon="6.1566">
        <ele>2401.4</ele>
        <time>2020-02-09T14:00:13Z</time>
      </trkpt>
      <trkpt lat="45.2583" lon="6.15655">
        <ele>2400</ele>
        <time>2020-02-09T14:00:15Z</time>
      </trkpt>
      <trkpt lat="45.25832" lon="6.1565">
        <ele>2398.1</ele>
        <time>2020-02-09T14:00:17Z</time>
      </trkpt>
      <trkpt lat="45.25835" lon="6.15641">
        <ele>2396.5</ele>
        <time>2020-02-09T14:00:19Z</time>
      </trkpt>
      <trkpt lat="45.25835" lon="6.15634">
        <ele>2395.6</ele>
        <time>2020-02-09T14:00:20Z</time>
      </trkpt>
      <trkpt lat="45.25836" lon="6.1563">
        <ele>2394.7</ele>
        <time>2020-02-09T14:00:21Z</time>
      </trkpt>
      <trkpt lat="45.25836" lon="6.15625">
        <ele>2393.2</ele>
        <time>2020-02-09T14:00:29Z</time>
      </trkpt>
      <trkpt lat="45.25831" lon="6.15618">
        <ele>2392</ele>
        <time>2020-02-09T14:00:31Z</time>
      </trkpt>
      <trkpt lat="45.2583" lon="6.15611">
        <ele>2390.3</ele>
        <time>2020-02-09T14:00:32Z</time>
      </trkpt>
      <trkpt lat="45.25827" lon="6.15604">
        <ele>2389.2</ele>
        <time>2020-02-09T14:00:33Z</time>
      </trkpt>
      <trkpt lat="45.25825" lon="6.15601">
        <ele>2388.6</ele>
        <time>2020-02-09T14:00:34Z</time>
      </trkpt>
      <trkpt lat="45.25822" lon="6.15601">
        <ele>2388.3</ele>
        <time>2020-02-09T14:00:35Z</time>
      </trkpt>
      <trkpt lat="45.25818" lon="6.15599">
        <ele>2387.1</ele>
        <time>2020-02-09T14:00:36Z</time>
      </trkpt>
      <trkpt lat="45.25813" lon="6.15597">
        <ele>2386.8</ele>
        <time>2020-02-09T14:00:37Z</time>
      </trkpt>
      <trkpt lat="45.25809" lon="6.15595">
        <ele>2386</ele>
        <time>2020-02-09T14:00:38Z</time>
      </trkpt>
      <trkpt lat="45.25804" lon="6.15592">
        <ele>2385.1</ele>
        <time>2020-02-09T14:00:39Z</time>
      </trkpt>
      <trkpt lat="45.25797" lon="6.1559">
        <ele>2383.8</ele>
        <time>2020-02-09T14:00:40Z</time>
      </trkpt>
      <trkpt lat="45.25793" lon="6.15585">
        <ele>2382.7</ele>
        <time>2020-02-09T14:00:41Z</time>
      </trkpt>
      <trkpt lat="45.25791" lon="6.15578">
        <ele>2381.8</ele>
        <time>2020-02-09T14:00:42Z</time>
      </trkpt>
      <trkpt lat="45.2579" lon="6.15573">
        <ele>2380.6</ele>
        <time>2020-02-09T14:00:43Z</time>
      </trkpt>
      <trkpt lat="45.2579" lon="6.15568">
        <ele>2380</ele>
        <time>2020-02-09T14:00:44Z</time>
      </trkpt>
      <trkpt lat="45.2579" lon="6.15563">
        <ele>2379.4</ele>
        <time>2020-02-09T14:00:45Z</time>
      </trkpt>
      <trkpt lat="45.25789" lon="6.15557">
        <ele>2378.9</ele>
        <time>2020-02-09T14:00:46Z</time>
      </trkpt>
      <trkpt lat="45.25788" lon="6.15551">
        <ele>2377.5</ele>
        <time>2020-02-09T14:00:47Z</time>
      </trkpt>
      <trkpt lat="45.25786" lon="6.15544">
        <ele>2377.1</ele>
        <time>2020-02-09T14:00:48Z</time>
      </trkpt>
      <trkpt lat="45.25785" lon="6.1554">
        <ele>2376.2</ele>
        <time>2020-02-09T14:00:49Z</time>
      </trkpt>
      <trkpt lat="45.25783" lon="6.15536">
        <ele>2375.8</ele>
        <time>2020-02-09T14:00:51Z</time>
      </trkpt>
      <trkpt lat="45.2578" lon="6.15535">
        <ele>2375.4</ele>
        <time>2020-02-09T14:00:55Z</time>
      </trkpt>
      <trkpt lat="45.25779" lon="6.15532">
        <ele>2374.4</ele>
        <time>2020-02-09T14:00:59Z</time>
      </trkpt>
      <trkpt lat="45.25778" lon="6.15528">
        <ele>2373.9</ele>
        <time>2020-02-09T14:01:02Z</time>
      </trkpt>
      <trkpt lat="45.25776" lon="6.15525">
        <ele>2373.5</ele>
        <time>2020-02-09T14:01:05Z</time>
      </trkpt>
      <trkpt lat="45.25775" lon="6.1552">
        <ele>2372.4</ele>
        <time>2020-02-09T14:01:07Z</time>
      </trkpt>
      <trkpt lat="45.25773" lon="6.15513">
        <ele>2371.6</ele>
        <time>2020-02-09T14:01:09Z</time>
      </trkpt>
      <trkpt lat="45.25772" lon="6.15505">
        <ele>2370.7</ele>
        <time>2020-02-09T14:01:11Z</time>
      </trkpt>
      <trkpt lat="45.25773" lon="6.15501">
        <ele>2370.3</ele>
        <time>2020-02-09T14:01:15Z</time>
      </trkpt>
      <trkpt lat="45.25773" lon="6.15497">
        <ele>2370.7</ele>
        <time>2020-02-09T14:01:17Z</time>
      </trkpt>
      <trkpt lat="45.25774" lon="6.15493">
        <ele>2370.4</ele>
        <time>2020-02-09T14:01:18Z</time>
      </trkpt>
      <trkpt lat="45.25775" lon="6.15485">
        <ele>2369.9</ele>
        <time>2020-02-09T14:01:19Z</time>
      </trkpt>
      <trkpt lat="45.25774" lon="6.15478">
        <ele>2369.2</ele>
        <time>2020-02-09T14:01:20Z</time>
      </trkpt>
      <trkpt lat="45.25775" lon="6.15471">
        <ele>2368.9</ele>
        <time>2020-02-09T14:01:21Z</time>
      </trkpt>
      <trkpt lat="45.25776" lon="6.15464">
        <ele>2368.2</ele>
        <time>2020-02-09T14:01:22Z</time>
      </trkpt>
      <trkpt lat="45.25776" lon="6.15458">
        <ele>2368.7</ele>
        <time>2020-02-09T14:01:23Z</time>
      </trkpt>
      <trkpt lat="45.25776" lon="6.15454">
        <ele>2368.4</ele>
        <time>2020-02-09T14:01:24Z</time>
      </trkpt>
      <trkpt lat="45.25775" lon="6.15448">
        <ele>2366.9</ele>
        <time>2020-02-09T14:01:26Z</time>
      </trkpt>
      <trkpt lat="45.25776" lon="6.15442">
        <ele>2366.6</ele>
        <time>2020-02-09T14:01:29Z</time>
      </trkpt>
      <trkpt lat="45.25777" lon="6.15436">
        <ele>2366.8</ele>
        <time>2020-02-09T14:01:30Z</time>
      </trkpt>
      <trkpt lat="45.25779" lon="6.15431">
        <ele>2366.4</ele>
        <time>2020-02-09T14:01:31Z</time>
      </trkpt>
      <trkpt lat="45.25781" lon="6.15427">
        <ele>2367.1</ele>
        <time>2020-02-09T14:01:33Z</time>
      </trkpt>
      <trkpt lat="45.25783" lon="6.1542">
        <ele>2367.7</ele>
        <time>2020-02-09T14:01:35Z</time>
      </trkpt>
      <trkpt lat="45.25785" lon="6.15413">
        <ele>2367.1</ele>
        <time>2020-02-09T14:01:36Z</time>
      </trkpt>
      <trkpt lat="45.25786" lon="6.15405">
        <ele>2367.6</ele>
        <time>2020-02-09T14:01:37Z</time>
      </trkpt>
      <trkpt lat="45.25787" lon="6.15396">
        <ele>2367.1</ele>
        <time>2020-02-09T14:01:38Z</time>
      </trkpt>
      <trkpt lat="45.25788" lon="6.15384">
        <ele>2367.4</ele>
        <time>2020-02-09T14:01:39Z</time>
      </trkpt>
      <trkpt lat="45.25789" lon="6.15372">
        <ele>2367.1</ele>
        <time>2020-02-09T14:01:40Z</time>
      </trkpt>
      <trkpt lat="45.25789" lon="6.15362">
        <ele>2366.7</ele>
        <time>2020-02-09T14:01:41Z</time>
      </trkpt>
      <trkpt lat="45.25788" lon="6.15352">
        <ele>2365.4</ele>
        <time>2020-02-09T14:01:42Z</time>
      </trkpt>
      <trkpt lat="45.25787" lon="6.15344">
        <ele>2365</ele>
        <time>2020-02-09T14:01:43Z</time>
      </trkpt>
      <trkpt lat="45.25786" lon="6.15336">
        <ele>2364.6</ele>
        <time>2020-02-09T14:01:44Z</time>
      </trkpt>
      <trkpt lat="45.25785" lon="6.15329">
        <ele>2364.3</ele>
        <time>2020-02-09T14:01:45Z</time>
      </trkpt>
      <trkpt lat="45.25785" lon="6.15322">
        <ele>2364.2</ele>
        <time>2020-02-09T14:01:46Z</time>
      </trkpt>
      <trkpt lat="45.25786" lon="6.15315">
        <ele>2364.2</ele>
        <time>2020-02-09T14:01:47Z</time>
      </trkpt>
      <trkpt lat="45.25785" lon="6.15309">
        <ele>2364.2</ele>
        <time>2020-02-09T14:01:48Z</time>
      </trkpt>
      <trkpt lat="45.25784" lon="6.15302">
        <ele>2363.4</ele>
        <time>2020-02-09T14:01:49Z</time>
      </trkpt>
      <trkpt lat="45.25783" lon="6.15294">
        <ele>2363.5</ele>
        <time>2020-02-09T14:01:50Z</time>
      </trkpt>
      <trkpt lat="45.25781" lon="6.15284">
        <ele>2362.6</ele>
        <time>2020-02-09T14:01:51Z</time>
      </trkpt>
      <trkpt lat="45.25779" lon="6.15275">
        <ele>2361.6</ele>
        <time>2020-02-09T14:01:52Z</time>
      </trkpt>
      <trkpt lat="45.25777" lon="6.15265">
        <ele>2361.7</ele>
        <time>2020-02-09T14:01:53Z</time>
      </trkpt>
      <trkpt lat="45.25774" lon="6.15256">
        <ele>2360.8</ele>
        <time>2020-02-09T14:01:54Z</time>
      </trkpt>
      <trkpt lat="45.25772" lon="6.1525">
        <ele>2360.2</ele>
        <time>2020-02-09T14:01:55Z</time>
      </trkpt>
      <trkpt lat="45.2577" lon="6.15247">
        <ele>2359.6</ele>
        <time>2020-02-09T14:01:56Z</time>
      </trkpt>
      <trkpt lat="45.25765" lon="6.15247">
        <ele>2358.8</ele>
        <time>2020-02-09T14:01:57Z</time>
      </trkpt>
      <trkpt lat="45.2576" lon="6.15244">
        <ele>2357.4</ele>
        <time>2020-02-09T14:01:58Z</time>
      </trkpt>
      <trkpt lat="45.25757" lon="6.1524">
        <ele>2356.8</ele>
        <time>2020-02-09T14:01:59Z</time>
      </trkpt>
      <trkpt lat="45.25753" lon="6.15238">
        <ele>2356.2</ele>
        <time>2020-02-09T14:02:00Z</time>
      </trkpt>
      <trkpt lat="45.2575" lon="6.15238">
        <ele>2355.2</ele>
        <time>2020-02-09T14:02:01Z</time>
      </trkpt>
      <trkpt lat="45.25747" lon="6.15235">
        <ele>2354.3</ele>
        <time>2020-02-09T14:02:02Z</time>
      </trkpt>
      <trkpt lat="45.25744" lon="6.15236">
        <ele>2353.3</ele>
        <time>2020-02-09T14:02:09Z</time>
      </trkpt>
      <trkpt lat="45.25744" lon="6.15232">
        <ele>2353.6</ele>
        <time>2020-02-09T14:02:34Z</time>
      </trkpt>
      <trkpt lat="45.25744" lon="6.15228">
        <ele>2353.8</ele>
        <time>2020-02-09T14:02:51Z</time>
      </trkpt>
      <trkpt lat="45.25744" lon="6.15234">
        <ele>2353.6</ele>
        <time>2020-02-09T14:03:12Z</time>
      </trkpt>
      <trkpt lat="45.2574" lon="6.15234">
        <ele>2352.7</ele>
        <time>2020-02-09T14:03:16Z</time>
      </trkpt>
      <trkpt lat="45.25738" lon="6.15229">
        <ele>2352.1</ele>
        <time>2020-02-09T14:03:17Z</time>
      </trkpt>
      <trkpt lat="45.25734" lon="6.15224">
        <ele>2350.8</ele>
        <time>2020-02-09T14:03:18Z</time>
      </trkpt>
      <trkpt lat="45.25728" lon="6.15218">
        <ele>2350.1</ele>
        <time>2020-02-09T14:03:19Z</time>
      </trkpt>
      <trkpt lat="45.25722" lon="6.15212">
        <ele>2348.8</ele>
        <time>2020-02-09T14:03:20Z</time>
      </trkpt>
      <trkpt lat="45.25718" lon="6.15209">
        <ele>2347.3</ele>
        <time>2020-02-09T14:03:21Z</time>
      </trkpt>
      <trkpt lat="45.25714" lon="6.15209">
        <ele>2346.2</ele>
        <time>2020-02-09T14:03:22Z</time>
      </trkpt>
      <trkpt lat="45.2571" lon="6.15212">
        <ele>2345.4</ele>
        <time>2020-02-09T14:03:24Z</time>
      </trkpt>
      <trkpt lat="45.25708" lon="6.15214">
        <ele>2344.3</ele>
        <time>2020-02-09T14:03:26Z</time>
      </trkpt>
      <trkpt lat="45.25705" lon="6.15217">
        <ele>2343.4</ele>
        <time>2020-02-09T14:03:29Z</time>
      </trkpt>
      <trkpt lat="45.25702" lon="6.15217">
        <ele>2342.5</ele>
        <time>2020-02-09T14:03:33Z</time>
      </trkpt>
      <trkpt lat="45.25699" lon="6.15218">
        <ele>2341.2</ele>
        <time>2020-02-09T14:03:37Z</time>
      </trkpt>
      <trkpt lat="45.25696" lon="6.15217">
        <ele>2340.6</ele>
        <time>2020-02-09T14:03:39Z</time>
      </trkpt>
      <trkpt lat="45.25693" lon="6.15214">
        <ele>2339.6</ele>
        <time>2020-02-09T14:03:41Z</time>
      </trkpt>
      <trkpt lat="45.25689" lon="6.15207">
        <ele>2339.4</ele>
        <time>2020-02-09T14:03:43Z</time>
      </trkpt>
      <trkpt lat="45.25687" lon="6.15203">
        <ele>2338.8</ele>
        <time>2020-02-09T14:03:46Z</time>
      </trkpt>
      <trkpt lat="45.25685" lon="6.152">
        <ele>2337.8</ele>
        <time>2020-02-09T14:03:47Z</time>
      </trkpt>
      <trkpt lat="45.25682" lon="6.15192">
        <ele>2337.6</ele>
        <time>2020-02-09T14:03:48Z</time>
      </trkpt>
      <trkpt lat="45.25678" lon="6.15184">
        <ele>2337.4</ele>
        <time>2020-02-09T14:03:49Z</time>
      </trkpt>
      <trkpt lat="45.25673" lon="6.15176">
        <ele>2336.3</ele>
        <time>2020-02-09T14:03:50Z</time>
      </trkpt>
      <trkpt lat="45.25668" lon="6.15168">
        <ele>2336.1</ele>
        <time>2020-02-09T14:03:51Z</time>
      </trkpt>
      <trkpt lat="45.25664" lon="6.15161">
        <ele>2334.9</ele>
        <time>2020-02-09T14:03:52Z</time>
      </trkpt>
      <trkpt lat="45.2566" lon="6.15158">
        <ele>2333.9</ele>
        <time>2020-02-09T14:03:53Z</time>
      </trkpt>
      <trkpt lat="45.25656" lon="6.15156">
        <ele>2333.4</ele>
        <time>2020-02-09T14:03:54Z</time>
      </trkpt>
      <trkpt lat="45.25652" lon="6.15156">
        <ele>2331.6</ele>
        <time>2020-02-09T14:03:55Z</time>
      </trkpt>
      <trkpt lat="45.25648" lon="6.15156">
        <ele>2330.6</ele>
        <time>2020-02-09T14:03:56Z</time>
      </trkpt>
      <trkpt lat="45.25644" lon="6.15156">
        <ele>2329.5</ele>
        <time>2020-02-09T14:03:57Z</time>
      </trkpt>
      <trkpt lat="45.2564" lon="6.15153">
        <ele>2328.8</ele>
        <time>2020-02-09T14:03:58Z</time>
      </trkpt>
      <trkpt lat="45.25636" lon="6.15151">
        <ele>2326.2</ele>
        <time>2020-02-09T14:04:00Z</time>
      </trkpt>
      <trkpt lat="45.25634" lon="6.15146">
        <ele>2325.4</ele>
        <time>2020-02-09T14:04:02Z</time>
      </trkpt>
      <trkpt lat="45.25632" lon="6.15143">
        <ele>2325.9</ele>
        <time>2020-02-09T14:04:03Z</time>
      </trkpt>
      <trkpt lat="45.25632" lon="6.15137">
        <ele>2326.3</ele>
        <time>2020-02-09T14:04:05Z</time>
      </trkpt>
      <trkpt lat="45.25632" lon="6.15133">
        <ele>2326.8</ele>
        <time>2020-02-09T14:04:07Z</time>
      </trkpt>
      <trkpt lat="45.25632" lon="6.15126">
        <ele>2327.8</ele>
        <time>2020-02-09T14:04:09Z</time>
      </trkpt>
      <trkpt lat="45.25632" lon="6.15122">
        <ele>2328.3</ele>
        <time>2020-02-09T14:04:10Z</time>
      </trkpt>
      <trkpt lat="45.25629" lon="6.15122">
        <ele>2327.1</ele>
        <time>2020-02-09T14:04:11Z</time>
      </trkpt>
      <trkpt lat="45.25627" lon="6.15119">
        <ele>2326</ele>
        <time>2020-02-09T14:04:12Z</time>
      </trkpt>
      <trkpt lat="45.25625" lon="6.15116">
        <ele>2325.3</ele>
        <time>2020-02-09T14:04:14Z</time>
      </trkpt>
      <trkpt lat="45.25624" lon="6.15112">
        <ele>2325.9</ele>
        <time>2020-02-09T14:04:19Z</time>
      </trkpt>
      <trkpt lat="45.25619" lon="6.15113">
        <ele>2324.6</ele>
        <time>2020-02-09T14:04:22Z</time>
      </trkpt>
      <trkpt lat="45.25614" lon="6.15111">
        <ele>2321.6</ele>
        <time>2020-02-09T14:04:25Z</time>
      </trkpt>
      <trkpt lat="45.25613" lon="6.15115">
        <ele>2321</ele>
        <time>2020-02-09T14:04:26Z</time>
      </trkpt>
      <trkpt lat="45.25611" lon="6.15118">
        <ele>2319.4</ele>
        <time>2020-02-09T14:04:29Z</time>
      </trkpt>
      <trkpt lat="45.25613" lon="6.15112">
        <ele>2320</ele>
        <time>2020-02-09T14:04:35Z</time>
      </trkpt>
      <trkpt lat="45.25616" lon="6.15108">
        <ele>2322.1</ele>
        <time>2020-02-09T14:04:37Z</time>
      </trkpt>
      <trkpt lat="45.25612" lon="6.15108">
        <ele>2320.6</ele>
        <time>2020-02-09T14:04:42Z</time>
      </trkpt>
      <trkpt lat="45.25614" lon="6.15106">
        <ele>2322.1</ele>
        <time>2020-02-09T14:04:44Z</time>
      </trkpt>
      <trkpt lat="45.25611" lon="6.15111">
        <ele>2320</ele>
        <time>2020-02-09T14:04:48Z</time>
      </trkpt>
      <trkpt lat="45.25609" lon="6.15114">
        <ele>2318.4</ele>
        <time>2020-02-09T14:04:50Z</time>
      </trkpt>
      <trkpt lat="45.25605" lon="6.15115">
        <ele>2316.2</ele>
        <time>2020-02-09T14:04:52Z</time>
      </trkpt>
      <trkpt lat="45.25601" lon="6.15116">
        <ele>2314.6</ele>
        <time>2020-02-09T14:04:54Z</time>
      </trkpt>
      <trkpt lat="45.25598" lon="6.15117">
        <ele>2313</ele>
        <time>2020-02-09T14:04:55Z</time>
      </trkpt>
      <trkpt lat="45.25596" lon="6.15115">
        <ele>2311.4</ele>
        <time>2020-02-09T14:04:57Z</time>
      </trkpt>
      <trkpt lat="45.25594" lon="6.1512">
        <ele>2309.3</ele>
        <time>2020-02-09T14:05:00Z</time>
      </trkpt>
      <trkpt lat="45.25591" lon="6.15122">
        <ele>2307.6</ele>
        <time>2020-02-09T14:05:02Z</time>
      </trkpt>
      <trkpt lat="45.25589" lon="6.15126">
        <ele>2305.3</ele>
        <time>2020-02-09T14:05:05Z</time>
      </trkpt>
      <trkpt lat="45.25586" lon="6.15126">
        <ele>2305.3</ele>
        <time>2020-02-09T14:05:07Z</time>
      </trkpt>
      <trkpt lat="45.25582" lon="6.15125">
        <ele>2301.4</ele>
        <time>2020-02-09T14:05:09Z</time>
      </trkpt>
      <trkpt lat="45.25578" lon="6.15125">
        <ele>2299.4</ele>
        <time>2020-02-09T14:05:11Z</time>
      </trkpt>
      <trkpt lat="45.25575" lon="6.15124">
        <ele>2297.4</ele>
        <time>2020-02-09T14:05:13Z</time>
      </trkpt>
      <trkpt lat="45.25572" lon="6.15123">
        <ele>2295.5</ele>
        <time>2020-02-09T14:05:16Z</time>
      </trkpt>
      <trkpt lat="45.25568" lon="6.15122">
        <ele>2294.3</ele>
        <time>2020-02-09T14:05:18Z</time>
      </trkpt>
      <trkpt lat="45.25565" lon="6.15121">
        <ele>2292.5</ele>
        <time>2020-02-09T14:05:22Z</time>
      </trkpt>
      <trkpt lat="45.25563" lon="6.15121">
        <ele>2290.6</ele>
        <time>2020-02-09T14:05:40Z</time>
      </trkpt>
      <trkpt lat="45.25561" lon="6.15123">
        <ele>2288.1</ele>
        <time>2020-02-09T14:06:09Z</time>
      </trkpt>
      <trkpt lat="45.25562" lon="6.15127">
        <ele>2288.1</ele>
        <time>2020-02-09T14:06:38Z</time>
      </trkpt>
      <trkpt lat="45.25559" lon="6.15126">
        <ele>2288.1</ele>
        <time>2020-02-09T14:06:49Z</time>
      </trkpt>
      <trkpt lat="45.25557" lon="6.1513">
        <ele>2285.4</ele>
        <time>2020-02-09T14:06:51Z</time>
      </trkpt>
      <trkpt lat="45.25556" lon="6.15135">
        <ele>2284.9</ele>
        <time>2020-02-09T14:06:53Z</time>
      </trkpt>
      <trkpt lat="45.25555" lon="6.15131">
        <ele>2283.1</ele>
        <time>2020-02-09T14:06:55Z</time>
      </trkpt>
      <trkpt lat="45.25553" lon="6.15134">
        <ele>2282.6</ele>
        <time>2020-02-09T14:06:59Z</time>
      </trkpt>
      <trkpt lat="45.25552" lon="6.15139">
        <ele>2279.9</ele>
        <time>2020-02-09T14:07:00Z</time>
      </trkpt>
      <trkpt lat="45.2555" lon="6.15141">
        <ele>2279.5</ele>
        <time>2020-02-09T14:07:07Z</time>
      </trkpt>
      <trkpt lat="45.25547" lon="6.15137">
        <ele>2277.8</ele>
        <time>2020-02-09T14:07:11Z</time>
      </trkpt>
      <trkpt lat="45.2555" lon="6.15142">
        <ele>2279.5</ele>
        <time>2020-02-09T14:07:14Z</time>
      </trkpt>
      <trkpt lat="45.25545" lon="6.15141">
        <ele>2275.4</ele>
        <time>2020-02-09T14:07:21Z</time>
      </trkpt>
      <trkpt lat="45.25541" lon="6.15146">
        <ele>2273.1</ele>
        <time>2020-02-09T14:07:23Z</time>
      </trkpt>
      <trkpt lat="45.25539" lon="6.15151">
        <ele>2270.7</ele>
        <time>2020-02-09T14:07:24Z</time>
      </trkpt>
      <trkpt lat="45.2554" lon="6.15143">
        <ele>2271.5</ele>
        <time>2020-02-09T14:07:33Z</time>
      </trkpt>
      <trkpt lat="45.25537" lon="6.15142">
        <ele>2269.4</ele>
        <time>2020-02-09T14:07:34Z</time>
      </trkpt>
      <trkpt lat="45.25536" lon="6.15136">
        <ele>2269.8</ele>
        <time>2020-02-09T14:07:36Z</time>
      </trkpt>
      <trkpt lat="45.25533" lon="6.15135">
        <ele>2267.8</ele>
        <time>2020-02-09T14:07:40Z</time>
      </trkpt>
      <trkpt lat="45.2553" lon="6.15133">
        <ele>2265.4</ele>
        <time>2020-02-09T14:07:44Z</time>
      </trkpt>
      <trkpt lat="45.25529" lon="6.15129">
        <ele>2265.8</ele>
        <time>2020-02-09T14:07:47Z</time>
      </trkpt>
      <trkpt lat="45.25526" lon="6.15123">
        <ele>2263.7</ele>
        <time>2020-02-09T14:07:49Z</time>
      </trkpt>
      <trkpt lat="45.25522" lon="6.15117">
        <ele>2262</ele>
        <time>2020-02-09T14:07:50Z</time>
      </trkpt>
      <trkpt lat="45.25519" lon="6.15112">
        <ele>2257.8</ele>
        <time>2020-02-09T14:07:51Z</time>
      </trkpt>
      <trkpt lat="45.25514" lon="6.15108">
        <ele>2256</ele>
        <time>2020-02-09T14:07:52Z</time>
      </trkpt>
      <trkpt lat="45.25511" lon="6.15105">
        <ele>2254.1</ele>
        <time>2020-02-09T14:07:53Z</time>
      </trkpt>
      <trkpt lat="45.25508" lon="6.15101">
        <ele>2252.2</ele>
        <time>2020-02-09T14:07:54Z</time>
      </trkpt>
      <trkpt lat="45.25505" lon="6.15096">
        <ele>2250.3</ele>
        <time>2020-02-09T14:07:55Z</time>
      </trkpt>
      <trkpt lat="45.25503" lon="6.15091">
        <ele>2248.3</ele>
        <time>2020-02-09T14:07:56Z</time>
      </trkpt>
      <trkpt lat="45.25502" lon="6.15087">
        <ele>2248.6</ele>
        <time>2020-02-09T14:07:57Z</time>
      </trkpt>
      <trkpt lat="45.25499" lon="6.15083">
        <ele>2246.7</ele>
        <time>2020-02-09T14:08:00Z</time>
      </trkpt>
      <trkpt lat="45.25496" lon="6.1508">
        <ele>2244.3</ele>
        <time>2020-02-09T14:08:03Z</time>
      </trkpt>
      <trkpt lat="45.25494" lon="6.15077">
        <ele>2242.4</ele>
        <time>2020-02-09T14:08:06Z</time>
      </trkpt>
      <trkpt lat="45.25492" lon="6.15074">
        <ele>2240.5</ele>
        <time>2020-02-09T14:08:16Z</time>
      </trkpt>
      <trkpt lat="45.2549" lon="6.15071">
        <ele>2240.8</ele>
        <time>2020-02-09T14:08:21Z</time>
      </trkpt>
      <trkpt lat="45.25488" lon="6.15068">
        <ele>2238.8</ele>
        <time>2020-02-09T14:08:26Z</time>
      </trkpt>
      <trkpt lat="45.25491" lon="6.15066">
        <ele>2241.1</ele>
        <time>2020-02-09T14:08:50Z</time>
      </trkpt>
      <trkpt lat="45.25489" lon="6.15065">
        <ele>2239.1</ele>
        <time>2020-02-09T14:09:05Z</time>
      </trkpt>
      <trkpt lat="45.25487" lon="6.15068">
        <ele>2238.8</ele>
        <time>2020-02-09T14:09:13Z</time>
      </trkpt>
      <trkpt lat="45.25484" lon="6.15068">
        <ele>2236.9</ele>
        <time>2020-02-09T14:09:32Z</time>
      </trkpt>
      <trkpt lat="45.25481" lon="6.15069">
        <ele>2235</ele>
        <time>2020-02-09T14:09:35Z</time>
      </trkpt>
      <trkpt lat="45.2548" lon="6.15073">
        <ele>2232.8</ele>
        <time>2020-02-09T14:10:04Z</time>
      </trkpt>
      <trkpt lat="45.25482" lon="6.15076">
        <ele>2234.7</ele>
        <time>2020-02-09T14:10:27Z</time>
      </trkpt>
      <trkpt lat="45.25479" lon="6.15077">
        <ele>2232.5</ele>
        <time>2020-02-09T14:10:54Z</time>
      </trkpt>
      <trkpt lat="45.25476" lon="6.15073">
        <ele>2230.8</ele>
        <time>2020-02-09T14:10:56Z</time>
      </trkpt>
      <trkpt lat="45.25473" lon="6.15072">
        <ele>2228.7</ele>
        <time>2020-02-09T14:10:58Z</time>
      </trkpt>
      <trkpt lat="45.25473" lon="6.15067">
        <ele>2229.1</ele>
        <time>2020-02-09T14:11:04Z</time>
      </trkpt>
      <trkpt lat="45.25473" lon="6.15063">
        <ele>2229.4</ele>
        <time>2020-02-09T14:11:18Z</time>
      </trkpt>
      <trkpt lat="45.25472" lon="6.15059">
        <ele>2229.7</ele>
        <time>2020-02-09T14:11:28Z</time>
      </trkpt>
      <trkpt lat="45.25475" lon="6.15055">
        <ele>2232.1</ele>
        <time>2020-02-09T14:11:44Z</time>
      </trkpt>
      <trkpt lat="45.25473" lon="6.15052">
        <ele>2230.4</ele>
        <time>2020-02-09T14:11:50Z</time>
      </trkpt>
      <trkpt lat="45.2547" lon="6.15048">
        <ele>2228.6</ele>
        <time>2020-02-09T14:11:53Z</time>
      </trkpt>
      <trkpt lat="45.25468" lon="6.15044">
        <ele>2229</ele>
        <time>2020-02-09T14:11:54Z</time>
      </trkpt>
      <trkpt lat="45.25467" lon="6.15038">
        <ele>2227.3</ele>
        <time>2020-02-09T14:11:55Z</time>
      </trkpt>
      <trkpt lat="45.25465" lon="6.15034">
        <ele>2227.7</ele>
        <time>2020-02-09T14:11:56Z</time>
      </trkpt>
      <trkpt lat="45.25462" lon="6.15033">
        <ele>2226</ele>
        <time>2020-02-09T14:11:57Z</time>
      </trkpt>
      <trkpt lat="45.2546" lon="6.15028">
        <ele>2225.2</ele>
        <time>2020-02-09T14:11:59Z</time>
      </trkpt>
      <trkpt lat="45.25464" lon="6.15031">
        <ele>2226.4</ele>
        <time>2020-02-09T14:12:01Z</time>
      </trkpt>
      <trkpt lat="45.25461" lon="6.15043">
        <ele>2223.5</ele>
        <time>2020-02-09T14:12:02Z</time>
      </trkpt>
      <trkpt lat="45.2546" lon="6.1505">
        <ele>2222.8</ele>
        <time>2020-02-09T14:12:03Z</time>
      </trkpt>
      <trkpt lat="45.2546" lon="6.15055">
        <ele>2222.5</ele>
        <time>2020-02-09T14:12:04Z</time>
      </trkpt>
      <trkpt lat="45.25455" lon="6.15049">
        <ele>2220.1</ele>
        <time>2020-02-09T14:12:08Z</time>
      </trkpt>
      <trkpt lat="45.25453" lon="6.15044">
        <ele>2220.5</ele>
        <time>2020-02-09T14:12:09Z</time>
      </trkpt>
      <trkpt lat="45.25449" lon="6.15043">
        <ele>2217.1</ele>
        <time>2020-02-09T14:12:10Z</time>
      </trkpt>
      <trkpt lat="45.25449" lon="6.15055">
        <ele>2216.1</ele>
        <time>2020-02-09T14:12:13Z</time>
      </trkpt>
      <trkpt lat="45.25448" lon="6.15063">
        <ele>2215.3</ele>
        <time>2020-02-09T14:12:14Z</time>
      </trkpt>
      <trkpt lat="45.25447" lon="6.15072">
        <ele>2212.8</ele>
        <time>2020-02-09T14:12:15Z</time>
      </trkpt>
      <trkpt lat="45.25446" lon="6.15079">
        <ele>2212.4</ele>
        <time>2020-02-09T14:12:16Z</time>
      </trkpt>
      <trkpt lat="45.25445" lon="6.15084">
        <ele>2211.9</ele>
        <time>2020-02-09T14:12:17Z</time>
      </trkpt>
      <trkpt lat="45.25441" lon="6.15091">
        <ele>2209.3</ele>
        <time>2020-02-09T14:13:05Z</time>
      </trkpt>
      <trkpt lat="45.2544" lon="6.15096">
        <ele>2207.2</ele>
        <time>2020-02-09T14:13:30Z</time>
      </trkpt>
      <trkpt lat="45.25439" lon="6.15101">
        <ele>2206.8</ele>
        <time>2020-02-09T14:13:31Z</time>
      </trkpt>
      <trkpt lat="45.25438" lon="6.15109">
        <ele>2205.8</ele>
        <time>2020-02-09T14:13:32Z</time>
      </trkpt>
      <trkpt lat="45.25438" lon="6.15116">
        <ele>2203.1</ele>
        <time>2020-02-09T14:13:33Z</time>
      </trkpt>
      <trkpt lat="45.25437" lon="6.15123">
        <ele>2202</ele>
        <time>2020-02-09T14:13:34Z</time>
      </trkpt>
      <trkpt lat="45.25436" lon="6.1513">
        <ele>2201.6</ele>
        <time>2020-02-09T14:13:35Z</time>
      </trkpt>
      <trkpt lat="45.25437" lon="6.15138">
        <ele>2200.8</ele>
        <time>2020-02-09T14:13:36Z</time>
      </trkpt>
      <trkpt lat="45.25437" lon="6.15149">
        <ele>2199.7</ele>
        <time>2020-02-09T14:13:37Z</time>
      </trkpt>
      <trkpt lat="45.25437" lon="6.15161">
        <ele>2199.1</ele>
        <time>2020-02-09T14:13:38Z</time>
      </trkpt>
      <trkpt lat="45.25436" lon="6.15173">
        <ele>2197.9</ele>
        <time>2020-02-09T14:13:39Z</time>
      </trkpt>
      <trkpt lat="45.25434" lon="6.15184">
        <ele>2195.2</ele>
        <time>2020-02-09T14:13:40Z</time>
      </trkpt>
      <trkpt lat="45.25431" lon="6.15194">
        <ele>2192.8</ele>
        <time>2020-02-09T14:13:41Z</time>
      </trkpt>
      <trkpt lat="45.25428" lon="6.15203">
        <ele>2190.3</ele>
        <time>2020-02-09T14:13:42Z</time>
      </trkpt>
      <trkpt lat="45.25426" lon="6.15215">
        <ele>2189.1</ele>
        <time>2020-02-09T14:13:43Z</time>
      </trkpt>
      <trkpt lat="45.25423" lon="6.15227">
        <ele>2186.7</ele>
        <time>2020-02-09T14:13:44Z</time>
      </trkpt>
      <trkpt lat="45.25424" lon="6.1524">
        <ele>2186</ele>
        <time>2020-02-09T14:13:45Z</time>
      </trkpt>
      <trkpt lat="45.25423" lon="6.15252">
        <ele>2185.4</ele>
        <time>2020-02-09T14:13:46Z</time>
      </trkpt>
      <trkpt lat="45.25424" lon="6.1526">
        <ele>2185.2</ele>
        <time>2020-02-09T14:13:47Z</time>
      </trkpt>
      <trkpt lat="45.25425" lon="6.15265">
        <ele>2185.1</ele>
        <time>2020-02-09T14:13:48Z</time>
      </trkpt>
      <trkpt lat="45.25423" lon="6.15267">
        <ele>2183.3</ele>
        <time>2020-02-09T14:13:49Z</time>
      </trkpt>
      <trkpt lat="45.2542" lon="6.15266">
        <ele>2183.3</ele>
        <time>2020-02-09T14:13:50Z</time>
      </trkpt>
      <trkpt lat="45.25417" lon="6.15262">
        <ele>2181.6</ele>
        <time>2020-02-09T14:13:51Z</time>
      </trkpt>
      <trkpt lat="45.25415" lon="6.15257">
        <ele>2180</ele>
        <time>2020-02-09T14:13:52Z</time>
      </trkpt>
      <trkpt lat="45.25412" lon="6.15251">
        <ele>2178.6</ele>
        <time>2020-02-09T14:13:53Z</time>
      </trkpt>
      <trkpt lat="45.2541" lon="6.15244">
        <ele>2177.1</ele>
        <time>2020-02-09T14:13:54Z</time>
      </trkpt>
      <trkpt lat="45.25408" lon="6.15239">
        <ele>2177.3</ele>
        <time>2020-02-09T14:13:55Z</time>
      </trkpt>
      <trkpt lat="45.25406" lon="6.15237">
        <ele>2175.9</ele>
        <time>2020-02-09T14:13:57Z</time>
      </trkpt>
      <trkpt lat="45.25406" lon="6.15243">
        <ele>2175.7</ele>
        <time>2020-02-09T14:13:59Z</time>
      </trkpt>
      <trkpt lat="45.25405" lon="6.15249">
        <ele>2175.3</ele>
        <time>2020-02-09T14:14:00Z</time>
      </trkpt>
      <trkpt lat="45.25404" lon="6.15256">
        <ele>2173.4</ele>
        <time>2020-02-09T14:14:01Z</time>
      </trkpt>
      <trkpt lat="45.25401" lon="6.15265">
        <ele>2171.7</ele>
        <time>2020-02-09T14:14:02Z</time>
      </trkpt>
      <trkpt lat="45.25399" lon="6.15274">
        <ele>2171.6</ele>
        <time>2020-02-09T14:14:03Z</time>
      </trkpt>
      <trkpt lat="45.25395" lon="6.15284">
        <ele>2168.6</ele>
        <time>2020-02-09T14:14:04Z</time>
      </trkpt>
      <trkpt lat="45.25394" lon="6.15295">
        <ele>2168.8</ele>
        <time>2020-02-09T14:14:05Z</time>
      </trkpt>
      <trkpt lat="45.25393" lon="6.15307">
        <ele>2169.1</ele>
        <time>2020-02-09T14:14:06Z</time>
      </trkpt>
      <trkpt lat="45.2539" lon="6.15317">
        <ele>2168.2</ele>
        <time>2020-02-09T14:14:07Z</time>
      </trkpt>
      <trkpt lat="45.25386" lon="6.15328">
        <ele>2165.3</ele>
        <time>2020-02-09T14:14:08Z</time>
      </trkpt>
      <trkpt lat="45.25383" lon="6.15339">
        <ele>2166.6</ele>
        <time>2020-02-09T14:14:09Z</time>
      </trkpt>
      <trkpt lat="45.2538" lon="6.1535">
        <ele>2166.1</ele>
        <time>2020-02-09T14:14:10Z</time>
      </trkpt>
      <trkpt lat="45.25377" lon="6.1536">
        <ele>2164.8</ele>
        <time>2020-02-09T14:14:11Z</time>
      </trkpt>
      <trkpt lat="45.25373" lon="6.15369">
        <ele>2164.5</ele>
        <time>2020-02-09T14:14:12Z</time>
      </trkpt>
      <trkpt lat="45.2537" lon="6.15376">
        <ele>2163.5</ele>
        <time>2020-02-09T14:14:13Z</time>
      </trkpt>
      <trkpt lat="45.25367" lon="6.15382">
        <ele>2162.9</ele>
        <time>2020-02-09T14:14:14Z</time>
      </trkpt>
      <trkpt lat="45.25364" lon="6.15387">
        <ele>2161.6</ele>
        <time>2020-02-09T14:14:15Z</time>
      </trkpt>
      <trkpt lat="45.25362" lon="6.15393">
        <ele>2160.2</ele>
        <time>2020-02-09T14:14:16Z</time>
      </trkpt>
      <trkpt lat="45.2536" lon="6.15399">
        <ele>2161.3</ele>
        <time>2020-02-09T14:14:17Z</time>
      </trkpt>
      <trkpt lat="45.25357" lon="6.15405">
        <ele>2159.9</ele>
        <time>2020-02-09T14:14:18Z</time>
      </trkpt>
      <trkpt lat="45.25355" lon="6.15411">
        <ele>2159.1</ele>
        <time>2020-02-09T14:14:19Z</time>
      </trkpt>
      <trkpt lat="45.25351" lon="6.15416">
        <ele>2157.9</ele>
        <time>2020-02-09T14:14:20Z</time>
      </trkpt>
      <trkpt lat="45.25347" lon="6.15422">
        <ele>2156.9</ele>
        <time>2020-02-09T14:14:21Z</time>
      </trkpt>
      <trkpt lat="45.25345" lon="6.15429">
        <ele>2156.5</ele>
        <time>2020-02-09T14:14:22Z</time>
      </trkpt>
      <trkpt lat="45.25342" lon="6.15436">
        <ele>2156.3</ele>
        <time>2020-02-09T14:14:23Z</time>
      </trkpt>
      <trkpt lat="45.25339" lon="6.15444">
        <ele>2155.5</ele>
        <time>2020-02-09T14:14:24Z</time>
      </trkpt>
      <trkpt lat="45.25334" lon="6.15452">
        <ele>2153.5</ele>
        <time>2020-02-09T14:14:25Z</time>
      </trkpt>
      <trkpt lat="45.2533" lon="6.15461">
        <ele>2153.2</ele>
        <time>2020-02-09T14:14:26Z</time>
      </trkpt>
      <trkpt lat="45.25326" lon="6.1547">
        <ele>2152.9</ele>
        <time>2020-02-09T14:14:27Z</time>
      </trkpt>
      <trkpt lat="45.25322" lon="6.15478">
        <ele>2151.3</ele>
        <time>2020-02-09T14:14:28Z</time>
      </trkpt>
      <trkpt lat="45.25318" lon="6.15484">
        <ele>2151.3</ele>
        <time>2020-02-09T14:14:29Z</time>
      </trkpt>
      <trkpt lat="45.25314" lon="6.15489">
        <ele>2150.5</ele>
        <time>2020-02-09T14:14:30Z</time>
      </trkpt>
      <trkpt lat="45.25311" lon="6.15493">
        <ele>2148.1</ele>
        <time>2020-02-09T14:14:31Z</time>
      </trkpt>
      <trkpt lat="45.25308" lon="6.15497">
        <ele>2148.8</ele>
        <time>2020-02-09T14:14:32Z</time>
      </trkpt>
      <trkpt lat="45.25306" lon="6.15499">
        <ele>2147.2</ele>
        <time>2020-02-09T14:14:33Z</time>
      </trkpt>
      <trkpt lat="45.25304" lon="6.15503">
        <ele>2146.1</ele>
        <time>2020-02-09T14:14:34Z</time>
      </trkpt>
      <trkpt lat="45.25302" lon="6.15506">
        <ele>2146.7</ele>
        <time>2020-02-09T14:14:35Z</time>
      </trkpt>
      <trkpt lat="45.25301" lon="6.15511">
        <ele>2145.6</ele>
        <time>2020-02-09T14:14:36Z</time>
      </trkpt>
      <trkpt lat="45.253" lon="6.15515">
        <ele>2146.2</ele>
        <time>2020-02-09T14:14:37Z</time>
      </trkpt>
      <trkpt lat="45.25299" lon="6.1552">
        <ele>2146.9</ele>
        <time>2020-02-09T14:14:39Z</time>
      </trkpt>
      <trkpt lat="45.25297" lon="6.15523">
        <ele>2145.7</ele>
        <time>2020-02-09T14:14:43Z</time>
      </trkpt>
      <trkpt lat="45.25294" lon="6.15528">
        <ele>2144.6</ele>
        <time>2020-02-09T14:14:51Z</time>
      </trkpt>
      <trkpt lat="45.25292" lon="6.15533">
        <ele>2143.6</ele>
        <time>2020-02-09T14:14:52Z</time>
      </trkpt>
      <trkpt lat="45.25289" lon="6.1554">
        <ele>2143.1</ele>
        <time>2020-02-09T14:14:53Z</time>
      </trkpt>
      <trkpt lat="45.25286" lon="6.15547">
        <ele>2142.1</ele>
        <time>2020-02-09T14:14:54Z</time>
      </trkpt>
      <trkpt lat="45.25284" lon="6.15555">
        <ele>2143.1</ele>
        <time>2020-02-09T14:14:55Z</time>
      </trkpt>
      <trkpt lat="45.25282" lon="6.15561">
        <ele>2142.5</ele>
        <time>2020-02-09T14:14:56Z</time>
      </trkpt>
      <trkpt lat="45.25279" lon="6.15566">
        <ele>2141.2</ele>
        <time>2020-02-09T14:14:57Z</time>
      </trkpt>
      <trkpt lat="45.25277" lon="6.15573">
        <ele>2139.9</ele>
        <time>2020-02-09T14:14:58Z</time>
      </trkpt>
      <trkpt lat="45.25274" lon="6.15578">
        <ele>2138.9</ele>
        <time>2020-02-09T14:14:59Z</time>
      </trkpt>
      <trkpt lat="45.25271" lon="6.15583">
        <ele>2137.5</ele>
        <time>2020-02-09T14:15:00Z</time>
      </trkpt>
      <trkpt lat="45.25269" lon="6.15588">
        <ele>2137.8</ele>
        <time>2020-02-09T14:15:01Z</time>
      </trkpt>
      <trkpt lat="45.25269" lon="6.15592">
        <ele>2138</ele>
        <time>2020-02-09T14:15:03Z</time>
      </trkpt>
      <trkpt lat="45.25266" lon="6.15593">
        <ele>2136.5</ele>
        <time>2020-02-09T14:15:08Z</time>
      </trkpt>
      <trkpt lat="45.25263" lon="6.15585">
        <ele>2134.6</ele>
        <time>2020-02-09T14:15:12Z</time>
      </trkpt>
      <trkpt lat="45.25263" lon="6.1558">
        <ele>2134.3</ele>
        <time>2020-02-09T14:15:13Z</time>
      </trkpt>
      <trkpt lat="45.25262" lon="6.15576">
        <ele>2132.6</ele>
        <time>2020-02-09T14:15:14Z</time>
      </trkpt>
      <trkpt lat="45.25261" lon="6.15571">
        <ele>2132.3</ele>
        <time>2020-02-09T14:15:15Z</time>
      </trkpt>
      <trkpt lat="45.25258" lon="6.15572">
        <ele>2131</ele>
        <time>2020-02-09T14:15:17Z</time>
      </trkpt>
      <trkpt lat="45.25258" lon="6.15577">
        <ele>2131.3</ele>
        <time>2020-02-09T14:15:19Z</time>
      </trkpt>
      <trkpt lat="45.25257" lon="6.15582">
        <ele>2131.8</ele>
        <time>2020-02-09T14:15:21Z</time>
      </trkpt>
      <trkpt lat="45.25258" lon="6.15587">
        <ele>2132</ele>
        <time>2020-02-09T14:15:23Z</time>
      </trkpt>
      <trkpt lat="45.25258" lon="6.15593">
        <ele>2132.2</ele>
        <time>2020-02-09T14:15:25Z</time>
      </trkpt>
      <trkpt lat="45.25258" lon="6.15597">
        <ele>2132.4</ele>
        <time>2020-02-09T14:15:26Z</time>
      </trkpt>
      <trkpt lat="45.25258" lon="6.15603">
        <ele>2132.6</ele>
        <time>2020-02-09T14:15:27Z</time>
      </trkpt>
      <trkpt lat="45.2526" lon="6.15608">
        <ele>2134.5</ele>
        <time>2020-02-09T14:15:28Z</time>
      </trkpt>
      <trkpt lat="45.25261" lon="6.15614">
        <ele>2134.7</ele>
        <time>2020-02-09T14:15:29Z</time>
      </trkpt>
      <trkpt lat="45.2526" lon="6.15619">
        <ele>2135</ele>
        <time>2020-02-09T14:15:30Z</time>
      </trkpt>
      <trkpt lat="45.25259" lon="6.15624">
        <ele>2133.7</ele>
        <time>2020-02-09T14:15:31Z</time>
      </trkpt>
      <trkpt lat="45.25256" lon="6.15627">
        <ele>2132.4</ele>
        <time>2020-02-09T14:15:32Z</time>
      </trkpt>
      <trkpt lat="45.25254" lon="6.15632">
        <ele>2132.6</ele>
        <time>2020-02-09T14:15:33Z</time>
      </trkpt>
      <trkpt lat="45.25252" lon="6.15636">
        <ele>2131.2</ele>
        <time>2020-02-09T14:15:34Z</time>
      </trkpt>
      <trkpt lat="45.25249" lon="6.15641">
        <ele>2129.8</ele>
        <time>2020-02-09T14:15:35Z</time>
      </trkpt>
      <trkpt lat="45.25247" lon="6.15646">
        <ele>2128.4</ele>
        <time>2020-02-09T14:15:36Z</time>
      </trkpt>
      <trkpt lat="45.25245" lon="6.15652">
        <ele>2128.7</ele>
        <time>2020-02-09T14:15:37Z</time>
      </trkpt>
      <trkpt lat="45.25243" lon="6.15656">
        <ele>2127.3</ele>
        <time>2020-02-09T14:15:38Z</time>
      </trkpt>
      <trkpt lat="45.25242" lon="6.15661">
        <ele>2127.5</ele>
        <time>2020-02-09T14:15:39Z</time>
      </trkpt>
      <trkpt lat="45.2524" lon="6.15669">
        <ele>2126.2</ele>
        <time>2020-02-09T14:15:40Z</time>
      </trkpt>
      <trkpt lat="45.25238" lon="6.15676">
        <ele>2124.8</ele>
        <time>2020-02-09T14:15:41Z</time>
      </trkpt>
      <trkpt lat="45.25235" lon="6.15683">
        <ele>2123.4</ele>
        <time>2020-02-09T14:15:42Z</time>
      </trkpt>
      <trkpt lat="45.25232" lon="6.15689">
        <ele>2121.9</ele>
        <time>2020-02-09T14:15:43Z</time>
      </trkpt>
      <trkpt lat="45.25227" lon="6.15693">
        <ele>2120.5</ele>
        <time>2020-02-09T14:15:44Z</time>
      </trkpt>
      <trkpt lat="45.25224" lon="6.15697">
        <ele>2119.2</ele>
        <time>2020-02-09T14:15:45Z</time>
      </trkpt>
      <trkpt lat="45.2522" lon="6.15702">
        <ele>2116.4</ele>
        <time>2020-02-09T14:15:46Z</time>
      </trkpt>
      <trkpt lat="45.25217" lon="6.15707">
        <ele>2115.5</ele>
        <time>2020-02-09T14:15:47Z</time>
      </trkpt>
      <trkpt lat="45.25215" lon="6.15713">
        <ele>2115.8</ele>
        <time>2020-02-09T14:15:48Z</time>
      </trkpt>
      <trkpt lat="45.25213" lon="6.15719">
        <ele>2114.8</ele>
        <time>2020-02-09T14:15:49Z</time>
      </trkpt>
      <trkpt lat="45.2521" lon="6.15724">
        <ele>2114.2</ele>
        <time>2020-02-09T14:15:50Z</time>
      </trkpt>
      <trkpt lat="45.25208" lon="6.15729">
        <ele>2113.3</ele>
        <time>2020-02-09T14:15:51Z</time>
      </trkpt>
      <trkpt lat="45.25205" lon="6.15734">
        <ele>2113.8</ele>
        <time>2020-02-09T14:15:52Z</time>
      </trkpt>
      <trkpt lat="45.25202" lon="6.1574">
        <ele>2112.8</ele>
        <time>2020-02-09T14:15:53Z</time>
      </trkpt>
      <trkpt lat="45.252" lon="6.15746">
        <ele>2112.3</ele>
        <time>2020-02-09T14:15:54Z</time>
      </trkpt>
      <trkpt lat="45.25198" lon="6.15751">
        <ele>2111.4</ele>
        <time>2020-02-09T14:15:55Z</time>
      </trkpt>
      <trkpt lat="45.25195" lon="6.15756">
        <ele>2110.3</ele>
        <time>2020-02-09T14:15:56Z</time>
      </trkpt>
      <trkpt lat="45.25192" lon="6.15761">
        <ele>2109.2</ele>
        <time>2020-02-09T14:15:57Z</time>
      </trkpt>
      <trkpt lat="45.2519" lon="6.15767">
        <ele>2108.5</ele>
        <time>2020-02-09T14:15:58Z</time>
      </trkpt>
      <trkpt lat="45.25188" lon="6.15773">
        <ele>2108.9</ele>
        <time>2020-02-09T14:15:59Z</time>
      </trkpt>
      <trkpt lat="45.25185" lon="6.15778">
        <ele>2107.9</ele>
        <time>2020-02-09T14:16:00Z</time>
      </trkpt>
      <trkpt lat="45.25185" lon="6.15784">
        <ele>2108.5</ele>
        <time>2020-02-09T14:16:01Z</time>
      </trkpt>
      <trkpt lat="45.25184" lon="6.1579">
        <ele>2107.5</ele>
        <time>2020-02-09T14:16:02Z</time>
      </trkpt>
      <trkpt lat="45.25183" lon="6.15796">
        <ele>2107.7</ele>
        <time>2020-02-09T14:16:03Z</time>
      </trkpt>
      <trkpt lat="45.25181" lon="6.15802">
        <ele>2108.2</ele>
        <time>2020-02-09T14:16:04Z</time>
      </trkpt>
      <trkpt lat="45.25179" lon="6.15807">
        <ele>2107.1</ele>
        <time>2020-02-09T14:16:05Z</time>
      </trkpt>
      <trkpt lat="45.25177" lon="6.15813">
        <ele>2106</ele>
        <time>2020-02-09T14:16:06Z</time>
      </trkpt>
      <trkpt lat="45.25175" lon="6.15818">
        <ele>2106.3</ele>
        <time>2020-02-09T14:16:07Z</time>
      </trkpt>
      <trkpt lat="45.25174" lon="6.15824">
        <ele>2105.1</ele>
        <time>2020-02-09T14:16:08Z</time>
      </trkpt>
      <trkpt lat="45.25172" lon="6.1583">
        <ele>2105.2</ele>
        <time>2020-02-09T14:16:09Z</time>
      </trkpt>
      <trkpt lat="45.25171" lon="6.15836">
        <ele>2103.8</ele>
        <time>2020-02-09T14:16:10Z</time>
      </trkpt>
      <trkpt lat="45.25169" lon="6.15842">
        <ele>2101.3</ele>
        <time>2020-02-09T14:16:11Z</time>
      </trkpt>
      <trkpt lat="45.25167" lon="6.15848">
        <ele>2101.1</ele>
        <time>2020-02-09T14:16:12Z</time>
      </trkpt>
      <trkpt lat="45.25164" lon="6.15855">
        <ele>2099.3</ele>
        <time>2020-02-09T14:16:13Z</time>
      </trkpt>
      <trkpt lat="45.25162" lon="6.15861">
        <ele>2097.4</ele>
        <time>2020-02-09T14:16:14Z</time>
      </trkpt>
      <trkpt lat="45.25162" lon="6.15866">
        <ele>2097.2</ele>
        <time>2020-02-09T14:16:15Z</time>
      </trkpt>
      <trkpt lat="45.25163" lon="6.1587">
        <ele>2097.2</ele>
        <time>2020-02-09T14:16:32Z</time>
      </trkpt>
      <trkpt lat="45.25161" lon="6.15867">
        <ele>2097.2</ele>
        <time>2020-02-09T14:16:46Z</time>
      </trkpt>
      <trkpt lat="45.25164" lon="6.15868">
        <ele>2098.9</ele>
        <time>2020-02-09T14:16:50Z</time>
      </trkpt>
      <trkpt lat="45.2516" lon="6.15869">
        <ele>2097.2</ele>
        <time>2020-02-09T14:16:59Z</time>
      </trkpt>
      <trkpt lat="45.25162" lon="6.15872">
        <ele>2097.1</ele>
        <time>2020-02-09T14:17:21Z</time>
      </trkpt>
      <trkpt lat="45.25165" lon="6.1587">
        <ele>2098.7</ele>
        <time>2020-02-09T14:17:39Z</time>
      </trkpt>
      <trkpt lat="45.25162" lon="6.1587">
        <ele>2097.1</ele>
        <time>2020-02-09T14:18:12Z</time>
      </trkpt>
      <trkpt lat="45.2516" lon="6.15874">
        <ele>2095.6</ele>
        <time>2020-02-09T14:18:48Z</time>
      </trkpt>
      <trkpt lat="45.25155" lon="6.15874">
        <ele>2094.1</ele>
        <time>2020-02-09T14:18:51Z</time>
      </trkpt>
      <trkpt lat="45.25153" lon="6.15871">
        <ele>2093</ele>
        <time>2020-02-09T14:18:53Z</time>
      </trkpt>
      <trkpt lat="45.25157" lon="6.15874">
        <ele>2095.5</ele>
        <time>2020-02-09T14:18:54Z</time>
      </trkpt>
      <trkpt lat="45.25157" lon="6.1588">
        <ele>2095.3</ele>
        <time>2020-02-09T14:18:56Z</time>
      </trkpt>
      <trkpt lat="45.25155" lon="6.15882">
        <ele>2093.9</ele>
        <time>2020-02-09T14:18:57Z</time>
      </trkpt>
      <trkpt lat="45.25151" lon="6.15881">
        <ele>2092.6</ele>
        <time>2020-02-09T14:18:58Z</time>
      </trkpt>
      <trkpt lat="45.25149" lon="6.15882">
        <ele>2091.3</ele>
        <time>2020-02-09T14:18:59Z</time>
      </trkpt>
      <trkpt lat="45.25149" lon="6.15886">
        <ele>2091.2</ele>
        <time>2020-02-09T14:19:02Z</time>
      </trkpt>
      <trkpt lat="45.2515" lon="6.15892">
        <ele>2091</ele>
        <time>2020-02-09T14:19:05Z</time>
      </trkpt>
      <trkpt lat="45.2515" lon="6.15897">
        <ele>2090.9</ele>
        <time>2020-02-09T14:19:06Z</time>
      </trkpt>
      <trkpt lat="45.25151" lon="6.15902">
        <ele>2092.3</ele>
        <time>2020-02-09T14:19:07Z</time>
      </trkpt>
      <trkpt lat="45.2515" lon="6.15906">
        <ele>2090.7</ele>
        <time>2020-02-09T14:19:08Z</time>
      </trkpt>
      <trkpt lat="45.25148" lon="6.15912">
        <ele>2090.6</ele>
        <time>2020-02-09T14:19:09Z</time>
      </trkpt>
      <trkpt lat="45.25149" lon="6.15918">
        <ele>2090.4</ele>
        <time>2020-02-09T14:19:10Z</time>
      </trkpt>
      <trkpt lat="45.25149" lon="6.15924">
        <ele>2090.2</ele>
        <time>2020-02-09T14:19:11Z</time>
      </trkpt>
      <trkpt lat="45.25149" lon="6.15929">
        <ele>2090.1</ele>
        <time>2020-02-09T14:19:12Z</time>
      </trkpt>
      <trkpt lat="45.25149" lon="6.15935">
        <ele>2090</ele>
        <time>2020-02-09T14:19:13Z</time>
      </trkpt>
      <trkpt lat="45.25148" lon="6.15941">
        <ele>2089.9</ele>
        <time>2020-02-09T14:19:14Z</time>
      </trkpt>
      <trkpt lat="45.25146" lon="6.15948">
        <ele>2088.1</ele>
        <time>2020-02-09T14:19:15Z</time>
      </trkpt>
      <trkpt lat="45.25143" lon="6.15955">
        <ele>2086.3</ele>
        <time>2020-02-09T14:19:16Z</time>
      </trkpt>
      <trkpt lat="45.25141" lon="6.15963">
        <ele>2084.5</ele>
        <time>2020-02-09T14:19:17Z</time>
      </trkpt>
      <trkpt lat="45.2514" lon="6.15971">
        <ele>2084.5</ele>
        <time>2020-02-09T14:19:18Z</time>
      </trkpt>
      <trkpt lat="45.2514" lon="6.15978">
        <ele>2084.4</ele>
        <time>2020-02-09T14:19:19Z</time>
      </trkpt>
      <trkpt lat="45.2514" lon="6.15983">
        <ele>2084.4</ele>
        <time>2020-02-09T14:19:20Z</time>
      </trkpt>
      <trkpt lat="45.25139" lon="6.15987">
        <ele>2082.7</ele>
        <time>2020-02-09T14:19:21Z</time>
      </trkpt>
      <trkpt lat="45.25137" lon="6.15991">
        <ele>2082.7</ele>
        <time>2020-02-09T14:19:22Z</time>
      </trkpt>
      <trkpt lat="45.25135" lon="6.15997">
        <ele>2081.1</ele>
        <time>2020-02-09T14:19:23Z</time>
      </trkpt>
      <trkpt lat="45.25131" lon="6.15997">
        <ele>2079.6</ele>
        <time>2020-02-09T14:19:24Z</time>
      </trkpt>
      <trkpt lat="45.25129" lon="6.15995">
        <ele>2078.2</ele>
        <time>2020-02-09T14:19:25Z</time>
      </trkpt>
      <trkpt lat="45.25127" lon="6.15992">
        <ele>2078.2</ele>
        <time>2020-02-09T14:19:29Z</time>
      </trkpt>
      <trkpt lat="45.25124" lon="6.15991">
        <ele>2077</ele>
        <time>2020-02-09T14:19:31Z</time>
      </trkpt>
      <trkpt lat="45.25121" lon="6.15987">
        <ele>2075.9</ele>
        <time>2020-02-09T14:19:33Z</time>
      </trkpt>
      <trkpt lat="45.25119" lon="6.15982">
        <ele>2074.9</ele>
        <time>2020-02-09T14:19:35Z</time>
      </trkpt>
      <trkpt lat="45.25118" lon="6.15978">
        <ele>2075.1</ele>
        <time>2020-02-09T14:19:37Z</time>
      </trkpt>
      <trkpt lat="45.25117" lon="6.15972">
        <ele>2074.5</ele>
        <time>2020-02-09T14:19:39Z</time>
      </trkpt>
      <trkpt lat="45.25114" lon="6.15972">
        <ele>2073.6</ele>
        <time>2020-02-09T14:19:42Z</time>
      </trkpt>
      <trkpt lat="45.25113" lon="6.1598">
        <ele>2073.2</ele>
        <time>2020-02-09T14:19:44Z</time>
      </trkpt>
      <trkpt lat="45.25111" lon="6.15985">
        <ele>2072.1</ele>
        <time>2020-02-09T14:19:45Z</time>
      </trkpt>
      <trkpt lat="45.25111" lon="6.15991">
        <ele>2071.8</ele>
        <time>2020-02-09T14:19:46Z</time>
      </trkpt>
      <trkpt lat="45.25107" lon="6.1599">
        <ele>2070.9</ele>
        <time>2020-02-09T14:19:47Z</time>
      </trkpt>
      <trkpt lat="45.251" lon="6.15989">
        <ele>2069.5</ele>
        <time>2020-02-09T14:19:48Z</time>
      </trkpt>
      <trkpt lat="45.25092" lon="6.1599">
        <ele>2067.6</ele>
        <time>2020-02-09T14:19:49Z</time>
      </trkpt>
      <trkpt lat="45.25085" lon="6.1599">
        <ele>2066.5</ele>
        <time>2020-02-09T14:19:50Z</time>
      </trkpt>
      <trkpt lat="45.2508" lon="6.1599">
        <ele>2065.6</ele>
        <time>2020-02-09T14:19:51Z</time>
      </trkpt>
      <trkpt lat="45.25077" lon="6.15989">
        <ele>2065.8</ele>
        <time>2020-02-09T14:19:52Z</time>
      </trkpt>
      <trkpt lat="45.25073" lon="6.15991">
        <ele>2065</ele>
        <time>2020-02-09T14:19:53Z</time>
      </trkpt>
      <trkpt lat="45.25069" lon="6.15993">
        <ele>2064.8</ele>
        <time>2020-02-09T14:19:54Z</time>
      </trkpt>
      <trkpt lat="45.25066" lon="6.15994">
        <ele>2064.7</ele>
        <time>2020-02-09T14:19:55Z</time>
      </trkpt>
      <trkpt lat="45.25063" lon="6.15995">
        <ele>2064</ele>
        <time>2020-02-09T14:19:56Z</time>
      </trkpt>
      <trkpt lat="45.2506" lon="6.15996">
        <ele>2064</ele>
        <time>2020-02-09T14:19:57Z</time>
      </trkpt>
      <trkpt lat="45.25058" lon="6.15998">
        <ele>2064.1</ele>
        <time>2020-02-09T14:20:01Z</time>
      </trkpt>
      <trkpt lat="45.25056" lon="6.16002">
        <ele>2063.5</ele>
        <time>2020-02-09T14:20:09Z</time>
      </trkpt>
      <trkpt lat="45.25052" lon="6.1601">
        <ele>2062.1</ele>
        <time>2020-02-09T14:20:11Z</time>
      </trkpt>
      <trkpt lat="45.25049" lon="6.16017">
        <ele>2060.6</ele>
        <time>2020-02-09T14:20:12Z</time>
      </trkpt>
      <trkpt lat="45.25044" lon="6.16024">
        <ele>2060.1</ele>
        <time>2020-02-09T14:20:13Z</time>
      </trkpt>
      <trkpt lat="45.25038" lon="6.1603">
        <ele>2058.6</ele>
        <time>2020-02-09T14:20:14Z</time>
      </trkpt>
      <trkpt lat="45.25032" lon="6.16037">
        <ele>2057.4</ele>
        <time>2020-02-09T14:20:15Z</time>
      </trkpt>
      <trkpt lat="45.25027" lon="6.16043">
        <ele>2057.5</ele>
        <time>2020-02-09T14:20:16Z</time>
      </trkpt>
      <trkpt lat="45.25021" lon="6.1605">
        <ele>2056.2</ele>
        <time>2020-02-09T14:20:17Z</time>
      </trkpt>
      <trkpt lat="45.25017" lon="6.16056">
        <ele>2056.3</ele>
        <time>2020-02-09T14:20:18Z</time>
      </trkpt>
      <trkpt lat="45.25012" lon="6.16063">
        <ele>2055.7</ele>
        <time>2020-02-09T14:20:19Z</time>
      </trkpt>
      <trkpt lat="45.25008" lon="6.16069">
        <ele>2054.5</ele>
        <time>2020-02-09T14:20:20Z</time>
      </trkpt>
      <trkpt lat="45.25004" lon="6.16075">
        <ele>2053.9</ele>
        <time>2020-02-09T14:20:21Z</time>
      </trkpt>
      <trkpt lat="45.25" lon="6.16081">
        <ele>2052.2</ele>
        <time>2020-02-09T14:20:22Z</time>
      </trkpt>
      <trkpt lat="45.24996" lon="6.16088">
        <ele>2052.1</ele>
        <time>2020-02-09T14:20:23Z</time>
      </trkpt>
      <trkpt lat="45.24993" lon="6.16095">
        <ele>2050.2</ele>
        <time>2020-02-09T14:20:24Z</time>
      </trkpt>
      <trkpt lat="45.2499" lon="6.16102">
        <ele>2048.3</ele>
        <time>2020-02-09T14:20:25Z</time>
      </trkpt>
      <trkpt lat="45.24987" lon="6.16109">
        <ele>2047.5</ele>
        <time>2020-02-09T14:20:26Z</time>
      </trkpt>
      <trkpt lat="45.24984" lon="6.16116">
        <ele>2045.8</ele>
        <time>2020-02-09T14:20:27Z</time>
      </trkpt>
      <trkpt lat="45.24981" lon="6.16122">
        <ele>2045.2</ele>
        <time>2020-02-09T14:20:28Z</time>
      </trkpt>
      <trkpt lat="45.24977" lon="6.16127">
        <ele>2044.9</ele>
        <time>2020-02-09T14:20:29Z</time>
      </trkpt>
      <trkpt lat="45.24974" lon="6.16132">
        <ele>2043.7</ele>
        <time>2020-02-09T14:20:30Z</time>
      </trkpt>
      <trkpt lat="45.24972" lon="6.16139">
        <ele>2043.4</ele>
        <time>2020-02-09T14:20:31Z</time>
      </trkpt>
      <trkpt lat="45.2497" lon="6.16147">
        <ele>2041.6</ele>
        <time>2020-02-09T14:20:32Z</time>
      </trkpt>
      <trkpt lat="45.24971" lon="6.16156">
        <ele>2039.8</ele>
        <time>2020-02-09T14:20:33Z</time>
      </trkpt>
      <trkpt lat="45.2497" lon="6.16165">
        <ele>2038.2</ele>
        <time>2020-02-09T14:20:34Z</time>
      </trkpt>
      <trkpt lat="45.24969" lon="6.16173">
        <ele>2037.3</ele>
        <time>2020-02-09T14:20:35Z</time>
      </trkpt>
      <trkpt lat="45.24967" lon="6.16181">
        <ele>2035.9</ele>
        <time>2020-02-09T14:20:36Z</time>
      </trkpt>
      <trkpt lat="45.24965" lon="6.16188">
        <ele>2035.1</ele>
        <time>2020-02-09T14:20:37Z</time>
      </trkpt>
      <trkpt lat="45.24963" lon="6.16195">
        <ele>2034.9</ele>
        <time>2020-02-09T14:20:38Z</time>
      </trkpt>
      <trkpt lat="45.24962" lon="6.16202">
        <ele>2033.1</ele>
        <time>2020-02-09T14:20:39Z</time>
      </trkpt>
      <trkpt lat="45.24961" lon="6.1621">
        <ele>2031.4</ele>
        <time>2020-02-09T14:20:40Z</time>
      </trkpt>
      <trkpt lat="45.24959" lon="6.16216">
        <ele>2031.2</ele>
        <time>2020-02-09T14:20:41Z</time>
      </trkpt>
      <trkpt lat="45.24956" lon="6.16221">
        <ele>2031.1</ele>
        <time>2020-02-09T14:20:42Z</time>
      </trkpt>
      <trkpt lat="45.24954" lon="6.16226">
        <ele>2030.9</ele>
        <time>2020-02-09T14:20:43Z</time>
      </trkpt>
      <trkpt lat="45.24952" lon="6.1623">
        <ele>2029.2</ele>
        <time>2020-02-09T14:20:44Z</time>
      </trkpt>
      <trkpt lat="45.24951" lon="6.16234">
        <ele>2029.9</ele>
        <time>2020-02-09T14:20:45Z</time>
      </trkpt>
      <trkpt lat="45.24949" lon="6.16238">
        <ele>2028.9</ele>
        <time>2020-02-09T14:20:46Z</time>
      </trkpt>
      <trkpt lat="45.24948" lon="6.16243">
        <ele>2028.7</ele>
        <time>2020-02-09T14:20:47Z</time>
      </trkpt>
      <trkpt lat="45.24946" lon="6.16249">
        <ele>2026.7</ele>
        <time>2020-02-09T14:20:48Z</time>
      </trkpt>
      <trkpt lat="45.24944" lon="6.16256">
        <ele>2025.5</ele>
        <time>2020-02-09T14:20:49Z</time>
      </trkpt>
      <trkpt lat="45.24941" lon="6.16263">
        <ele>2025.2</ele>
        <time>2020-02-09T14:20:50Z</time>
      </trkpt>
      <trkpt lat="45.24938" lon="6.16268">
        <ele>2024.9</ele>
        <time>2020-02-09T14:20:51Z</time>
      </trkpt>
      <trkpt lat="45.24936" lon="6.16273">
        <ele>2024.6</ele>
        <time>2020-02-09T14:20:52Z</time>
      </trkpt>
      <trkpt lat="45.24935" lon="6.16276">
        <ele>2023.6</ele>
        <time>2020-02-09T14:20:53Z</time>
      </trkpt>
      <trkpt lat="45.24932" lon="6.1628">
        <ele>2023.1</ele>
        <time>2020-02-09T14:20:56Z</time>
      </trkpt>
      <trkpt lat="45.24933" lon="6.16286">
        <ele>2020.9</ele>
        <time>2020-02-09T14:20:58Z</time>
      </trkpt>
      <trkpt lat="45.24933" lon="6.16291">
        <ele>2019.9</ele>
        <time>2020-02-09T14:20:59Z</time>
      </trkpt>
      <trkpt lat="45.24932" lon="6.16297">
        <ele>2018.9</ele>
        <time>2020-02-09T14:21:01Z</time>
      </trkpt>
      <trkpt lat="45.24934" lon="6.163">
        <ele>2017.5</ele>
        <time>2020-02-09T14:21:02Z</time>
      </trkpt>
      <trkpt lat="45.24933" lon="6.16304">
        <ele>2016.9</ele>
        <time>2020-02-09T14:21:04Z</time>
      </trkpt>
      <trkpt lat="45.24936" lon="6.16302">
        <ele>2017.5</ele>
        <time>2020-02-09T14:21:07Z</time>
      </trkpt>
      <trkpt lat="45.24939" lon="6.16301">
        <ele>2017</ele>
        <time>2020-02-09T14:21:08Z</time>
      </trkpt>
      <trkpt lat="45.24943" lon="6.16299">
        <ele>2016.1</ele>
        <time>2020-02-09T14:21:09Z</time>
      </trkpt>
      <trkpt lat="45.24947" lon="6.16299">
        <ele>2015.6</ele>
        <time>2020-02-09T14:21:10Z</time>
      </trkpt>
      <trkpt lat="45.24952" lon="6.16298">
        <ele>2015.7</ele>
        <time>2020-02-09T14:21:11Z</time>
      </trkpt>
      <trkpt lat="45.24955" lon="6.16299">
        <ele>2014.4</ele>
        <time>2020-02-09T14:21:12Z</time>
      </trkpt>
      <trkpt lat="45.2496" lon="6.16303">
        <ele>2014.1</ele>
        <time>2020-02-09T14:21:13Z</time>
      </trkpt>
      <trkpt lat="45.24958" lon="6.16307">
        <ele>2013.2</ele>
        <time>2020-02-09T14:21:15Z</time>
      </trkpt>
      <trkpt lat="45.24956" lon="6.16311">
        <ele>2012.7</ele>
        <time>2020-02-09T14:21:16Z</time>
      </trkpt>
      <trkpt lat="45.24952" lon="6.16317">
        <ele>2011.4</ele>
        <time>2020-02-09T14:21:17Z</time>
      </trkpt>
      <trkpt lat="45.24949" lon="6.1632">
        <ele>2010.9</ele>
        <time>2020-02-09T14:21:18Z</time>
      </trkpt>
      <trkpt lat="45.24946" lon="6.16325">
        <ele>2010.2</ele>
        <time>2020-02-09T14:21:20Z</time>
      </trkpt>
      <trkpt lat="45.24944" lon="6.1633">
        <ele>2009.5</ele>
        <time>2020-02-09T14:21:22Z</time>
      </trkpt>
      <trkpt lat="45.24943" lon="6.16336">
        <ele>2007.7</ele>
        <time>2020-02-09T14:21:23Z</time>
      </trkpt>
      <trkpt lat="45.24942" lon="6.1634">
        <ele>2006.7</ele>
        <time>2020-02-09T14:21:24Z</time>
      </trkpt>
      <trkpt lat="45.24945" lon="6.16345">
        <ele>2005.5</ele>
        <time>2020-02-09T14:21:26Z</time>
      </trkpt>
      <trkpt lat="45.2495" lon="6.16348">
        <ele>2004.4</ele>
        <time>2020-02-09T14:21:28Z</time>
      </trkpt>
      <trkpt lat="45.2495" lon="6.16352">
        <ele>2003.5</ele>
        <time>2020-02-09T14:21:29Z</time>
      </trkpt>
      <trkpt lat="45.24947" lon="6.16357">
        <ele>2002.6</ele>
        <time>2020-02-09T14:21:32Z</time>
      </trkpt>
      <trkpt lat="45.24943" lon="6.16361">
        <ele>2001.5</ele>
        <time>2020-02-09T14:21:33Z</time>
      </trkpt>
      <trkpt lat="45.2494" lon="6.16362">
        <ele>2001.4</ele>
        <time>2020-02-09T14:21:34Z</time>
      </trkpt>
      <trkpt lat="45.24937" lon="6.16363">
        <ele>2001.4</ele>
        <time>2020-02-09T14:21:36Z</time>
      </trkpt>
      <trkpt lat="45.24934" lon="6.16364">
        <ele>2000.2</ele>
        <time>2020-02-09T14:21:39Z</time>
      </trkpt>
      <trkpt lat="45.24931" lon="6.16367">
        <ele>2000.2</ele>
        <time>2020-02-09T14:21:47Z</time>
      </trkpt>
      <trkpt lat="45.24927" lon="6.16372">
        <ele>1997.9</ele>
        <time>2020-02-09T14:21:50Z</time>
      </trkpt>
      <trkpt lat="45.24923" lon="6.16375">
        <ele>1998</ele>
        <time>2020-02-09T14:21:51Z</time>
      </trkpt>
      <trkpt lat="45.24918" lon="6.16378">
        <ele>1996.9</ele>
        <time>2020-02-09T14:21:52Z</time>
      </trkpt>
      <trkpt lat="45.24912" lon="6.16381">
        <ele>1995.9</ele>
        <time>2020-02-09T14:21:53Z</time>
      </trkpt>
      <trkpt lat="45.24906" lon="6.16385">
        <ele>1994.7</ele>
        <time>2020-02-09T14:21:54Z</time>
      </trkpt>
      <trkpt lat="45.24899" lon="6.1639">
        <ele>1993.3</ele>
        <time>2020-02-09T14:21:55Z</time>
      </trkpt>
      <trkpt lat="45.24893" lon="6.16396">
        <ele>1992.1</ele>
        <time>2020-02-09T14:21:56Z</time>
      </trkpt>
      <trkpt lat="45.24889" lon="6.16404">
        <ele>1989.3</ele>
        <time>2020-02-09T14:21:57Z</time>
      </trkpt>
      <trkpt lat="45.24885" lon="6.1641">
        <ele>1986.3</ele>
        <time>2020-02-09T14:21:58Z</time>
      </trkpt>
      <trkpt lat="45.24881" lon="6.16415">
        <ele>1984.7</ele>
        <time>2020-02-09T14:21:59Z</time>
      </trkpt>
      <trkpt lat="45.24878" lon="6.16418">
        <ele>1984.7</ele>
        <time>2020-02-09T14:22:00Z</time>
      </trkpt>
      <trkpt lat="45.24874" lon="6.16422">
        <ele>1983</ele>
        <time>2020-02-09T14:22:01Z</time>
      </trkpt>
      <trkpt lat="45.24871" lon="6.16425">
        <ele>1981.4</ele>
        <time>2020-02-09T14:22:02Z</time>
      </trkpt>
      <trkpt lat="45.24867" lon="6.16428">
        <ele>1979.7</ele>
        <time>2020-02-09T14:22:03Z</time>
      </trkpt>
      <trkpt lat="45.24864" lon="6.16432">
        <ele>1979.9</ele>
        <time>2020-02-09T14:22:04Z</time>
      </trkpt>
      <trkpt lat="45.24861" lon="6.16434">
        <ele>1978.4</ele>
        <time>2020-02-09T14:22:05Z</time>
      </trkpt>
      <trkpt lat="45.24858" lon="6.16437">
        <ele>1977</ele>
        <time>2020-02-09T14:22:06Z</time>
      </trkpt>
      <trkpt lat="45.24855" lon="6.16439">
        <ele>1977.2</ele>
        <time>2020-02-09T14:22:07Z</time>
      </trkpt>
      <trkpt lat="45.24852" lon="6.16441">
        <ele>1975.8</ele>
        <time>2020-02-09T14:22:08Z</time>
      </trkpt>
      <trkpt lat="45.24847" lon="6.16445">
        <ele>1974.5</ele>
        <time>2020-02-09T14:22:09Z</time>
      </trkpt>
      <trkpt lat="45.24842" lon="6.1645">
        <ele>1973.3</ele>
        <time>2020-02-09T14:22:10Z</time>
      </trkpt>
      <trkpt lat="45.24838" lon="6.16453">
        <ele>1971.9</ele>
        <time>2020-02-09T14:22:11Z</time>
      </trkpt>
      <trkpt lat="45.24835" lon="6.16456">
        <ele>1972.2</ele>
        <time>2020-02-09T14:22:12Z</time>
      </trkpt>
      <trkpt lat="45.24832" lon="6.1646">
        <ele>1970.8</ele>
        <time>2020-02-09T14:22:13Z</time>
      </trkpt>
      <trkpt lat="45.2483" lon="6.16463">
        <ele>1969.4</ele>
        <time>2020-02-09T14:22:14Z</time>
      </trkpt>
      <trkpt lat="45.24827" lon="6.16466">
        <ele>1969.8</ele>
        <time>2020-02-09T14:22:15Z</time>
      </trkpt>
      <trkpt lat="45.24824" lon="6.16468">
        <ele>1968.3</ele>
        <time>2020-02-09T14:22:16Z</time>
      </trkpt>
      <trkpt lat="45.2482" lon="6.1647">
        <ele>1968.8</ele>
        <time>2020-02-09T14:22:17Z</time>
      </trkpt>
      <trkpt lat="45.24816" lon="6.16473">
        <ele>1967.4</ele>
        <time>2020-02-09T14:22:18Z</time>
      </trkpt>
      <trkpt lat="45.24812" lon="6.16477">
        <ele>1966.8</ele>
        <time>2020-02-09T14:22:19Z</time>
      </trkpt>
      <trkpt lat="45.24807" lon="6.1648">
        <ele>1965.8</ele>
        <time>2020-02-09T14:22:20Z</time>
      </trkpt>
      <trkpt lat="45.24803" lon="6.16485">
        <ele>1965.6</ele>
        <time>2020-02-09T14:22:21Z</time>
      </trkpt>
      <trkpt lat="45.24798" lon="6.16489">
        <ele>1964.6</ele>
        <time>2020-02-09T14:22:22Z</time>
      </trkpt>
      <trkpt lat="45.24794" lon="6.16493">
        <ele>1964.3</ele>
        <time>2020-02-09T14:22:23Z</time>
      </trkpt>
      <trkpt lat="45.2479" lon="6.16499">
        <ele>1963.2</ele>
        <time>2020-02-09T14:22:24Z</time>
      </trkpt>
      <trkpt lat="45.24786" lon="6.16503">
        <ele>1962</ele>
        <time>2020-02-09T14:22:25Z</time>
      </trkpt>
      <trkpt lat="45.24782" lon="6.16507">
        <ele>1960.8</ele>
        <time>2020-02-09T14:22:26Z</time>
      </trkpt>
      <trkpt lat="45.24779" lon="6.16511">
        <ele>1959.6</ele>
        <time>2020-02-09T14:22:27Z</time>
      </trkpt>
      <trkpt lat="45.24776" lon="6.16514">
        <ele>1958.4</ele>
        <time>2020-02-09T14:22:28Z</time>
      </trkpt>
      <trkpt lat="45.24774" lon="6.16518">
        <ele>1957.2</ele>
        <time>2020-02-09T14:22:29Z</time>
      </trkpt>
      <trkpt lat="45.24771" lon="6.16521">
        <ele>1957.8</ele>
        <time>2020-02-09T14:22:30Z</time>
      </trkpt>
      <trkpt lat="45.24768" lon="6.16525">
        <ele>1956.6</ele>
        <time>2020-02-09T14:22:31Z</time>
      </trkpt>
      <trkpt lat="45.24764" lon="6.16528">
        <ele>1955.4</ele>
        <time>2020-02-09T14:22:32Z</time>
      </trkpt>
      <trkpt lat="45.2476" lon="6.16532">
        <ele>1954.8</ele>
        <time>2020-02-09T14:22:33Z</time>
      </trkpt>
      <trkpt lat="45.24756" lon="6.16536">
        <ele>1953.7</ele>
        <time>2020-02-09T14:22:34Z</time>
      </trkpt>
      <trkpt lat="45.24752" lon="6.1654">
        <ele>1952.6</ele>
        <time>2020-02-09T14:22:35Z</time>
      </trkpt>
      <trkpt lat="45.24749" lon="6.16543">
        <ele>1952</ele>
        <time>2020-02-09T14:22:36Z</time>
      </trkpt>
      <trkpt lat="45.24746" lon="6.16547">
        <ele>1952</ele>
        <time>2020-02-09T14:22:37Z</time>
      </trkpt>
      <trkpt lat="45.24745" lon="6.1655">
        <ele>1950.9</ele>
        <time>2020-02-09T14:22:38Z</time>
      </trkpt>
      <trkpt lat="45.24745" lon="6.16554">
        <ele>1949.1</ele>
        <time>2020-02-09T14:22:50Z</time>
      </trkpt>
      <trkpt lat="45.24743" lon="6.1656">
        <ele>1947.2</ele>
        <time>2020-02-09T14:23:19Z</time>
      </trkpt>
      <trkpt lat="45.24742" lon="6.16563">
        <ele>1946.1</ele>
        <time>2020-02-09T14:23:20Z</time>
      </trkpt>
      <trkpt lat="45.24739" lon="6.16566">
        <ele>1945</ele>
        <time>2020-02-09T14:23:21Z</time>
      </trkpt>
      <trkpt lat="45.24737" lon="6.16568">
        <ele>1945.7</ele>
        <time>2020-02-09T14:23:22Z</time>
      </trkpt>
      <trkpt lat="45.24736" lon="6.16572">
        <ele>1944.1</ele>
        <time>2020-02-09T14:23:27Z</time>
      </trkpt>
      <trkpt lat="45.24735" lon="6.16576">
        <ele>1942.4</ele>
        <time>2020-02-09T14:23:31Z</time>
      </trkpt>
      <trkpt lat="45.24738" lon="6.16572">
        <ele>1943.3</ele>
        <time>2020-02-09T14:23:32Z</time>
      </trkpt>
      <trkpt lat="45.24741" lon="6.16572">
        <ele>1942.6</ele>
        <time>2020-02-09T14:23:34Z</time>
      </trkpt>
      <trkpt lat="45.24745" lon="6.1657">
        <ele>1941.9</ele>
        <time>2020-02-09T14:23:36Z</time>
      </trkpt>
      <trkpt lat="45.24744" lon="6.16576">
        <ele>1940.2</ele>
        <time>2020-02-09T14:23:39Z</time>
      </trkpt>
      <trkpt lat="45.24744" lon="6.16583">
        <ele>1936.7</ele>
        <time>2020-02-09T14:23:41Z</time>
      </trkpt>
      <trkpt lat="45.24742" lon="6.16587">
        <ele>1935.7</ele>
        <time>2020-02-09T14:23:42Z</time>
      </trkpt>
      <trkpt lat="45.24742" lon="6.16591">
        <ele>1933.8</ele>
        <time>2020-02-09T14:23:43Z</time>
      </trkpt>
      <trkpt lat="45.2474" lon="6.16597">
        <ele>1931.8</ele>
        <time>2020-02-09T14:23:44Z</time>
      </trkpt>
      <trkpt lat="45.24741" lon="6.16601">
        <ele>1929.7</ele>
        <time>2020-02-09T14:23:46Z</time>
      </trkpt>
      <trkpt lat="45.24741" lon="6.16606">
        <ele>1927.6</ele>
        <time>2020-02-09T14:23:47Z</time>
      </trkpt>
      <trkpt lat="45.24742" lon="6.1661">
        <ele>1925.5</ele>
        <time>2020-02-09T14:23:49Z</time>
      </trkpt>
      <trkpt lat="45.2474" lon="6.16614">
        <ele>1923.5</ele>
        <time>2020-02-09T14:23:51Z</time>
      </trkpt>
      <trkpt lat="45.24736" lon="6.16618">
        <ele>1923.2</ele>
        <time>2020-02-09T14:23:53Z</time>
      </trkpt>
      <trkpt lat="45.24733" lon="6.16623">
        <ele>1922.1</ele>
        <time>2020-02-09T14:23:55Z</time>
      </trkpt>
      <trkpt lat="45.2473" lon="6.16628">
        <ele>1921.1</ele>
        <time>2020-02-09T14:23:57Z</time>
      </trkpt>
      <trkpt lat="45.24726" lon="6.16633">
        <ele>1920.1</ele>
        <time>2020-02-09T14:23:59Z</time>
      </trkpt>
      <trkpt lat="45.24724" lon="6.16636">
        <ele>1919</ele>
        <time>2020-02-09T14:24:00Z</time>
      </trkpt>
      <trkpt lat="45.24723" lon="6.16639">
        <ele>1917</ele>
        <time>2020-02-09T14:24:01Z</time>
      </trkpt>
      <trkpt lat="45.2472" lon="6.16642">
        <ele>1915.8</ele>
        <time>2020-02-09T14:24:02Z</time>
      </trkpt>
      <trkpt lat="45.24718" lon="6.16645">
        <ele>1916.8</ele>
        <time>2020-02-09T14:24:03Z</time>
      </trkpt>
      <trkpt lat="45.24714" lon="6.16648">
        <ele>1915.6</ele>
        <time>2020-02-09T14:24:05Z</time>
      </trkpt>
      <trkpt lat="45.24709" lon="6.16649">
        <ele>1917.4</ele>
        <time>2020-02-09T14:24:07Z</time>
      </trkpt>
      <trkpt lat="45.24705" lon="6.16652">
        <ele>1916.1</ele>
        <time>2020-02-09T14:24:09Z</time>
      </trkpt>
      <trkpt lat="45.24703" lon="6.16654">
        <ele>1917</ele>
        <time>2020-02-09T14:24:10Z</time>
      </trkpt>
      <trkpt lat="45.24698" lon="6.16656">
        <ele>1915.9</ele>
        <time>2020-02-09T14:24:12Z</time>
      </trkpt>
      <trkpt lat="45.24697" lon="6.16661">
        <ele>1914.7</ele>
        <time>2020-02-09T14:24:18Z</time>
      </trkpt>
      <trkpt lat="45.24698" lon="6.16665">
        <ele>1911.7</ele>
        <time>2020-02-09T14:24:20Z</time>
      </trkpt>
      <trkpt lat="45.24696" lon="6.16663">
        <ele>1914.7</ele>
        <time>2020-02-09T14:24:50Z</time>
      </trkpt>
      <trkpt lat="45.24693" lon="6.16662">
        <ele>1915.7</ele>
        <time>2020-02-09T14:25:00Z</time>
      </trkpt>
      <trkpt lat="45.2469" lon="6.1666">
        <ele>1916.5</ele>
        <time>2020-02-09T14:25:01Z</time>
      </trkpt>
      <trkpt lat="45.24685" lon="6.16661">
        <ele>1918.1</ele>
        <time>2020-02-09T14:25:03Z</time>
      </trkpt>
      <trkpt lat="45.24679" lon="6.16661">
        <ele>1919.6</ele>
        <time>2020-02-09T14:25:05Z</time>
      </trkpt>
      <trkpt lat="45.24676" lon="6.16663">
        <ele>1920.3</ele>
        <time>2020-02-09T14:25:06Z</time>
      </trkpt>
      <trkpt lat="45.24672" lon="6.16665">
        <ele>1918.6</ele>
        <time>2020-02-09T14:25:07Z</time>
      </trkpt>
      <trkpt lat="45.2467" lon="6.16667">
        <ele>1919.2</ele>
        <time>2020-02-09T14:25:08Z</time>
      </trkpt>
      <trkpt lat="45.24668" lon="6.16671">
        <ele>1916.9</ele>
        <time>2020-02-09T14:25:10Z</time>
      </trkpt>
      <trkpt lat="45.24667" lon="6.16674">
        <ele>1914.5</ele>
        <time>2020-02-09T14:25:13Z</time>
      </trkpt>
      <trkpt lat="45.24666" lon="6.16678">
        <ele>1912.7</ele>
        <time>2020-02-09T14:25:14Z</time>
      </trkpt>
      <trkpt lat="45.24665" lon="6.16684">
        <ele>1910.2</ele>
        <time>2020-02-09T14:25:16Z</time>
      </trkpt>
      <trkpt lat="45.24661" lon="6.16688">
        <ele>1908.4</ele>
        <time>2020-02-09T14:25:18Z</time>
      </trkpt>
      <trkpt lat="45.24658" lon="6.16689">
        <ele>1908.8</ele>
        <time>2020-02-09T14:25:19Z</time>
      </trkpt>
      <trkpt lat="45.24655" lon="6.16692">
        <ele>1906.1</ele>
        <time>2020-02-09T14:25:21Z</time>
      </trkpt>
      <trkpt lat="45.24654" lon="6.16697">
        <ele>1903.7</ele>
        <time>2020-02-09T14:25:23Z</time>
      </trkpt>
      <trkpt lat="45.24653" lon="6.16701">
        <ele>1901.2</ele>
        <time>2020-02-09T14:25:25Z</time>
      </trkpt>
      <trkpt lat="45.2465" lon="6.16703">
        <ele>1898.9</ele>
        <time>2020-02-09T14:25:26Z</time>
      </trkpt>
      <trkpt lat="45.24652" lon="6.16707">
        <ele>1896.6</ele>
        <time>2020-02-09T14:25:28Z</time>
      </trkpt>
      <trkpt lat="45.24647" lon="6.16709">
        <ele>1896.7</ele>
        <time>2020-02-09T14:25:30Z</time>
      </trkpt>
      <trkpt lat="45.24643" lon="6.16711">
        <ele>1894.6</ele>
        <time>2020-02-09T14:25:32Z</time>
      </trkpt>
      <trkpt lat="45.24639" lon="6.16715">
        <ele>1892.3</ele>
        <time>2020-02-09T14:25:34Z</time>
      </trkpt>
      <trkpt lat="45.24635" lon="6.16719">
        <ele>1892.3</ele>
        <time>2020-02-09T14:25:36Z</time>
      </trkpt>
      <trkpt lat="45.24632" lon="6.16722">
        <ele>1890</ele>
        <time>2020-02-09T14:25:38Z</time>
      </trkpt>
      <trkpt lat="45.24629" lon="6.16724">
        <ele>1887.6</ele>
        <time>2020-02-09T14:25:40Z</time>
      </trkpt>
      <trkpt lat="45.24628" lon="6.16727">
        <ele>1887.4</ele>
        <time>2020-02-09T14:25:41Z</time>
      </trkpt>
      <trkpt lat="45.24625" lon="6.16729">
        <ele>1885</ele>
        <time>2020-02-09T14:25:42Z</time>
      </trkpt>
      <trkpt lat="45.24622" lon="6.1673">
        <ele>1884.6</ele>
        <time>2020-02-09T14:25:43Z</time>
      </trkpt>
      <trkpt lat="45.24618" lon="6.16731">
        <ele>1884.4</ele>
        <time>2020-02-09T14:25:44Z</time>
      </trkpt>
      <trkpt lat="45.24613" lon="6.16732">
        <ele>1884.2</ele>
        <time>2020-02-09T14:25:45Z</time>
      </trkpt>
      <trkpt lat="45.24609" lon="6.16733">
        <ele>1881.2</ele>
        <time>2020-02-09T14:25:46Z</time>
      </trkpt>
      <trkpt lat="45.24605" lon="6.16734">
        <ele>1881</ele>
        <time>2020-02-09T14:25:47Z</time>
      </trkpt>
      <trkpt lat="45.24601" lon="6.16734">
        <ele>1880.7</ele>
        <time>2020-02-09T14:25:48Z</time>
      </trkpt>
      <trkpt lat="45.24596" lon="6.16736">
        <ele>1880.6</ele>
        <time>2020-02-09T14:25:49Z</time>
      </trkpt>
      <trkpt lat="45.24591" lon="6.16737">
        <ele>1877.8</ele>
        <time>2020-02-09T14:25:50Z</time>
      </trkpt>
      <trkpt lat="45.24586" lon="6.16739">
        <ele>1877.7</ele>
        <time>2020-02-09T14:25:51Z</time>
      </trkpt>
      <trkpt lat="45.24582" lon="6.16741">
        <ele>1874.8</ele>
        <time>2020-02-09T14:25:52Z</time>
      </trkpt>
      <trkpt lat="45.24578" lon="6.16743">
        <ele>1874.8</ele>
        <time>2020-02-09T14:25:53Z</time>
      </trkpt>
      <trkpt lat="45.24575" lon="6.16744">
        <ele>1874.8</ele>
        <time>2020-02-09T14:25:54Z</time>
      </trkpt>
      <trkpt lat="45.2457" lon="6.16746">
        <ele>1871.7</ele>
        <time>2020-02-09T14:25:55Z</time>
      </trkpt>
      <trkpt lat="45.24566" lon="6.16749">
        <ele>1871.7</ele>
        <time>2020-02-09T14:25:56Z</time>
      </trkpt>
      <trkpt lat="45.24564" lon="6.16751">
        <ele>1868.6</ele>
        <time>2020-02-09T14:25:57Z</time>
      </trkpt>
      <trkpt lat="45.24561" lon="6.16753">
        <ele>1868.5</ele>
        <time>2020-02-09T14:25:58Z</time>
      </trkpt>
      <trkpt lat="45.24557" lon="6.16756">
        <ele>1865.6</ele>
        <time>2020-02-09T14:25:59Z</time>
      </trkpt>
      <trkpt lat="45.24553" lon="6.16758">
        <ele>1862.8</ele>
        <time>2020-02-09T14:26:00Z</time>
      </trkpt>
      <trkpt lat="45.24549" lon="6.1676">
        <ele>1862.7</ele>
        <time>2020-02-09T14:26:01Z</time>
      </trkpt>
      <trkpt lat="45.24546" lon="6.16763">
        <ele>1860</ele>
        <time>2020-02-09T14:26:03Z</time>
      </trkpt>
      <trkpt lat="45.24543" lon="6.16767">
        <ele>1857.3</ele>
        <time>2020-02-09T14:26:09Z</time>
      </trkpt>
      <trkpt lat="45.24541" lon="6.16771">
        <ele>1854.5</ele>
        <time>2020-02-09T14:26:13Z</time>
      </trkpt>
      <trkpt lat="45.2454" lon="6.16775">
        <ele>1851.7</ele>
        <time>2020-02-09T14:26:18Z</time>
      </trkpt>
      <trkpt lat="45.24538" lon="6.16779">
        <ele>1851.7</ele>
        <time>2020-02-09T14:26:24Z</time>
      </trkpt>
      <trkpt lat="45.24541" lon="6.16783">
        <ele>1848.8</ele>
        <time>2020-02-09T14:26:32Z</time>
      </trkpt>
      <trkpt lat="45.24545" lon="6.16784">
        <ele>1845.9</ele>
        <time>2020-02-09T14:26:33Z</time>
      </trkpt>
      <trkpt lat="45.24545" lon="6.1679">
        <ele>1843.3</ele>
        <time>2020-02-09T14:26:36Z</time>
      </trkpt>
      <trkpt lat="45.24541" lon="6.16793">
        <ele>1840.8</ele>
        <time>2020-02-09T14:26:48Z</time>
      </trkpt>
      <trkpt lat="45.24538" lon="6.16792">
        <ele>1843.3</ele>
        <time>2020-02-09T14:26:49Z</time>
      </trkpt>
      <trkpt lat="45.24533" lon="6.16792">
        <ele>1843.2</ele>
        <time>2020-02-09T14:26:50Z</time>
      </trkpt>
      <trkpt lat="45.24527" lon="6.16793">
        <ele>1840.7</ele>
        <time>2020-02-09T14:26:51Z</time>
      </trkpt>
      <trkpt lat="45.24522" lon="6.16794">
        <ele>1840.7</ele>
        <time>2020-02-09T14:26:52Z</time>
      </trkpt>
      <trkpt lat="45.24518" lon="6.16795">
        <ele>1840.7</ele>
        <time>2020-02-09T14:26:53Z</time>
      </trkpt>
      <trkpt lat="45.24514" lon="6.16796">
        <ele>1840.7</ele>
        <time>2020-02-09T14:26:54Z</time>
      </trkpt>
      <trkpt lat="45.2451" lon="6.16797">
        <ele>1838.4</ele>
        <time>2020-02-09T14:26:55Z</time>
      </trkpt>
      <trkpt lat="45.24506" lon="6.16797">
        <ele>1838.4</ele>
        <time>2020-02-09T14:26:56Z</time>
      </trkpt>
      <trkpt lat="45.24503" lon="6.16796">
        <ele>1840.8</ele>
        <time>2020-02-09T14:26:58Z</time>
      </trkpt>
      <trkpt lat="45.245" lon="6.16798">
        <ele>1838.4</ele>
        <time>2020-02-09T14:27:00Z</time>
      </trkpt>
      <trkpt lat="45.24497" lon="6.168">
        <ele>1838.4</ele>
        <time>2020-02-09T14:27:01Z</time>
      </trkpt>
      <trkpt lat="45.24493" lon="6.16804">
        <ele>1836.1</ele>
        <time>2020-02-09T14:27:03Z</time>
      </trkpt>
      <trkpt lat="45.24488" lon="6.16809">
        <ele>1833.9</ele>
        <time>2020-02-09T14:27:04Z</time>
      </trkpt>
      <trkpt lat="45.24483" lon="6.16812">
        <ele>1831.6</ele>
        <time>2020-02-09T14:27:06Z</time>
      </trkpt>
      <trkpt lat="45.24479" lon="6.16815">
        <ele>1829.3</ele>
        <time>2020-02-09T14:27:08Z</time>
      </trkpt>
      <trkpt lat="45.24476" lon="6.16818">
        <ele>1826.9</ele>
        <time>2020-02-09T14:27:09Z</time>
      </trkpt>
      <trkpt lat="45.24473" lon="6.1682">
        <ele>1826.6</ele>
        <time>2020-02-09T14:27:10Z</time>
      </trkpt>
      <trkpt lat="45.24471" lon="6.16817">
        <ele>1828.5</ele>
        <time>2020-02-09T14:27:17Z</time>
      </trkpt>
      <trkpt lat="45.24469" lon="6.16814">
        <ele>1828.5</ele>
        <time>2020-02-09T14:27:19Z</time>
      </trkpt>
      <trkpt lat="45.24466" lon="6.16811">
        <ele>1830.4</ele>
        <time>2020-02-09T14:27:21Z</time>
      </trkpt>
      <trkpt lat="45.24465" lon="6.16807">
        <ele>1832.2</ele>
        <time>2020-02-09T14:27:28Z</time>
      </trkpt>
      <trkpt lat="45.24462" lon="6.1681">
        <ele>1830</ele>
        <time>2020-02-09T14:27:38Z</time>
      </trkpt>
      <trkpt lat="45.2446" lon="6.16813">
        <ele>1829.7</ele>
        <time>2020-02-09T14:27:40Z</time>
      </trkpt>
      <trkpt lat="45.24456" lon="6.16816">
        <ele>1827.2</ele>
        <time>2020-02-09T14:27:42Z</time>
      </trkpt>
      <trkpt lat="45.24453" lon="6.16817">
        <ele>1826.9</ele>
        <time>2020-02-09T14:27:43Z</time>
      </trkpt>
      <trkpt lat="45.2445" lon="6.16819">
        <ele>1824.5</ele>
        <time>2020-02-09T14:27:44Z</time>
      </trkpt>
      <trkpt lat="45.24447" lon="6.16819">
        <ele>1824.2</ele>
        <time>2020-02-09T14:27:45Z</time>
      </trkpt>
      <trkpt lat="45.24444" lon="6.16819">
        <ele>1823.8</ele>
        <time>2020-02-09T14:27:46Z</time>
      </trkpt>
      <trkpt lat="45.24441" lon="6.16819">
        <ele>1823.1</ele>
        <time>2020-02-09T14:27:47Z</time>
      </trkpt>
      <trkpt lat="45.24436" lon="6.1682">
        <ele>1822.8</ele>
        <time>2020-02-09T14:27:48Z</time>
      </trkpt>
      <trkpt lat="45.24432" lon="6.16821">
        <ele>1822.4</ele>
        <time>2020-02-09T14:27:49Z</time>
      </trkpt>
      <trkpt lat="45.24428" lon="6.16821">
        <ele>1821.6</ele>
        <time>2020-02-09T14:27:50Z</time>
      </trkpt>
      <trkpt lat="45.24422" lon="6.16823">
        <ele>1818.8</ele>
        <time>2020-02-09T14:27:51Z</time>
      </trkpt>
      <trkpt lat="45.24417" lon="6.16822">
        <ele>1820.2</ele>
        <time>2020-02-09T14:27:53Z</time>
      </trkpt>
      <trkpt lat="45.24413" lon="6.16821">
        <ele>1819.2</ele>
        <time>2020-02-09T14:27:55Z</time>
      </trkpt>
      <trkpt lat="45.2441" lon="6.16819">
        <ele>1818.7</ele>
        <time>2020-02-09T14:27:57Z</time>
      </trkpt>
      <trkpt lat="45.24407" lon="6.16817">
        <ele>1820.1</ele>
        <time>2020-02-09T14:27:59Z</time>
      </trkpt>
      <trkpt lat="45.24405" lon="6.16813">
        <ele>1821.9</ele>
        <time>2020-02-09T14:28:03Z</time>
      </trkpt>
      <trkpt lat="45.24404" lon="6.1681">
        <ele>1821.4</ele>
        <time>2020-02-09T14:28:21Z</time>
      </trkpt>
      <trkpt lat="45.24401" lon="6.16814">
        <ele>1819.1</ele>
        <time>2020-02-09T14:28:24Z</time>
      </trkpt>
      <trkpt lat="45.24397" lon="6.16815">
        <ele>1818.6</ele>
        <time>2020-02-09T14:28:26Z</time>
      </trkpt>
      <trkpt lat="45.24393" lon="6.16815">
        <ele>1817.7</ele>
        <time>2020-02-09T14:28:29Z</time>
      </trkpt>
      <trkpt lat="45.24387" lon="6.16813">
        <ele>1818.4</ele>
        <time>2020-02-09T14:28:31Z</time>
      </trkpt>
      <trkpt lat="45.24382" lon="6.16812">
        <ele>1817.4</ele>
        <time>2020-02-09T14:28:32Z</time>
      </trkpt>
      <trkpt lat="45.24377" lon="6.1681">
        <ele>1816.5</ele>
        <time>2020-02-09T14:28:33Z</time>
      </trkpt>
      <trkpt lat="45.24371" lon="6.16808">
        <ele>1817.3</ele>
        <time>2020-02-09T14:28:34Z</time>
      </trkpt>
      <trkpt lat="45.24365" lon="6.16806">
        <ele>1816.6</ele>
        <time>2020-02-09T14:28:35Z</time>
      </trkpt>
      <trkpt lat="45.24361" lon="6.16808">
        <ele>1816.2</ele>
        <time>2020-02-09T14:28:36Z</time>
      </trkpt>
      <trkpt lat="45.24358" lon="6.16811">
        <ele>1814.4</ele>
        <time>2020-02-09T14:28:37Z</time>
      </trkpt>
      <trkpt lat="45.24355" lon="6.16813">
        <ele>1814.1</ele>
        <time>2020-02-09T14:28:39Z</time>
      </trkpt>
      <trkpt lat="45.24353" lon="6.16816">
        <ele>1812.3</ele>
        <time>2020-02-09T14:28:41Z</time>
      </trkpt>
      <trkpt lat="45.24348" lon="6.16821">
        <ele>1810.5</ele>
        <time>2020-02-09T14:28:43Z</time>
      </trkpt>
      <trkpt lat="45.24345" lon="6.16823">
        <ele>1808.8</ele>
        <time>2020-02-09T14:28:44Z</time>
      </trkpt>
      <trkpt lat="45.2434" lon="6.16823">
        <ele>1808.6</ele>
        <time>2020-02-09T14:28:45Z</time>
      </trkpt>
      <trkpt lat="45.24335" lon="6.16825">
        <ele>1808.5</ele>
        <time>2020-02-09T14:28:46Z</time>
      </trkpt>
      <trkpt lat="45.2433" lon="6.16826">
        <ele>1808.5</ele>
        <time>2020-02-09T14:28:47Z</time>
      </trkpt>
      <trkpt lat="45.24325" lon="6.16828">
        <ele>1807.2</ele>
        <time>2020-02-09T14:28:48Z</time>
      </trkpt>
      <trkpt lat="45.24321" lon="6.1683">
        <ele>1807.4</ele>
        <time>2020-02-09T14:28:49Z</time>
      </trkpt>
      <trkpt lat="45.24317" lon="6.16833">
        <ele>1806.4</ele>
        <time>2020-02-09T14:28:50Z</time>
      </trkpt>
      <trkpt lat="45.24313" lon="6.16835">
        <ele>1806.7</ele>
        <time>2020-02-09T14:28:51Z</time>
      </trkpt>
      <trkpt lat="45.24309" lon="6.16837">
        <ele>1805.7</ele>
        <time>2020-02-09T14:28:52Z</time>
      </trkpt>
      <trkpt lat="45.24307" lon="6.16837">
        <ele>1806.1</ele>
        <time>2020-02-09T14:28:53Z</time>
      </trkpt>
      <trkpt lat="45.24304" lon="6.16838">
        <ele>1806.4</ele>
        <time>2020-02-09T14:28:54Z</time>
      </trkpt>
      <trkpt lat="45.24301" lon="6.16839">
        <ele>1806.8</ele>
        <time>2020-02-09T14:28:55Z</time>
      </trkpt>
      <trkpt lat="45.24297" lon="6.16839">
        <ele>1807.1</ele>
        <time>2020-02-09T14:28:56Z</time>
      </trkpt>
      <trkpt lat="45.24291" lon="6.1684">
        <ele>1806.7</ele>
        <time>2020-02-09T14:28:57Z</time>
      </trkpt>
      <trkpt lat="45.24287" lon="6.16841">
        <ele>1807</ele>
        <time>2020-02-09T14:28:58Z</time>
      </trkpt>
      <trkpt lat="45.24284" lon="6.16844">
        <ele>1806.2</ele>
        <time>2020-02-09T14:29:00Z</time>
      </trkpt>
      <trkpt lat="45.24286" lon="6.16847">
        <ele>1806.2</ele>
        <time>2020-02-09T14:29:01Z</time>
      </trkpt>
      <trkpt lat="45.24286" lon="6.16852">
        <ele>1805</ele>
        <time>2020-02-09T14:29:02Z</time>
      </trkpt>
      <trkpt lat="45.24285" lon="6.16856">
        <ele>1803.8</ele>
        <time>2020-02-09T14:29:03Z</time>
      </trkpt>
      <trkpt lat="45.24281" lon="6.16862">
        <ele>1801.5</ele>
        <time>2020-02-09T14:29:05Z</time>
      </trkpt>
      <trkpt lat="45.24278" lon="6.16867">
        <ele>1800.6</ele>
        <time>2020-02-09T14:29:06Z</time>
      </trkpt>
      <trkpt lat="45.24275" lon="6.16873">
        <ele>1799.6</ele>
        <time>2020-02-09T14:29:07Z</time>
      </trkpt>
      <trkpt lat="45.24273" lon="6.1688">
        <ele>1797.3</ele>
        <time>2020-02-09T14:29:08Z</time>
      </trkpt>
      <trkpt lat="45.24272" lon="6.16886">
        <ele>1795.9</ele>
        <time>2020-02-09T14:29:09Z</time>
      </trkpt>
      <trkpt lat="45.2427" lon="6.16891">
        <ele>1795.1</ele>
        <time>2020-02-09T14:29:10Z</time>
      </trkpt>
      <trkpt lat="45.24269" lon="6.16896">
        <ele>1792.4</ele>
        <time>2020-02-09T14:29:11Z</time>
      </trkpt>
      <trkpt lat="45.24268" lon="6.16903">
        <ele>1791.7</ele>
        <time>2020-02-09T14:29:12Z</time>
      </trkpt>
      <trkpt lat="45.24268" lon="6.1691">
        <ele>1788.8</ele>
        <time>2020-02-09T14:29:13Z</time>
      </trkpt>
      <trkpt lat="45.24267" lon="6.16915">
        <ele>1787.4</ele>
        <time>2020-02-09T14:29:14Z</time>
      </trkpt>
      <trkpt lat="45.24269" lon="6.16919">
        <ele>1785.2</ele>
        <time>2020-02-09T14:29:15Z</time>
      </trkpt>
      <trkpt lat="45.24268" lon="6.16922">
        <ele>1784.4</ele>
        <time>2020-02-09T14:29:31Z</time>
      </trkpt>
      <trkpt lat="45.24269" lon="6.16927">
        <ele>1782.4</ele>
        <time>2020-02-09T14:29:50Z</time>
      </trkpt>
      <trkpt lat="45.24271" lon="6.1693">
        <ele>1781.1</ele>
        <time>2020-02-09T14:30:15Z</time>
      </trkpt>
      <trkpt lat="45.24268" lon="6.1693">
        <ele>1781.7</ele>
        <time>2020-02-09T14:30:23Z</time>
      </trkpt>
      <trkpt lat="45.2426" lon="6.1692">
        <ele>1787.1</ele>
        <time>2020-02-09T14:30:25Z</time>
      </trkpt>
      <trkpt lat="45.24254" lon="6.16915">
        <ele>1790.2</ele>
        <time>2020-02-09T14:30:26Z</time>
      </trkpt>
      <trkpt lat="45.24251" lon="6.16915">
        <ele>1791.1</ele>
        <time>2020-02-09T14:30:27Z</time>
      </trkpt>
      <trkpt lat="45.24248" lon="6.16917">
        <ele>1792.1</ele>
        <time>2020-02-09T14:30:35Z</time>
      </trkpt>
      <trkpt lat="45.24245" lon="6.16919">
        <ele>1791.7</ele>
        <time>2020-02-09T14:30:37Z</time>
      </trkpt>
      <trkpt lat="45.24244" lon="6.16925">
        <ele>1790.4</ele>
        <time>2020-02-09T14:30:40Z</time>
      </trkpt>
      <trkpt lat="45.24245" lon="6.16931">
        <ele>1787.8</ele>
        <time>2020-02-09T14:30:44Z</time>
      </trkpt>
      <trkpt lat="45.24246" lon="6.16934">
        <ele>1786.7</ele>
        <time>2020-02-09T14:30:47Z</time>
      </trkpt>
      <trkpt lat="45.24245" lon="6.16938">
        <ele>1786.7</ele>
        <time>2020-02-09T14:30:51Z</time>
      </trkpt>
      <trkpt lat="45.24244" lon="6.16942">
        <ele>1786.6</ele>
        <time>2020-02-09T14:30:55Z</time>
      </trkpt>
      <trkpt lat="45.24243" lon="6.16946">
        <ele>1785.4</ele>
        <time>2020-02-09T14:30:57Z</time>
      </trkpt>
      <trkpt lat="45.24244" lon="6.1695">
        <ele>1784.3</ele>
        <time>2020-02-09T14:31:03Z</time>
      </trkpt>
      <trkpt lat="45.24243" lon="6.16954">
        <ele>1783.1</ele>
        <time>2020-02-09T14:31:06Z</time>
      </trkpt>
      <trkpt lat="45.24242" lon="6.16959">
        <ele>1781.9</ele>
        <time>2020-02-09T14:31:11Z</time>
      </trkpt>
      <trkpt lat="45.2424" lon="6.16962">
        <ele>1781.7</ele>
        <time>2020-02-09T14:31:16Z</time>
      </trkpt>
      <trkpt lat="45.24241" lon="6.16967">
        <ele>1780.5</ele>
        <time>2020-02-09T14:31:19Z</time>
      </trkpt>
      <trkpt lat="45.2424" lon="6.16972">
        <ele>1779.4</ele>
        <time>2020-02-09T14:31:21Z</time>
      </trkpt>
      <trkpt lat="45.2424" lon="6.16978">
        <ele>1777.2</ele>
        <time>2020-02-09T14:31:23Z</time>
      </trkpt>
      <trkpt lat="45.2424" lon="6.16984">
        <ele>1776.2</ele>
        <time>2020-02-09T14:31:31Z</time>
      </trkpt>
      <trkpt lat="45.24239" lon="6.16988">
        <ele>1775.3</ele>
        <time>2020-02-09T14:31:32Z</time>
      </trkpt>
      <trkpt lat="45.24239" lon="6.16993">
        <ele>1774.4</ele>
        <time>2020-02-09T14:31:33Z</time>
      </trkpt>
      <trkpt lat="45.24238" lon="6.16998">
        <ele>1774</ele>
        <time>2020-02-09T14:31:34Z</time>
      </trkpt>
      <trkpt lat="45.24235" lon="6.17003">
        <ele>1773.2</ele>
        <time>2020-02-09T14:31:35Z</time>
      </trkpt>
      <trkpt lat="45.24233" lon="6.17009">
        <ele>1773.8</ele>
        <time>2020-02-09T14:31:36Z</time>
      </trkpt>
      <trkpt lat="45.24234" lon="6.17014">
        <ele>1773</ele>
        <time>2020-02-09T14:31:42Z</time>
      </trkpt>
      <trkpt lat="45.24236" lon="6.17018">
        <ele>1770.8</ele>
        <time>2020-02-09T14:31:45Z</time>
      </trkpt>
      <trkpt lat="45.24236" lon="6.17023">
        <ele>1770.1</ele>
        <time>2020-02-09T14:31:48Z</time>
      </trkpt>
      <trkpt lat="45.24237" lon="6.17028">
        <ele>1769.4</ele>
        <time>2020-02-09T14:31:52Z</time>
      </trkpt>
      <trkpt lat="45.24237" lon="6.17032">
        <ele>1768.8</ele>
        <time>2020-02-09T14:31:54Z</time>
      </trkpt>
      <trkpt lat="45.24239" lon="6.17038">
        <ele>1766.1</ele>
        <time>2020-02-09T14:31:56Z</time>
      </trkpt>
      <trkpt lat="45.24243" lon="6.17043">
        <ele>1764.1</ele>
        <time>2020-02-09T14:31:58Z</time>
      </trkpt>
      <trkpt lat="45.24245" lon="6.17046">
        <ele>1763.3</ele>
        <time>2020-02-09T14:31:59Z</time>
      </trkpt>
      <trkpt lat="45.24245" lon="6.17053">
        <ele>1762.2</ele>
        <time>2020-02-09T14:32:01Z</time>
      </trkpt>
      <trkpt lat="45.24245" lon="6.17058">
        <ele>1761.3</ele>
        <time>2020-02-09T14:32:04Z</time>
      </trkpt>
      <trkpt lat="45.24244" lon="6.17063">
        <ele>1760.5</ele>
        <time>2020-02-09T14:32:06Z</time>
      </trkpt>
      <trkpt lat="45.24246" lon="6.17068">
        <ele>1759.5</ele>
        <time>2020-02-09T14:32:16Z</time>
      </trkpt>
      <trkpt lat="45.24245" lon="6.17075">
        <ele>1758.4</ele>
        <time>2020-02-09T14:32:18Z</time>
      </trkpt>
      <trkpt lat="45.24246" lon="6.17081">
        <ele>1757.3</ele>
        <time>2020-02-09T14:32:19Z</time>
      </trkpt>
      <trkpt lat="45.24248" lon="6.17086">
        <ele>1756.3</ele>
        <time>2020-02-09T14:32:20Z</time>
      </trkpt>
      <trkpt lat="45.24248" lon="6.17094">
        <ele>1755</ele>
        <time>2020-02-09T14:32:22Z</time>
      </trkpt>
      <trkpt lat="45.2425" lon="6.17098">
        <ele>1754.1</ele>
        <time>2020-02-09T14:32:23Z</time>
      </trkpt>
      <trkpt lat="45.24252" lon="6.17103">
        <ele>1753.2</ele>
        <time>2020-02-09T14:32:24Z</time>
      </trkpt>
      <trkpt lat="45.24251" lon="6.17109">
        <ele>1752.1</ele>
        <time>2020-02-09T14:32:26Z</time>
      </trkpt>
      <trkpt lat="45.24251" lon="6.17114">
        <ele>1751.2</ele>
        <time>2020-02-09T14:32:34Z</time>
      </trkpt>
      <trkpt lat="45.24249" lon="6.17119">
        <ele>1750.3</ele>
        <time>2020-02-09T14:32:57Z</time>
      </trkpt>
      <trkpt lat="45.24249" lon="6.17124">
        <ele>1749.3</ele>
        <time>2020-02-09T14:32:59Z</time>
      </trkpt>
      <trkpt lat="45.2425" lon="6.17129">
        <ele>1748.4</ele>
        <time>2020-02-09T14:33:01Z</time>
      </trkpt>
      <trkpt lat="45.24252" lon="6.17132">
        <ele>1747.6</ele>
        <time>2020-02-09T14:33:02Z</time>
      </trkpt>
      <trkpt lat="45.24254" lon="6.17138">
        <ele>1746.5</ele>
        <time>2020-02-09T14:33:03Z</time>
      </trkpt>
      <trkpt lat="45.24258" lon="6.17144">
        <ele>1745</ele>
        <time>2020-02-09T14:33:04Z</time>
      </trkpt>
      <trkpt lat="45.24258" lon="6.17153">
        <ele>1743.5</ele>
        <time>2020-02-09T14:33:05Z</time>
      </trkpt>
      <trkpt lat="45.24257" lon="6.17159">
        <ele>1742.3</ele>
        <time>2020-02-09T14:33:06Z</time>
      </trkpt>
      <trkpt lat="45.24258" lon="6.17167">
        <ele>1740.8</ele>
        <time>2020-02-09T14:33:07Z</time>
      </trkpt>
      <trkpt lat="45.24259" lon="6.17171">
        <ele>1740.1</ele>
        <time>2020-02-09T14:33:08Z</time>
      </trkpt>
      <trkpt lat="45.2426" lon="6.17175">
        <ele>1739.2</ele>
        <time>2020-02-09T14:33:09Z</time>
      </trkpt>
      <trkpt lat="45.24262" lon="6.17179">
        <ele>1738.2</ele>
        <time>2020-02-09T14:33:10Z</time>
      </trkpt>
      <trkpt lat="45.24265" lon="6.17184">
        <ele>1737</ele>
        <time>2020-02-09T14:33:11Z</time>
      </trkpt>
      <trkpt lat="45.24267" lon="6.17189">
        <ele>1735.8</ele>
        <time>2020-02-09T14:33:12Z</time>
      </trkpt>
      <trkpt lat="45.24271" lon="6.17193">
        <ele>1734.5</ele>
        <time>2020-02-09T14:33:15Z</time>
      </trkpt>
      <trkpt lat="45.24272" lon="6.17188">
        <ele>1733.6</ele>
        <time>2020-02-09T14:33:20Z</time>
      </trkpt>
      <trkpt lat="45.24273" lon="6.17192">
        <ele>1732.8</ele>
        <time>2020-02-09T14:33:38Z</time>
      </trkpt>
      <trkpt lat="45.24273" lon="6.17196">
        <ele>1732</ele>
        <time>2020-02-09T14:33:40Z</time>
      </trkpt>
      <trkpt lat="45.24275" lon="6.17201">
        <ele>1731</ele>
        <time>2020-02-09T14:33:52Z</time>
      </trkpt>
      <trkpt lat="45.24276" lon="6.17207">
        <ele>1730</ele>
        <time>2020-02-09T14:33:54Z</time>
      </trkpt>
      <trkpt lat="45.24277" lon="6.17212">
        <ele>1729</ele>
        <time>2020-02-09T14:33:56Z</time>
      </trkpt>
      <trkpt lat="45.24278" lon="6.17217">
        <ele>1728</ele>
        <time>2020-02-09T14:33:58Z</time>
      </trkpt>
      <trkpt lat="45.24279" lon="6.17224">
        <ele>1726.8</ele>
        <time>2020-02-09T14:34:00Z</time>
      </trkpt>
      <trkpt lat="45.24279" lon="6.17228">
        <ele>1726</ele>
        <time>2020-02-09T14:34:01Z</time>
      </trkpt>
      <trkpt lat="45.24279" lon="6.17235">
        <ele>1724.7</ele>
        <time>2020-02-09T14:34:03Z</time>
      </trkpt>
      <trkpt lat="45.24279" lon="6.17242">
        <ele>1723.6</ele>
        <time>2020-02-09T14:34:05Z</time>
      </trkpt>
      <trkpt lat="45.24281" lon="6.17249">
        <ele>1722.3</ele>
        <time>2020-02-09T14:34:07Z</time>
      </trkpt>
      <trkpt lat="45.24284" lon="6.17256">
        <ele>1720.8</ele>
        <time>2020-02-09T14:34:09Z</time>
      </trkpt>
      <trkpt lat="45.24286" lon="6.17259">
        <ele>1720</ele>
        <time>2020-02-09T14:34:10Z</time>
      </trkpt>
      <trkpt lat="45.24288" lon="6.17265">
        <ele>1719</ele>
        <time>2020-02-09T14:34:12Z</time>
      </trkpt>
      <trkpt lat="45.2429" lon="6.17267">
        <ele>1718.3</ele>
        <time>2020-02-09T14:34:13Z</time>
      </trkpt>
      <trkpt lat="45.24291" lon="6.17273">
        <ele>1717.3</ele>
        <time>2020-02-09T14:34:15Z</time>
      </trkpt>
      <trkpt lat="45.24294" lon="6.17278">
        <ele>1716.1</ele>
        <time>2020-02-09T14:34:17Z</time>
      </trkpt>
      <trkpt lat="45.24297" lon="6.17284">
        <ele>1714.9</ele>
        <time>2020-02-09T14:34:18Z</time>
      </trkpt>
      <trkpt lat="45.243" lon="6.17289">
        <ele>1713.8</ele>
        <time>2020-02-09T14:34:19Z</time>
      </trkpt>
      <trkpt lat="45.24303" lon="6.17293">
        <ele>1712.7</ele>
        <time>2020-02-09T14:34:20Z</time>
      </trkpt>
      <trkpt lat="45.24305" lon="6.17297">
        <ele>1711.8</ele>
        <time>2020-02-09T14:34:21Z</time>
      </trkpt>
      <trkpt lat="45.24307" lon="6.17301">
        <ele>1711</ele>
        <time>2020-02-09T14:34:22Z</time>
      </trkpt>
      <trkpt lat="45.24309" lon="6.17304">
        <ele>1710.2</ele>
        <time>2020-02-09T14:34:23Z</time>
      </trkpt>
      <trkpt lat="45.24311" lon="6.17308">
        <ele>1709.2</ele>
        <time>2020-02-09T14:34:24Z</time>
      </trkpt>
      <trkpt lat="45.24313" lon="6.17313">
        <ele>1708.3</ele>
        <time>2020-02-09T14:34:25Z</time>
      </trkpt>
      <trkpt lat="45.24315" lon="6.17319">
        <ele>1707.1</ele>
        <time>2020-02-09T14:34:26Z</time>
      </trkpt>
      <trkpt lat="45.24318" lon="6.17324">
        <ele>1705.9</ele>
        <time>2020-02-09T14:34:27Z</time>
      </trkpt>
      <trkpt lat="45.24321" lon="6.1733">
        <ele>1704.7</ele>
        <time>2020-02-09T14:34:28Z</time>
      </trkpt>
      <trkpt lat="45.24323" lon="6.17336">
        <ele>1703.5</ele>
        <time>2020-02-09T14:34:29Z</time>
      </trkpt>
      <trkpt lat="45.24325" lon="6.17341">
        <ele>1702.6</ele>
        <time>2020-02-09T14:34:30Z</time>
      </trkpt>
      <trkpt lat="45.24327" lon="6.17345">
        <ele>1701.6</ele>
        <time>2020-02-09T14:34:31Z</time>
      </trkpt>
      <trkpt lat="45.24331" lon="6.17353">
        <ele>1700</ele>
        <time>2020-02-09T14:34:32Z</time>
      </trkpt>
      <trkpt lat="45.24338" lon="6.17359">
        <ele>1698</ele>
        <time>2020-02-09T14:34:33Z</time>
      </trkpt>
      <trkpt lat="45.24346" lon="6.17364">
        <ele>1695.9</ele>
        <time>2020-02-09T14:34:34Z</time>
      </trkpt>
      <trkpt lat="45.2435" lon="6.17367">
        <ele>1694.7</ele>
        <time>2020-02-09T14:34:35Z</time>
      </trkpt>
      <trkpt lat="45.24352" lon="6.17371">
        <ele>1693.9</ele>
        <time>2020-02-09T14:34:36Z</time>
      </trkpt>
      <trkpt lat="45.24356" lon="6.17374">
        <ele>1692.7</ele>
        <time>2020-02-09T14:34:37Z</time>
      </trkpt>
      <trkpt lat="45.2436" lon="6.17378">
        <ele>1691.5</ele>
        <time>2020-02-09T14:34:38Z</time>
      </trkpt>
      <trkpt lat="45.24365" lon="6.17382">
        <ele>1690.2</ele>
        <time>2020-02-09T14:34:39Z</time>
      </trkpt>
      <trkpt lat="45.24367" lon="6.17385">
        <ele>1689.4</ele>
        <time>2020-02-09T14:34:40Z</time>
      </trkpt>
      <trkpt lat="45.24369" lon="6.17388">
        <ele>1688.5</ele>
        <time>2020-02-09T14:34:41Z</time>
      </trkpt>
      <trkpt lat="45.24372" lon="6.17392">
        <ele>1687.4</ele>
        <time>2020-02-09T14:34:42Z</time>
      </trkpt>
      <trkpt lat="45.24376" lon="6.17397">
        <ele>1685.8</ele>
        <time>2020-02-09T14:34:43Z</time>
      </trkpt>
      <trkpt lat="45.24379" lon="6.17403">
        <ele>1684.4</ele>
        <time>2020-02-09T14:34:44Z</time>
      </trkpt>
      <trkpt lat="45.24382" lon="6.17408">
        <ele>1683</ele>
        <time>2020-02-09T14:34:45Z</time>
      </trkpt>
      <trkpt lat="45.24385" lon="6.17414">
        <ele>1681.4</ele>
        <time>2020-02-09T14:34:46Z</time>
      </trkpt>
      <trkpt lat="45.24388" lon="6.17422">
        <ele>1679.5</ele>
        <time>2020-02-09T14:34:47Z</time>
      </trkpt>
      <trkpt lat="45.24392" lon="6.1743">
        <ele>1677.4</ele>
        <time>2020-02-09T14:34:48Z</time>
      </trkpt>
      <trkpt lat="45.24395" lon="6.17437">
        <ele>1675.7</ele>
        <time>2020-02-09T14:34:49Z</time>
      </trkpt>
      <trkpt lat="45.24397" lon="6.17441">
        <ele>1674.7</ele>
        <time>2020-02-09T14:34:50Z</time>
      </trkpt>
      <trkpt lat="45.24399" lon="6.17448">
        <ele>1673.2</ele>
        <time>2020-02-09T14:34:51Z</time>
      </trkpt>
      <trkpt lat="45.24401" lon="6.17455">
        <ele>1671.5</ele>
        <time>2020-02-09T14:34:52Z</time>
      </trkpt>
      <trkpt lat="45.24404" lon="6.17462">
        <ele>1669.8</ele>
        <time>2020-02-09T14:34:53Z</time>
      </trkpt>
      <trkpt lat="45.24408" lon="6.17468">
        <ele>1668.2</ele>
        <time>2020-02-09T14:34:54Z</time>
      </trkpt>
      <trkpt lat="45.24413" lon="6.17473">
        <ele>1666.5</ele>
        <time>2020-02-09T14:34:55Z</time>
      </trkpt>
      <trkpt lat="45.24418" lon="6.17478">
        <ele>1665</ele>
        <time>2020-02-09T14:34:56Z</time>
      </trkpt>
      <trkpt lat="45.24423" lon="6.1748">
        <ele>1663.6</ele>
        <time>2020-02-09T14:34:57Z</time>
      </trkpt>
      <trkpt lat="45.24427" lon="6.17483">
        <ele>1662.5</ele>
        <time>2020-02-09T14:34:58Z</time>
      </trkpt>
      <trkpt lat="45.24432" lon="6.17487">
        <ele>1661.2</ele>
        <time>2020-02-09T14:34:59Z</time>
      </trkpt>
      <trkpt lat="45.24437" lon="6.17491">
        <ele>1659.6</ele>
        <time>2020-02-09T14:35:00Z</time>
      </trkpt>
      <trkpt lat="45.24443" lon="6.17495">
        <ele>1658.3</ele>
        <time>2020-02-09T14:35:01Z</time>
      </trkpt>
      <trkpt lat="45.24448" lon="6.17499">
        <ele>1657.1</ele>
        <time>2020-02-09T14:35:02Z</time>
      </trkpt>
      <trkpt lat="45.24453" lon="6.17503">
        <ele>1655.9</ele>
        <time>2020-02-09T14:35:03Z</time>
      </trkpt>
      <trkpt lat="45.24458" lon="6.17508">
        <ele>1654.7</ele>
        <time>2020-02-09T14:35:04Z</time>
      </trkpt>
      <trkpt lat="45.24464" lon="6.17516">
        <ele>1653.2</ele>
        <time>2020-02-09T14:35:05Z</time>
      </trkpt>
      <trkpt lat="45.24469" lon="6.17521">
        <ele>1652.1</ele>
        <time>2020-02-09T14:35:06Z</time>
      </trkpt>
      <trkpt lat="45.24473" lon="6.17526">
        <ele>1651.4</ele>
        <time>2020-02-09T14:35:07Z</time>
      </trkpt>
      <trkpt lat="45.24475" lon="6.1753">
        <ele>1650.8</ele>
        <time>2020-02-09T14:35:08Z</time>
      </trkpt>
      <trkpt lat="45.24478" lon="6.17536">
        <ele>1650.1</ele>
        <time>2020-02-09T14:35:09Z</time>
      </trkpt>
      <trkpt lat="45.2448" lon="6.1754">
        <ele>1649.6</ele>
        <time>2020-02-09T14:35:10Z</time>
      </trkpt>
      <trkpt lat="45.24482" lon="6.17544">
        <ele>1649.2</ele>
        <time>2020-02-09T14:35:11Z</time>
      </trkpt>
      <trkpt lat="45.24488" lon="6.17553">
        <ele>1648.1</ele>
        <time>2020-02-09T14:35:12Z</time>
      </trkpt>
      <trkpt lat="45.24491" lon="6.17561">
        <ele>1647.4</ele>
        <time>2020-02-09T14:35:13Z</time>
      </trkpt>
      <trkpt lat="45.24495" lon="6.17568">
        <ele>1646.6</ele>
        <time>2020-02-09T14:35:14Z</time>
      </trkpt>
      <trkpt lat="45.245" lon="6.17573">
        <ele>1645.9</ele>
        <time>2020-02-09T14:35:15Z</time>
      </trkpt>
      <trkpt lat="45.24505" lon="6.17577">
        <ele>1645.4</ele>
        <time>2020-02-09T14:35:16Z</time>
      </trkpt>
      <trkpt lat="45.2451" lon="6.17579">
        <ele>1644.9</ele>
        <time>2020-02-09T14:35:17Z</time>
      </trkpt>
      <trkpt lat="45.24516" lon="6.17578">
        <ele>1644.3</ele>
        <time>2020-02-09T14:35:18Z</time>
      </trkpt>
      <trkpt lat="45.2452" lon="6.17581">
        <ele>1643.9</ele>
        <time>2020-02-09T14:35:19Z</time>
      </trkpt>
      <trkpt lat="45.24522" lon="6.17585">
        <ele>1643.6</ele>
        <time>2020-02-09T14:35:20Z</time>
      </trkpt>
      <trkpt lat="45.24524" lon="6.17589">
        <ele>1643.3</ele>
        <time>2020-02-09T14:35:21Z</time>
      </trkpt>
      <trkpt lat="45.24527" lon="6.17595">
        <ele>1642.9</ele>
        <time>2020-02-09T14:35:22Z</time>
      </trkpt>
      <trkpt lat="45.2453" lon="6.17602">
        <ele>1642.6</ele>
        <time>2020-02-09T14:35:23Z</time>
      </trkpt>
      <trkpt lat="45.24532" lon="6.17608">
        <ele>1642.3</ele>
        <time>2020-02-09T14:35:25Z</time>
      </trkpt>
      <trkpt lat="45.24536" lon="6.17612">
        <ele>1642.1</ele>
        <time>2020-02-09T14:35:26Z</time>
      </trkpt>
      <trkpt lat="45.24538" lon="6.17614">
        <ele>1642</ele>
        <time>2020-02-09T14:35:27Z</time>
      </trkpt>
      <trkpt lat="45.24541" lon="6.17616">
        <ele>1642</ele>
        <time>2020-02-09T14:35:28Z</time>
      </trkpt>
      <trkpt lat="45.24544" lon="6.17616">
        <ele>1642</ele>
        <time>2020-02-09T14:35:29Z</time>
      </trkpt>
      <trkpt lat="45.24549" lon="6.17617">
        <ele>1641.9</ele>
        <time>2020-02-09T14:35:30Z</time>
      </trkpt>
      <trkpt lat="45.24556" lon="6.1762">
        <ele>1642</ele>
        <time>2020-02-09T14:35:31Z</time>
      </trkpt>
      <trkpt lat="45.24562" lon="6.17624">
        <ele>1642.1</ele>
        <time>2020-02-09T14:35:32Z</time>
      </trkpt>
      <trkpt lat="45.24567" lon="6.1763">
        <ele>1642.3</ele>
        <time>2020-02-09T14:35:33Z</time>
      </trkpt>
      <trkpt lat="45.2457" lon="6.17632">
        <ele>1642.4</ele>
        <time>2020-02-09T14:35:34Z</time>
      </trkpt>
      <trkpt lat="45.24573" lon="6.17633">
        <ele>1642.2</ele>
        <time>2020-02-09T14:35:35Z</time>
      </trkpt>
      <trkpt lat="45.24576" lon="6.17632">
        <ele>1642</ele>
        <time>2020-02-09T14:35:36Z</time>
      </trkpt>
      <trkpt lat="45.24576" lon="6.17628">
        <ele>1641.8</ele>
        <time>2020-02-09T14:35:37Z</time>
      </trkpt>
      <trkpt lat="45.24579" lon="6.17628">
        <ele>1641.7</ele>
        <time>2020-02-09T14:35:38Z</time>
      </trkpt>
      <trkpt lat="45.24582" lon="6.1763">
        <ele>1642.4</ele>
        <time>2020-02-09T14:35:39Z</time>
      </trkpt>
      <trkpt lat="45.24587" lon="6.17628">
        <ele>1640.3</ele>
        <time>2020-02-09T14:35:40Z</time>
      </trkpt>
      <trkpt lat="45.24589" lon="6.17622">
        <ele>1639.3</ele>
        <time>2020-02-09T14:35:41Z</time>
      </trkpt>
      <trkpt lat="45.24589" lon="6.17615">
        <ele>1639.3</ele>
        <time>2020-02-09T14:35:42Z</time>
      </trkpt>
      <trkpt lat="45.24588" lon="6.17609">
        <ele>1639.2</ele>
        <time>2020-02-09T14:35:43Z</time>
      </trkpt>
      <trkpt lat="45.24595" lon="6.1761">
        <ele>1637.5</ele>
        <time>2020-02-09T14:35:45Z</time>
      </trkpt>
      <trkpt lat="45.24599" lon="6.17612">
        <ele>1638.3</ele>
        <time>2020-02-09T14:35:46Z</time>
      </trkpt>
      <trkpt lat="45.24603" lon="6.17613">
        <ele>1638.2</ele>
        <time>2020-02-09T14:35:47Z</time>
      </trkpt>
      <trkpt lat="45.24609" lon="6.17616">
        <ele>1637.2</ele>
        <time>2020-02-09T14:35:49Z</time>
      </trkpt>
      <trkpt lat="45.24614" lon="6.17618">
        <ele>1636.7</ele>
        <time>2020-02-09T14:35:50Z</time>
      </trkpt>
      <trkpt lat="45.24617" lon="6.17622">
        <ele>1637.2</ele>
        <time>2020-02-09T14:35:52Z</time>
      </trkpt>
      <trkpt lat="45.24622" lon="6.17625">
        <ele>1636.3</ele>
        <time>2020-02-09T14:35:54Z</time>
      </trkpt>
      <trkpt lat="45.24627" lon="6.17626">
        <ele>1637.1</ele>
        <time>2020-02-09T14:35:55Z</time>
      </trkpt>
      <trkpt lat="45.24632" lon="6.17625">
        <ele>1636.3</ele>
        <time>2020-02-09T14:35:56Z</time>
      </trkpt>
      <trkpt lat="45.24634" lon="6.17621">
        <ele>1635.5</ele>
        <time>2020-02-09T14:35:57Z</time>
      </trkpt>
      <trkpt lat="45.24636" lon="6.17616">
        <ele>1635.7</ele>
        <time>2020-02-09T14:35:58Z</time>
      </trkpt>
      <trkpt lat="45.2464" lon="6.17616">
        <ele>1635.6</ele>
        <time>2020-02-09T14:35:59Z</time>
      </trkpt>
      <trkpt lat="45.24646" lon="6.17621">
        <ele>1635.4</ele>
        <time>2020-02-09T14:36:01Z</time>
      </trkpt>
      <trkpt lat="45.24648" lon="6.17623">
        <ele>1635.4</ele>
        <time>2020-02-09T14:36:02Z</time>
      </trkpt>
      <trkpt lat="45.24652" lon="6.17624">
        <ele>1635.6</ele>
        <time>2020-02-09T14:36:03Z</time>
      </trkpt>
      <trkpt lat="45.24656" lon="6.17626">
        <ele>1635.5</ele>
        <time>2020-02-09T14:36:04Z</time>
      </trkpt>
      <trkpt lat="45.2466" lon="6.17626">
        <ele>1635.5</ele>
        <time>2020-02-09T14:36:05Z</time>
      </trkpt>
      <trkpt lat="45.24662" lon="6.17616">
        <ele>1634.5</ele>
        <time>2020-02-09T14:36:06Z</time>
      </trkpt>
      <trkpt lat="45.24662" lon="6.17613">
        <ele>1634.8</ele>
        <time>2020-02-09T14:36:07Z</time>
      </trkpt>
      <trkpt lat="45.24661" lon="6.17608">
        <ele>1635.4</ele>
        <time>2020-02-09T14:36:08Z</time>
      </trkpt>
      <trkpt lat="45.24664" lon="6.17605">
        <ele>1635.4</ele>
        <time>2020-02-09T14:36:11Z</time>
      </trkpt>
      <trkpt lat="45.24661" lon="6.17604">
        <ele>1637</ele>
        <time>2020-02-09T14:36:15Z</time>
      </trkpt>
      <trkpt lat="45.24664" lon="6.17604">
        <ele>1637</ele>
        <time>2020-02-09T14:36:23Z</time>
      </trkpt>
      <trkpt lat="45.24667" lon="6.17606">
        <ele>1637</ele>
        <time>2020-02-09T14:36:24Z</time>
      </trkpt>
      <trkpt lat="45.24673" lon="6.17609">
        <ele>1636.5</ele>
        <time>2020-02-09T14:36:26Z</time>
      </trkpt>
      <trkpt lat="45.24677" lon="6.17611">
        <ele>1635.6</ele>
        <time>2020-02-09T14:36:27Z</time>
      </trkpt>
      <trkpt lat="45.24681" lon="6.17613">
        <ele>1635.9</ele>
        <time>2020-02-09T14:36:28Z</time>
      </trkpt>
      <trkpt lat="45.24686" lon="6.17617">
        <ele>1635.2</ele>
        <time>2020-02-09T14:36:29Z</time>
      </trkpt>
      <trkpt lat="45.24692" lon="6.17621">
        <ele>1634.4</ele>
        <time>2020-02-09T14:36:30Z</time>
      </trkpt>
      <trkpt lat="45.24695" lon="6.17623">
        <ele>1634</ele>
        <time>2020-02-09T14:36:31Z</time>
      </trkpt>
      <trkpt lat="45.24701" lon="6.17628">
        <ele>1634.3</ele>
        <time>2020-02-09T14:36:32Z</time>
      </trkpt>
      <trkpt lat="45.24706" lon="6.17632">
        <ele>1634.6</ele>
        <time>2020-02-09T14:36:33Z</time>
      </trkpt>
      <trkpt lat="45.24712" lon="6.17639">
        <ele>1634.8</ele>
        <time>2020-02-09T14:36:35Z</time>
      </trkpt>
      <trkpt lat="45.24715" lon="6.17641">
        <ele>1634.9</ele>
        <time>2020-02-09T14:36:36Z</time>
      </trkpt>
      <trkpt lat="45.2472" lon="6.17639">
        <ele>1635</ele>
        <time>2020-02-09T14:36:37Z</time>
      </trkpt>
      <trkpt lat="45.24726" lon="6.17637">
        <ele>1635.1</ele>
        <time>2020-02-09T14:36:38Z</time>
      </trkpt>
      <trkpt lat="45.24731" lon="6.17639">
        <ele>1635</ele>
        <time>2020-02-09T14:36:39Z</time>
      </trkpt>
      <trkpt lat="45.24736" lon="6.17639">
        <ele>1635</ele>
        <time>2020-02-09T14:36:40Z</time>
      </trkpt>
      <trkpt lat="45.24741" lon="6.17642">
        <ele>1634.9</ele>
        <time>2020-02-09T14:36:41Z</time>
      </trkpt>
      <trkpt lat="45.24745" lon="6.17648">
        <ele>1634.7</ele>
        <time>2020-02-09T14:36:42Z</time>
      </trkpt>
      <trkpt lat="45.24747" lon="6.17652">
        <ele>1634.6</ele>
        <time>2020-02-09T14:36:43Z</time>
      </trkpt>
      <trkpt lat="45.2475" lon="6.17655">
        <ele>1634.5</ele>
        <time>2020-02-09T14:36:44Z</time>
      </trkpt>
      <trkpt lat="45.24752" lon="6.17658">
        <ele>1634.4</ele>
        <time>2020-02-09T14:36:45Z</time>
      </trkpt>
      <trkpt lat="45.24756" lon="6.1766">
        <ele>1634.2</ele>
        <time>2020-02-09T14:36:46Z</time>
      </trkpt>
      <trkpt lat="45.2476" lon="6.17661">
        <ele>1634</ele>
        <time>2020-02-09T14:36:47Z</time>
      </trkpt>
      <trkpt lat="45.24764" lon="6.17657">
        <ele>1633.7</ele>
        <time>2020-02-09T14:36:48Z</time>
      </trkpt>
      <trkpt lat="45.24768" lon="6.17656">
        <ele>1633.5</ele>
        <time>2020-02-09T14:36:49Z</time>
      </trkpt>
      <trkpt lat="45.24771" lon="6.17659">
        <ele>1633.3</ele>
        <time>2020-02-09T14:36:50Z</time>
      </trkpt>
      <trkpt lat="45.24775" lon="6.17658">
        <ele>1633</ele>
        <time>2020-02-09T14:36:51Z</time>
      </trkpt>
      <trkpt lat="45.2478" lon="6.17661">
        <ele>1632.6</ele>
        <time>2020-02-09T14:36:52Z</time>
      </trkpt>
      <trkpt lat="45.24782" lon="6.17666">
        <ele>1632.3</ele>
        <time>2020-02-09T14:36:53Z</time>
      </trkpt>
      <trkpt lat="45.24784" lon="6.17671">
        <ele>1632</ele>
        <time>2020-02-09T14:36:54Z</time>
      </trkpt>
      <trkpt lat="45.24786" lon="6.17674">
        <ele>1631.8</ele>
        <time>2020-02-09T14:36:55Z</time>
      </trkpt>
      <trkpt lat="45.24789" lon="6.17679">
        <ele>1631.5</ele>
        <time>2020-02-09T14:36:56Z</time>
      </trkpt>
      <trkpt lat="45.2479" lon="6.17682">
        <ele>1631.2</ele>
        <time>2020-02-09T14:36:57Z</time>
      </trkpt>
      <trkpt lat="45.24793" lon="6.17687">
        <ele>1630.9</ele>
        <time>2020-02-09T14:36:58Z</time>
      </trkpt>
      <trkpt lat="45.24797" lon="6.17695">
        <ele>1630.2</ele>
        <time>2020-02-09T14:36:59Z</time>
      </trkpt>
      <trkpt lat="45.24802" lon="6.17703">
        <ele>1629.5</ele>
        <time>2020-02-09T14:37:00Z</time>
      </trkpt>
      <trkpt lat="45.24807" lon="6.17711">
        <ele>1628.8</ele>
        <time>2020-02-09T14:37:01Z</time>
      </trkpt>
      <trkpt lat="45.24811" lon="6.17722">
        <ele>1627.9</ele>
        <time>2020-02-09T14:37:02Z</time>
      </trkpt>
      <trkpt lat="45.24815" lon="6.17732">
        <ele>1627</ele>
        <time>2020-02-09T14:37:03Z</time>
      </trkpt>
      <trkpt lat="45.24819" lon="6.17743">
        <ele>1626.2</ele>
        <time>2020-02-09T14:37:04Z</time>
      </trkpt>
      <trkpt lat="45.24822" lon="6.17753">
        <ele>1625.4</ele>
        <time>2020-02-09T14:37:05Z</time>
      </trkpt>
      <trkpt lat="45.24826" lon="6.17761">
        <ele>1624.8</ele>
        <time>2020-02-09T14:37:06Z</time>
      </trkpt>
      <trkpt lat="45.2483" lon="6.17769">
        <ele>1624.2</ele>
        <time>2020-02-09T14:37:07Z</time>
      </trkpt>
      <trkpt lat="45.24835" lon="6.17777">
        <ele>1623.7</ele>
        <time>2020-02-09T14:37:08Z</time>
      </trkpt>
      <trkpt lat="45.2484" lon="6.17784">
        <ele>1623.2</ele>
        <time>2020-02-09T14:37:09Z</time>
      </trkpt>
      <trkpt lat="45.24846" lon="6.17791">
        <ele>1622.9</ele>
        <time>2020-02-09T14:37:10Z</time>
      </trkpt>
      <trkpt lat="45.24852" lon="6.17798">
        <ele>1622.6</ele>
        <time>2020-02-09T14:37:11Z</time>
      </trkpt>
      <trkpt lat="45.24858" lon="6.17805">
        <ele>1622.3</ele>
        <time>2020-02-09T14:37:12Z</time>
      </trkpt>
      <trkpt lat="45.24864" lon="6.17811">
        <ele>1622.1</ele>
        <time>2020-02-09T14:37:13Z</time>
      </trkpt>
      <trkpt lat="45.24871" lon="6.17816">
        <ele>1621.9</ele>
        <time>2020-02-09T14:37:14Z</time>
      </trkpt>
      <trkpt lat="45.24877" lon="6.17821">
        <ele>1621.6</ele>
        <time>2020-02-09T14:37:15Z</time>
      </trkpt>
      <trkpt lat="45.24883" lon="6.17827">
        <ele>1621.3</ele>
        <time>2020-02-09T14:37:16Z</time>
      </trkpt>
      <trkpt lat="45.24889" lon="6.17832">
        <ele>1621</ele>
        <time>2020-02-09T14:37:17Z</time>
      </trkpt>
      <trkpt lat="45.24895" lon="6.17837">
        <ele>1620.6</ele>
        <time>2020-02-09T14:37:18Z</time>
      </trkpt>
      <trkpt lat="45.24901" lon="6.17842">
        <ele>1620.2</ele>
        <time>2020-02-09T14:37:19Z</time>
      </trkpt>
      <trkpt lat="45.24907" lon="6.17847">
        <ele>1619.8</ele>
        <time>2020-02-09T14:37:20Z</time>
      </trkpt>
      <trkpt lat="45.24912" lon="6.17852">
        <ele>1619.4</ele>
        <time>2020-02-09T14:37:21Z</time>
      </trkpt>
      <trkpt lat="45.24917" lon="6.17857">
        <ele>1619</ele>
        <time>2020-02-09T14:37:22Z</time>
      </trkpt>
      <trkpt lat="45.24922" lon="6.17863">
        <ele>1618.6</ele>
        <time>2020-02-09T14:37:23Z</time>
      </trkpt>
      <trkpt lat="45.24927" lon="6.17868">
        <ele>1618.3</ele>
        <time>2020-02-09T14:37:24Z</time>
      </trkpt>
      <trkpt lat="45.24931" lon="6.17874">
        <ele>1618</ele>
        <time>2020-02-09T14:37:25Z</time>
      </trkpt>
      <trkpt lat="45.24935" lon="6.17879">
        <ele>1617.8</ele>
        <time>2020-02-09T14:37:26Z</time>
      </trkpt>
      <trkpt lat="45.24938" lon="6.17885">
        <ele>1617.6</ele>
        <time>2020-02-09T14:37:27Z</time>
      </trkpt>
      <trkpt lat="45.2494" lon="6.17892">
        <ele>1617.2</ele>
        <time>2020-02-09T14:37:28Z</time>
      </trkpt>
      <trkpt lat="45.24942" lon="6.17898">
        <ele>1617.5</ele>
        <time>2020-02-09T14:37:29Z</time>
      </trkpt>
      <trkpt lat="45.24945" lon="6.17903">
        <ele>1617.7</ele>
        <time>2020-02-09T14:37:30Z</time>
      </trkpt>
      <trkpt lat="45.24947" lon="6.17909">
        <ele>1618</ele>
        <time>2020-02-09T14:37:31Z</time>
      </trkpt>
      <trkpt lat="45.24949" lon="6.17914">
        <ele>1618.2</ele>
        <time>2020-02-09T14:37:32Z</time>
      </trkpt>
      <trkpt lat="45.24951" lon="6.1792">
        <ele>1618.2</ele>
        <time>2020-02-09T14:37:33Z</time>
      </trkpt>
      <trkpt lat="45.24952" lon="6.17925">
        <ele>1617.9</ele>
        <time>2020-02-09T14:37:34Z</time>
      </trkpt>
      <trkpt lat="45.24954" lon="6.17931">
        <ele>1617.5</ele>
        <time>2020-02-09T14:37:35Z</time>
      </trkpt>
      <trkpt lat="45.24955" lon="6.17938">
        <ele>1617</ele>
        <time>2020-02-09T14:37:36Z</time>
      </trkpt>
      <trkpt lat="45.24956" lon="6.17946">
        <ele>1616.5</ele>
        <time>2020-02-09T14:37:37Z</time>
      </trkpt>
      <trkpt lat="45.24958" lon="6.17953">
        <ele>1616.1</ele>
        <time>2020-02-09T14:37:38Z</time>
      </trkpt>
      <trkpt lat="45.24962" lon="6.1796">
        <ele>1615.6</ele>
        <time>2020-02-09T14:37:39Z</time>
      </trkpt>
      <trkpt lat="45.24966" lon="6.17967">
        <ele>1615.1</ele>
        <time>2020-02-09T14:37:40Z</time>
      </trkpt>
      <trkpt lat="45.24968" lon="6.17975">
        <ele>1614.8</ele>
        <time>2020-02-09T14:37:41Z</time>
      </trkpt>
      <trkpt lat="45.24972" lon="6.17981">
        <ele>1614.4</ele>
        <time>2020-02-09T14:37:42Z</time>
      </trkpt>
      <trkpt lat="45.24974" lon="6.17988">
        <ele>1614.1</ele>
        <time>2020-02-09T14:37:43Z</time>
      </trkpt>
      <trkpt lat="45.24978" lon="6.17993">
        <ele>1613.8</ele>
        <time>2020-02-09T14:37:44Z</time>
      </trkpt>
      <trkpt lat="45.24981" lon="6.17999">
        <ele>1613.5</ele>
        <time>2020-02-09T14:37:45Z</time>
      </trkpt>
      <trkpt lat="45.24984" lon="6.18004">
        <ele>1613.1</ele>
        <time>2020-02-09T14:37:46Z</time>
      </trkpt>
      <trkpt lat="45.24988" lon="6.18009">
        <ele>1612.7</ele>
        <time>2020-02-09T14:37:47Z</time>
      </trkpt>
      <trkpt lat="45.24992" lon="6.18015">
        <ele>1612.3</ele>
        <time>2020-02-09T14:37:48Z</time>
      </trkpt>
      <trkpt lat="45.24996" lon="6.1802">
        <ele>1611.8</ele>
        <time>2020-02-09T14:37:49Z</time>
      </trkpt>
      <trkpt lat="45.24999" lon="6.18026">
        <ele>1611.4</ele>
        <time>2020-02-09T14:37:50Z</time>
      </trkpt>
      <trkpt lat="45.25002" lon="6.18031">
        <ele>1610.9</ele>
        <time>2020-02-09T14:37:51Z</time>
      </trkpt>
      <trkpt lat="45.25007" lon="6.18035">
        <ele>1610.5</ele>
        <time>2020-02-09T14:37:52Z</time>
      </trkpt>
      <trkpt lat="45.25011" lon="6.18038">
        <ele>1610</ele>
        <time>2020-02-09T14:37:53Z</time>
      </trkpt>
      <trkpt lat="45.25015" lon="6.18043">
        <ele>1609.6</ele>
        <time>2020-02-09T14:37:54Z</time>
      </trkpt>
      <trkpt lat="45.25019" lon="6.18048">
        <ele>1609.1</ele>
        <time>2020-02-09T14:37:55Z</time>
      </trkpt>
      <trkpt lat="45.25023" lon="6.18053">
        <ele>1608.6</ele>
        <time>2020-02-09T14:37:56Z</time>
      </trkpt>
      <trkpt lat="45.25027" lon="6.18059">
        <ele>1608.2</ele>
        <time>2020-02-09T14:37:57Z</time>
      </trkpt>
      <trkpt lat="45.2503" lon="6.18065">
        <ele>1607.8</ele>
        <time>2020-02-09T14:37:58Z</time>
      </trkpt>
      <trkpt lat="45.25034" lon="6.18072">
        <ele>1607.2</ele>
        <time>2020-02-09T14:37:59Z</time>
      </trkpt>
      <trkpt lat="45.25039" lon="6.18078">
        <ele>1606.7</ele>
        <time>2020-02-09T14:38:00Z</time>
      </trkpt>
      <trkpt lat="45.25043" lon="6.18083">
        <ele>1606.3</ele>
        <time>2020-02-09T14:38:01Z</time>
      </trkpt>
      <trkpt lat="45.25048" lon="6.18088">
        <ele>1605.7</ele>
        <time>2020-02-09T14:38:02Z</time>
      </trkpt>
      <trkpt lat="45.25053" lon="6.18094">
        <ele>1605.3</ele>
        <time>2020-02-09T14:38:03Z</time>
      </trkpt>
      <trkpt lat="45.25056" lon="6.18101">
        <ele>1604.9</ele>
        <time>2020-02-09T14:38:04Z</time>
      </trkpt>
      <trkpt lat="45.25061" lon="6.18106">
        <ele>1604.5</ele>
        <time>2020-02-09T14:38:05Z</time>
      </trkpt>
      <trkpt lat="45.25064" lon="6.18113">
        <ele>1604.1</ele>
        <time>2020-02-09T14:38:06Z</time>
      </trkpt>
      <trkpt lat="45.25066" lon="6.1812">
        <ele>1603.8</ele>
        <time>2020-02-09T14:38:07Z</time>
      </trkpt>
      <trkpt lat="45.2507" lon="6.18127">
        <ele>1603.5</ele>
        <time>2020-02-09T14:38:08Z</time>
      </trkpt>
      <trkpt lat="45.25073" lon="6.18134">
        <ele>1603.2</ele>
        <time>2020-02-09T14:38:09Z</time>
      </trkpt>
      <trkpt lat="45.25076" lon="6.18141">
        <ele>1602.9</ele>
        <time>2020-02-09T14:38:10Z</time>
      </trkpt>
      <trkpt lat="45.25079" lon="6.18148">
        <ele>1602.6</ele>
        <time>2020-02-09T14:38:11Z</time>
      </trkpt>
      <trkpt lat="45.25082" lon="6.18155">
        <ele>1602.3</ele>
        <time>2020-02-09T14:38:12Z</time>
      </trkpt>
      <trkpt lat="45.25086" lon="6.18162">
        <ele>1602</ele>
        <time>2020-02-09T14:38:13Z</time>
      </trkpt>
      <trkpt lat="45.25089" lon="6.18169">
        <ele>1601.7</ele>
        <time>2020-02-09T14:38:14Z</time>
      </trkpt>
      <trkpt lat="45.25094" lon="6.18172">
        <ele>1601.4</ele>
        <time>2020-02-09T14:38:15Z</time>
      </trkpt>
      <trkpt lat="45.25099" lon="6.18175">
        <ele>1601.2</ele>
        <time>2020-02-09T14:38:16Z</time>
      </trkpt>
      <trkpt lat="45.25104" lon="6.18177">
        <ele>1601</ele>
        <time>2020-02-09T14:38:17Z</time>
      </trkpt>
      <trkpt lat="45.25109" lon="6.18179">
        <ele>1600.7</ele>
        <time>2020-02-09T14:38:18Z</time>
      </trkpt>
      <trkpt lat="45.25113" lon="6.1818">
        <ele>1600.5</ele>
        <time>2020-02-09T14:38:19Z</time>
      </trkpt>
      <trkpt lat="45.25118" lon="6.18182">
        <ele>1600.2</ele>
        <time>2020-02-09T14:38:20Z</time>
      </trkpt>
      <trkpt lat="45.25122" lon="6.18185">
        <ele>1600</ele>
        <time>2020-02-09T14:38:21Z</time>
      </trkpt>
      <trkpt lat="45.25127" lon="6.18188">
        <ele>1599.8</ele>
        <time>2020-02-09T14:38:22Z</time>
      </trkpt>
      <trkpt lat="45.25131" lon="6.18191">
        <ele>1599.5</ele>
        <time>2020-02-09T14:38:23Z</time>
      </trkpt>
      <trkpt lat="45.25135" lon="6.18196">
        <ele>1599.2</ele>
        <time>2020-02-09T14:38:24Z</time>
      </trkpt>
      <trkpt lat="45.25139" lon="6.18199">
        <ele>1598.9</ele>
        <time>2020-02-09T14:38:25Z</time>
      </trkpt>
      <trkpt lat="45.25143" lon="6.18202">
        <ele>1598.2</ele>
        <time>2020-02-09T14:38:26Z</time>
      </trkpt>
      <trkpt lat="45.25147" lon="6.18206">
        <ele>1597.3</ele>
        <time>2020-02-09T14:38:27Z</time>
      </trkpt>
      <trkpt lat="45.25152" lon="6.18209">
        <ele>1596.4</ele>
        <time>2020-02-09T14:38:28Z</time>
      </trkpt>
      <trkpt lat="45.25156" lon="6.18212">
        <ele>1596</ele>
        <time>2020-02-09T14:38:29Z</time>
      </trkpt>
      <trkpt lat="45.25161" lon="6.18215">
        <ele>1595.7</ele>
        <time>2020-02-09T14:38:30Z</time>
      </trkpt>
      <trkpt lat="45.25166" lon="6.18217">
        <ele>1595.5</ele>
        <time>2020-02-09T14:38:31Z</time>
      </trkpt>
      <trkpt lat="45.2517" lon="6.1822">
        <ele>1595.2</ele>
        <time>2020-02-09T14:38:32Z</time>
      </trkpt>
      <trkpt lat="45.25174" lon="6.18223">
        <ele>1595</ele>
        <time>2020-02-09T14:38:33Z</time>
      </trkpt>
      <trkpt lat="45.25178" lon="6.18226">
        <ele>1594.8</ele>
        <time>2020-02-09T14:38:34Z</time>
      </trkpt>
      <trkpt lat="45.25182" lon="6.18228">
        <ele>1594.6</ele>
        <time>2020-02-09T14:38:35Z</time>
      </trkpt>
      <trkpt lat="45.25184" lon="6.18233">
        <ele>1594.3</ele>
        <time>2020-02-09T14:38:36Z</time>
      </trkpt>
      <trkpt lat="45.25187" lon="6.18238">
        <ele>1594.1</ele>
        <time>2020-02-09T14:38:37Z</time>
      </trkpt>
      <trkpt lat="45.25189" lon="6.18245">
        <ele>1593.9</ele>
        <time>2020-02-09T14:38:38Z</time>
      </trkpt>
      <trkpt lat="45.25191" lon="6.18251">
        <ele>1593.7</ele>
        <time>2020-02-09T14:38:39Z</time>
      </trkpt>
      <trkpt lat="45.25193" lon="6.18258">
        <ele>1593.5</ele>
        <time>2020-02-09T14:38:40Z</time>
      </trkpt>
      <trkpt lat="45.25196" lon="6.18264">
        <ele>1593.3</ele>
        <time>2020-02-09T14:38:41Z</time>
      </trkpt>
      <trkpt lat="45.25199" lon="6.1827">
        <ele>1593.3</ele>
        <time>2020-02-09T14:38:42Z</time>
      </trkpt>
      <trkpt lat="45.252" lon="6.18276">
        <ele>1593.2</ele>
        <time>2020-02-09T14:38:43Z</time>
      </trkpt>
      <trkpt lat="45.25203" lon="6.18281">
        <ele>1593.3</ele>
        <time>2020-02-09T14:38:44Z</time>
      </trkpt>
      <trkpt lat="45.25205" lon="6.18287">
        <ele>1593.3</ele>
        <time>2020-02-09T14:38:45Z</time>
      </trkpt>
      <trkpt lat="45.25208" lon="6.18293">
        <ele>1593.5</ele>
        <time>2020-02-09T14:38:46Z</time>
      </trkpt>
      <trkpt lat="45.25211" lon="6.18298">
        <ele>1593.7</ele>
        <time>2020-02-09T14:38:47Z</time>
      </trkpt>
      <trkpt lat="45.25212" lon="6.18305">
        <ele>1593.9</ele>
        <time>2020-02-09T14:38:48Z</time>
      </trkpt>
      <trkpt lat="45.25215" lon="6.18309">
        <ele>1594.1</ele>
        <time>2020-02-09T14:38:49Z</time>
      </trkpt>
      <trkpt lat="45.25217" lon="6.18314">
        <ele>1594.3</ele>
        <time>2020-02-09T14:38:50Z</time>
      </trkpt>
      <trkpt lat="45.25219" lon="6.18319">
        <ele>1594.4</ele>
        <time>2020-02-09T14:38:51Z</time>
      </trkpt>
      <trkpt lat="45.2522" lon="6.18324">
        <ele>1594.5</ele>
        <time>2020-02-09T14:38:52Z</time>
      </trkpt>
      <trkpt lat="45.25221" lon="6.18328">
        <ele>1594.6</ele>
        <time>2020-02-09T14:38:53Z</time>
      </trkpt>
      <trkpt lat="45.25221" lon="6.18334">
        <ele>1594.6</ele>
        <time>2020-02-09T14:38:54Z</time>
      </trkpt>
      <trkpt lat="45.25223" lon="6.18338">
        <ele>1594.6</ele>
        <time>2020-02-09T14:38:55Z</time>
      </trkpt>
      <trkpt lat="45.25223" lon="6.18343">
        <ele>1594.6</ele>
        <time>2020-02-09T14:38:56Z</time>
      </trkpt>
      <trkpt lat="45.25224" lon="6.18348">
        <ele>1594.5</ele>
        <time>2020-02-09T14:38:57Z</time>
      </trkpt>
      <trkpt lat="45.25227" lon="6.18353">
        <ele>1594.4</ele>
        <time>2020-02-09T14:38:58Z</time>
      </trkpt>
      <trkpt lat="45.25228" lon="6.18359">
        <ele>1594.3</ele>
        <time>2020-02-09T14:38:59Z</time>
      </trkpt>
      <trkpt lat="45.2523" lon="6.18365">
        <ele>1594.1</ele>
        <time>2020-02-09T14:39:00Z</time>
      </trkpt>
      <trkpt lat="45.25231" lon="6.18371">
        <ele>1593.9</ele>
        <time>2020-02-09T14:39:01Z</time>
      </trkpt>
      <trkpt lat="45.25231" lon="6.18378">
        <ele>1593.7</ele>
        <time>2020-02-09T14:39:02Z</time>
      </trkpt>
      <trkpt lat="45.25232" lon="6.18384">
        <ele>1593.5</ele>
        <time>2020-02-09T14:39:03Z</time>
      </trkpt>
      <trkpt lat="45.25233" lon="6.18391">
        <ele>1593.2</ele>
        <time>2020-02-09T14:39:04Z</time>
      </trkpt>
      <trkpt lat="45.25233" lon="6.18397">
        <ele>1593</ele>
        <time>2020-02-09T14:39:05Z</time>
      </trkpt>
      <trkpt lat="45.25234" lon="6.18403">
        <ele>1592.8</ele>
        <time>2020-02-09T14:39:06Z</time>
      </trkpt>
      <trkpt lat="45.25235" lon="6.18408">
        <ele>1592.6</ele>
        <time>2020-02-09T14:39:07Z</time>
      </trkpt>
      <trkpt lat="45.25237" lon="6.18414">
        <ele>1592.4</ele>
        <time>2020-02-09T14:39:08Z</time>
      </trkpt>
      <trkpt lat="45.25238" lon="6.18419">
        <ele>1592.2</ele>
        <time>2020-02-09T14:39:09Z</time>
      </trkpt>
      <trkpt lat="45.25239" lon="6.18424">
        <ele>1592</ele>
        <time>2020-02-09T14:39:10Z</time>
      </trkpt>
      <trkpt lat="45.25239" lon="6.1843">
        <ele>1591.9</ele>
        <time>2020-02-09T14:39:11Z</time>
      </trkpt>
      <trkpt lat="45.25239" lon="6.18436">
        <ele>1591.7</ele>
        <time>2020-02-09T14:39:12Z</time>
      </trkpt>
      <trkpt lat="45.25241" lon="6.18442">
        <ele>1591.6</ele>
        <time>2020-02-09T14:39:13Z</time>
      </trkpt>
      <trkpt lat="45.25242" lon="6.18447">
        <ele>1591.5</ele>
        <time>2020-02-09T14:39:14Z</time>
      </trkpt>
      <trkpt lat="45.25244" lon="6.18452">
        <ele>1591.4</ele>
        <time>2020-02-09T14:39:15Z</time>
      </trkpt>
      <trkpt lat="45.25245" lon="6.18456">
        <ele>1591.3</ele>
        <time>2020-02-09T14:39:16Z</time>
      </trkpt>
      <trkpt lat="45.25246" lon="6.18461">
        <ele>1591.2</ele>
        <time>2020-02-09T14:39:17Z</time>
      </trkpt>
      <trkpt lat="45.25248" lon="6.18465">
        <ele>1591.2</ele>
        <time>2020-02-09T14:39:18Z</time>
      </trkpt>
      <trkpt lat="45.25248" lon="6.18469">
        <ele>1591.1</ele>
        <time>2020-02-09T14:39:19Z</time>
      </trkpt>
      <trkpt lat="45.25249" lon="6.18474">
        <ele>1591.1</ele>
        <time>2020-02-09T14:39:20Z</time>
      </trkpt>
      <trkpt lat="45.2525" lon="6.18478">
        <ele>1591</ele>
        <time>2020-02-09T14:39:21Z</time>
      </trkpt>
      <trkpt lat="45.25251" lon="6.18482">
        <ele>1591</ele>
        <time>2020-02-09T14:39:22Z</time>
      </trkpt>
      <trkpt lat="45.25251" lon="6.18487">
        <ele>1590.9</ele>
        <time>2020-02-09T14:39:23Z</time>
      </trkpt>
      <trkpt lat="45.25252" lon="6.18491">
        <ele>1590.9</ele>
        <time>2020-02-09T14:39:24Z</time>
      </trkpt>
      <trkpt lat="45.25252" lon="6.18498">
        <ele>1590.8</ele>
        <time>2020-02-09T14:39:26Z</time>
      </trkpt>
      <trkpt lat="45.25252" lon="6.18505">
        <ele>1591.3</ele>
        <time>2020-02-09T14:39:28Z</time>
      </trkpt>
      <trkpt lat="45.2525" lon="6.18511">
        <ele>1591.8</ele>
        <time>2020-02-09T14:39:30Z</time>
      </trkpt>
      <trkpt lat="45.25249" lon="6.18516">
        <ele>1593</ele>
        <time>2020-02-09T14:39:32Z</time>
      </trkpt>
      <trkpt lat="45.2525" lon="6.18522">
        <ele>1592.3</ele>
        <time>2020-02-09T14:39:34Z</time>
      </trkpt>
      <trkpt lat="45.2525" lon="6.18527">
        <ele>1591.7</ele>
        <time>2020-02-09T14:39:36Z</time>
      </trkpt>
      <trkpt lat="45.25251" lon="6.18531">
        <ele>1591.2</ele>
        <time>2020-02-09T14:39:38Z</time>
      </trkpt>
      <trkpt lat="45.25254" lon="6.18534">
        <ele>1590.6</ele>
        <time>2020-02-09T14:39:40Z</time>
      </trkpt>
      <trkpt lat="45.25257" lon="6.18535">
        <ele>1590</ele>
        <time>2020-02-09T14:39:42Z</time>
      </trkpt>
      <trkpt lat="45.25262" lon="6.18537">
        <ele>1589.3</ele>
        <time>2020-02-09T14:39:44Z</time>
      </trkpt>
      <trkpt lat="45.25266" lon="6.18541">
        <ele>1588.5</ele>
        <time>2020-02-09T14:39:46Z</time>
      </trkpt>
      <trkpt lat="45.25269" lon="6.18543">
        <ele>1588</ele>
        <time>2020-02-09T14:39:47Z</time>
      </trkpt>
      <trkpt lat="45.25271" lon="6.18545">
        <ele>1587.5</ele>
        <time>2020-02-09T14:39:48Z</time>
      </trkpt>
      <trkpt lat="45.25274" lon="6.18548">
        <ele>1587</ele>
        <time>2020-02-09T14:39:49Z</time>
      </trkpt>
      <trkpt lat="45.25277" lon="6.18551">
        <ele>1586.4</ele>
        <time>2020-02-09T14:39:50Z</time>
      </trkpt>
      <trkpt lat="45.25279" lon="6.18554">
        <ele>1585.9</ele>
        <time>2020-02-09T14:39:51Z</time>
      </trkpt>
      <trkpt lat="45.25282" lon="6.18557">
        <ele>1585.3</ele>
        <time>2020-02-09T14:39:52Z</time>
      </trkpt>
      <trkpt lat="45.25285" lon="6.18561">
        <ele>1584.7</ele>
        <time>2020-02-09T14:39:53Z</time>
      </trkpt>
      <trkpt lat="45.25287" lon="6.18565">
        <ele>1584.1</ele>
        <time>2020-02-09T14:39:54Z</time>
      </trkpt>
      <trkpt lat="45.25289" lon="6.18569">
        <ele>1583.6</ele>
        <time>2020-02-09T14:39:55Z</time>
      </trkpt>
      <trkpt lat="45.25292" lon="6.18572">
        <ele>1583</ele>
        <time>2020-02-09T14:39:56Z</time>
      </trkpt>
      <trkpt lat="45.25295" lon="6.18576">
        <ele>1582.4</ele>
        <time>2020-02-09T14:39:57Z</time>
      </trkpt>
      <trkpt lat="45.25297" lon="6.18579">
        <ele>1581.8</ele>
        <time>2020-02-09T14:39:58Z</time>
      </trkpt>
      <trkpt lat="45.253" lon="6.18581">
        <ele>1581.3</ele>
        <time>2020-02-09T14:39:59Z</time>
      </trkpt>
      <trkpt lat="45.25303" lon="6.18584">
        <ele>1580.8</ele>
        <time>2020-02-09T14:40:00Z</time>
      </trkpt>
      <trkpt lat="45.25306" lon="6.18585">
        <ele>1580.2</ele>
        <time>2020-02-09T14:40:01Z</time>
      </trkpt>
      <trkpt lat="45.25309" lon="6.18589">
        <ele>1579.6</ele>
        <time>2020-02-09T14:40:02Z</time>
      </trkpt>
      <trkpt lat="45.25312" lon="6.18591">
        <ele>1579</ele>
        <time>2020-02-09T14:40:03Z</time>
      </trkpt>
      <trkpt lat="45.25315" lon="6.18593">
        <ele>1578.4</ele>
        <time>2020-02-09T14:40:04Z</time>
      </trkpt>
      <trkpt lat="45.25319" lon="6.18594">
        <ele>1577.8</ele>
        <time>2020-02-09T14:40:05Z</time>
      </trkpt>
      <trkpt lat="45.25322" lon="6.18596">
        <ele>1577.2</ele>
        <time>2020-02-09T14:40:06Z</time>
      </trkpt>
      <trkpt lat="45.25324" lon="6.18599">
        <ele>1576.6</ele>
        <time>2020-02-09T14:40:07Z</time>
      </trkpt>
      <trkpt lat="45.25327" lon="6.18602">
        <ele>1576.1</ele>
        <time>2020-02-09T14:40:08Z</time>
      </trkpt>
      <trkpt lat="45.2533" lon="6.18604">
        <ele>1575.5</ele>
        <time>2020-02-09T14:40:09Z</time>
      </trkpt>
      <trkpt lat="45.25333" lon="6.18606">
        <ele>1574.9</ele>
        <time>2020-02-09T14:40:10Z</time>
      </trkpt>
      <trkpt lat="45.25336" lon="6.18608">
        <ele>1574.4</ele>
        <time>2020-02-09T14:40:11Z</time>
      </trkpt>
      <trkpt lat="45.25339" lon="6.18609">
        <ele>1573.9</ele>
        <time>2020-02-09T14:40:12Z</time>
      </trkpt>
      <trkpt lat="45.25342" lon="6.18611">
        <ele>1573.4</ele>
        <time>2020-02-09T14:40:13Z</time>
      </trkpt>
      <trkpt lat="45.25344" lon="6.18613">
        <ele>1572.9</ele>
        <time>2020-02-09T14:40:14Z</time>
      </trkpt>
      <trkpt lat="45.25347" lon="6.18616">
        <ele>1572.4</ele>
        <time>2020-02-09T14:40:15Z</time>
      </trkpt>
      <trkpt lat="45.25349" lon="6.1862">
        <ele>1571.9</ele>
        <time>2020-02-09T14:40:16Z</time>
      </trkpt>
      <trkpt lat="45.25351" lon="6.18624">
        <ele>1571.3</ele>
        <time>2020-02-09T14:40:17Z</time>
      </trkpt>
      <trkpt lat="45.25353" lon="6.18627">
        <ele>1570.8</ele>
        <time>2020-02-09T14:40:18Z</time>
      </trkpt>
      <trkpt lat="45.25355" lon="6.18632">
        <ele>1570.2</ele>
        <time>2020-02-09T14:40:19Z</time>
      </trkpt>
      <trkpt lat="45.25357" lon="6.18636">
        <ele>1569.7</ele>
        <time>2020-02-09T14:40:20Z</time>
      </trkpt>
      <trkpt lat="45.25359" lon="6.1864">
        <ele>1569.1</ele>
        <time>2020-02-09T14:40:21Z</time>
      </trkpt>
      <trkpt lat="45.25359" lon="6.18645">
        <ele>1568.6</ele>
        <time>2020-02-09T14:40:22Z</time>
      </trkpt>
      <trkpt lat="45.2536" lon="6.1865">
        <ele>1568.1</ele>
        <time>2020-02-09T14:40:23Z</time>
      </trkpt>
      <trkpt lat="45.2536" lon="6.18655">
        <ele>1568.2</ele>
        <time>2020-02-09T14:40:24Z</time>
      </trkpt>
      <trkpt lat="45.25361" lon="6.1866">
        <ele>1568.4</ele>
        <time>2020-02-09T14:40:25Z</time>
      </trkpt>
      <trkpt lat="45.25361" lon="6.18664">
        <ele>1568.6</ele>
        <time>2020-02-09T14:40:26Z</time>
      </trkpt>
      <trkpt lat="45.25362" lon="6.18669">
        <ele>1568.8</ele>
        <time>2020-02-09T14:40:27Z</time>
      </trkpt>
      <trkpt lat="45.25364" lon="6.18672">
        <ele>1569</ele>
        <time>2020-02-09T14:40:28Z</time>
      </trkpt>
      <trkpt lat="45.25364" lon="6.18676">
        <ele>1569.2</ele>
        <time>2020-02-09T14:40:30Z</time>
      </trkpt>
      <trkpt lat="45.25362" lon="6.18677">
        <ele>1569.3</ele>
        <time>2020-02-09T14:40:35Z</time>
      </trkpt>
      <trkpt lat="45.25363" lon="6.18682">
        <ele>1569</ele>
        <time>2020-02-09T14:40:37Z</time>
      </trkpt>
      <trkpt lat="45.25365" lon="6.18685">
        <ele>1568.7</ele>
        <time>2020-02-09T14:40:38Z</time>
      </trkpt>
      <trkpt lat="45.25367" lon="6.18689">
        <ele>1568.5</ele>
        <time>2020-02-09T14:40:39Z</time>
      </trkpt>
      <trkpt lat="45.2537" lon="6.18691">
        <ele>1568.2</ele>
        <time>2020-02-09T14:40:40Z</time>
      </trkpt>
      <trkpt lat="45.25373" lon="6.18692">
        <ele>1568</ele>
        <time>2020-02-09T14:40:41Z</time>
      </trkpt>
      <trkpt lat="45.25375" lon="6.18694">
        <ele>1567.7</ele>
        <time>2020-02-09T14:40:42Z</time>
      </trkpt>
      <trkpt lat="45.25378" lon="6.18697">
        <ele>1567.4</ele>
        <time>2020-02-09T14:40:43Z</time>
      </trkpt>
      <trkpt lat="45.25381" lon="6.18698">
        <ele>1567.1</ele>
        <time>2020-02-09T14:40:44Z</time>
      </trkpt>
      <trkpt lat="45.25384" lon="6.187">
        <ele>1566.9</ele>
        <time>2020-02-09T14:40:45Z</time>
      </trkpt>
      <trkpt lat="45.25387" lon="6.18702">
        <ele>1566.6</ele>
        <time>2020-02-09T14:40:46Z</time>
      </trkpt>
      <trkpt lat="45.2539" lon="6.18704">
        <ele>1566.3</ele>
        <time>2020-02-09T14:40:47Z</time>
      </trkpt>
      <trkpt lat="45.25393" lon="6.18705">
        <ele>1566.1</ele>
        <time>2020-02-09T14:40:48Z</time>
      </trkpt>
      <trkpt lat="45.25396" lon="6.18711">
        <ele>1565.8</ele>
        <time>2020-02-09T14:40:50Z</time>
      </trkpt>
      <trkpt lat="45.25398" lon="6.18718">
        <ele>1565.6</ele>
        <time>2020-02-09T14:40:52Z</time>
      </trkpt>
      <trkpt lat="45.25399" lon="6.18722">
        <ele>1565.4</ele>
        <time>2020-02-09T14:40:53Z</time>
      </trkpt>
      <trkpt lat="45.254" lon="6.18726">
        <ele>1565.3</ele>
        <time>2020-02-09T14:40:54Z</time>
      </trkpt>
      <trkpt lat="45.25401" lon="6.18731">
        <ele>1565.2</ele>
        <time>2020-02-09T14:40:55Z</time>
      </trkpt>
      <trkpt lat="45.25403" lon="6.18735">
        <ele>1565</ele>
        <time>2020-02-09T14:40:56Z</time>
      </trkpt>
      <trkpt lat="45.25403" lon="6.18739">
        <ele>1564.9</ele>
        <time>2020-02-09T14:40:57Z</time>
      </trkpt>
      <trkpt lat="45.25403" lon="6.18744">
        <ele>1564.7</ele>
        <time>2020-02-09T14:40:58Z</time>
      </trkpt>
      <trkpt lat="45.25404" lon="6.18749">
        <ele>1564.6</ele>
        <time>2020-02-09T14:40:59Z</time>
      </trkpt>
      <trkpt lat="45.25405" lon="6.18754">
        <ele>1564.4</ele>
        <time>2020-02-09T14:41:00Z</time>
      </trkpt>
      <trkpt lat="45.25406" lon="6.18758">
        <ele>1564.2</ele>
        <time>2020-02-09T14:41:01Z</time>
      </trkpt>
      <trkpt lat="45.25407" lon="6.18763">
        <ele>1564.1</ele>
        <time>2020-02-09T14:41:02Z</time>
      </trkpt>
      <trkpt lat="45.25408" lon="6.18768">
        <ele>1563.9</ele>
        <time>2020-02-09T14:41:03Z</time>
      </trkpt>
      <trkpt lat="45.25409" lon="6.18773">
        <ele>1563.7</ele>
        <time>2020-02-09T14:41:04Z</time>
      </trkpt>
      <trkpt lat="45.25411" lon="6.18778">
        <ele>1563.6</ele>
        <time>2020-02-09T14:41:05Z</time>
      </trkpt>
      <trkpt lat="45.25412" lon="6.18784">
        <ele>1563.4</ele>
        <time>2020-02-09T14:41:06Z</time>
      </trkpt>
      <trkpt lat="45.25415" lon="6.18789">
        <ele>1563.2</ele>
        <time>2020-02-09T14:41:07Z</time>
      </trkpt>
      <trkpt lat="45.25418" lon="6.18793">
        <ele>1563</ele>
        <time>2020-02-09T14:41:08Z</time>
      </trkpt>
      <trkpt lat="45.25422" lon="6.18797">
        <ele>1562.8</ele>
        <time>2020-02-09T14:41:09Z</time>
      </trkpt>
      <trkpt lat="45.25425" lon="6.18802">
        <ele>1562.5</ele>
        <time>2020-02-09T14:41:10Z</time>
      </trkpt>
      <trkpt lat="45.25429" lon="6.18806">
        <ele>1562.3</ele>
        <time>2020-02-09T14:41:11Z</time>
      </trkpt>
      <trkpt lat="45.25432" lon="6.18811">
        <ele>1562.1</ele>
        <time>2020-02-09T14:41:12Z</time>
      </trkpt>
      <trkpt lat="45.25436" lon="6.18814">
        <ele>1561.8</ele>
        <time>2020-02-09T14:41:13Z</time>
      </trkpt>
      <trkpt lat="45.25439" lon="6.18818">
        <ele>1561.6</ele>
        <time>2020-02-09T14:41:14Z</time>
      </trkpt>
      <trkpt lat="45.25442" lon="6.18822">
        <ele>1561.3</ele>
        <time>2020-02-09T14:41:15Z</time>
      </trkpt>
      <trkpt lat="45.25446" lon="6.18826">
        <ele>1561.1</ele>
        <time>2020-02-09T14:41:16Z</time>
      </trkpt>
      <trkpt lat="45.2545" lon="6.1883">
        <ele>1560.8</ele>
        <time>2020-02-09T14:41:17Z</time>
      </trkpt>
      <trkpt lat="45.25454" lon="6.18834">
        <ele>1560.5</ele>
        <time>2020-02-09T14:41:18Z</time>
      </trkpt>
      <trkpt lat="45.25458" lon="6.18838">
        <ele>1560.2</ele>
        <time>2020-02-09T14:41:19Z</time>
      </trkpt>
      <trkpt lat="45.25461" lon="6.18843">
        <ele>1560</ele>
        <time>2020-02-09T14:41:20Z</time>
      </trkpt>
      <trkpt lat="45.25465" lon="6.18846">
        <ele>1559.7</ele>
        <time>2020-02-09T14:41:21Z</time>
      </trkpt>
      <trkpt lat="45.25469" lon="6.18849">
        <ele>1559.4</ele>
        <time>2020-02-09T14:41:22Z</time>
      </trkpt>
      <trkpt lat="45.25472" lon="6.18853">
        <ele>1559.2</ele>
        <time>2020-02-09T14:41:23Z</time>
      </trkpt>
      <trkpt lat="45.25476" lon="6.18857">
        <ele>1558.9</ele>
        <time>2020-02-09T14:41:24Z</time>
      </trkpt>
      <trkpt lat="45.25479" lon="6.18861">
        <ele>1558.7</ele>
        <time>2020-02-09T14:41:25Z</time>
      </trkpt>
      <trkpt lat="45.25482" lon="6.18865">
        <ele>1558.4</ele>
        <time>2020-02-09T14:41:26Z</time>
      </trkpt>
      <trkpt lat="45.25485" lon="6.18869">
        <ele>1558.2</ele>
        <time>2020-02-09T14:41:27Z</time>
      </trkpt>
      <trkpt lat="45.25487" lon="6.18874">
        <ele>1558</ele>
        <time>2020-02-09T14:41:28Z</time>
      </trkpt>
      <trkpt lat="45.2549" lon="6.18879">
        <ele>1557.7</ele>
        <time>2020-02-09T14:41:29Z</time>
      </trkpt>
      <trkpt lat="45.25493" lon="6.18884">
        <ele>1557.5</ele>
        <time>2020-02-09T14:41:30Z</time>
      </trkpt>
      <trkpt lat="45.25496" lon="6.18889">
        <ele>1557.3</ele>
        <time>2020-02-09T14:41:31Z</time>
      </trkpt>
      <trkpt lat="45.25499" lon="6.18895">
        <ele>1557.2</ele>
        <time>2020-02-09T14:41:32Z</time>
      </trkpt>
      <trkpt lat="45.25503" lon="6.18901">
        <ele>1557</ele>
        <time>2020-02-09T14:41:33Z</time>
      </trkpt>
      <trkpt lat="45.25506" lon="6.18906">
        <ele>1556.1</ele>
        <time>2020-02-09T14:41:34Z</time>
      </trkpt>
      <trkpt lat="45.2551" lon="6.18911">
        <ele>1555.6</ele>
        <time>2020-02-09T14:41:35Z</time>
      </trkpt>
      <trkpt lat="45.25513" lon="6.18917">
        <ele>1555</ele>
        <time>2020-02-09T14:41:36Z</time>
      </trkpt>
      <trkpt lat="45.25517" lon="6.18922">
        <ele>1554.6</ele>
        <time>2020-02-09T14:41:37Z</time>
      </trkpt>
      <trkpt lat="45.2552" lon="6.18927">
        <ele>1554.3</ele>
        <time>2020-02-09T14:41:38Z</time>
      </trkpt>
      <trkpt lat="45.25523" lon="6.18931">
        <ele>1553.9</ele>
        <time>2020-02-09T14:41:39Z</time>
      </trkpt>
      <trkpt lat="45.25526" lon="6.18936">
        <ele>1553.6</ele>
        <time>2020-02-09T14:41:40Z</time>
      </trkpt>
      <trkpt lat="45.2553" lon="6.18942">
        <ele>1553.2</ele>
        <time>2020-02-09T14:41:41Z</time>
      </trkpt>
      <trkpt lat="45.25533" lon="6.18947">
        <ele>1552.7</ele>
        <time>2020-02-09T14:41:42Z</time>
      </trkpt>
      <trkpt lat="45.25537" lon="6.18952">
        <ele>1552.2</ele>
        <time>2020-02-09T14:41:43Z</time>
      </trkpt>
      <trkpt lat="45.25541" lon="6.18957">
        <ele>1551.6</ele>
        <time>2020-02-09T14:41:44Z</time>
      </trkpt>
      <trkpt lat="45.25546" lon="6.18961">
        <ele>1551.1</ele>
        <time>2020-02-09T14:41:45Z</time>
      </trkpt>
      <trkpt lat="45.25551" lon="6.18964">
        <ele>1550.6</ele>
        <time>2020-02-09T14:41:46Z</time>
      </trkpt>
      <trkpt lat="45.25556" lon="6.18968">
        <ele>1550.2</ele>
        <time>2020-02-09T14:41:47Z</time>
      </trkpt>
      <trkpt lat="45.2556" lon="6.18971">
        <ele>1549.9</ele>
        <time>2020-02-09T14:41:48Z</time>
      </trkpt>
      <trkpt lat="45.25565" lon="6.18976">
        <ele>1549.5</ele>
        <time>2020-02-09T14:41:49Z</time>
      </trkpt>
      <trkpt lat="45.25569" lon="6.18981">
        <ele>1549.1</ele>
        <time>2020-02-09T14:41:50Z</time>
      </trkpt>
      <trkpt lat="45.25574" lon="6.18986">
        <ele>1548.6</ele>
        <time>2020-02-09T14:41:51Z</time>
      </trkpt>
      <trkpt lat="45.25579" lon="6.1899">
        <ele>1548</ele>
        <time>2020-02-09T14:41:52Z</time>
      </trkpt>
      <trkpt lat="45.25585" lon="6.18994">
        <ele>1547.5</ele>
        <time>2020-02-09T14:41:53Z</time>
      </trkpt>
      <trkpt lat="45.25589" lon="6.19">
        <ele>1547</ele>
        <time>2020-02-09T14:41:54Z</time>
      </trkpt>
      <trkpt lat="45.25594" lon="6.19005">
        <ele>1546.4</ele>
        <time>2020-02-09T14:41:55Z</time>
      </trkpt>
      <trkpt lat="45.25599" lon="6.19008">
        <ele>1545.8</ele>
        <time>2020-02-09T14:41:56Z</time>
      </trkpt>
      <trkpt lat="45.25605" lon="6.19012">
        <ele>1545.4</ele>
        <time>2020-02-09T14:41:57Z</time>
      </trkpt>
      <trkpt lat="45.2561" lon="6.19016">
        <ele>1545</ele>
        <time>2020-02-09T14:41:58Z</time>
      </trkpt>
      <trkpt lat="45.25616" lon="6.19019">
        <ele>1544.5</ele>
        <time>2020-02-09T14:41:59Z</time>
      </trkpt>
      <trkpt lat="45.25621" lon="6.19023">
        <ele>1544.1</ele>
        <time>2020-02-09T14:42:00Z</time>
      </trkpt>
      <trkpt lat="45.25627" lon="6.19027">
        <ele>1543.6</ele>
        <time>2020-02-09T14:42:01Z</time>
      </trkpt>
      <trkpt lat="45.25633" lon="6.19028">
        <ele>1543.2</ele>
        <time>2020-02-09T14:42:02Z</time>
      </trkpt>
      <trkpt lat="45.25638" lon="6.19032">
        <ele>1542.8</ele>
        <time>2020-02-09T14:42:03Z</time>
      </trkpt>
      <trkpt lat="45.25644" lon="6.19036">
        <ele>1542.3</ele>
        <time>2020-02-09T14:42:04Z</time>
      </trkpt>
      <trkpt lat="45.2565" lon="6.19038">
        <ele>1541.9</ele>
        <time>2020-02-09T14:42:05Z</time>
      </trkpt>
      <trkpt lat="45.25655" lon="6.19041">
        <ele>1541.5</ele>
        <time>2020-02-09T14:42:06Z</time>
      </trkpt>
      <trkpt lat="45.25661" lon="6.19042">
        <ele>1541.1</ele>
        <time>2020-02-09T14:42:07Z</time>
      </trkpt>
      <trkpt lat="45.25666" lon="6.19045">
        <ele>1540.6</ele>
        <time>2020-02-09T14:42:08Z</time>
      </trkpt>
      <trkpt lat="45.25673" lon="6.19046">
        <ele>1540.1</ele>
        <time>2020-02-09T14:42:09Z</time>
      </trkpt>
      <trkpt lat="45.25679" lon="6.19049">
        <ele>1539.5</ele>
        <time>2020-02-09T14:42:10Z</time>
      </trkpt>
      <trkpt lat="45.25686" lon="6.19052">
        <ele>1538.8</ele>
        <time>2020-02-09T14:42:11Z</time>
      </trkpt>
      <trkpt lat="45.25693" lon="6.19052">
        <ele>1538.1</ele>
        <time>2020-02-09T14:42:12Z</time>
      </trkpt>
      <trkpt lat="45.25699" lon="6.19053">
        <ele>1537.5</ele>
        <time>2020-02-09T14:42:13Z</time>
      </trkpt>
      <trkpt lat="45.25705" lon="6.19053">
        <ele>1537</ele>
        <time>2020-02-09T14:42:14Z</time>
      </trkpt>
      <trkpt lat="45.25712" lon="6.19053">
        <ele>1536.6</ele>
        <time>2020-02-09T14:42:15Z</time>
      </trkpt>
      <trkpt lat="45.25719" lon="6.19055">
        <ele>1536.1</ele>
        <time>2020-02-09T14:42:16Z</time>
      </trkpt>
      <trkpt lat="45.25726" lon="6.19057">
        <ele>1535.5</ele>
        <time>2020-02-09T14:42:17Z</time>
      </trkpt>
      <trkpt lat="45.25733" lon="6.1906">
        <ele>1534.8</ele>
        <time>2020-02-09T14:42:18Z</time>
      </trkpt>
      <trkpt lat="45.25739" lon="6.19064">
        <ele>1534.1</ele>
        <time>2020-02-09T14:42:19Z</time>
      </trkpt>
      <trkpt lat="45.25746" lon="6.19068">
        <ele>1533.4</ele>
        <time>2020-02-09T14:42:20Z</time>
      </trkpt>
      <trkpt lat="45.25752" lon="6.19072">
        <ele>1532.8</ele>
        <time>2020-02-09T14:42:21Z</time>
      </trkpt>
      <trkpt lat="45.25759" lon="6.19073">
        <ele>1532.2</ele>
        <time>2020-02-09T14:42:22Z</time>
      </trkpt>
      <trkpt lat="45.25766" lon="6.19076">
        <ele>1531.7</ele>
        <time>2020-02-09T14:42:23Z</time>
      </trkpt>
      <trkpt lat="45.25771" lon="6.1908">
        <ele>1531.2</ele>
        <time>2020-02-09T14:42:24Z</time>
      </trkpt>
      <trkpt lat="45.25777" lon="6.19084">
        <ele>1530.6</ele>
        <time>2020-02-09T14:42:25Z</time>
      </trkpt>
      <trkpt lat="45.25782" lon="6.19089">
        <ele>1529.9</ele>
        <time>2020-02-09T14:42:26Z</time>
      </trkpt>
      <trkpt lat="45.25787" lon="6.19094">
        <ele>1529.2</ele>
        <time>2020-02-09T14:42:27Z</time>
      </trkpt>
      <trkpt lat="45.25793" lon="6.19099">
        <ele>1528.6</ele>
        <time>2020-02-09T14:42:28Z</time>
      </trkpt>
      <trkpt lat="45.25798" lon="6.19105">
        <ele>1528</ele>
        <time>2020-02-09T14:42:29Z</time>
      </trkpt>
      <trkpt lat="45.25803" lon="6.19111">
        <ele>1527.5</ele>
        <time>2020-02-09T14:42:30Z</time>
      </trkpt>
      <trkpt lat="45.25808" lon="6.19117">
        <ele>1526.7</ele>
        <time>2020-02-09T14:42:31Z</time>
      </trkpt>
      <trkpt lat="45.25813" lon="6.19123">
        <ele>1526</ele>
        <time>2020-02-09T14:42:32Z</time>
      </trkpt>
      <trkpt lat="45.25817" lon="6.1913">
        <ele>1525.3</ele>
        <time>2020-02-09T14:42:33Z</time>
      </trkpt>
      <trkpt lat="45.25822" lon="6.19137">
        <ele>1524.6</ele>
        <time>2020-02-09T14:42:34Z</time>
      </trkpt>
      <trkpt lat="45.25827" lon="6.19142">
        <ele>1523.9</ele>
        <time>2020-02-09T14:42:35Z</time>
      </trkpt>
      <trkpt lat="45.25831" lon="6.19148">
        <ele>1523.3</ele>
        <time>2020-02-09T14:42:36Z</time>
      </trkpt>
      <trkpt lat="45.25835" lon="6.19155">
        <ele>1522.8</ele>
        <time>2020-02-09T14:42:37Z</time>
      </trkpt>
      <trkpt lat="45.2584" lon="6.1916">
        <ele>1522.2</ele>
        <time>2020-02-09T14:42:38Z</time>
      </trkpt>
      <trkpt lat="45.25846" lon="6.19165">
        <ele>1521.6</ele>
        <time>2020-02-09T14:42:39Z</time>
      </trkpt>
      <trkpt lat="45.25851" lon="6.19169">
        <ele>1521</ele>
        <time>2020-02-09T14:42:40Z</time>
      </trkpt>
      <trkpt lat="45.25856" lon="6.19173">
        <ele>1520.5</ele>
        <time>2020-02-09T14:42:41Z</time>
      </trkpt>
      <trkpt lat="45.25862" lon="6.19175">
        <ele>1520.1</ele>
        <time>2020-02-09T14:42:42Z</time>
      </trkpt>
      <trkpt lat="45.25866" lon="6.19178">
        <ele>1519.7</ele>
        <time>2020-02-09T14:42:43Z</time>
      </trkpt>
      <trkpt lat="45.2587" lon="6.19182">
        <ele>1519.3</ele>
        <time>2020-02-09T14:42:44Z</time>
      </trkpt>
      <trkpt lat="45.25875" lon="6.19186">
        <ele>1518.8</ele>
        <time>2020-02-09T14:42:45Z</time>
      </trkpt>
      <trkpt lat="45.2588" lon="6.1919">
        <ele>1518.2</ele>
        <time>2020-02-09T14:42:46Z</time>
      </trkpt>
      <trkpt lat="45.25885" lon="6.19194">
        <ele>1517.5</ele>
        <time>2020-02-09T14:42:47Z</time>
      </trkpt>
      <trkpt lat="45.25887" lon="6.19201">
        <ele>1516.8</ele>
        <time>2020-02-09T14:42:48Z</time>
      </trkpt>
      <trkpt lat="45.2589" lon="6.19208">
        <ele>1516.1</ele>
        <time>2020-02-09T14:42:49Z</time>
      </trkpt>
      <trkpt lat="45.25893" lon="6.19215">
        <ele>1515.5</ele>
        <time>2020-02-09T14:42:50Z</time>
      </trkpt>
      <trkpt lat="45.25896" lon="6.19222">
        <ele>1514.7</ele>
        <time>2020-02-09T14:42:51Z</time>
      </trkpt>
      <trkpt lat="45.259" lon="6.19229">
        <ele>1514.1</ele>
        <time>2020-02-09T14:42:52Z</time>
      </trkpt>
      <trkpt lat="45.25903" lon="6.19236">
        <ele>1513.5</ele>
        <time>2020-02-09T14:42:53Z</time>
      </trkpt>
      <trkpt lat="45.25907" lon="6.19243">
        <ele>1513</ele>
        <time>2020-02-09T14:42:54Z</time>
      </trkpt>
      <trkpt lat="45.2591" lon="6.1925">
        <ele>1512.5</ele>
        <time>2020-02-09T14:42:55Z</time>
      </trkpt>
      <trkpt lat="45.25913" lon="6.19258">
        <ele>1512.1</ele>
        <time>2020-02-09T14:42:56Z</time>
      </trkpt>
      <trkpt lat="45.25913" lon="6.19265">
        <ele>1511.8</ele>
        <time>2020-02-09T14:42:57Z</time>
      </trkpt>
      <trkpt lat="45.25914" lon="6.19271">
        <ele>1511.6</ele>
        <time>2020-02-09T14:42:58Z</time>
      </trkpt>
      <trkpt lat="45.25913" lon="6.19277">
        <ele>1511.4</ele>
        <time>2020-02-09T14:42:59Z</time>
      </trkpt>
      <trkpt lat="45.25913" lon="6.19283">
        <ele>1511.1</ele>
        <time>2020-02-09T14:43:00Z</time>
      </trkpt>
      <trkpt lat="45.25913" lon="6.19288">
        <ele>1511</ele>
        <time>2020-02-09T14:43:01Z</time>
      </trkpt>
      <trkpt lat="45.25913" lon="6.19294">
        <ele>1510.9</ele>
        <time>2020-02-09T14:43:02Z</time>
      </trkpt>
      <trkpt lat="45.25914" lon="6.193">
        <ele>1510.7</ele>
        <time>2020-02-09T14:43:03Z</time>
      </trkpt>
      <trkpt lat="45.25913" lon="6.19305">
        <ele>1510.3</ele>
        <time>2020-02-09T14:43:04Z</time>
      </trkpt>
      <trkpt lat="45.25914" lon="6.1931">
        <ele>1510.2</ele>
        <time>2020-02-09T14:43:05Z</time>
      </trkpt>
      <trkpt lat="45.25915" lon="6.19314">
        <ele>1510.2</ele>
        <time>2020-02-09T14:43:06Z</time>
      </trkpt>
      <trkpt lat="45.25917" lon="6.19319">
        <ele>1510.1</ele>
        <time>2020-02-09T14:43:07Z</time>
      </trkpt>
      <trkpt lat="45.25918" lon="6.19326">
        <ele>1509.9</ele>
        <time>2020-02-09T14:43:08Z</time>
      </trkpt>
      <trkpt lat="45.2592" lon="6.19332">
        <ele>1509.8</ele>
        <time>2020-02-09T14:43:09Z</time>
      </trkpt>
      <trkpt lat="45.25922" lon="6.19339">
        <ele>1509.7</ele>
        <time>2020-02-09T14:43:10Z</time>
      </trkpt>
      <trkpt lat="45.25923" lon="6.19345">
        <ele>1509.5</ele>
        <time>2020-02-09T14:43:11Z</time>
      </trkpt>
      <trkpt lat="45.25925" lon="6.1935">
        <ele>1509.4</ele>
        <time>2020-02-09T14:43:12Z</time>
      </trkpt>
      <trkpt lat="45.25927" lon="6.19355">
        <ele>1509.3</ele>
        <time>2020-02-09T14:43:13Z</time>
      </trkpt>
      <trkpt lat="45.25927" lon="6.1936">
        <ele>1509.2</ele>
        <time>2020-02-09T14:43:14Z</time>
      </trkpt>
      <trkpt lat="45.25929" lon="6.19366">
        <ele>1509</ele>
        <time>2020-02-09T14:43:15Z</time>
      </trkpt>
      <trkpt lat="45.25932" lon="6.19371">
        <ele>1508.9</ele>
        <time>2020-02-09T14:43:16Z</time>
      </trkpt>
      <trkpt lat="45.25934" lon="6.19377">
        <ele>1508.7</ele>
        <time>2020-02-09T14:43:17Z</time>
      </trkpt>
      <trkpt lat="45.25936" lon="6.19382">
        <ele>1508.6</ele>
        <time>2020-02-09T14:43:18Z</time>
      </trkpt>
      <trkpt lat="45.25939" lon="6.19388">
        <ele>1508.4</ele>
        <time>2020-02-09T14:43:19Z</time>
      </trkpt>
      <trkpt lat="45.25941" lon="6.19396">
        <ele>1508.2</ele>
        <time>2020-02-09T14:43:20Z</time>
      </trkpt>
      <trkpt lat="45.25944" lon="6.19404">
        <ele>1508</ele>
        <time>2020-02-09T14:43:21Z</time>
      </trkpt>
      <trkpt lat="45.25945" lon="6.19413">
        <ele>1507.7</ele>
        <time>2020-02-09T14:43:22Z</time>
      </trkpt>
      <trkpt lat="45.25947" lon="6.19422">
        <ele>1507.4</ele>
        <time>2020-02-09T14:43:23Z</time>
      </trkpt>
      <trkpt lat="45.2595" lon="6.19431">
        <ele>1507</ele>
        <time>2020-02-09T14:43:24Z</time>
      </trkpt>
      <trkpt lat="45.25952" lon="6.19441">
        <ele>1506.5</ele>
        <time>2020-02-09T14:43:25Z</time>
      </trkpt>
      <trkpt lat="45.25953" lon="6.19451">
        <ele>1506</ele>
        <time>2020-02-09T14:43:26Z</time>
      </trkpt>
      <trkpt lat="45.25955" lon="6.19461">
        <ele>1505.5</ele>
        <time>2020-02-09T14:43:27Z</time>
      </trkpt>
      <trkpt lat="45.25956" lon="6.19471">
        <ele>1504.8</ele>
        <time>2020-02-09T14:43:28Z</time>
      </trkpt>
      <trkpt lat="45.25959" lon="6.19481">
        <ele>1504</ele>
        <time>2020-02-09T14:43:29Z</time>
      </trkpt>
      <trkpt lat="45.25961" lon="6.19491">
        <ele>1503.2</ele>
        <time>2020-02-09T14:43:30Z</time>
      </trkpt>
      <trkpt lat="45.25962" lon="6.19501">
        <ele>1502.4</ele>
        <time>2020-02-09T14:43:31Z</time>
      </trkpt>
      <trkpt lat="45.25964" lon="6.19512">
        <ele>1502.2</ele>
        <time>2020-02-09T14:43:32Z</time>
      </trkpt>
      <trkpt lat="45.25966" lon="6.19522">
        <ele>1501.8</ele>
        <time>2020-02-09T14:43:33Z</time>
      </trkpt>
      <trkpt lat="45.2597" lon="6.19532">
        <ele>1501.3</ele>
        <time>2020-02-09T14:43:34Z</time>
      </trkpt>
      <trkpt lat="45.25975" lon="6.19538">
        <ele>1500.9</ele>
        <time>2020-02-09T14:43:35Z</time>
      </trkpt>
      <trkpt lat="45.2598" lon="6.19542">
        <ele>1500</ele>
        <time>2020-02-09T14:43:36Z</time>
      </trkpt>
      <trkpt lat="45.25981" lon="6.19538">
        <ele>1500.2</ele>
        <time>2020-02-09T14:43:48Z</time>
      </trkpt>
      <trkpt lat="45.25984" lon="6.1954">
        <ele>1499.7</ele>
        <time>2020-02-09T14:43:57Z</time>
      </trkpt>
      <trkpt lat="45.25986" lon="6.19543">
        <ele>1499.4</ele>
        <time>2020-02-09T14:43:58Z</time>
      </trkpt>
      <trkpt lat="45.25989" lon="6.19548">
        <ele>1498.7</ele>
        <time>2020-02-09T14:43:59Z</time>
      </trkpt>
      <trkpt lat="45.25991" lon="6.19552">
        <ele>1498.2</ele>
        <time>2020-02-09T14:44:00Z</time>
      </trkpt>
      <trkpt lat="45.25994" lon="6.19556">
        <ele>1497.7</ele>
        <time>2020-02-09T14:44:01Z</time>
      </trkpt>
      <trkpt lat="45.25998" lon="6.19561">
        <ele>1497</ele>
        <time>2020-02-09T14:44:02Z</time>
      </trkpt>
      <trkpt lat="45.26002" lon="6.19567">
        <ele>1496.4</ele>
        <time>2020-02-09T14:44:03Z</time>
      </trkpt>
      <trkpt lat="45.26006" lon="6.19573">
        <ele>1495</ele>
        <time>2020-02-09T14:44:04Z</time>
      </trkpt>
      <trkpt lat="45.26011" lon="6.19577">
        <ele>1494.5</ele>
        <time>2020-02-09T14:44:05Z</time>
      </trkpt>
      <trkpt lat="45.26015" lon="6.19584">
        <ele>1494</ele>
        <time>2020-02-09T14:44:06Z</time>
      </trkpt>
      <trkpt lat="45.2602" lon="6.19587">
        <ele>1492.9</ele>
        <time>2020-02-09T14:44:07Z</time>
      </trkpt>
      <trkpt lat="45.26027" lon="6.19592">
        <ele>1491.1</ele>
        <time>2020-02-09T14:44:08Z</time>
      </trkpt>
      <trkpt lat="45.26034" lon="6.19597">
        <ele>1490.1</ele>
        <time>2020-02-09T14:44:09Z</time>
      </trkpt>
      <trkpt lat="45.26041" lon="6.19603">
        <ele>1489.2</ele>
        <time>2020-02-09T14:44:10Z</time>
      </trkpt>
      <trkpt lat="45.26048" lon="6.19609">
        <ele>1487.8</ele>
        <time>2020-02-09T14:44:11Z</time>
      </trkpt>
      <trkpt lat="45.26056" lon="6.19614">
        <ele>1486.5</ele>
        <time>2020-02-09T14:44:12Z</time>
      </trkpt>
      <trkpt lat="45.26065" lon="6.1962">
        <ele>1484.6</ele>
        <time>2020-02-09T14:44:13Z</time>
      </trkpt>
      <trkpt lat="45.26073" lon="6.19628">
        <ele>1482.8</ele>
        <time>2020-02-09T14:44:14Z</time>
      </trkpt>
      <trkpt lat="45.26081" lon="6.19636">
        <ele>1482</ele>
        <time>2020-02-09T14:44:15Z</time>
      </trkpt>
      <trkpt lat="45.26089" lon="6.19645">
        <ele>1480.9</ele>
        <time>2020-02-09T14:44:16Z</time>
      </trkpt>
      <trkpt lat="45.26098" lon="6.19654">
        <ele>1480.2</ele>
        <time>2020-02-09T14:44:17Z</time>
      </trkpt>
      <trkpt lat="45.26106" lon="6.19662">
        <ele>1479.3</ele>
        <time>2020-02-09T14:44:18Z</time>
      </trkpt>
      <trkpt lat="45.26115" lon="6.1967">
        <ele>1478.2</ele>
        <time>2020-02-09T14:44:19Z</time>
      </trkpt>
      <trkpt lat="45.26125" lon="6.19676">
        <ele>1477.3</ele>
        <time>2020-02-09T14:44:20Z</time>
      </trkpt>
      <trkpt lat="45.26135" lon="6.19681">
        <ele>1476.8</ele>
        <time>2020-02-09T14:44:21Z</time>
      </trkpt>
      <trkpt lat="45.26144" lon="6.19686">
        <ele>1476</ele>
        <time>2020-02-09T14:44:22Z</time>
      </trkpt>
      <trkpt lat="45.26153" lon="6.19693">
        <ele>1475.4</ele>
        <time>2020-02-09T14:44:23Z</time>
      </trkpt>
      <trkpt lat="45.26162" lon="6.19699">
        <ele>1475</ele>
        <time>2020-02-09T14:44:24Z</time>
      </trkpt>
      <trkpt lat="45.26171" lon="6.19705">
        <ele>1474.3</ele>
        <time>2020-02-09T14:44:25Z</time>
      </trkpt>
      <trkpt lat="45.2618" lon="6.1971">
        <ele>1473.5</ele>
        <time>2020-02-09T14:44:26Z</time>
      </trkpt>
      <trkpt lat="45.26188" lon="6.19712">
        <ele>1472.6</ele>
        <time>2020-02-09T14:44:27Z</time>
      </trkpt>
      <trkpt lat="45.26195" lon="6.19713">
        <ele>1471.7</ele>
        <time>2020-02-09T14:44:28Z</time>
      </trkpt>
      <trkpt lat="45.26202" lon="6.19714">
        <ele>1470.4</ele>
        <time>2020-02-09T14:44:29Z</time>
      </trkpt>
      <trkpt lat="45.26211" lon="6.19714">
        <ele>1469.7</ele>
        <time>2020-02-09T14:44:30Z</time>
      </trkpt>
      <trkpt lat="45.26219" lon="6.19714">
        <ele>1468.3</ele>
        <time>2020-02-09T14:44:31Z</time>
      </trkpt>
      <trkpt lat="45.26226" lon="6.19714">
        <ele>1466.9</ele>
        <time>2020-02-09T14:44:32Z</time>
      </trkpt>
      <trkpt lat="45.26234" lon="6.19713">
        <ele>1466.2</ele>
        <time>2020-02-09T14:44:33Z</time>
      </trkpt>
      <trkpt lat="45.26242" lon="6.19712">
        <ele>1465.1</ele>
        <time>2020-02-09T14:44:34Z</time>
      </trkpt>
      <trkpt lat="45.26248" lon="6.19709">
        <ele>1464.6</ele>
        <time>2020-02-09T14:44:35Z</time>
      </trkpt>
      <trkpt lat="45.26253" lon="6.19706">
        <ele>1464.4</ele>
        <time>2020-02-09T14:44:36Z</time>
      </trkpt>
      <trkpt lat="45.26256" lon="6.19703">
        <ele>1464</ele>
        <time>2020-02-09T14:44:37Z</time>
      </trkpt>
      <trkpt lat="45.26259" lon="6.19702">
        <ele>1463.7</ele>
        <time>2020-02-09T14:44:38Z</time>
      </trkpt>
      <trkpt lat="45.26263" lon="6.19702">
        <ele>1462.9</ele>
        <time>2020-02-09T14:44:40Z</time>
      </trkpt>
      <trkpt lat="45.26265" lon="6.19703">
        <ele>1463</ele>
        <time>2020-02-09T14:44:41Z</time>
      </trkpt>
      <trkpt lat="45.26268" lon="6.19705">
        <ele>1462.6</ele>
        <time>2020-02-09T14:44:42Z</time>
      </trkpt>
      <trkpt lat="45.26271" lon="6.19706">
        <ele>1462.3</ele>
        <time>2020-02-09T14:44:43Z</time>
      </trkpt>
      <trkpt lat="45.26276" lon="6.19709">
        <ele>1461.3</ele>
        <time>2020-02-09T14:44:45Z</time>
      </trkpt>
      <trkpt lat="45.2628" lon="6.19711">
        <ele>1460.8</ele>
        <time>2020-02-09T14:44:46Z</time>
      </trkpt>
      <trkpt lat="45.26284" lon="6.19714">
        <ele>1459.7</ele>
        <time>2020-02-09T14:44:47Z</time>
      </trkpt>
      <trkpt lat="45.26289" lon="6.19715">
        <ele>1459.3</ele>
        <time>2020-02-09T14:44:48Z</time>
      </trkpt>
      <trkpt lat="45.26293" lon="6.19718">
        <ele>1458.4</ele>
        <time>2020-02-09T14:44:49Z</time>
      </trkpt>
      <trkpt lat="45.26298" lon="6.1972">
        <ele>1458.2</ele>
        <time>2020-02-09T14:44:50Z</time>
      </trkpt>
      <trkpt lat="45.26303" lon="6.19723">
        <ele>1457.2</ele>
        <time>2020-02-09T14:44:51Z</time>
      </trkpt>
      <trkpt lat="45.26308" lon="6.19725">
        <ele>1456.4</ele>
        <time>2020-02-09T14:44:52Z</time>
      </trkpt>
      <trkpt lat="45.26313" lon="6.19728">
        <ele>1456.3</ele>
        <time>2020-02-09T14:44:53Z</time>
      </trkpt>
      <trkpt lat="45.26318" lon="6.19729">
        <ele>1455.4</ele>
        <time>2020-02-09T14:44:54Z</time>
      </trkpt>
      <trkpt lat="45.26324" lon="6.1973">
        <ele>1454.3</ele>
        <time>2020-02-09T14:44:55Z</time>
      </trkpt>
      <trkpt lat="45.2633" lon="6.1973">
        <ele>1453</ele>
        <time>2020-02-09T14:44:56Z</time>
      </trkpt>
      <trkpt lat="45.26337" lon="6.1973">
        <ele>1451.7</ele>
        <time>2020-02-09T14:44:57Z</time>
      </trkpt>
      <trkpt lat="45.26343" lon="6.19732">
        <ele>1450.8</ele>
        <time>2020-02-09T14:44:58Z</time>
      </trkpt>
      <trkpt lat="45.26349" lon="6.19735">
        <ele>1449.7</ele>
        <time>2020-02-09T14:44:59Z</time>
      </trkpt>
      <trkpt lat="45.26354" lon="6.19738">
        <ele>1449</ele>
        <time>2020-02-09T14:45:00Z</time>
      </trkpt>
      <trkpt lat="45.26359" lon="6.19739">
        <ele>1448</ele>
        <time>2020-02-09T14:45:01Z</time>
      </trkpt>
      <trkpt lat="45.26363" lon="6.19736">
        <ele>1447.1</ele>
        <time>2020-02-09T14:45:02Z</time>
      </trkpt>
      <trkpt lat="45.26366" lon="6.19729">
        <ele>1446.4</ele>
        <time>2020-02-09T14:45:03Z</time>
      </trkpt>
      <trkpt lat="45.2637" lon="6.19726">
        <ele>1445.7</ele>
        <time>2020-02-09T14:45:04Z</time>
      </trkpt>
      <trkpt lat="45.26375" lon="6.19724">
        <ele>1444.9</ele>
        <time>2020-02-09T14:45:05Z</time>
      </trkpt>
      <trkpt lat="45.2638" lon="6.19727">
        <ele>1444.5</ele>
        <time>2020-02-09T14:45:06Z</time>
      </trkpt>
      <trkpt lat="45.26384" lon="6.1973">
        <ele>1443.6</ele>
        <time>2020-02-09T14:45:07Z</time>
      </trkpt>
      <trkpt lat="45.26388" lon="6.19729">
        <ele>1443</ele>
        <time>2020-02-09T14:45:08Z</time>
      </trkpt>
      <trkpt lat="45.26393" lon="6.19729">
        <ele>1441.8</ele>
        <time>2020-02-09T14:45:09Z</time>
      </trkpt>
      <trkpt lat="45.26399" lon="6.19733">
        <ele>1440.7</ele>
        <time>2020-02-09T14:45:10Z</time>
      </trkpt>
      <trkpt lat="45.26405" lon="6.19738">
        <ele>1439.8</ele>
        <time>2020-02-09T14:45:11Z</time>
      </trkpt>
      <trkpt lat="45.26411" lon="6.19742">
        <ele>1438.8</ele>
        <time>2020-02-09T14:45:12Z</time>
      </trkpt>
      <trkpt lat="45.26416" lon="6.19747">
        <ele>1438.5</ele>
        <time>2020-02-09T14:45:13Z</time>
      </trkpt>
      <trkpt lat="45.26423" lon="6.19746">
        <ele>1437</ele>
        <time>2020-02-09T14:45:14Z</time>
      </trkpt>
      <trkpt lat="45.26427" lon="6.19743">
        <ele>1436.5</ele>
        <time>2020-02-09T14:45:15Z</time>
      </trkpt>
      <trkpt lat="45.26431" lon="6.19739">
        <ele>1436.1</ele>
        <time>2020-02-09T14:45:16Z</time>
      </trkpt>
      <trkpt lat="45.26436" lon="6.1974">
        <ele>1435.2</ele>
        <time>2020-02-09T14:45:17Z</time>
      </trkpt>
      <trkpt lat="45.2644" lon="6.19739">
        <ele>1434.7</ele>
        <time>2020-02-09T14:45:18Z</time>
      </trkpt>
      <trkpt lat="45.26445" lon="6.19739">
        <ele>1433.6</ele>
        <time>2020-02-09T14:45:19Z</time>
      </trkpt>
      <trkpt lat="45.2645" lon="6.19736">
        <ele>1432.3</ele>
        <time>2020-02-09T14:45:20Z</time>
      </trkpt>
      <trkpt lat="45.26454" lon="6.19731">
        <ele>1431.8</ele>
        <time>2020-02-09T14:45:21Z</time>
      </trkpt>
      <trkpt lat="45.26459" lon="6.19729">
        <ele>1430.6</ele>
        <time>2020-02-09T14:45:22Z</time>
      </trkpt>
      <trkpt lat="45.26464" lon="6.19729">
        <ele>1430.2</ele>
        <time>2020-02-09T14:45:23Z</time>
      </trkpt>
      <trkpt lat="45.26469" lon="6.19727">
        <ele>1429</ele>
        <time>2020-02-09T14:45:24Z</time>
      </trkpt>
      <trkpt lat="45.26474" lon="6.19727">
        <ele>1427.8</ele>
        <time>2020-02-09T14:45:25Z</time>
      </trkpt>
      <trkpt lat="45.26479" lon="6.19729">
        <ele>1427.1</ele>
        <time>2020-02-09T14:45:26Z</time>
      </trkpt>
      <trkpt lat="45.26484" lon="6.19732">
        <ele>1426</ele>
        <time>2020-02-09T14:45:27Z</time>
      </trkpt>
      <trkpt lat="45.26489" lon="6.19735">
        <ele>1425.4</ele>
        <time>2020-02-09T14:45:28Z</time>
      </trkpt>
      <trkpt lat="45.26493" lon="6.19737">
        <ele>1424.2</ele>
        <time>2020-02-09T14:45:29Z</time>
      </trkpt>
      <trkpt lat="45.26498" lon="6.19739">
        <ele>1423.7</ele>
        <time>2020-02-09T14:45:30Z</time>
      </trkpt>
      <trkpt lat="45.26503" lon="6.19739">
        <ele>1422.6</ele>
        <time>2020-02-09T14:45:31Z</time>
      </trkpt>
      <trkpt lat="45.26508" lon="6.19741">
        <ele>1421.5</ele>
        <time>2020-02-09T14:45:32Z</time>
      </trkpt>
      <trkpt lat="45.26513" lon="6.19741">
        <ele>1421.1</ele>
        <time>2020-02-09T14:45:33Z</time>
      </trkpt>
      <trkpt lat="45.26519" lon="6.19739">
        <ele>1420.5</ele>
        <time>2020-02-09T14:45:34Z</time>
      </trkpt>
      <trkpt lat="45.26522" lon="6.19735">
        <ele>1420.1</ele>
        <time>2020-02-09T14:45:35Z</time>
      </trkpt>
      <trkpt lat="45.26524" lon="6.19731">
        <ele>1420.5</ele>
        <time>2020-02-09T14:45:36Z</time>
      </trkpt>
      <trkpt lat="45.26526" lon="6.19727">
        <ele>1420.6</ele>
        <time>2020-02-09T14:45:45Z</time>
      </trkpt>
      <trkpt lat="45.26527" lon="6.19723">
        <ele>1421.1</ele>
        <time>2020-02-09T14:45:53Z</time>
      </trkpt>
      <trkpt lat="45.26527" lon="6.19717">
        <ele>1421.5</ele>
        <time>2020-02-09T14:45:58Z</time>
      </trkpt>
      <trkpt lat="45.26528" lon="6.19709">
        <ele>1422.5</ele>
        <time>2020-02-09T14:46:00Z</time>
      </trkpt>
      <trkpt lat="45.26526" lon="6.19704">
        <ele>1423.2</ele>
        <time>2020-02-09T14:46:02Z</time>
      </trkpt>
      <trkpt lat="45.26526" lon="6.19696">
        <ele>1424.4</ele>
        <time>2020-02-09T14:46:10Z</time>
      </trkpt>
      <trkpt lat="45.26526" lon="6.19691">
        <ele>1424.1</ele>
        <time>2020-02-09T14:46:13Z</time>
      </trkpt>
      <trkpt lat="45.26525" lon="6.19687">
        <ele>1423.9</ele>
        <time>2020-02-09T14:46:14Z</time>
      </trkpt>
      <trkpt lat="45.26525" lon="6.19678">
        <ele>1423.4</ele>
        <time>2020-02-09T14:46:15Z</time>
      </trkpt>
      <trkpt lat="45.26526" lon="6.1967">
        <ele>1422.9</ele>
        <time>2020-02-09T14:46:16Z</time>
      </trkpt>
      <trkpt lat="45.26529" lon="6.19663">
        <ele>1422.4</ele>
        <time>2020-02-09T14:46:17Z</time>
      </trkpt>
      <trkpt lat="45.26531" lon="6.19656">
        <ele>1422</ele>
        <time>2020-02-09T14:46:18Z</time>
      </trkpt>
      <trkpt lat="45.26534" lon="6.1965">
        <ele>1421.6</ele>
        <time>2020-02-09T14:46:19Z</time>
      </trkpt>
      <trkpt lat="45.26537" lon="6.19647">
        <ele>1421.4</ele>
        <time>2020-02-09T14:46:20Z</time>
      </trkpt>
      <trkpt lat="45.26538" lon="6.19643">
        <ele>1423.1</ele>
        <time>2020-02-09T14:46:21Z</time>
      </trkpt>
      <trkpt lat="45.26541" lon="6.19639">
        <ele>1424.4</ele>
        <time>2020-02-09T14:46:22Z</time>
      </trkpt>
      <trkpt lat="45.26542" lon="6.19634">
        <ele>1425.6</ele>
        <time>2020-02-09T14:46:23Z</time>
      </trkpt>
      <trkpt lat="45.26544" lon="6.1963">
        <ele>1426.6</ele>
        <time>2020-02-09T14:46:24Z</time>
      </trkpt>
      <trkpt lat="45.26546" lon="6.19624">
        <ele>1428.2</ele>
        <time>2020-02-09T14:46:26Z</time>
      </trkpt>
      <trkpt lat="45.26548" lon="6.19618">
        <ele>1429.6</ele>
        <time>2020-02-09T14:46:28Z</time>
      </trkpt>
      <trkpt lat="45.26548" lon="6.19614">
        <ele>1432.1</ele>
        <time>2020-02-09T14:46:29Z</time>
      </trkpt>
      <trkpt lat="45.26551" lon="6.19608">
        <ele>1431.7</ele>
        <time>2020-02-09T14:46:31Z</time>
      </trkpt>
      <trkpt lat="45.26556" lon="6.19606">
        <ele>1431.4</ele>
        <time>2020-02-09T14:46:33Z</time>
      </trkpt>
      <trkpt lat="45.26559" lon="6.19607">
        <ele>1431.2</ele>
        <time>2020-02-09T14:46:34Z</time>
      </trkpt>
      <trkpt lat="45.26562" lon="6.1961">
        <ele>1430.9</ele>
        <time>2020-02-09T14:46:35Z</time>
      </trkpt>
      <trkpt lat="45.26565" lon="6.19614">
        <ele>1430.6</ele>
        <time>2020-02-09T14:46:36Z</time>
      </trkpt>
      <trkpt lat="45.26569" lon="6.19617">
        <ele>1430.2</ele>
        <time>2020-02-09T14:46:37Z</time>
      </trkpt>
      <trkpt lat="45.26573" lon="6.19619">
        <ele>1429.9</ele>
        <time>2020-02-09T14:46:38Z</time>
      </trkpt>
      <trkpt lat="45.26576" lon="6.19623">
        <ele>1429.6</ele>
        <time>2020-02-09T14:46:39Z</time>
      </trkpt>
      <trkpt lat="45.26581" lon="6.19626">
        <ele>1429.2</ele>
        <time>2020-02-09T14:46:40Z</time>
      </trkpt>
      <trkpt lat="45.26585" lon="6.19629">
        <ele>1428.8</ele>
        <time>2020-02-09T14:46:41Z</time>
      </trkpt>
      <trkpt lat="45.26589" lon="6.19631">
        <ele>1428.4</ele>
        <time>2020-02-09T14:46:42Z</time>
      </trkpt>
      <trkpt lat="45.26594" lon="6.19633">
        <ele>1428</ele>
        <time>2020-02-09T14:46:43Z</time>
      </trkpt>
      <trkpt lat="45.26597" lon="6.19635">
        <ele>1427.7</ele>
        <time>2020-02-09T14:46:44Z</time>
      </trkpt>
      <trkpt lat="45.26601" lon="6.19638">
        <ele>1427.3</ele>
        <time>2020-02-09T14:46:45Z</time>
      </trkpt>
      <trkpt lat="45.26606" lon="6.1964">
        <ele>1426.9</ele>
        <time>2020-02-09T14:46:46Z</time>
      </trkpt>
      <trkpt lat="45.26611" lon="6.19643">
        <ele>1426.3</ele>
        <time>2020-02-09T14:46:47Z</time>
      </trkpt>
      <trkpt lat="45.26615" lon="6.19646">
        <ele>1425.8</ele>
        <time>2020-02-09T14:46:48Z</time>
      </trkpt>
      <trkpt lat="45.2662" lon="6.19649">
        <ele>1425.2</ele>
        <time>2020-02-09T14:46:49Z</time>
      </trkpt>
      <trkpt lat="45.26626" lon="6.19653">
        <ele>1424.5</ele>
        <time>2020-02-09T14:46:50Z</time>
      </trkpt>
      <trkpt lat="45.26631" lon="6.19657">
        <ele>1423.8</ele>
        <time>2020-02-09T14:46:51Z</time>
      </trkpt>
      <trkpt lat="45.26638" lon="6.1966">
        <ele>1423</ele>
        <time>2020-02-09T14:46:52Z</time>
      </trkpt>
      <trkpt lat="45.26645" lon="6.19661">
        <ele>1422.1</ele>
        <time>2020-02-09T14:46:53Z</time>
      </trkpt>
      <trkpt lat="45.26652" lon="6.19663">
        <ele>1421.3</ele>
        <time>2020-02-09T14:46:54Z</time>
      </trkpt>
      <trkpt lat="45.26658" lon="6.19666">
        <ele>1420.5</ele>
        <time>2020-02-09T14:46:55Z</time>
      </trkpt>
      <trkpt lat="45.26664" lon="6.19669">
        <ele>1419.7</ele>
        <time>2020-02-09T14:46:56Z</time>
      </trkpt>
      <trkpt lat="45.2667" lon="6.19674">
        <ele>1418.9</ele>
        <time>2020-02-09T14:46:57Z</time>
      </trkpt>
      <trkpt lat="45.26675" lon="6.19683">
        <ele>1417.8</ele>
        <time>2020-02-09T14:46:58Z</time>
      </trkpt>
      <trkpt lat="45.26676" lon="6.19695">
        <ele>1416.8</ele>
        <time>2020-02-09T14:46:59Z</time>
      </trkpt>
      <trkpt lat="45.26677" lon="6.19706">
        <ele>1415.8</ele>
        <time>2020-02-09T14:47:00Z</time>
      </trkpt>
      <trkpt lat="45.26683" lon="6.19715">
        <ele>1414.8</ele>
        <time>2020-02-09T14:47:01Z</time>
      </trkpt>
      <trkpt lat="45.2669" lon="6.1972">
        <ele>1413.8</ele>
        <time>2020-02-09T14:47:02Z</time>
      </trkpt>
      <trkpt lat="45.26697" lon="6.19724">
        <ele>1412.8</ele>
        <time>2020-02-09T14:47:03Z</time>
      </trkpt>
      <trkpt lat="45.26704" lon="6.19729">
        <ele>1411.9</ele>
        <time>2020-02-09T14:47:04Z</time>
      </trkpt>
      <trkpt lat="45.2671" lon="6.19732">
        <ele>1411.1</ele>
        <time>2020-02-09T14:47:05Z</time>
      </trkpt>
      <trkpt lat="45.26717" lon="6.19732">
        <ele>1410.3</ele>
        <time>2020-02-09T14:47:06Z</time>
      </trkpt>
      <trkpt lat="45.26721" lon="6.19736">
        <ele>1409.7</ele>
        <time>2020-02-09T14:47:07Z</time>
      </trkpt>
      <trkpt lat="45.26726" lon="6.19739">
        <ele>1409</ele>
        <time>2020-02-09T14:47:08Z</time>
      </trkpt>
      <trkpt lat="45.26731" lon="6.19737">
        <ele>1408.3</ele>
        <time>2020-02-09T14:47:09Z</time>
      </trkpt>
      <trkpt lat="45.26738" lon="6.19739">
        <ele>1407.5</ele>
        <time>2020-02-09T14:47:10Z</time>
      </trkpt>
      <trkpt lat="45.26744" lon="6.1974">
        <ele>1406.7</ele>
        <time>2020-02-09T14:47:11Z</time>
      </trkpt>
      <trkpt lat="45.26751" lon="6.19742">
        <ele>1405.9</ele>
        <time>2020-02-09T14:47:12Z</time>
      </trkpt>
      <trkpt lat="45.26757" lon="6.19745">
        <ele>1405.1</ele>
        <time>2020-02-09T14:47:13Z</time>
      </trkpt>
      <trkpt lat="45.26763" lon="6.19747">
        <ele>1404.4</ele>
        <time>2020-02-09T14:47:14Z</time>
      </trkpt>
      <trkpt lat="45.2677" lon="6.19749">
        <ele>1403.5</ele>
        <time>2020-02-09T14:47:15Z</time>
      </trkpt>
      <trkpt lat="45.26776" lon="6.19755">
        <ele>1402.6</ele>
        <time>2020-02-09T14:47:16Z</time>
      </trkpt>
      <trkpt lat="45.2678" lon="6.19762">
        <ele>1401.9</ele>
        <time>2020-02-09T14:47:17Z</time>
      </trkpt>
      <trkpt lat="45.26782" lon="6.19771">
        <ele>1401.2</ele>
        <time>2020-02-09T14:47:18Z</time>
      </trkpt>
      <trkpt lat="45.26783" lon="6.1978">
        <ele>1400.4</ele>
        <time>2020-02-09T14:47:19Z</time>
      </trkpt>
      <trkpt lat="45.26784" lon="6.19789">
        <ele>1399.8</ele>
        <time>2020-02-09T14:47:20Z</time>
      </trkpt>
      <trkpt lat="45.26787" lon="6.198">
        <ele>1399</ele>
        <time>2020-02-09T14:47:21Z</time>
      </trkpt>
      <trkpt lat="45.26791" lon="6.19808">
        <ele>1398.3</ele>
        <time>2020-02-09T14:47:22Z</time>
      </trkpt>
      <trkpt lat="45.26797" lon="6.19813">
        <ele>1397.5</ele>
        <time>2020-02-09T14:47:23Z</time>
      </trkpt>
      <trkpt lat="45.26804" lon="6.19814">
        <ele>1396.8</ele>
        <time>2020-02-09T14:47:24Z</time>
      </trkpt>
      <trkpt lat="45.2681" lon="6.19816">
        <ele>1396.1</ele>
        <time>2020-02-09T14:47:25Z</time>
      </trkpt>
      <trkpt lat="45.26816" lon="6.19819">
        <ele>1395.4</ele>
        <time>2020-02-09T14:47:26Z</time>
      </trkpt>
      <trkpt lat="45.26823" lon="6.19819">
        <ele>1394.5</ele>
        <time>2020-02-09T14:47:27Z</time>
      </trkpt>
      <trkpt lat="45.26827" lon="6.19818">
        <ele>1394</ele>
        <time>2020-02-09T14:47:28Z</time>
      </trkpt>
      <trkpt lat="45.26832" lon="6.19817">
        <ele>1393.5</ele>
        <time>2020-02-09T14:47:29Z</time>
      </trkpt>
      <trkpt lat="45.26835" lon="6.19816">
        <ele>1393.1</ele>
        <time>2020-02-09T14:47:30Z</time>
      </trkpt>
      <trkpt lat="45.26839" lon="6.19816">
        <ele>1392.6</ele>
        <time>2020-02-09T14:47:31Z</time>
      </trkpt>
      <trkpt lat="45.26843" lon="6.19816">
        <ele>1392.1</ele>
        <time>2020-02-09T14:47:32Z</time>
      </trkpt>
      <trkpt lat="45.26848" lon="6.19814">
        <ele>1391.5</ele>
        <time>2020-02-09T14:47:33Z</time>
      </trkpt>
      <trkpt lat="45.26855" lon="6.19814">
        <ele>1390.7</ele>
        <time>2020-02-09T14:47:34Z</time>
      </trkpt>
      <trkpt lat="45.26862" lon="6.19813">
        <ele>1389.9</ele>
        <time>2020-02-09T14:47:35Z</time>
      </trkpt>
      <trkpt lat="45.2687" lon="6.19813">
        <ele>1389</ele>
        <time>2020-02-09T14:47:36Z</time>
      </trkpt>
      <trkpt lat="45.26881" lon="6.19813">
        <ele>1387.6</ele>
        <time>2020-02-09T14:47:37Z</time>
      </trkpt>
      <trkpt lat="45.2689" lon="6.19816">
        <ele>1386.6</ele>
        <time>2020-02-09T14:47:38Z</time>
      </trkpt>
      <trkpt lat="45.26898" lon="6.19829">
        <ele>1385.1</ele>
        <time>2020-02-09T14:47:39Z</time>
      </trkpt>
      <trkpt lat="45.26902" lon="6.19841">
        <ele>1384</ele>
        <time>2020-02-09T14:47:40Z</time>
      </trkpt>
      <trkpt lat="45.26904" lon="6.1985">
        <ele>1383.3</ele>
        <time>2020-02-09T14:47:41Z</time>
      </trkpt>
      <trkpt lat="45.26908" lon="6.19861">
        <ele>1382.4</ele>
        <time>2020-02-09T14:47:42Z</time>
      </trkpt>
      <trkpt lat="45.26914" lon="6.1987">
        <ele>1381.5</ele>
        <time>2020-02-09T14:47:43Z</time>
      </trkpt>
      <trkpt lat="45.2692" lon="6.19879">
        <ele>1380.7</ele>
        <time>2020-02-09T14:47:44Z</time>
      </trkpt>
      <trkpt lat="45.26926" lon="6.19888">
        <ele>1379.8</ele>
        <time>2020-02-09T14:47:45Z</time>
      </trkpt>
      <trkpt lat="45.26931" lon="6.19899">
        <ele>1378.8</ele>
        <time>2020-02-09T14:47:46Z</time>
      </trkpt>
      <trkpt lat="45.26933" lon="6.19911">
        <ele>1377.8</ele>
        <time>2020-02-09T14:47:47Z</time>
      </trkpt>
      <trkpt lat="45.26935" lon="6.1992">
        <ele>1377</ele>
        <time>2020-02-09T14:47:48Z</time>
      </trkpt>
      <trkpt lat="45.2694" lon="6.19929">
        <ele>1376.2</ele>
        <time>2020-02-09T14:47:49Z</time>
      </trkpt>
      <trkpt lat="45.26945" lon="6.19936">
        <ele>1375.3</ele>
        <time>2020-02-09T14:47:50Z</time>
      </trkpt>
      <trkpt lat="45.26951" lon="6.19944">
        <ele>1374.3</ele>
        <time>2020-02-09T14:47:51Z</time>
      </trkpt>
      <trkpt lat="45.26956" lon="6.19951">
        <ele>1373.5</ele>
        <time>2020-02-09T14:47:52Z</time>
      </trkpt>
      <trkpt lat="45.26957" lon="6.19956">
        <ele>1373.2</ele>
        <time>2020-02-09T14:47:53Z</time>
      </trkpt>
      <trkpt lat="45.2696" lon="6.19961">
        <ele>1372.6</ele>
        <time>2020-02-09T14:47:54Z</time>
      </trkpt>
      <trkpt lat="45.26962" lon="6.19965">
        <ele>1372.2</ele>
        <time>2020-02-09T14:47:55Z</time>
      </trkpt>
      <trkpt lat="45.26963" lon="6.19969">
        <ele>1371.9</ele>
        <time>2020-02-09T14:47:56Z</time>
      </trkpt>
      <trkpt lat="45.26962" lon="6.19974">
        <ele>1371.4</ele>
        <time>2020-02-09T14:47:57Z</time>
      </trkpt>
      <trkpt lat="45.26959" lon="6.19979">
        <ele>1371</ele>
        <time>2020-02-09T14:47:58Z</time>
      </trkpt>
      <trkpt lat="45.26956" lon="6.19986">
        <ele>1370.3</ele>
        <time>2020-02-09T14:48:00Z</time>
      </trkpt>
      <trkpt lat="45.26955" lon="6.19997">
        <ele>1369.6</ele>
        <time>2020-02-09T14:48:01Z</time>
      </trkpt>
      <trkpt lat="45.26958" lon="6.20005">
        <ele>1369</ele>
        <time>2020-02-09T14:48:02Z</time>
      </trkpt>
      <trkpt lat="45.26961" lon="6.20008">
        <ele>1368.7</ele>
        <time>2020-02-09T14:48:03Z</time>
      </trkpt>
      <trkpt lat="45.26966" lon="6.20008">
        <ele>1368.1</ele>
        <time>2020-02-09T14:48:04Z</time>
      </trkpt>
      <trkpt lat="45.26973" lon="6.20008">
        <ele>1367.4</ele>
        <time>2020-02-09T14:48:05Z</time>
      </trkpt>
      <trkpt lat="45.26978" lon="6.20007">
        <ele>1366.8</ele>
        <time>2020-02-09T14:48:06Z</time>
      </trkpt>
      <trkpt lat="45.26983" lon="6.20008">
        <ele>1366.2</ele>
        <time>2020-02-09T14:48:07Z</time>
      </trkpt>
      <trkpt lat="45.26989" lon="6.20008">
        <ele>1365.6</ele>
        <time>2020-02-09T14:48:08Z</time>
      </trkpt>
      <trkpt lat="45.26995" lon="6.2001">
        <ele>1364.9</ele>
        <time>2020-02-09T14:48:09Z</time>
      </trkpt>
      <trkpt lat="45.27002" lon="6.20012">
        <ele>1364.1</ele>
        <time>2020-02-09T14:48:10Z</time>
      </trkpt>
      <trkpt lat="45.27007" lon="6.20013">
        <ele>1363.4</ele>
        <time>2020-02-09T14:48:11Z</time>
      </trkpt>
      <trkpt lat="45.27013" lon="6.20014">
        <ele>1362.8</ele>
        <time>2020-02-09T14:48:12Z</time>
      </trkpt>
      <trkpt lat="45.27019" lon="6.20016">
        <ele>1362</ele>
        <time>2020-02-09T14:48:13Z</time>
      </trkpt>
      <trkpt lat="45.27025" lon="6.20018">
        <ele>1361.4</ele>
        <time>2020-02-09T14:48:14Z</time>
      </trkpt>
      <trkpt lat="45.27031" lon="6.20018">
        <ele>1360.7</ele>
        <time>2020-02-09T14:48:15Z</time>
      </trkpt>
      <trkpt lat="45.27036" lon="6.20019">
        <ele>1360.2</ele>
        <time>2020-02-09T14:48:16Z</time>
      </trkpt>
      <trkpt lat="45.27041" lon="6.20021">
        <ele>1359.6</ele>
        <time>2020-02-09T14:48:17Z</time>
      </trkpt>
      <trkpt lat="45.27047" lon="6.20023">
        <ele>1359.1</ele>
        <time>2020-02-09T14:48:18Z</time>
      </trkpt>
      <trkpt lat="45.27052" lon="6.20025">
        <ele>1358.5</ele>
        <time>2020-02-09T14:48:19Z</time>
      </trkpt>
      <trkpt lat="45.27059" lon="6.20029">
        <ele>1357.8</ele>
        <time>2020-02-09T14:48:20Z</time>
      </trkpt>
      <trkpt lat="45.27066" lon="6.20033">
        <ele>1357.2</ele>
        <time>2020-02-09T14:48:21Z</time>
      </trkpt>
      <trkpt lat="45.27071" lon="6.20039">
        <ele>1356.6</ele>
        <time>2020-02-09T14:48:22Z</time>
      </trkpt>
      <trkpt lat="45.27077" lon="6.20044">
        <ele>1355.8</ele>
        <time>2020-02-09T14:48:23Z</time>
      </trkpt>
      <trkpt lat="45.27082" lon="6.2005">
        <ele>1355.1</ele>
        <time>2020-02-09T14:48:24Z</time>
      </trkpt>
      <trkpt lat="45.27088" lon="6.20055">
        <ele>1354.3</ele>
        <time>2020-02-09T14:48:25Z</time>
      </trkpt>
      <trkpt lat="45.27093" lon="6.2006">
        <ele>1353.5</ele>
        <time>2020-02-09T14:48:26Z</time>
      </trkpt>
      <trkpt lat="45.27098" lon="6.20066">
        <ele>1352.8</ele>
        <time>2020-02-09T14:48:27Z</time>
      </trkpt>
      <trkpt lat="45.27104" lon="6.2007">
        <ele>1352</ele>
        <time>2020-02-09T14:48:28Z</time>
      </trkpt>
      <trkpt lat="45.2711" lon="6.20074">
        <ele>1351.3</ele>
        <time>2020-02-09T14:48:29Z</time>
      </trkpt>
      <trkpt lat="45.27116" lon="6.20079">
        <ele>1350.5</ele>
        <time>2020-02-09T14:48:30Z</time>
      </trkpt>
      <trkpt lat="45.27122" lon="6.20081">
        <ele>1349.8</ele>
        <time>2020-02-09T14:48:31Z</time>
      </trkpt>
      <trkpt lat="45.27129" lon="6.2008">
        <ele>1349.1</ele>
        <time>2020-02-09T14:48:32Z</time>
      </trkpt>
      <trkpt lat="45.27136" lon="6.20078">
        <ele>1348.4</ele>
        <time>2020-02-09T14:48:33Z</time>
      </trkpt>
      <trkpt lat="45.27142" lon="6.20072">
        <ele>1347.7</ele>
        <time>2020-02-09T14:48:34Z</time>
      </trkpt>
      <trkpt lat="45.27147" lon="6.20064">
        <ele>1347</ele>
        <time>2020-02-09T14:48:35Z</time>
      </trkpt>
      <trkpt lat="45.27151" lon="6.20056">
        <ele>1346.3</ele>
        <time>2020-02-09T14:48:36Z</time>
      </trkpt>
      <trkpt lat="45.27155" lon="6.20049">
        <ele>1345.6</ele>
        <time>2020-02-09T14:48:37Z</time>
      </trkpt>
      <trkpt lat="45.27159" lon="6.20043">
        <ele>1345</ele>
        <time>2020-02-09T14:48:38Z</time>
      </trkpt>
      <trkpt lat="45.27162" lon="6.20038">
        <ele>1344.5</ele>
        <time>2020-02-09T14:48:39Z</time>
      </trkpt>
      <trkpt lat="45.27167" lon="6.20035">
        <ele>1343.9</ele>
        <time>2020-02-09T14:48:40Z</time>
      </trkpt>
      <trkpt lat="45.27172" lon="6.20031">
        <ele>1343.3</ele>
        <time>2020-02-09T14:48:41Z</time>
      </trkpt>
      <trkpt lat="45.27176" lon="6.2003">
        <ele>1342.8</ele>
        <time>2020-02-09T14:48:42Z</time>
      </trkpt>
      <trkpt lat="45.2718" lon="6.20031">
        <ele>1342.3</ele>
        <time>2020-02-09T14:48:43Z</time>
      </trkpt>
      <trkpt lat="45.27185" lon="6.20034">
        <ele>1341.7</ele>
        <time>2020-02-09T14:48:44Z</time>
      </trkpt>
      <trkpt lat="45.27191" lon="6.20039">
        <ele>1340.9</ele>
        <time>2020-02-09T14:48:45Z</time>
      </trkpt>
      <trkpt lat="45.27197" lon="6.20043">
        <ele>1340.1</ele>
        <time>2020-02-09T14:48:46Z</time>
      </trkpt>
      <trkpt lat="45.27202" lon="6.20047">
        <ele>1339.4</ele>
        <time>2020-02-09T14:48:47Z</time>
      </trkpt>
      <trkpt lat="45.27206" lon="6.2005">
        <ele>1338.9</ele>
        <time>2020-02-09T14:48:48Z</time>
      </trkpt>
      <trkpt lat="45.27209" lon="6.20055">
        <ele>1338.4</ele>
        <time>2020-02-09T14:48:49Z</time>
      </trkpt>
      <trkpt lat="45.27215" lon="6.2006">
        <ele>1337.6</ele>
        <time>2020-02-09T14:48:50Z</time>
      </trkpt>
      <trkpt lat="45.27221" lon="6.20065">
        <ele>1336.8</ele>
        <time>2020-02-09T14:48:51Z</time>
      </trkpt>
      <trkpt lat="45.27227" lon="6.20071">
        <ele>1336</ele>
        <time>2020-02-09T14:48:52Z</time>
      </trkpt>
      <trkpt lat="45.27232" lon="6.20079">
        <ele>1335.3</ele>
        <time>2020-02-09T14:48:53Z</time>
      </trkpt>
      <trkpt lat="45.27237" lon="6.20085">
        <ele>1334.7</ele>
        <time>2020-02-09T14:48:54Z</time>
      </trkpt>
      <trkpt lat="45.27239" lon="6.20093">
        <ele>1334.1</ele>
        <time>2020-02-09T14:48:55Z</time>
      </trkpt>
      <trkpt lat="45.27243" lon="6.20101">
        <ele>1333.4</ele>
        <time>2020-02-09T14:48:56Z</time>
      </trkpt>
      <trkpt lat="45.27247" lon="6.2011">
        <ele>1332.8</ele>
        <time>2020-02-09T14:48:57Z</time>
      </trkpt>
      <trkpt lat="45.2725" lon="6.20119">
        <ele>1332</ele>
        <time>2020-02-09T14:48:58Z</time>
      </trkpt>
      <trkpt lat="45.27254" lon="6.20128">
        <ele>1331.2</ele>
        <time>2020-02-09T14:48:59Z</time>
      </trkpt>
      <trkpt lat="45.27257" lon="6.20139">
        <ele>1330.2</ele>
        <time>2020-02-09T14:49:00Z</time>
      </trkpt>
      <trkpt lat="45.27261" lon="6.20148">
        <ele>1329.4</ele>
        <time>2020-02-09T14:49:01Z</time>
      </trkpt>
      <trkpt lat="45.27265" lon="6.20155">
        <ele>1328.6</ele>
        <time>2020-02-09T14:49:02Z</time>
      </trkpt>
      <trkpt lat="45.2727" lon="6.20165">
        <ele>1327.7</ele>
        <time>2020-02-09T14:49:03Z</time>
      </trkpt>
      <trkpt lat="45.27275" lon="6.20173">
        <ele>1326.8</ele>
        <time>2020-02-09T14:49:04Z</time>
      </trkpt>
      <trkpt lat="45.27281" lon="6.2018">
        <ele>1325.8</ele>
        <time>2020-02-09T14:49:05Z</time>
      </trkpt>
      <trkpt lat="45.27288" lon="6.20184">
        <ele>1325</ele>
        <time>2020-02-09T14:49:06Z</time>
      </trkpt>
      <trkpt lat="45.27296" lon="6.20187">
        <ele>1324.1</ele>
        <time>2020-02-09T14:49:07Z</time>
      </trkpt>
      <trkpt lat="45.27304" lon="6.20191">
        <ele>1323.2</ele>
        <time>2020-02-09T14:49:08Z</time>
      </trkpt>
      <trkpt lat="45.27312" lon="6.20191">
        <ele>1322.5</ele>
        <time>2020-02-09T14:49:09Z</time>
      </trkpt>
      <trkpt lat="45.27319" lon="6.20188">
        <ele>1321.8</ele>
        <time>2020-02-09T14:49:10Z</time>
      </trkpt>
      <trkpt lat="45.27326" lon="6.20186">
        <ele>1321.1</ele>
        <time>2020-02-09T14:49:11Z</time>
      </trkpt>
      <trkpt lat="45.27332" lon="6.20183">
        <ele>1320.5</ele>
        <time>2020-02-09T14:49:12Z</time>
      </trkpt>
      <trkpt lat="45.27338" lon="6.20183">
        <ele>1320</ele>
        <time>2020-02-09T14:49:13Z</time>
      </trkpt>
      <trkpt lat="45.27345" lon="6.20189">
        <ele>1319.1</ele>
        <time>2020-02-09T14:49:14Z</time>
      </trkpt>
      <trkpt lat="45.27354" lon="6.20195">
        <ele>1317.9</ele>
        <time>2020-02-09T14:49:15Z</time>
      </trkpt>
      <trkpt lat="45.27361" lon="6.20204">
        <ele>1317</ele>
        <time>2020-02-09T14:49:16Z</time>
      </trkpt>
      <trkpt lat="45.27366" lon="6.20209">
        <ele>1316.3</ele>
        <time>2020-02-09T14:49:17Z</time>
      </trkpt>
      <trkpt lat="45.27372" lon="6.20216">
        <ele>1315.5</ele>
        <time>2020-02-09T14:49:18Z</time>
      </trkpt>
      <trkpt lat="45.27379" lon="6.20223">
        <ele>1314.6</ele>
        <time>2020-02-09T14:49:19Z</time>
      </trkpt>
      <trkpt lat="45.27385" lon="6.20231">
        <ele>1313.7</ele>
        <time>2020-02-09T14:49:20Z</time>
      </trkpt>
      <trkpt lat="45.27391" lon="6.20238">
        <ele>1312.9</ele>
        <time>2020-02-09T14:49:21Z</time>
      </trkpt>
      <trkpt lat="45.27397" lon="6.20247">
        <ele>1312</ele>
        <time>2020-02-09T14:49:22Z</time>
      </trkpt>
      <trkpt lat="45.27403" lon="6.20253">
        <ele>1311.2</ele>
        <time>2020-02-09T14:49:23Z</time>
      </trkpt>
      <trkpt lat="45.27408" lon="6.20261">
        <ele>1310.4</ele>
        <time>2020-02-09T14:49:24Z</time>
      </trkpt>
      <trkpt lat="45.27414" lon="6.20269">
        <ele>1309.3</ele>
        <time>2020-02-09T14:49:25Z</time>
      </trkpt>
      <trkpt lat="45.2742" lon="6.20275">
        <ele>1308.6</ele>
        <time>2020-02-09T14:49:26Z</time>
      </trkpt>
      <trkpt lat="45.27425" lon="6.20282">
        <ele>1307.9</ele>
        <time>2020-02-09T14:49:27Z</time>
      </trkpt>
      <trkpt lat="45.27431" lon="6.20288">
        <ele>1307.4</ele>
        <time>2020-02-09T14:49:28Z</time>
      </trkpt>
      <trkpt lat="45.27437" lon="6.20295">
        <ele>1306.7</ele>
        <time>2020-02-09T14:49:29Z</time>
      </trkpt>
      <trkpt lat="45.27441" lon="6.20304">
        <ele>1306.1</ele>
        <time>2020-02-09T14:49:30Z</time>
      </trkpt>
      <trkpt lat="45.27446" lon="6.20313">
        <ele>1305.3</ele>
        <time>2020-02-09T14:49:31Z</time>
      </trkpt>
      <trkpt lat="45.27452" lon="6.20321">
        <ele>1304.6</ele>
        <time>2020-02-09T14:49:32Z</time>
      </trkpt>
      <trkpt lat="45.27457" lon="6.20329">
        <ele>1304</ele>
        <time>2020-02-09T14:49:33Z</time>
      </trkpt>
      <trkpt lat="45.27462" lon="6.20337">
        <ele>1303.3</ele>
        <time>2020-02-09T14:49:34Z</time>
      </trkpt>
      <trkpt lat="45.27467" lon="6.20346">
        <ele>1302.6</ele>
        <time>2020-02-09T14:49:35Z</time>
      </trkpt>
      <trkpt lat="45.27472" lon="6.20355">
        <ele>1301.9</ele>
        <time>2020-02-09T14:49:36Z</time>
      </trkpt>
      <trkpt lat="45.27477" lon="6.20363">
        <ele>1301.3</ele>
        <time>2020-02-09T14:49:37Z</time>
      </trkpt>
      <trkpt lat="45.27482" lon="6.20372">
        <ele>1300.6</ele>
        <time>2020-02-09T14:49:38Z</time>
      </trkpt>
      <trkpt lat="45.27486" lon="6.20381">
        <ele>1300</ele>
        <time>2020-02-09T14:49:39Z</time>
      </trkpt>
      <trkpt lat="45.27491" lon="6.2039">
        <ele>1299.3</ele>
        <time>2020-02-09T14:49:40Z</time>
      </trkpt>
      <trkpt lat="45.27496" lon="6.20399">
        <ele>1298.7</ele>
        <time>2020-02-09T14:49:41Z</time>
      </trkpt>
      <trkpt lat="45.275" lon="6.20409">
        <ele>1298.1</ele>
        <time>2020-02-09T14:49:42Z</time>
      </trkpt>
      <trkpt lat="45.27506" lon="6.20417">
        <ele>1297.4</ele>
        <time>2020-02-09T14:49:43Z</time>
      </trkpt>
      <trkpt lat="45.27511" lon="6.20425">
        <ele>1296.8</ele>
        <time>2020-02-09T14:49:44Z</time>
      </trkpt>
      <trkpt lat="45.27517" lon="6.20435">
        <ele>1296</ele>
        <time>2020-02-09T14:49:45Z</time>
      </trkpt>
      <trkpt lat="45.27522" lon="6.20444">
        <ele>1295.3</ele>
        <time>2020-02-09T14:49:46Z</time>
      </trkpt>
      <trkpt lat="45.27527" lon="6.20453">
        <ele>1294.8</ele>
        <time>2020-02-09T14:49:47Z</time>
      </trkpt>
      <trkpt lat="45.27532" lon="6.20461">
        <ele>1294.1</ele>
        <time>2020-02-09T14:49:48Z</time>
      </trkpt>
      <trkpt lat="45.27537" lon="6.2047">
        <ele>1293.7</ele>
        <time>2020-02-09T14:49:49Z</time>
      </trkpt>
      <trkpt lat="45.27542" lon="6.20478">
        <ele>1293.3</ele>
        <time>2020-02-09T14:49:50Z</time>
      </trkpt>
      <trkpt lat="45.27546" lon="6.20485">
        <ele>1292.9</ele>
        <time>2020-02-09T14:49:51Z</time>
      </trkpt>
      <trkpt lat="45.27551" lon="6.20493">
        <ele>1292.3</ele>
        <time>2020-02-09T14:49:52Z</time>
      </trkpt>
      <trkpt lat="45.27557" lon="6.20502">
        <ele>1291.8</ele>
        <time>2020-02-09T14:49:53Z</time>
      </trkpt>
      <trkpt lat="45.27561" lon="6.20509">
        <ele>1291.2</ele>
        <time>2020-02-09T14:49:54Z</time>
      </trkpt>
      <trkpt lat="45.27565" lon="6.20518">
        <ele>1290.7</ele>
        <time>2020-02-09T14:49:55Z</time>
      </trkpt>
      <trkpt lat="45.27568" lon="6.20525">
        <ele>1290.2</ele>
        <time>2020-02-09T14:49:56Z</time>
      </trkpt>
      <trkpt lat="45.27571" lon="6.20534">
        <ele>1289.7</ele>
        <time>2020-02-09T14:49:57Z</time>
      </trkpt>
      <trkpt lat="45.27575" lon="6.20543">
        <ele>1289.1</ele>
        <time>2020-02-09T14:49:58Z</time>
      </trkpt>
      <trkpt lat="45.27579" lon="6.20553">
        <ele>1288.5</ele>
        <time>2020-02-09T14:49:59Z</time>
      </trkpt>
      <trkpt lat="45.27581" lon="6.20561">
        <ele>1287.9</ele>
        <time>2020-02-09T14:50:00Z</time>
      </trkpt>
      <trkpt lat="45.27583" lon="6.20571">
        <ele>1287.3</ele>
        <time>2020-02-09T14:50:01Z</time>
      </trkpt>
      <trkpt lat="45.27585" lon="6.20583">
        <ele>1286.6</ele>
        <time>2020-02-09T14:50:02Z</time>
      </trkpt>
      <trkpt lat="45.27589" lon="6.20594">
        <ele>1285.8</ele>
        <time>2020-02-09T14:50:03Z</time>
      </trkpt>
      <trkpt lat="45.27582" lon="6.20607">
        <ele>1284.9</ele>
        <time>2020-02-09T14:50:04Z</time>
      </trkpt>
      <trkpt lat="45.27583" lon="6.2062">
        <ele>1284.1</ele>
        <time>2020-02-09T14:50:05Z</time>
      </trkpt>
      <trkpt lat="45.27583" lon="6.20631">
        <ele>1283.5</ele>
        <time>2020-02-09T14:50:06Z</time>
      </trkpt>
      <trkpt lat="45.27583" lon="6.20644">
        <ele>1282.9</ele>
        <time>2020-02-09T14:50:07Z</time>
      </trkpt>
      <trkpt lat="45.27585" lon="6.20659">
        <ele>1282.2</ele>
        <time>2020-02-09T14:50:08Z</time>
      </trkpt>
      <trkpt lat="45.27587" lon="6.20672">
        <ele>1281.6</ele>
        <time>2020-02-09T14:50:09Z</time>
      </trkpt>
      <trkpt lat="45.27589" lon="6.20683">
        <ele>1281</ele>
        <time>2020-02-09T14:50:10Z</time>
      </trkpt>
      <trkpt lat="45.27592" lon="6.20694">
        <ele>1280.4</ele>
        <time>2020-02-09T14:50:11Z</time>
      </trkpt>
      <trkpt lat="45.27595" lon="6.20704">
        <ele>1279.9</ele>
        <time>2020-02-09T14:50:12Z</time>
      </trkpt>
      <trkpt lat="45.27598" lon="6.20714">
        <ele>1279.4</ele>
        <time>2020-02-09T14:50:13Z</time>
      </trkpt>
      <trkpt lat="45.27601" lon="6.20723">
        <ele>1279</ele>
        <time>2020-02-09T14:50:14Z</time>
      </trkpt>
      <trkpt lat="45.27606" lon="6.2073">
        <ele>1278.5</ele>
        <time>2020-02-09T14:50:15Z</time>
      </trkpt>
      <trkpt lat="45.27611" lon="6.20736">
        <ele>1278</ele>
        <time>2020-02-09T14:50:16Z</time>
      </trkpt>
      <trkpt lat="45.27617" lon="6.2074">
        <ele>1277.4</ele>
        <time>2020-02-09T14:50:17Z</time>
      </trkpt>
      <trkpt lat="45.27625" lon="6.20744">
        <ele>1276.8</ele>
        <time>2020-02-09T14:50:18Z</time>
      </trkpt>
      <trkpt lat="45.27632" lon="6.20749">
        <ele>1276.1</ele>
        <time>2020-02-09T14:50:19Z</time>
      </trkpt>
      <trkpt lat="45.27641" lon="6.20757">
        <ele>1275.3</ele>
        <time>2020-02-09T14:50:20Z</time>
      </trkpt>
      <trkpt lat="45.27646" lon="6.20763">
        <ele>1274.7</ele>
        <time>2020-02-09T14:50:21Z</time>
      </trkpt>
      <trkpt lat="45.27652" lon="6.20769">
        <ele>1274.1</ele>
        <time>2020-02-09T14:50:22Z</time>
      </trkpt>
      <trkpt lat="45.27657" lon="6.20776">
        <ele>1273.6</ele>
        <time>2020-02-09T14:50:23Z</time>
      </trkpt>
      <trkpt lat="45.27662" lon="6.20784">
        <ele>1273</ele>
        <time>2020-02-09T14:50:24Z</time>
      </trkpt>
      <trkpt lat="45.27667" lon="6.20792">
        <ele>1272.4</ele>
        <time>2020-02-09T14:50:25Z</time>
      </trkpt>
      <trkpt lat="45.27673" lon="6.20798">
        <ele>1271.9</ele>
        <time>2020-02-09T14:50:26Z</time>
      </trkpt>
      <trkpt lat="45.27677" lon="6.20805">
        <ele>1271.4</ele>
        <time>2020-02-09T14:50:27Z</time>
      </trkpt>
      <trkpt lat="45.27682" lon="6.20812">
        <ele>1270.9</ele>
        <time>2020-02-09T14:50:28Z</time>
      </trkpt>
      <trkpt lat="45.27688" lon="6.20817">
        <ele>1270.4</ele>
        <time>2020-02-09T14:50:29Z</time>
      </trkpt>
      <trkpt lat="45.27694" lon="6.20822">
        <ele>1269.9</ele>
        <time>2020-02-09T14:50:30Z</time>
      </trkpt>
      <trkpt lat="45.277" lon="6.20826">
        <ele>1269.4</ele>
        <time>2020-02-09T14:50:31Z</time>
      </trkpt>
      <trkpt lat="45.27706" lon="6.20831">
        <ele>1268.8</ele>
        <time>2020-02-09T14:50:32Z</time>
      </trkpt>
      <trkpt lat="45.27711" lon="6.20837">
        <ele>1268.3</ele>
        <time>2020-02-09T14:50:33Z</time>
      </trkpt>
      <trkpt lat="45.27717" lon="6.20842">
        <ele>1267.8</ele>
        <time>2020-02-09T14:50:34Z</time>
      </trkpt>
      <trkpt lat="45.27724" lon="6.20847">
        <ele>1267.2</ele>
        <time>2020-02-09T14:50:35Z</time>
      </trkpt>
      <trkpt lat="45.27729" lon="6.20853">
        <ele>1266.6</ele>
        <time>2020-02-09T14:50:36Z</time>
      </trkpt>
      <trkpt lat="45.27735" lon="6.20859">
        <ele>1266.1</ele>
        <time>2020-02-09T14:50:37Z</time>
      </trkpt>
      <trkpt lat="45.27741" lon="6.20865">
        <ele>1265.6</ele>
        <time>2020-02-09T14:50:38Z</time>
      </trkpt>
      <trkpt lat="45.27747" lon="6.20871">
        <ele>1264.9</ele>
        <time>2020-02-09T14:50:39Z</time>
      </trkpt>
      <trkpt lat="45.27753" lon="6.20878">
        <ele>1264.3</ele>
        <time>2020-02-09T14:50:40Z</time>
      </trkpt>
      <trkpt lat="45.27759" lon="6.20884">
        <ele>1263.7</ele>
        <time>2020-02-09T14:50:41Z</time>
      </trkpt>
      <trkpt lat="45.27765" lon="6.20891">
        <ele>1263.1</ele>
        <time>2020-02-09T14:50:42Z</time>
      </trkpt>
      <trkpt lat="45.27772" lon="6.20899">
        <ele>1262.3</ele>
        <time>2020-02-09T14:50:43Z</time>
      </trkpt>
      <trkpt lat="45.27779" lon="6.20906">
        <ele>1261.6</ele>
        <time>2020-02-09T14:50:44Z</time>
      </trkpt>
      <trkpt lat="45.27785" lon="6.20914">
        <ele>1260.8</ele>
        <time>2020-02-09T14:50:45Z</time>
      </trkpt>
      <trkpt lat="45.27791" lon="6.20921">
        <ele>1260.1</ele>
        <time>2020-02-09T14:50:46Z</time>
      </trkpt>
      <trkpt lat="45.27798" lon="6.20929">
        <ele>1259.4</ele>
        <time>2020-02-09T14:50:47Z</time>
      </trkpt>
      <trkpt lat="45.27804" lon="6.20935">
        <ele>1258.8</ele>
        <time>2020-02-09T14:50:48Z</time>
      </trkpt>
      <trkpt lat="45.2781" lon="6.20942">
        <ele>1258.2</ele>
        <time>2020-02-09T14:50:49Z</time>
      </trkpt>
      <trkpt lat="45.27816" lon="6.20949">
        <ele>1257.6</ele>
        <time>2020-02-09T14:50:50Z</time>
      </trkpt>
      <trkpt lat="45.27822" lon="6.20956">
        <ele>1257</ele>
        <time>2020-02-09T14:50:51Z</time>
      </trkpt>
      <trkpt lat="45.27828" lon="6.20963">
        <ele>1256.4</ele>
        <time>2020-02-09T14:50:52Z</time>
      </trkpt>
      <trkpt lat="45.27834" lon="6.2097">
        <ele>1255.8</ele>
        <time>2020-02-09T14:50:53Z</time>
      </trkpt>
      <trkpt lat="45.27841" lon="6.20974">
        <ele>1255.2</ele>
        <time>2020-02-09T14:50:54Z</time>
      </trkpt>
      <trkpt lat="45.27849" lon="6.20979">
        <ele>1254.6</ele>
        <time>2020-02-09T14:50:55Z</time>
      </trkpt>
      <trkpt lat="45.27856" lon="6.20984">
        <ele>1253.9</ele>
        <time>2020-02-09T14:50:56Z</time>
      </trkpt>
      <trkpt lat="45.27863" lon="6.20991">
        <ele>1253.1</ele>
        <time>2020-02-09T14:50:57Z</time>
      </trkpt>
      <trkpt lat="45.2787" lon="6.20996">
        <ele>1252.4</ele>
        <time>2020-02-09T14:50:58Z</time>
      </trkpt>
      <trkpt lat="45.27878" lon="6.21001">
        <ele>1251.7</ele>
        <time>2020-02-09T14:50:59Z</time>
      </trkpt>
      <trkpt lat="45.27885" lon="6.21006">
        <ele>1251</ele>
        <time>2020-02-09T14:51:00Z</time>
      </trkpt>
      <trkpt lat="45.27892" lon="6.2101">
        <ele>1250.4</ele>
        <time>2020-02-09T14:51:01Z</time>
      </trkpt>
      <trkpt lat="45.27899" lon="6.21013">
        <ele>1249.8</ele>
        <time>2020-02-09T14:51:02Z</time>
      </trkpt>
      <trkpt lat="45.27905" lon="6.21016">
        <ele>1249.2</ele>
        <time>2020-02-09T14:51:03Z</time>
      </trkpt>
      <trkpt lat="45.27911" lon="6.21019">
        <ele>1248.6</ele>
        <time>2020-02-09T14:51:04Z</time>
      </trkpt>
      <trkpt lat="45.27916" lon="6.21021">
        <ele>1248.1</ele>
        <time>2020-02-09T14:51:05Z</time>
      </trkpt>
      <trkpt lat="45.2792" lon="6.21022">
        <ele>1247.7</ele>
        <time>2020-02-09T14:51:06Z</time>
      </trkpt>
      <trkpt lat="45.27924" lon="6.21024">
        <ele>1247.3</ele>
        <time>2020-02-09T14:51:07Z</time>
      </trkpt>
      <trkpt lat="45.27928" lon="6.21027">
        <ele>1246.9</ele>
        <time>2020-02-09T14:51:08Z</time>
      </trkpt>
      <trkpt lat="45.27932" lon="6.21029">
        <ele>1246.5</ele>
        <time>2020-02-09T14:51:09Z</time>
      </trkpt>
      <trkpt lat="45.27935" lon="6.21031">
        <ele>1246.2</ele>
        <time>2020-02-09T14:51:10Z</time>
      </trkpt>
      <trkpt lat="45.27939" lon="6.21033">
        <ele>1245.8</ele>
        <time>2020-02-09T14:51:11Z</time>
      </trkpt>
      <trkpt lat="45.27942" lon="6.21034">
        <ele>1245.5</ele>
        <time>2020-02-09T14:51:13Z</time>
      </trkpt>
      <trkpt lat="45.27945" lon="6.21035">
        <ele>1245.2</ele>
        <time>2020-02-09T14:51:20Z</time>
      </trkpt>
      <trkpt lat="45.27946" lon="6.21031">
        <ele>1245</ele>
        <time>2020-02-09T14:51:23Z</time>
      </trkpt>
      <trkpt lat="45.27947" lon="6.21035">
        <ele>1244.8</ele>
        <time>2020-02-09T14:51:25Z</time>
      </trkpt>
      <trkpt lat="45.27947" lon="6.21038">
        <ele>1244.6</ele>
        <time>2020-02-09T14:51:33Z</time>
      </trkpt>
      <trkpt lat="45.2795" lon="6.21037">
        <ele>1244.3</ele>
        <time>2020-02-09T14:51:40Z</time>
      </trkpt>
      <trkpt lat="45.27952" lon="6.21033">
        <ele>1244.1</ele>
        <time>2020-02-09T14:51:45Z</time>
      </trkpt>
      <trkpt lat="45.27955" lon="6.21031">
        <ele>1243.9</ele>
        <time>2020-02-09T14:51:55Z</time>
      </trkpt>
      <trkpt lat="45.27955" lon="6.21027">
        <ele>1243.6</ele>
        <time>2020-02-09T14:52:04Z</time>
      </trkpt>
      <trkpt lat="45.27955" lon="6.21032">
        <ele>1243.3</ele>
        <time>2020-02-09T14:52:14Z</time>
      </trkpt>
      <trkpt lat="45.27953" lon="6.21036">
        <ele>1243</ele>
        <time>2020-02-09T14:52:18Z</time>
      </trkpt>
      <trkpt lat="45.27953" lon="6.21042">
        <ele>1242.7</ele>
        <time>2020-02-09T14:52:23Z</time>
      </trkpt>
      <trkpt lat="45.27954" lon="6.21038">
        <ele>1242.5</ele>
        <time>2020-02-09T14:52:27Z</time>
      </trkpt>
      <trkpt lat="45.27955" lon="6.21033">
        <ele>1242.3</ele>
        <time>2020-02-09T14:52:38Z</time>
      </trkpt>
      <trkpt lat="45.27958" lon="6.21033">
        <ele>1242</ele>
        <time>2020-02-09T14:53:09Z</time>
      </trkpt>
      <trkpt lat="45.27959" lon="6.21028">
        <ele>1241.8</ele>
        <time>2020-02-09T14:53:16Z</time>
      </trkpt>
      <trkpt lat="45.27958" lon="6.21032">
        <ele>1241.6</ele>
        <time>2020-02-09T14:53:20Z</time>
      </trkpt>
      <trkpt lat="45.27956" lon="6.21035">
        <ele>1241.4</ele>
        <time>2020-02-09T14:53:24Z</time>
      </trkpt>
      <trkpt lat="45.27957" lon="6.21031">
        <ele>1241.2</ele>
        <time>2020-02-09T14:53:28Z</time>
      </trkpt>
      <trkpt lat="45.27956" lon="6.21035">
        <ele>1240.9</ele>
        <time>2020-02-09T14:53:39Z</time>
      </trkpt>
      <trkpt lat="45.27957" lon="6.2103">
        <ele>1240.7</ele>
        <time>2020-02-09T14:54:09Z</time>
      </trkpt>
      <trkpt lat="45.27957" lon="6.21035">
        <ele>1240.5</ele>
        <time>2020-02-09T14:54:18Z</time>
      </trkpt>
      <trkpt lat="45.27956" lon="6.21032">
        <ele>1240.2</ele>
        <time>2020-02-09T14:54:24Z</time>
      </trkpt>
      <trkpt lat="45.27953" lon="6.21031">
        <ele>1240</ele>
        <time>2020-02-09T14:54:30Z</time>
      </trkpt>
      <trkpt lat="45.2795" lon="6.21033">
        <ele>1239.8</ele>
        <time>2020-02-09T14:54:35Z</time>
      </trkpt>
      <trkpt lat="45.27947" lon="6.21033">
        <ele>1239.5</ele>
        <time>2020-02-09T14:54:40Z</time>
      </trkpt>
      <trkpt lat="45.27944" lon="6.21033">
        <ele>1239.3</ele>
        <time>2020-02-09T14:54:43Z</time>
      </trkpt>
      <trkpt lat="45.27943" lon="6.21029">
        <ele>1239</ele>
        <time>2020-02-09T14:54:49Z</time>
      </trkpt>
      <trkpt lat="45.27944" lon="6.21033">
        <ele>1238.8</ele>
        <time>2020-02-09T14:54:59Z</time>
      </trkpt>
      <trkpt lat="45.27946" lon="6.21036">
        <ele>1238.5</ele>
        <time>2020-02-09T14:55:04Z</time>
      </trkpt>
      <trkpt lat="45.27948" lon="6.21037">
        <ele>1238.3</ele>
        <time>2020-02-09T14:55:13Z</time>
      </trkpt>
      <trkpt lat="45.27947" lon="6.21034">
        <ele>1238</ele>
        <time>2020-02-09T14:55:30Z</time>
      </trkpt>
      <trkpt lat="45.27944" lon="6.21031">
        <ele>1237.7</ele>
        <time>2020-02-09T14:55:40Z</time>
      </trkpt>
      <trkpt lat="45.27942" lon="6.21029">
        <ele>1237.5</ele>
        <time>2020-02-09T14:55:49Z</time>
      </trkpt>
      <trkpt lat="45.27942" lon="6.21033">
        <ele>1237.2</ele>
        <time>2020-02-09T14:56:17Z</time>
      </trkpt>
      <trkpt lat="45.27942" lon="6.21037">
        <ele>1237</ele>
        <time>2020-02-09T14:56:25Z</time>
      </trkpt>
      <trkpt lat="45.27944" lon="6.21039">
        <ele>1236.7</ele>
        <time>2020-02-09T14:56:28Z</time>
      </trkpt>
      <trkpt lat="45.27946" lon="6.21043">
        <ele>1236.5</ele>
        <time>2020-02-09T14:56:30Z</time>
      </trkpt>
      <trkpt lat="45.27949" lon="6.21047">
        <ele>1236.1</ele>
        <time>2020-02-09T14:56:33Z</time>
      </trkpt>
      <trkpt lat="45.27953" lon="6.21052">
        <ele>1235.8</ele>
        <time>2020-02-09T14:56:36Z</time>
      </trkpt>
      <trkpt lat="45.27954" lon="6.21046">
        <ele>1235.5</ele>
        <time>2020-02-09T14:56:39Z</time>
      </trkpt>
      <trkpt lat="45.27954" lon="6.21042">
        <ele>1235.3</ele>
        <time>2020-02-09T14:56:50Z</time>
      </trkpt>
      <trkpt lat="45.27954" lon="6.21038">
        <ele>1235.1</ele>
        <time>2020-02-09T14:57:04Z</time>
      </trkpt>
      <trkpt lat="45.27953" lon="6.21034">
        <ele>1234.9</ele>
        <time>2020-02-09T14:57:07Z</time>
      </trkpt>
      <trkpt lat="45.27952" lon="6.2103">
        <ele>1234.7</ele>
        <time>2020-02-09T14:57:11Z</time>
      </trkpt>
      <trkpt lat="45.27953" lon="6.21038">
        <ele>1234.3</ele>
        <time>2020-02-09T14:57:25Z</time>
      </trkpt>
      <trkpt lat="45.27955" lon="6.21042">
        <ele>1234.1</ele>
        <time>2020-02-09T14:57:29Z</time>
      </trkpt>
      <trkpt lat="45.27958" lon="6.21044">
        <ele>1233.9</ele>
        <time>2020-02-09T14:57:32Z</time>
      </trkpt>
      <trkpt lat="45.27961" lon="6.21047">
        <ele>1233.7</ele>
        <time>2020-02-09T14:57:34Z</time>
      </trkpt>
      <trkpt lat="45.27962" lon="6.21051">
        <ele>1233.6</ele>
        <time>2020-02-09T14:57:36Z</time>
      </trkpt>
      <trkpt lat="45.27964" lon="6.21054">
        <ele>1233.4</ele>
        <time>2020-02-09T14:57:39Z</time>
      </trkpt>
      <trkpt lat="45.27966" lon="6.21057">
        <ele>1233.3</ele>
        <time>2020-02-09T14:57:41Z</time>
      </trkpt>
      <trkpt lat="45.27968" lon="6.21061">
        <ele>1233</ele>
        <time>2020-02-09T14:57:43Z</time>
      </trkpt>
      <trkpt lat="45.27972" lon="6.21065">
        <ele>1232.8</ele>
        <time>2020-02-09T14:57:45Z</time>
      </trkpt>
      <trkpt lat="45.27975" lon="6.21067">
        <ele>1231.9</ele>
        <time>2020-02-09T14:57:47Z</time>
      </trkpt>
      <trkpt lat="45.27977" lon="6.21069">
        <ele>1231.6</ele>
        <time>2020-02-09T14:57:49Z</time>
      </trkpt>
      <trkpt lat="45.27978" lon="6.21073">
        <ele>1231.3</ele>
        <time>2020-02-09T14:57:51Z</time>
      </trkpt>
      <trkpt lat="45.2798" lon="6.21078">
        <ele>1230.9</ele>
        <time>2020-02-09T14:57:54Z</time>
      </trkpt>
      <trkpt lat="45.27983" lon="6.21081">
        <ele>1230.5</ele>
        <time>2020-02-09T14:57:56Z</time>
      </trkpt>
      <trkpt lat="45.27986" lon="6.21086">
        <ele>1230</ele>
        <time>2020-02-09T14:57:59Z</time>
      </trkpt>
      <trkpt lat="45.27989" lon="6.21088">
        <ele>1229.7</ele>
        <time>2020-02-09T14:58:02Z</time>
      </trkpt>
      <trkpt lat="45.27991" lon="6.21092">
        <ele>1229.3</ele>
        <time>2020-02-09T14:58:04Z</time>
      </trkpt>
      <trkpt lat="45.27994" lon="6.21095">
        <ele>1229</ele>
        <time>2020-02-09T14:58:07Z</time>
      </trkpt>
      <trkpt lat="45.27997" lon="6.21096">
        <ele>1228.6</ele>
        <time>2020-02-09T14:58:10Z</time>
      </trkpt>
      <trkpt lat="45.28" lon="6.21099">
        <ele>1228.2</ele>
        <time>2020-02-09T14:58:13Z</time>
      </trkpt>
      <trkpt lat="45.28001" lon="6.21104">
        <ele>1227.7</ele>
        <time>2020-02-09T14:58:17Z</time>
      </trkpt>
      <trkpt lat="45.28004" lon="6.21107">
        <ele>1227.4</ele>
        <time>2020-02-09T14:58:20Z</time>
      </trkpt>
      <trkpt lat="45.28006" lon="6.21111">
        <ele>1227</ele>
        <time>2020-02-09T14:58:23Z</time>
      </trkpt>
      <trkpt lat="45.28009" lon="6.21115">
        <ele>1226.5</ele>
        <time>2020-02-09T14:58:25Z</time>
      </trkpt>
      <trkpt lat="45.28012" lon="6.21117">
        <ele>1226.2</ele>
        <time>2020-02-09T14:58:28Z</time>
      </trkpt>
      <trkpt lat="45.28016" lon="6.21122">
        <ele>1225.6</ele>
        <time>2020-02-09T14:58:31Z</time>
      </trkpt>
      <trkpt lat="45.28018" lon="6.21127">
        <ele>1225.2</ele>
        <time>2020-02-09T14:58:34Z</time>
      </trkpt>
      <trkpt lat="45.28021" lon="6.21128">
        <ele>1224.9</ele>
        <time>2020-02-09T14:58:36Z</time>
      </trkpt>
      <trkpt lat="45.28024" lon="6.21131">
        <ele>1224.6</ele>
        <time>2020-02-09T14:58:39Z</time>
      </trkpt>
      <trkpt lat="45.28026" lon="6.21135">
        <ele>1224.3</ele>
        <time>2020-02-09T14:58:42Z</time>
      </trkpt>
      <trkpt lat="45.28028" lon="6.21137">
        <ele>1224</ele>
        <time>2020-02-09T14:58:45Z</time>
      </trkpt>
      <trkpt lat="45.28031" lon="6.21141">
        <ele>1223.7</ele>
        <time>2020-02-09T14:58:47Z</time>
      </trkpt>
      <trkpt lat="45.28034" lon="6.21145">
        <ele>1223.3</ele>
        <time>2020-02-09T14:58:50Z</time>
      </trkpt>
      <trkpt lat="45.28036" lon="6.21149">
        <ele>1223</ele>
        <time>2020-02-09T14:58:53Z</time>
      </trkpt>
      <trkpt lat="45.28037" lon="6.21154">
        <ele>1222.6</ele>
        <time>2020-02-09T14:58:55Z</time>
      </trkpt>
      <trkpt lat="45.2804" lon="6.21156">
        <ele>1222.2</ele>
        <time>2020-02-09T14:58:59Z</time>
      </trkpt>
      <trkpt lat="45.28042" lon="6.21158">
        <ele>1222</ele>
        <time>2020-02-09T14:59:01Z</time>
      </trkpt>
      <trkpt lat="45.28044" lon="6.21162">
        <ele>1221.7</ele>
        <time>2020-02-09T14:59:03Z</time>
      </trkpt>
      <trkpt lat="45.28047" lon="6.21162">
        <ele>1221.4</ele>
        <time>2020-02-09T14:59:05Z</time>
      </trkpt>
      <trkpt lat="45.2805" lon="6.21161">
        <ele>1221.1</ele>
        <time>2020-02-09T14:59:07Z</time>
      </trkpt>
      <trkpt lat="45.28053" lon="6.21158">
        <ele>1219.6</ele>
        <time>2020-02-09T14:59:09Z</time>
      </trkpt>
      <trkpt lat="45.28055" lon="6.21154">
        <ele>1219.2</ele>
        <time>2020-02-09T14:59:11Z</time>
      </trkpt>
      <trkpt lat="45.28052" lon="6.2115">
        <ele>1218.9</ele>
        <time>2020-02-09T14:59:14Z</time>
      </trkpt>
      <trkpt lat="45.28049" lon="6.21147">
        <ele>1218.6</ele>
        <time>2020-02-09T14:59:17Z</time>
      </trkpt>
      <trkpt lat="45.28049" lon="6.21143">
        <ele>1218.2</ele>
        <time>2020-02-09T14:59:20Z</time>
      </trkpt>
      <trkpt lat="45.28046" lon="6.21141">
        <ele>1217.9</ele>
        <time>2020-02-09T14:59:23Z</time>
      </trkpt>
      <trkpt lat="45.28043" lon="6.21137">
        <ele>1217.6</ele>
        <time>2020-02-09T14:59:26Z</time>
      </trkpt>
      <trkpt lat="45.2804" lon="6.21133">
        <ele>1217.1</ele>
        <time>2020-02-09T14:59:29Z</time>
      </trkpt>
      <trkpt lat="45.28038" lon="6.21129">
        <ele>1216.8</ele>
        <time>2020-02-09T14:59:32Z</time>
      </trkpt>
      <trkpt lat="45.28036" lon="6.21126">
        <ele>1216.5</ele>
        <time>2020-02-09T14:59:34Z</time>
      </trkpt>
      <trkpt lat="45.28033" lon="6.21124">
        <ele>1216.1</ele>
        <time>2020-02-09T14:59:38Z</time>
      </trkpt>
      <trkpt lat="45.2803" lon="6.21119">
        <ele>1215.6</ele>
        <time>2020-02-09T14:59:41Z</time>
      </trkpt>
      <trkpt lat="45.28026" lon="6.21116">
        <ele>1215.2</ele>
        <time>2020-02-09T14:59:44Z</time>
      </trkpt>
      <trkpt lat="45.28023" lon="6.21113">
        <ele>1214.8</ele>
        <time>2020-02-09T14:59:47Z</time>
      </trkpt>
      <trkpt lat="45.28021" lon="6.21107">
        <ele>1214.3</ele>
        <time>2020-02-09T14:59:49Z</time>
      </trkpt>
      <trkpt lat="45.28021" lon="6.21104">
        <ele>1214</ele>
        <time>2020-02-09T14:59:53Z</time>
      </trkpt>
      <trkpt lat="45.28025" lon="6.21105">
        <ele>1213.7</ele>
        <time>2020-02-09T14:59:56Z</time>
      </trkpt>
      <trkpt lat="45.28028" lon="6.21106">
        <ele>1213.3</ele>
        <time>2020-02-09T14:59:58Z</time>
      </trkpt>
      <trkpt lat="45.28032" lon="6.21106">
        <ele>1213</ele>
        <time>2020-02-09T15:00:00Z</time>
      </trkpt>
      <trkpt lat="45.28034" lon="6.21108">
        <ele>1212.7</ele>
        <time>2020-02-09T15:00:02Z</time>
      </trkpt>
      <trkpt lat="45.28038" lon="6.21109">
        <ele>1212.3</ele>
        <time>2020-02-09T15:00:04Z</time>
      </trkpt>
      <trkpt lat="45.28041" lon="6.2111">
        <ele>1212</ele>
        <time>2020-02-09T15:00:07Z</time>
      </trkpt>
      <trkpt lat="45.28044" lon="6.21111">
        <ele>1211.7</ele>
        <time>2020-02-09T15:00:09Z</time>
      </trkpt>
      <trkpt lat="45.28048" lon="6.21111">
        <ele>1211.4</ele>
        <time>2020-02-09T15:00:11Z</time>
      </trkpt>
      <trkpt lat="45.28051" lon="6.21111">
        <ele>1211.1</ele>
        <time>2020-02-09T15:00:13Z</time>
      </trkpt>
      <trkpt lat="45.28054" lon="6.2111">
        <ele>1210.9</ele>
        <time>2020-02-09T15:00:15Z</time>
      </trkpt>
      <trkpt lat="45.28056" lon="6.21113">
        <ele>1210.6</ele>
        <time>2020-02-09T15:00:16Z</time>
      </trkpt>
      <trkpt lat="45.2806" lon="6.21115">
        <ele>1210.3</ele>
        <time>2020-02-09T15:00:18Z</time>
      </trkpt>
      <trkpt lat="45.28062" lon="6.21117">
        <ele>1210.1</ele>
        <time>2020-02-09T15:00:20Z</time>
      </trkpt>
      <trkpt lat="45.28066" lon="6.2112">
        <ele>1209.8</ele>
        <time>2020-02-09T15:00:23Z</time>
      </trkpt>
      <trkpt lat="45.28068" lon="6.21122">
        <ele>1209.5</ele>
        <time>2020-02-09T15:00:25Z</time>
      </trkpt>
      <trkpt lat="45.28073" lon="6.21124">
        <ele>1209.2</ele>
        <time>2020-02-09T15:00:28Z</time>
      </trkpt>
      <trkpt lat="45.28075" lon="6.21127">
        <ele>1208.9</ele>
        <time>2020-02-09T15:00:31Z</time>
      </trkpt>
      <trkpt lat="45.28077" lon="6.2113">
        <ele>1208.7</ele>
        <time>2020-02-09T15:00:34Z</time>
      </trkpt>
      <trkpt lat="45.28081" lon="6.21132">
        <ele>1208.3</ele>
        <time>2020-02-09T15:00:37Z</time>
      </trkpt>
      <trkpt lat="45.28084" lon="6.21133">
        <ele>1208.1</ele>
        <time>2020-02-09T15:00:38Z</time>
      </trkpt>
      <trkpt lat="45.28087" lon="6.21137">
        <ele>1207.7</ele>
        <time>2020-02-09T15:00:40Z</time>
      </trkpt>
      <trkpt lat="45.2809" lon="6.21139">
        <ele>1207.3</ele>
        <time>2020-02-09T15:00:42Z</time>
      </trkpt>
      <trkpt lat="45.28093" lon="6.21143">
        <ele>1206.9</ele>
        <time>2020-02-09T15:00:45Z</time>
      </trkpt>
      <trkpt lat="45.28095" lon="6.21144">
        <ele>1206.5</ele>
        <time>2020-02-09T15:00:47Z</time>
      </trkpt>
      <trkpt lat="45.28097" lon="6.21147">
        <ele>1206.1</ele>
        <time>2020-02-09T15:00:49Z</time>
      </trkpt>
      <trkpt lat="45.28099" lon="6.21153">
        <ele>1205.6</ele>
        <time>2020-02-09T15:00:53Z</time>
      </trkpt>
      <trkpt lat="45.28101" lon="6.21159">
        <ele>1205.1</ele>
        <time>2020-02-09T15:00:56Z</time>
      </trkpt>
      <trkpt lat="45.28103" lon="6.21162">
        <ele>1204.7</ele>
        <time>2020-02-09T15:00:59Z</time>
      </trkpt>
      <trkpt lat="45.28105" lon="6.21166">
        <ele>1204.3</ele>
        <time>2020-02-09T15:01:02Z</time>
      </trkpt>
      <trkpt lat="45.28108" lon="6.21167">
        <ele>1203.8</ele>
        <time>2020-02-09T15:01:08Z</time>
      </trkpt>
      <trkpt lat="45.2811" lon="6.21168">
        <ele>1203.5</ele>
        <time>2020-02-09T15:01:12Z</time>
      </trkpt>
      <trkpt lat="45.28114" lon="6.2117">
        <ele>1203</ele>
        <time>2020-02-09T15:01:16Z</time>
      </trkpt>
      <trkpt lat="45.28117" lon="6.21173">
        <ele>1202.5</ele>
        <time>2020-02-09T15:01:18Z</time>
      </trkpt>
      <trkpt lat="45.28119" lon="6.21176">
        <ele>1202.2</ele>
        <time>2020-02-09T15:01:19Z</time>
      </trkpt>
      <trkpt lat="45.28122" lon="6.21178">
        <ele>1201.8</ele>
        <time>2020-02-09T15:01:20Z</time>
      </trkpt>
      <trkpt lat="45.28125" lon="6.21182">
        <ele>1201.3</ele>
        <time>2020-02-09T15:01:22Z</time>
      </trkpt>
      <trkpt lat="45.2813" lon="6.21184">
        <ele>1200.8</ele>
        <time>2020-02-09T15:01:25Z</time>
      </trkpt>
      <trkpt lat="45.28133" lon="6.21186">
        <ele>1200.4</ele>
        <time>2020-02-09T15:01:27Z</time>
      </trkpt>
      <trkpt lat="45.28136" lon="6.21189">
        <ele>1200</ele>
        <time>2020-02-09T15:01:29Z</time>
      </trkpt>
      <trkpt lat="45.2814" lon="6.21193">
        <ele>1199.6</ele>
        <time>2020-02-09T15:01:32Z</time>
      </trkpt>
      <trkpt lat="45.28143" lon="6.21197">
        <ele>1199.3</ele>
        <time>2020-02-09T15:01:36Z</time>
      </trkpt>
      <trkpt lat="45.28146" lon="6.21197">
        <ele>1199</ele>
        <time>2020-02-09T15:01:39Z</time>
      </trkpt>
      <trkpt lat="45.28149" lon="6.212">
        <ele>1198.6</ele>
        <time>2020-02-09T15:01:42Z</time>
      </trkpt>
      <trkpt lat="45.28152" lon="6.21202">
        <ele>1198.3</ele>
        <time>2020-02-09T15:01:44Z</time>
      </trkpt>
      <trkpt lat="45.28155" lon="6.21205">
        <ele>1198</ele>
        <time>2020-02-09T15:01:46Z</time>
      </trkpt>
      <trkpt lat="45.28158" lon="6.21206">
        <ele>1197.7</ele>
        <time>2020-02-09T15:01:48Z</time>
      </trkpt>
      <trkpt lat="45.28161" lon="6.21205">
        <ele>1197.4</ele>
        <time>2020-02-09T15:01:50Z</time>
      </trkpt>
      <trkpt lat="45.28163" lon="6.212">
        <ele>1197.5</ele>
        <time>2020-02-09T15:01:54Z</time>
      </trkpt>
      <trkpt lat="45.28163" lon="6.21196">
        <ele>1197.5</ele>
        <time>2020-02-09T15:01:57Z</time>
      </trkpt>
      <trkpt lat="45.28164" lon="6.21189">
        <ele>1197.5</ele>
        <time>2020-02-09T15:02:00Z</time>
      </trkpt>
      <trkpt lat="45.28166" lon="6.21184">
        <ele>1197.6</ele>
        <time>2020-02-09T15:02:02Z</time>
      </trkpt>
      <trkpt lat="45.28166" lon="6.2118">
        <ele>1197.6</ele>
        <time>2020-02-09T15:02:04Z</time>
      </trkpt>
      <trkpt lat="45.28166" lon="6.21176">
        <ele>1197.6</ele>
        <time>2020-02-09T15:02:06Z</time>
      </trkpt>
      <trkpt lat="45.28167" lon="6.2117">
        <ele>1197.7</ele>
        <time>2020-02-09T15:02:09Z</time>
      </trkpt>
      <trkpt lat="45.28167" lon="6.21164">
        <ele>1198</ele>
        <time>2020-02-09T15:02:12Z</time>
      </trkpt>
      <trkpt lat="45.28167" lon="6.2116">
        <ele>1198.1</ele>
        <time>2020-02-09T15:02:14Z</time>
      </trkpt>
      <trkpt lat="45.28167" lon="6.21156">
        <ele>1198.3</ele>
        <time>2020-02-09T15:02:16Z</time>
      </trkpt>
      <trkpt lat="45.28169" lon="6.21151">
        <ele>1198.6</ele>
        <time>2020-02-09T15:02:18Z</time>
      </trkpt>
      <trkpt lat="45.28169" lon="6.21146">
        <ele>1198.8</ele>
        <time>2020-02-09T15:02:21Z</time>
      </trkpt>
      <trkpt lat="45.2817" lon="6.21141">
        <ele>1199</ele>
        <time>2020-02-09T15:02:25Z</time>
      </trkpt>
      <trkpt lat="45.28171" lon="6.21136">
        <ele>1199.4</ele>
        <time>2020-02-09T15:02:27Z</time>
      </trkpt>
      <trkpt lat="45.28173" lon="6.21133">
        <ele>1199.7</ele>
        <time>2020-02-09T15:02:30Z</time>
      </trkpt>
      <trkpt lat="45.28175" lon="6.21128">
        <ele>1200.1</ele>
        <time>2020-02-09T15:02:33Z</time>
      </trkpt>
      <trkpt lat="45.28177" lon="6.21124">
        <ele>1200.5</ele>
        <time>2020-02-09T15:02:36Z</time>
      </trkpt>
      <trkpt lat="45.28179" lon="6.21122">
        <ele>1200.8</ele>
        <time>2020-02-09T15:02:38Z</time>
      </trkpt>
      <trkpt lat="45.28183" lon="6.21122">
        <ele>1201.3</ele>
        <time>2020-02-09T15:02:41Z</time>
      </trkpt>
      <trkpt lat="45.28187" lon="6.21122">
        <ele>1201.8</ele>
        <time>2020-02-09T15:02:45Z</time>
      </trkpt>
      <trkpt lat="45.28191" lon="6.21123">
        <ele>1202.4</ele>
        <time>2020-02-09T15:02:49Z</time>
      </trkpt>
      <trkpt lat="45.28194" lon="6.21123">
        <ele>1202.9</ele>
        <time>2020-02-09T15:02:52Z</time>
      </trkpt>
      <trkpt lat="45.28197" lon="6.21123">
        <ele>1203.3</ele>
        <time>2020-02-09T15:02:54Z</time>
      </trkpt>
      <trkpt lat="45.28201" lon="6.21123">
        <ele>1203.6</ele>
        <time>2020-02-09T15:02:56Z</time>
      </trkpt>
      <trkpt lat="45.28204" lon="6.21123">
        <ele>1204</ele>
        <time>2020-02-09T15:02:59Z</time>
      </trkpt>
      <trkpt lat="45.28208" lon="6.21124">
        <ele>1204.4</ele>
        <time>2020-02-09T15:03:02Z</time>
      </trkpt>
      <trkpt lat="45.28212" lon="6.21122">
        <ele>1204.8</ele>
        <time>2020-02-09T15:03:04Z</time>
      </trkpt>
      <trkpt lat="45.28215" lon="6.2112">
        <ele>1205.1</ele>
        <time>2020-02-09T15:03:07Z</time>
      </trkpt>
      <trkpt lat="45.28218" lon="6.21118">
        <ele>1205.4</ele>
        <time>2020-02-09T15:03:09Z</time>
      </trkpt>
      <trkpt lat="45.28221" lon="6.21117">
        <ele>1205.7</ele>
        <time>2020-02-09T15:03:14Z</time>
      </trkpt>
      <trkpt lat="45.2822" lon="6.21112">
        <ele>1206</ele>
        <time>2020-02-09T15:03:18Z</time>
      </trkpt>
      <trkpt lat="45.28221" lon="6.21109">
        <ele>1206.2</ele>
        <time>2020-02-09T15:03:19Z</time>
      </trkpt>
      <trkpt lat="45.28223" lon="6.21104">
        <ele>1206.6</ele>
        <time>2020-02-09T15:03:22Z</time>
      </trkpt>
      <trkpt lat="45.28225" lon="6.21099">
        <ele>1206.9</ele>
        <time>2020-02-09T15:03:24Z</time>
      </trkpt>
      <trkpt lat="45.28226" lon="6.21096">
        <ele>1207.1</ele>
        <time>2020-02-09T15:03:26Z</time>
      </trkpt>
      <trkpt lat="45.28227" lon="6.21092">
        <ele>1207.3</ele>
        <time>2020-02-09T15:03:28Z</time>
      </trkpt>
      <trkpt lat="45.28229" lon="6.21087">
        <ele>1207.5</ele>
        <time>2020-02-09T15:03:30Z</time>
      </trkpt>
      <trkpt lat="45.2823" lon="6.21083">
        <ele>1207.7</ele>
        <time>2020-02-09T15:03:32Z</time>
      </trkpt>
      <trkpt lat="45.28232" lon="6.2108">
        <ele>1207.9</ele>
        <time>2020-02-09T15:03:36Z</time>
      </trkpt>
      <trkpt lat="45.28234" lon="6.21077">
        <ele>1208.1</ele>
        <time>2020-02-09T15:03:39Z</time>
      </trkpt>
      <trkpt lat="45.28236" lon="6.21073">
        <ele>1208.3</ele>
        <time>2020-02-09T15:03:42Z</time>
      </trkpt>
      <trkpt lat="45.28237" lon="6.21068">
        <ele>1208.4</ele>
        <time>2020-02-09T15:03:45Z</time>
      </trkpt>
      <trkpt lat="45.2824" lon="6.21064">
        <ele>1208.7</ele>
        <time>2020-02-09T15:03:49Z</time>
      </trkpt>
      <trkpt lat="45.28242" lon="6.21061">
        <ele>1208.8</ele>
        <time>2020-02-09T15:03:52Z</time>
      </trkpt>
      <trkpt lat="45.28244" lon="6.21058">
        <ele>1209</ele>
        <time>2020-02-09T15:03:56Z</time>
      </trkpt>
      <trkpt lat="45.28247" lon="6.21055">
        <ele>1209.2</ele>
        <time>2020-02-09T15:03:58Z</time>
      </trkpt>
      <trkpt lat="45.28249" lon="6.21051">
        <ele>1209.4</ele>
        <time>2020-02-09T15:04:01Z</time>
      </trkpt>
      <trkpt lat="45.2825" lon="6.21046">
        <ele>1209.7</ele>
        <time>2020-02-09T15:04:04Z</time>
      </trkpt>
      <trkpt lat="45.28251" lon="6.21041">
        <ele>1210.1</ele>
        <time>2020-02-09T15:04:07Z</time>
      </trkpt>
      <trkpt lat="45.28252" lon="6.21035">
        <ele>1210.3</ele>
        <time>2020-02-09T15:04:10Z</time>
      </trkpt>
      <trkpt lat="45.28252" lon="6.21031">
        <ele>1210.5</ele>
        <time>2020-02-09T15:04:14Z</time>
      </trkpt>
      <trkpt lat="45.28252" lon="6.21026">
        <ele>1210.7</ele>
        <time>2020-02-09T15:04:17Z</time>
      </trkpt>
      <trkpt lat="45.28252" lon="6.21021">
        <ele>1211</ele>
        <time>2020-02-09T15:04:20Z</time>
      </trkpt>
      <trkpt lat="45.28252" lon="6.21015">
        <ele>1211.2</ele>
        <time>2020-02-09T15:04:24Z</time>
      </trkpt>
      <trkpt lat="45.28254" lon="6.21013">
        <ele>1211.4</ele>
        <time>2020-02-09T15:04:26Z</time>
      </trkpt>
      <trkpt lat="45.28255" lon="6.21009">
        <ele>1211.7</ele>
        <time>2020-02-09T15:04:29Z</time>
      </trkpt>
      <trkpt lat="45.28257" lon="6.21005">
        <ele>1211.9</ele>
        <time>2020-02-09T15:04:32Z</time>
      </trkpt>
      <trkpt lat="45.28258" lon="6.20999">
        <ele>1212.3</ele>
        <time>2020-02-09T15:04:34Z</time>
      </trkpt>
      <trkpt lat="45.28262" lon="6.20997">
        <ele>1212.6</ele>
        <time>2020-02-09T15:04:37Z</time>
      </trkpt>
      <trkpt lat="45.28264" lon="6.20994">
        <ele>1212.7</ele>
        <time>2020-02-09T15:04:40Z</time>
      </trkpt>
      <trkpt lat="45.28267" lon="6.20992">
        <ele>1212.8</ele>
        <time>2020-02-09T15:04:43Z</time>
      </trkpt>
      <trkpt lat="45.2827" lon="6.2099">
        <ele>1212.9</ele>
        <time>2020-02-09T15:04:46Z</time>
      </trkpt>
      <trkpt lat="45.28275" lon="6.20992">
        <ele>1213</ele>
        <time>2020-02-09T15:04:49Z</time>
      </trkpt>
      <trkpt lat="45.28278" lon="6.20992">
        <ele>1213.1</ele>
        <time>2020-02-09T15:04:51Z</time>
      </trkpt>
      <trkpt lat="45.28281" lon="6.20993">
        <ele>1213.2</ele>
        <time>2020-02-09T15:04:54Z</time>
      </trkpt>
      <trkpt lat="45.28284" lon="6.20995">
        <ele>1213.1</ele>
        <time>2020-02-09T15:04:55Z</time>
      </trkpt>
      <trkpt lat="45.28287" lon="6.20995">
        <ele>1213</ele>
        <time>2020-02-09T15:04:58Z</time>
      </trkpt>
      <trkpt lat="45.28292" lon="6.20996">
        <ele>1212.9</ele>
        <time>2020-02-09T15:05:01Z</time>
      </trkpt>
      <trkpt lat="45.28294" lon="6.20998">
        <ele>1213.1</ele>
        <time>2020-02-09T15:05:05Z</time>
      </trkpt>
      <trkpt lat="45.28298" lon="6.21002">
        <ele>1213.1</ele>
        <time>2020-02-09T15:05:08Z</time>
      </trkpt>
      <trkpt lat="45.283" lon="6.21005">
        <ele>1213.1</ele>
        <time>2020-02-09T15:05:12Z</time>
      </trkpt>
      <trkpt lat="45.28303" lon="6.21008">
        <ele>1213.2</ele>
        <time>2020-02-09T15:05:16Z</time>
      </trkpt>
      <trkpt lat="45.28306" lon="6.2101">
        <ele>1213.2</ele>
        <time>2020-02-09T15:05:20Z</time>
      </trkpt>
      <trkpt lat="45.28309" lon="6.21012">
        <ele>1213.2</ele>
        <time>2020-02-09T15:05:23Z</time>
      </trkpt>
      <trkpt lat="45.28312" lon="6.21013">
        <ele>1213.2</ele>
        <time>2020-02-09T15:05:26Z</time>
      </trkpt>
      <trkpt lat="45.28316" lon="6.21017">
        <ele>1213.3</ele>
        <time>2020-02-09T15:05:29Z</time>
      </trkpt>
      <trkpt lat="45.28319" lon="6.21018">
        <ele>1213.3</ele>
        <time>2020-02-09T15:05:32Z</time>
      </trkpt>
      <trkpt lat="45.28322" lon="6.2102">
        <ele>1213.3</ele>
        <time>2020-02-09T15:05:35Z</time>
      </trkpt>
      <trkpt lat="45.28326" lon="6.21019">
        <ele>1213.4</ele>
        <time>2020-02-09T15:05:37Z</time>
      </trkpt>
      <trkpt lat="45.28328" lon="6.21019">
        <ele>1213.4</ele>
        <time>2020-02-09T15:05:39Z</time>
      </trkpt>
      <trkpt lat="45.28332" lon="6.2102">
        <ele>1213.4</ele>
        <time>2020-02-09T15:05:44Z</time>
      </trkpt>
      <trkpt lat="45.28336" lon="6.21019">
        <ele>1213.4</ele>
        <time>2020-02-09T15:05:48Z</time>
      </trkpt>
      <trkpt lat="45.28333" lon="6.21019">
        <ele>1213.5</ele>
        <time>2020-02-09T15:05:53Z</time>
      </trkpt>
      <trkpt lat="45.28334" lon="6.21015">
        <ele>1213.5</ele>
        <time>2020-02-09T15:06:47Z</time>
      </trkpt>
      <trkpt lat="45.28332" lon="6.21018">
        <ele>1213.5</ele>
        <time>2020-02-09T15:07:04Z</time>
      </trkpt>
      <trkpt lat="45.28335" lon="6.21017">
        <ele>1213.5</ele>
        <time>2020-02-09T15:07:27Z</time>
      </trkpt>
      <trkpt lat="45.28332" lon="6.2102">
        <ele>1213.6</ele>
        <time>2020-02-09T15:08:17Z</time>
      </trkpt>
      <trkpt lat="45.28334" lon="6.21018">
        <ele>1213.6</ele>
        <time>2020-02-09T15:08:26Z</time>
      </trkpt>
      <trkpt lat="45.28332" lon="6.21021">
        <ele>1213.6</ele>
        <time>2020-02-09T15:08:51Z</time>
      </trkpt>
      <trkpt lat="45.28332" lon="6.21016">
        <ele>1213.6</ele>
        <time>2020-02-09T15:09:04Z</time>
      </trkpt>
      <trkpt lat="45.28334" lon="6.21014">
        <ele>1213.6</ele>
        <time>2020-02-09T15:09:06Z</time>
      </trkpt>
      <trkpt lat="45.28335" lon="6.21017">
        <ele>1213.6</ele>
        <time>2020-02-09T15:09:17Z</time>
      </trkpt>
      <trkpt lat="45.28335" lon="6.21021">
        <ele>1213.7</ele>
        <time>2020-02-09T15:09:32Z</time>
      </trkpt>
      <trkpt lat="45.28338" lon="6.21019">
        <ele>1213.7</ele>
        <time>2020-02-09T15:09:40Z</time>
      </trkpt>
      <trkpt lat="45.28336" lon="6.21015">
        <ele>1213.7</ele>
        <time>2020-02-09T15:09:46Z</time>
      </trkpt>
      <trkpt lat="45.28336" lon="6.21019">
        <ele>1213.7</ele>
        <time>2020-02-09T15:10:22Z</time>
      </trkpt>
      <trkpt lat="45.2834" lon="6.21021">
        <ele>1213.7</ele>
        <time>2020-02-09T15:10:54Z</time>
      </trkpt>
      <trkpt lat="45.28343" lon="6.21022">
        <ele>1213.7</ele>
        <time>2020-02-09T15:10:56Z</time>
      </trkpt>
      <trkpt lat="45.28347" lon="6.21024">
        <ele>1213.8</ele>
        <time>2020-02-09T15:10:58Z</time>
      </trkpt>
      <trkpt lat="45.28349" lon="6.21026">
        <ele>1213.8</ele>
        <time>2020-02-09T15:11:00Z</time>
      </trkpt>
      <trkpt lat="45.28352" lon="6.21028">
        <ele>1213.8</ele>
        <time>2020-02-09T15:11:03Z</time>
      </trkpt>
      <trkpt lat="45.28354" lon="6.2103">
        <ele>1213.8</ele>
        <time>2020-02-09T15:11:05Z</time>
      </trkpt>
      <trkpt lat="45.28357" lon="6.21032">
        <ele>1213.8</ele>
        <time>2020-02-09T15:11:07Z</time>
      </trkpt>
      <trkpt lat="45.2836" lon="6.21034">
        <ele>1213.9</ele>
        <time>2020-02-09T15:11:10Z</time>
      </trkpt>
      <trkpt lat="45.28364" lon="6.21038">
        <ele>1214</ele>
        <time>2020-02-09T15:11:13Z</time>
      </trkpt>
      <trkpt lat="45.28367" lon="6.21038">
        <ele>1213.9</ele>
        <time>2020-02-09T15:11:15Z</time>
      </trkpt>
      <trkpt lat="45.28371" lon="6.21039">
        <ele>1213.8</ele>
        <time>2020-02-09T15:11:17Z</time>
      </trkpt>
      <trkpt lat="45.28374" lon="6.2104">
        <ele>1213.7</ele>
        <time>2020-02-09T15:11:19Z</time>
      </trkpt>
      <trkpt lat="45.28376" lon="6.21043">
        <ele>1213.6</ele>
        <time>2020-02-09T15:11:22Z</time>
      </trkpt>
      <trkpt lat="45.28379" lon="6.21043">
        <ele>1213.6</ele>
        <time>2020-02-09T15:11:24Z</time>
      </trkpt>
      <trkpt lat="45.28382" lon="6.21046">
        <ele>1213.5</ele>
        <time>2020-02-09T15:11:28Z</time>
      </trkpt>
      <trkpt lat="45.28386" lon="6.21048">
        <ele>1213.3</ele>
        <time>2020-02-09T15:11:30Z</time>
      </trkpt>
      <trkpt lat="45.28384" lon="6.21053">
        <ele>1213.2</ele>
        <time>2020-02-09T15:11:36Z</time>
      </trkpt>
      <trkpt lat="45.28387" lon="6.21053">
        <ele>1213.2</ele>
        <time>2020-02-09T15:11:47Z</time>
      </trkpt>
      <trkpt lat="45.28385" lon="6.21051">
        <ele>1213.1</ele>
        <time>2020-02-09T15:12:59Z</time>
      </trkpt>
      <trkpt lat="45.28387" lon="6.21053">
        <ele>1213</ele>
        <time>2020-02-09T15:13:34Z</time>
      </trkpt>
      <trkpt lat="45.28385" lon="6.21057">
        <ele>1212.9</ele>
        <time>2020-02-09T15:13:50Z</time>
      </trkpt>
      <trkpt lat="45.28382" lon="6.21059">
        <ele>1212.8</ele>
        <time>2020-02-09T15:13:56Z</time>
      </trkpt>
      <trkpt lat="45.28383" lon="6.21055">
        <ele>1212.8</ele>
        <time>2020-02-09T15:14:17Z</time>
      </trkpt>
    </trkseg>
  </trk>
</gpx>